<?xml version='1.0' encoding='UTF-8'?><gpx version="1.1" creator="JPX - https://github.com/jenetics/jpx" xmlns="http://www.topografix.com/GPX/1/1"><trk><trkseg><trkpt lat="44.28583585080332" lon="11.575678047916007"><ele>219.0</ele><time>2026-04-26T08:14:10Z</time></trkpt><trkpt lat="44.28576097665246" lon="11.57566514420792"><ele>219.0</ele><time>2026-04-26T08:14:12Z</time></trkpt><trkpt lat="44.28569425896974" lon="11.575674954609024"><ele>219.0</ele><time>2026-04-26T08:14:14Z</time></trkpt><trkpt lat="44.28561620488212" lon="11.575697190399156"><ele>219.0</ele><time>2026-04-26T08:14:16Z</time></trkpt><trkpt lat="44.28554242719871" lon="11.575717447528449"><ele>219.0</ele><time>2026-04-26T08:14:18Z</time></trkpt><trkpt lat="44.285471487109184" lon="11.575734667499614"><ele>219.0</ele><time>2026-04-26T08:14:42.001Z</time></trkpt><trkpt lat="44.28540829234919" lon="11.575736756004526"><ele>219.0</ele><time>2026-04-26T08:15:20.002Z</time></trkpt><trkpt lat="44.28534168858201" lon="11.575757107997871"><ele>219.66666666666666</ele><time>2026-04-26T08:16:16Z</time></trkpt><trkpt lat="44.28525943646389" lon="11.57574606769028"><ele>220.33333333333331</ele><time>2026-04-26T08:16:19Z</time></trkpt><trkpt lat="44.285185468439416" lon="11.575692321211717"><ele>221.0</ele><time>2026-04-26T08:16:21Z</time></trkpt><trkpt lat="44.28511842519231" lon="11.575647521737718"><ele>221.66666666666666</ele><time>2026-04-26T08:16:23Z</time></trkpt><trkpt lat="44.28506322868523" lon="11.57559977903035"><ele>222.33333333333331</ele><time>2026-04-26T08:16:25Z</time></trkpt><trkpt lat="44.284978782522764" lon="11.575576319511681"><ele>223.0</ele><time>2026-04-26T08:16:28Z</time></trkpt><trkpt lat="44.28491653152445" lon="11.57553840576585"><ele>223.0</ele><time>2026-04-26T08:16:32.001Z</time></trkpt><trkpt lat="44.28482885526153" lon="11.575481074268861"><ele>223.0</ele><time>2026-04-26T08:20:45.001Z</time></trkpt><trkpt lat="44.284732306532604" lon="11.575374955201761"><ele>223.0</ele><time>2026-04-26T08:20:47.001Z</time></trkpt><trkpt lat="44.28467496021932" lon="11.575325128764634"><ele>223.0</ele><time>2026-04-26T08:20:48.001Z</time></trkpt><trkpt lat="44.284550695529255" lon="11.575281484338518"><ele>223.0</ele><time>2026-04-26T08:20:50.001Z</time></trkpt><trkpt lat="44.284485771204004" lon="11.575264939316336"><ele>225.8</ele><time>2026-04-26T08:20:51.001Z</time></trkpt><trkpt lat="44.28436453475102" lon="11.575228638599103"><ele>228.60000000000002</ele><time>2026-04-26T08:20:53.001Z</time></trkpt><trkpt lat="44.28425148910059" lon="11.575196127775273"><ele>231.39999999999998</ele><time>2026-04-26T08:20:55.001Z</time></trkpt><trkpt lat="44.28418728470945" lon="11.575165845779356"><ele>234.2</ele><time>2026-04-26T08:20:56.001Z</time></trkpt><trkpt lat="44.28409461885446" lon="11.575087322756286"><ele>237.0</ele><time>2026-04-26T08:20:58.001Z</time></trkpt><trkpt lat="44.28401745642855" lon="11.574969679459869"><ele>237.0</ele><time>2026-04-26T08:21:00.001Z</time></trkpt><trkpt lat="44.283964469785225" lon="11.574912012233078"><ele>237.0</ele><time>2026-04-26T08:21:01.001Z</time></trkpt><trkpt lat="44.28387300527251" lon="11.574808894911044"><ele>237.0</ele><time>2026-04-26T08:21:03.001Z</time></trkpt><trkpt lat="44.28379565839004" lon="11.574686820204656"><ele>237.0</ele><time>2026-04-26T08:21:05.001Z</time></trkpt><trkpt lat="44.28369834307801" lon="11.574596444783902"><ele>237.0</ele><time>2026-04-26T08:21:07.001Z</time></trkpt><trkpt lat="44.283598989335005" lon="11.574521292846036"><ele>240.6</ele><time>2026-04-26T08:21:09.001Z</time></trkpt><trkpt lat="44.28350774298374" lon="11.57441236691982"><ele>244.2</ele><time>2026-04-26T08:21:11.002Z</time></trkpt><trkpt lat="44.28345647520075" lon="11.574353055840444"><ele>247.8</ele><time>2026-04-26T08:21:12.002Z</time></trkpt><trkpt lat="44.28335703512352" lon="11.574257853568751"><ele>251.4</ele><time>2026-04-26T08:21:14.002Z</time></trkpt><trkpt lat="44.28325921601571" lon="11.574203499862914"><ele>255.0</ele><time>2026-04-26T08:21:16.002Z</time></trkpt><trkpt lat="44.28314249910443" lon="11.57418324315248"><ele>256.1666666666667</ele><time>2026-04-26T08:21:18.002Z</time></trkpt><trkpt lat="44.283030265275386" lon="11.574189874121211"><ele>257.3333333333333</ele><time>2026-04-26T08:21:20.002Z</time></trkpt><trkpt lat="44.282968179252116" lon="11.574164700319587"><ele>258.5</ele><time>2026-04-26T08:21:21.002Z</time></trkpt><trkpt lat="44.28290771554337" lon="11.574113801757802"><ele>259.66666666666663</ele><time>2026-04-26T08:21:22.002Z</time></trkpt><trkpt lat="44.28284145711251" lon="11.574058431691807"><ele>260.8333333333333</ele><time>2026-04-26T08:21:23.002Z</time></trkpt><trkpt lat="44.282773847967704" lon="11.57400963912356"><ele>262.0</ele><time>2026-04-26T08:21:24.002Z</time></trkpt><trkpt lat="44.282698519370285" lon="11.573947906883488"><ele>262.0</ele><time>2026-04-26T08:21:25.002Z</time></trkpt><trkpt lat="44.28263084519441" lon="11.573885595713797"><ele>262.0</ele><time>2026-04-26T08:21:26.002Z</time></trkpt><trkpt lat="44.28256436314596" lon="11.573824334028641"><ele>262.0</ele><time>2026-04-26T08:21:27.002Z</time></trkpt><trkpt lat="44.28248825126195" lon="11.57375490951229"><ele>262.0</ele><time>2026-04-26T08:21:28.002Z</time></trkpt><trkpt lat="44.28241615958534" lon="11.573696988627994"><ele>262.0</ele><time>2026-04-26T08:21:29.002Z</time></trkpt><trkpt lat="44.28235096331055" lon="11.57364925033206"><ele>262.0</ele><time>2026-04-26T08:21:30.002Z</time></trkpt><trkpt lat="44.282290560996486" lon="11.573606577916273"><ele>264.16666666666663</ele><time>2026-04-26T08:21:31.002Z</time></trkpt><trkpt lat="44.28222195534475" lon="11.573553723518664"><ele>266.3333333333333</ele><time>2026-04-26T08:21:32.002Z</time></trkpt><trkpt lat="44.28216453649502" lon="11.573507074465775"><ele>268.5</ele><time>2026-04-26T08:21:33.002Z</time></trkpt><trkpt lat="44.28205668625538" lon="11.573458513575911"><ele>270.6666666666667</ele><time>2026-04-26T08:21:35.002Z</time></trkpt><trkpt lat="44.28196213815365" lon="11.57344750906898"><ele>272.83333333333337</ele><time>2026-04-26T08:21:37.002Z</time></trkpt><trkpt lat="44.281889701885746" lon="11.573466969536856"><ele>275.0</ele><time>2026-04-26T08:21:39.002Z</time></trkpt><trkpt lat="44.281841141499385" lon="11.573530971325836"><ele>275.0</ele><time>2026-04-26T08:22:15.998Z</time></trkpt><trkpt lat="44.28176069442296" lon="11.573564186282782"><ele>275.0</ele><time>2026-04-26T08:22:17.998Z</time></trkpt><trkpt lat="44.28168118081033" lon="11.573603915504824"><ele>275.0</ele><time>2026-04-26T08:22:19.999Z</time></trkpt><trkpt lat="44.281608152496865" lon="11.573631417129297"><ele>275.0</ele><time>2026-04-26T08:22:22.999Z</time></trkpt><trkpt lat="44.281504082690375" lon="11.573626837219008"><ele>275.0</ele><time>2026-04-26T08:22:36Z</time></trkpt><trkpt lat="44.281440093186255" lon="11.573608125653262"><ele>275.0</ele><time>2026-04-26T08:22:37Z</time></trkpt><trkpt lat="44.281316681510546" lon="11.57355814013566"><ele>276.1666666666667</ele><time>2026-04-26T08:22:39Z</time></trkpt><trkpt lat="44.281189558300376" lon="11.573529621304699"><ele>277.33333333333337</ele><time>2026-04-26T08:22:41Z</time></trkpt><trkpt lat="44.28112312593209" lon="11.573537007762221"><ele>278.5</ele><time>2026-04-26T08:22:43Z</time></trkpt><trkpt lat="44.28107533903251" lon="11.573599745982214"><ele>279.6666666666667</ele><time>2026-04-26T08:22:45Z</time></trkpt><trkpt lat="44.28101242568437" lon="11.573683193408591"><ele>280.8333333333333</ele><time>2026-04-26T08:22:47Z</time></trkpt><trkpt lat="44.28095541357518" lon="11.573756895538635"><ele>282.0</ele><time>2026-04-26T08:22:49.001Z</time></trkpt><trkpt lat="44.28090759577448" lon="11.573838493033788"><ele>282.14285714285717</ele><time>2026-04-26T08:22:51.001Z</time></trkpt><trkpt lat="44.28087046741431" lon="11.573928605687653"><ele>282.2857142857143</ele><time>2026-04-26T08:22:53.001Z</time></trkpt><trkpt lat="44.28086346286316" lon="11.574036907623418"><ele>282.42857142857144</ele><time>2026-04-26T08:23:37.002Z</time></trkpt><trkpt lat="44.28086374879418" lon="11.574157833220285"><ele>282.57142857142856</ele><time>2026-04-26T08:23:40.002Z</time></trkpt><trkpt lat="44.28086822740486" lon="11.574253958411175"><ele>282.7142857142857</ele><time>2026-04-26T08:23:43.002Z</time></trkpt><trkpt lat="44.28087161006435" lon="11.574362855761525"><ele>282.8571428571429</ele><time>2026-04-26T08:23:47.002Z</time></trkpt><trkpt lat="44.2808699867034" lon="11.574451607334256"><ele>283.0</ele><time>2026-04-26T08:23:51.003Z</time></trkpt><trkpt lat="44.28086344493248" lon="11.574543162367423"><ele>282.42857142857144</ele><time>2026-04-26T08:24:01.003Z</time></trkpt><trkpt lat="44.280868263565566" lon="11.574643263263926"><ele>281.8571428571429</ele><time>2026-04-26T08:24:04.003Z</time></trkpt><trkpt lat="44.280878337918814" lon="11.574744252318704"><ele>281.2857142857143</ele><time>2026-04-26T08:24:08.003Z</time></trkpt><trkpt lat="44.28088023157002" lon="11.574836499598613"><ele>280.7142857142857</ele><time>2026-04-26T08:24:11.003Z</time></trkpt><trkpt lat="44.28089042918092" lon="11.574942882959867"><ele>280.1428571428571</ele><time>2026-04-26T08:24:15.003Z</time></trkpt><trkpt lat="44.28089787270006" lon="11.575050866572838"><ele>279.57142857142856</ele><time>2026-04-26T08:24:18.999Z</time></trkpt><trkpt lat="44.2809050349572" lon="11.57515690077256"><ele>279.0</ele><time>2026-04-26T08:24:21.999Z</time></trkpt><trkpt lat="44.2809117351814" lon="11.57524857529216"><ele>278.99999999999994</ele><time>2026-04-26T08:24:24.999Z</time></trkpt><trkpt lat="44.28090165617455" lon="11.575339056243536"><ele>279.0</ele><time>2026-04-26T08:24:27.999Z</time></trkpt><trkpt lat="44.28088104180944" lon="11.57543488397304"><ele>279.0</ele><time>2026-04-26T08:24:30.999Z</time></trkpt><trkpt lat="44.28083592010417" lon="11.57553321065727"><ele>279.0</ele><time>2026-04-26T08:24:35Z</time></trkpt><trkpt lat="44.28077641714035" lon="11.575611590787817"><ele>279.0</ele><time>2026-04-26T08:24:39Z</time></trkpt><trkpt lat="44.280727066359844" lon="11.575678056222591"><ele>278.99999999999994</ele><time>2026-04-26T08:24:42Z</time></trkpt><trkpt lat="44.2806695798492" lon="11.575738218210127"><ele>279.0</ele><time>2026-04-26T08:24:45Z</time></trkpt><trkpt lat="44.28062033206395" lon="11.575810721827777"><ele>276.2857142857143</ele><time>2026-04-26T08:24:48Z</time></trkpt><trkpt lat="44.28058152168554" lon="11.575886846093212"><ele>273.57142857142856</ele><time>2026-04-26T08:24:50Z</time></trkpt><trkpt lat="44.280546225506704" lon="11.575968379650538"><ele>270.8571428571429</ele><time>2026-04-26T08:24:52Z</time></trkpt><trkpt lat="44.28051631185357" lon="11.576063260013504"><ele>268.1428571428571</ele><time>2026-04-26T08:24:54.001Z</time></trkpt><trkpt lat="44.28050422918864" lon="11.576177076353082"><ele>265.42857142857144</ele><time>2026-04-26T08:24:57.001Z</time></trkpt><trkpt lat="44.28048743634962" lon="11.576282220390587"><ele>262.7142857142857</ele><time>2026-04-26T08:24:58.001Z</time></trkpt><trkpt lat="44.28047302936102" lon="11.576379641338784"><ele>260.0</ele><time>2026-04-26T08:25:00.001Z</time></trkpt><trkpt lat="44.280463941169444" lon="11.576469415965994"><ele>259.33333333333337</ele><time>2026-04-26T08:25:02.001Z</time></trkpt><trkpt lat="44.280451833032856" lon="11.57658593622452"><ele>258.6666666666667</ele><time>2026-04-26T08:25:04.001Z</time></trkpt><trkpt lat="44.280438495580874" lon="11.576683311023384"><ele>258.0</ele><time>2026-04-26T08:25:07.001Z</time></trkpt><trkpt lat="44.280449380048985" lon="11.57684383765212"><ele>257.3333333333333</ele><time>2026-04-26T08:25:09.001Z</time></trkpt><trkpt lat="44.280445412148026" lon="11.576937492922099"><ele>256.66666666666663</ele><time>2026-04-26T08:25:11.001Z</time></trkpt><trkpt lat="44.28045939971053" lon="11.57703418096512"><ele>256.0</ele><time>2026-04-26T08:25:13.001Z</time></trkpt><trkpt lat="44.28049653747277" lon="11.57713699518537"><ele>255.66666666666666</ele><time>2026-04-26T08:25:15.001Z</time></trkpt><trkpt lat="44.28054640485109" lon="11.577226032189618"><ele>255.33333333333331</ele><time>2026-04-26T08:25:17.001Z</time></trkpt><trkpt lat="44.28059699189628" lon="11.577304147222907"><ele>255.0</ele><time>2026-04-26T08:25:19.001Z</time></trkpt><trkpt lat="44.28064430223262" lon="11.577394780970465"><ele>254.66666666666669</ele><time>2026-04-26T08:25:21.001Z</time></trkpt><trkpt lat="44.28067960656371" lon="11.57752530516075"><ele>254.33333333333334</ele><time>2026-04-26T08:25:23.002Z</time></trkpt><trkpt lat="44.28070424070247" lon="11.577626716261918"><ele>254.0</ele><time>2026-04-26T08:25:25.002Z</time></trkpt><trkpt lat="44.280736186678695" lon="11.577717328171307"><ele>253.66666666666669</ele><time>2026-04-26T08:25:27.002Z</time></trkpt><trkpt lat="44.28077973270151" lon="11.5778356869322"><ele>253.33333333333334</ele><time>2026-04-26T08:25:30.002Z</time></trkpt><trkpt lat="44.28084220729643" lon="11.577929193750055"><ele>253.0</ele><time>2026-04-26T08:25:32.002Z</time></trkpt><trkpt lat="44.2808980485873" lon="11.578012496989396"><ele>252.66666666666669</ele><time>2026-04-26T08:25:34.002Z</time></trkpt><trkpt lat="44.28095282755103" lon="11.578085627815403"><ele>252.33333333333334</ele><time>2026-04-26T08:25:36.002Z</time></trkpt><trkpt lat="44.28100207637714" lon="11.578158618366375"><ele>252.0</ele><time>2026-04-26T08:25:38.002Z</time></trkpt><trkpt lat="44.281081207521446" lon="11.578245804922433"><ele>251.83333333333334</ele><time>2026-04-26T08:25:40.002Z</time></trkpt><trkpt lat="44.28113815155225" lon="11.578311670076037"><ele>251.66666666666669</ele><time>2026-04-26T08:25:42.002Z</time></trkpt><trkpt lat="44.2811892240821" lon="11.578374868736867"><ele>251.5</ele><time>2026-04-26T08:25:44.002Z</time></trkpt><trkpt lat="44.281236953788515" lon="11.578442789045237"><ele>251.33333333333334</ele><time>2026-04-26T08:25:46.002Z</time></trkpt><trkpt lat="44.28131550934917" lon="11.5785197602573"><ele>251.16666666666669</ele><time>2026-04-26T08:25:48.002Z</time></trkpt><trkpt lat="44.28138971568626" lon="11.578586096559206"><ele>251.0</ele><time>2026-04-26T08:25:50.002Z</time></trkpt><trkpt lat="44.28145765986699" lon="11.57865341277468"><ele>250.4285714285714</ele><time>2026-04-26T08:25:52.002Z</time></trkpt><trkpt lat="44.28150298576884" lon="11.578720660899014"><ele>249.85714285714283</ele><time>2026-04-26T08:25:54.002Z</time></trkpt><trkpt lat="44.28155922576966" lon="11.57881482310357"><ele>249.28571428571428</ele><time>2026-04-26T08:25:57.003Z</time></trkpt><trkpt lat="44.281597309024676" lon="11.578892491382108"><ele>248.7142857142857</ele><time>2026-04-26T08:25:59.003Z</time></trkpt><trkpt lat="44.281630172123904" lon="11.578975428146762"><ele>248.1428571428571</ele><time>2026-04-26T08:26:01.003Z</time></trkpt><trkpt lat="44.281670588955386" lon="11.579054129427394"><ele>247.57142857142858</ele><time>2026-04-26T08:26:03.003Z</time></trkpt><trkpt lat="44.28160720223425" lon="11.579106915831886"><ele>247.0</ele><time>2026-04-26T08:29:10.001Z</time></trkpt><trkpt lat="44.28152950837752" lon="11.579120946901572"><ele>247.0</ele><time>2026-04-26T08:29:11.001Z</time></trkpt><trkpt lat="44.2816899910839" lon="11.579082017523023"><ele>247.0</ele><time>2026-04-26T08:29:13.001Z</time></trkpt><trkpt lat="44.28172729919857" lon="11.579195354317319"><ele>247.0</ele><time>2026-04-26T08:29:41.002Z</time></trkpt><trkpt lat="44.28176280688475" lon="11.579270532728662"><ele>247.0</ele><time>2026-04-26T08:29:44.002Z</time></trkpt><trkpt lat="44.28179872200345" lon="11.579345026004695"><ele>247.0</ele><time>2026-04-26T08:29:48.002Z</time></trkpt><trkpt lat="44.28185122179976" lon="11.579437721960105"><ele>245.42857142857144</ele><time>2026-04-26T08:29:51.002Z</time></trkpt><trkpt lat="44.28191978727639" lon="11.579526460422437"><ele>243.85714285714283</ele><time>2026-04-26T08:29:54.002Z</time></trkpt><trkpt lat="44.28196437776492" lon="11.579612765028129"><ele>242.28571428571428</ele><time>2026-04-26T08:29:58.002Z</time></trkpt><trkpt lat="44.28199434909016" lon="11.579702000285161"><ele>240.71428571428572</ele><time>2026-04-26T08:30:02.002Z</time></trkpt><trkpt lat="44.28204869547188" lon="11.579776714438994"><ele>239.14285714285717</ele><time>2026-04-26T08:30:06.003Z</time></trkpt><trkpt lat="44.282107357151695" lon="11.579809338940498"><ele>237.57142857142856</ele><time>2026-04-26T08:31:54.002Z</time></trkpt><trkpt lat="44.28215199318917" lon="11.579877268587202"><ele>236.0</ele><time>2026-04-26T08:31:59.002Z</time></trkpt><trkpt lat="44.282200577154036" lon="11.579936904807186"><ele>236.0</ele><time>2026-04-26T08:32:03.002Z</time></trkpt><trkpt lat="44.282232589437186" lon="11.580050984294465"><ele>236.0</ele><time>2026-04-26T08:34:57Z</time></trkpt><trkpt lat="44.2822459611139" lon="11.580148726627272"><ele>236.0</ele><time>2026-04-26T08:35:20.001Z</time></trkpt><trkpt lat="44.282247606768266" lon="11.580242361251877"><ele>236.0</ele><time>2026-04-26T08:35:30.001Z</time></trkpt><trkpt lat="44.2822306617038" lon="11.580344519762592"><ele>236.0</ele><time>2026-04-26T08:35:37.001Z</time></trkpt><trkpt lat="44.28223476237221" lon="11.580440402080294"><ele>236.0</ele><time>2026-04-26T08:35:45.001Z</time></trkpt><trkpt lat="44.28224563246576" lon="11.580543619247923"><ele>236.0</ele><time>2026-04-26T08:35:52.001Z</time></trkpt><trkpt lat="44.28224817824873" lon="11.580638616959723"><ele>233.33333333333334</ele><time>2026-04-26T08:35:57.001Z</time></trkpt><trkpt lat="44.28224743821905" lon="11.580744212989865"><ele>230.66666666666669</ele><time>2026-04-26T08:36:01.002Z</time></trkpt><trkpt lat="44.282257350485644" lon="11.580836900747599"><ele>228.0</ele><time>2026-04-26T08:36:12.002Z</time></trkpt><trkpt lat="44.28226499094427" lon="11.580955513970428"><ele>225.33333333333331</ele><time>2026-04-26T08:36:15.002Z</time></trkpt><trkpt lat="44.282253058582846" lon="11.581067838608751"><ele>222.66666666666666</ele><time>2026-04-26T08:36:18.002Z</time></trkpt><trkpt lat="44.28224498418846" lon="11.581182506668704"><ele>220.0</ele><time>2026-04-26T08:36:21.002Z</time></trkpt><trkpt lat="44.282222178552374" lon="11.581302970306494"><ele>216.83333333333331</ele><time>2026-04-26T08:36:24.002Z</time></trkpt><trkpt lat="44.2821977943065" lon="11.581407454995844"><ele>213.66666666666666</ele><time>2026-04-26T08:36:26.002Z</time></trkpt><trkpt lat="44.28217877732443" lon="11.581517382091278"><ele>210.5</ele><time>2026-04-26T08:36:28.002Z</time></trkpt><trkpt lat="44.282164549170574" lon="11.581621393772554"><ele>207.33333333333331</ele><time>2026-04-26T08:36:31.002Z</time></trkpt><trkpt lat="44.28217761092425" lon="11.581724374191117"><ele>204.16666666666666</ele><time>2026-04-26T08:36:35.002Z</time></trkpt><trkpt lat="44.282209408172015" lon="11.581831499441343"><ele>201.0</ele><time>2026-04-26T08:36:38.002Z</time></trkpt><trkpt lat="44.282230418021825" lon="11.581943609109885"><ele>200.0</ele><time>2026-04-26T08:36:41.002Z</time></trkpt><trkpt lat="44.282240278710134" lon="11.582040016266395"><ele>199.0</ele><time>2026-04-26T08:36:44.003Z</time></trkpt><trkpt lat="44.28225976794057" lon="11.582150099554175"><ele>198.0</ele><time>2026-04-26T08:36:48.003Z</time></trkpt><trkpt lat="44.28229029148351" lon="11.582262874359692"><ele>197.0</ele><time>2026-04-26T08:36:52.003Z</time></trkpt><trkpt lat="44.2823048514664" lon="11.582351855520455"><ele>196.0</ele><time>2026-04-26T08:36:54Z</time></trkpt><trkpt lat="44.28231015386816" lon="11.582472741356417"><ele>195.0</ele><time>2026-04-26T08:36:58Z</time></trkpt><trkpt lat="44.2823171364236" lon="11.582575051795025"><ele>195.0</ele><time>2026-04-26T08:37:01Z</time></trkpt><trkpt lat="44.28232902461427" lon="11.582664028562842"><ele>195.0</ele><time>2026-04-26T08:37:05Z</time></trkpt><trkpt lat="44.28234163828796" lon="11.582752953656607"><ele>195.0</ele><time>2026-04-26T08:37:11Z</time></trkpt><trkpt lat="44.28235354620817" lon="11.58284330017771"><ele>195.0</ele><time>2026-04-26T08:37:14Z</time></trkpt><trkpt lat="44.282384844486565" lon="11.582952582750416"><ele>195.0</ele><time>2026-04-26T08:37:17Z</time></trkpt><trkpt lat="44.282418106911535" lon="11.583128578574527"><ele>195.0</ele><time>2026-04-26T08:37:20Z</time></trkpt><trkpt lat="44.28246560572025" lon="11.583229627442087"><ele>194.42857142857142</ele><time>2026-04-26T08:37:23Z</time></trkpt><trkpt lat="44.28250589196386" lon="11.583303368020491"><ele>193.85714285714283</ele><time>2026-04-26T08:37:25.001Z</time></trkpt><trkpt lat="44.282544369865256" lon="11.583385744362719"><ele>193.28571428571428</ele><time>2026-04-26T08:37:27.001Z</time></trkpt><trkpt lat="44.28258378754477" lon="11.583481180906908"><ele>192.71428571428572</ele><time>2026-04-26T08:37:31.001Z</time></trkpt><trkpt lat="44.282611121172195" lon="11.583561319400292"><ele>192.14285714285714</ele><time>2026-04-26T08:37:43.001Z</time></trkpt><trkpt lat="44.28259522818437" lon="11.58366035565972"><ele>191.57142857142858</ele><time>2026-04-26T08:37:49.001Z</time></trkpt><trkpt lat="44.28255894032753" lon="11.583738191109937"><ele>191.0</ele><time>2026-04-26T08:37:53.001Z</time></trkpt><trkpt lat="44.28253758051967" lon="11.583847035715284"><ele>189.42857142857144</ele><time>2026-04-26T08:37:56.001Z</time></trkpt><trkpt lat="44.282514148591815" lon="11.583929499398172"><ele>187.85714285714283</ele><time>2026-04-26T08:37:59.001Z</time></trkpt><trkpt lat="44.28249144897656" lon="11.584015707173306"><ele>186.28571428571428</ele><time>2026-04-26T08:38:02.001Z</time></trkpt><trkpt lat="44.28247709013194" lon="11.584111307348389"><ele>184.71428571428572</ele><time>2026-04-26T08:38:07.001Z</time></trkpt><trkpt lat="44.282485271698995" lon="11.584200394687246"><ele>183.14285714285717</ele><time>2026-04-26T08:38:12.001Z</time></trkpt><trkpt lat="44.282522863013035" lon="11.584287514838897"><ele>181.57142857142856</ele><time>2026-04-26T08:38:26.002Z</time></trkpt><trkpt lat="44.282545856297865" lon="11.584376152208025"><ele>180.0</ele><time>2026-04-26T08:38:45.002Z</time></trkpt><trkpt lat="44.2825719112864" lon="11.584457061946349"><ele>177.85714285714286</ele><time>2026-04-26T08:39:22Z</time></trkpt><trkpt lat="44.282599352962634" lon="11.584537607835534"><ele>175.71428571428572</ele><time>2026-04-26T08:39:28.001Z</time></trkpt><trkpt lat="44.282574056374045" lon="11.584639272099189"><ele>173.57142857142858</ele><time>2026-04-26T08:44:05.001Z</time></trkpt><trkpt lat="44.28251683575524" lon="11.58470405378827"><ele>171.42857142857144</ele><time>2026-04-26T08:45:04.002Z</time></trkpt><trkpt lat="44.28247092449976" lon="11.584768267860568"><ele>169.28571428571428</ele><time>2026-04-26T08:45:24Z</time></trkpt><trkpt lat="44.28243104720249" lon="11.584861991563594"><ele>167.14285714285717</ele><time>2026-04-26T08:45:53.001Z</time></trkpt><trkpt lat="44.28239190067316" lon="11.584975305984521"><ele>165.0</ele><time>2026-04-26T08:45:57.001Z</time></trkpt><trkpt lat="44.28236351990011" lon="11.585061136754767"><ele>165.00000000000003</ele><time>2026-04-26T08:45:59.001Z</time></trkpt><trkpt lat="44.282321741452236" lon="11.585179821332174"><ele>165.0</ele><time>2026-04-26T08:46:02.001Z</time></trkpt><trkpt lat="44.28230012121302" lon="11.585265047853571"><ele>165.0</ele><time>2026-04-26T08:46:04.001Z</time></trkpt><trkpt lat="44.28228080288004" lon="11.585357166745455"><ele>165.0</ele><time>2026-04-26T08:46:07.001Z</time></trkpt><trkpt lat="44.282287894565385" lon="11.585447808836562"><ele>165.0</ele><time>2026-04-26T08:46:16.001Z</time></trkpt><trkpt lat="44.28229832609558" lon="11.585535269765137"><ele>165.00000000000003</ele><time>2026-04-26T08:46:21.001Z</time></trkpt><trkpt lat="44.28230121338867" lon="11.585649735874854"><ele>165.0</ele><time>2026-04-26T08:46:26.001Z</time></trkpt><trkpt lat="44.2822954535637" lon="11.585773553474418"><ele>163.5</ele><time>2026-04-26T08:46:28.001Z</time></trkpt><trkpt lat="44.282290590962134" lon="11.585892839503874"><ele>162.0</ele><time>2026-04-26T08:46:32.001Z</time></trkpt><trkpt lat="44.28228046536227" lon="11.585993733816338"><ele>160.5</ele><time>2026-04-26T08:46:35.001Z</time></trkpt><trkpt lat="44.28225565146878" lon="11.586121189884908"><ele>159.0</ele><time>2026-04-26T08:46:38.001Z</time></trkpt><trkpt lat="44.282244942545276" lon="11.586210242728677"><ele>157.5</ele><time>2026-04-26T08:46:41.001Z</time></trkpt><trkpt lat="44.28225203195816" lon="11.586325789050406"><ele>156.0</ele><time>2026-04-26T08:46:44.001Z</time></trkpt><trkpt lat="44.28227289949799" lon="11.58645526910547"><ele>154.33333333333334</ele><time>2026-04-26T08:46:46.001Z</time></trkpt><trkpt lat="44.282280862928566" lon="11.586554754822977"><ele>152.66666666666666</ele><time>2026-04-26T08:46:49.002Z</time></trkpt><trkpt lat="44.28224492080468" lon="11.586681198079884"><ele>151.0</ele><time>2026-04-26T08:46:53.002Z</time></trkpt><trkpt lat="44.28221387940658" lon="11.586796152218138"><ele>149.33333333333331</ele><time>2026-04-26T08:46:57.002Z</time></trkpt><trkpt lat="44.28220068525879" lon="11.58690548309186"><ele>147.66666666666666</ele><time>2026-04-26T08:47:00.002Z</time></trkpt><trkpt lat="44.282199644907934" lon="11.587008768470698"><ele>146.0</ele><time>2026-04-26T08:47:03.002Z</time></trkpt><trkpt lat="44.28219813698991" lon="11.587114053956098"><ele>144.57142857142856</ele><time>2026-04-26T08:47:13.002Z</time></trkpt><trkpt lat="44.28219443891181" lon="11.587207986943367"><ele>143.14285714285714</ele><time>2026-04-26T08:47:18.002Z</time></trkpt><trkpt lat="44.28214506275371" lon="11.58727151760715"><ele>141.71428571428572</ele><time>2026-04-26T08:47:27Z</time></trkpt><trkpt lat="44.28208216506896" lon="11.58727825399664"><ele>140.28571428571428</ele><time>2026-04-26T08:48:12.001Z</time></trkpt><trkpt lat="44.28201942141289" lon="11.587237771207134"><ele>138.85714285714286</ele><time>2026-04-26T08:48:19.001Z</time></trkpt><trkpt lat="44.282093716760116" lon="11.587294090781905"><ele>137.42857142857142</ele><time>2026-04-26T08:53:05.001Z</time></trkpt><trkpt lat="44.282031056191784" lon="11.587272030304105"><ele>136.0</ele><time>2026-04-26T08:53:12.002Z</time></trkpt><trkpt lat="44.282110245646685" lon="11.587280835103808"><ele>135.99999999999997</ele><time>2026-04-26T08:54:46.001Z</time></trkpt><trkpt lat="44.28209543436395" lon="11.587376201147661"><ele>136.0</ele><time>2026-04-26T08:54:56.001Z</time></trkpt><trkpt lat="44.282061724416494" lon="11.587461028215586"><ele>136.0</ele><time>2026-04-26T08:55:03.001Z</time></trkpt><trkpt lat="44.282062212184286" lon="11.587367184228805"><ele>136.0</ele><time>2026-04-26T08:57:23.001Z</time></trkpt><trkpt lat="44.282075058423295" lon="11.587454175968839"><ele>136.0</ele><time>2026-04-26T08:58:57.001Z</time></trkpt><trkpt lat="44.28207656374544" lon="11.587342871873835"><ele>135.99999999999997</ele><time>2026-04-26T09:06:06.002Z</time></trkpt><trkpt lat="44.28212316984723" lon="11.587255419883773"><ele>136.0</ele><time>2026-04-26T09:08:57Z</time></trkpt><trkpt lat="44.282056316843445" lon="11.58726814934969"><ele>135.99999999999997</ele><time>2026-04-26T09:09:28.001Z</time></trkpt><trkpt lat="44.281999807448656" lon="11.587221646088462"><ele>136.0</ele><time>2026-04-26T09:09:48.001Z</time></trkpt><trkpt lat="44.2819540890629" lon="11.587159537696966"><ele>136.0</ele><time>2026-04-26T09:10:08.001Z</time></trkpt><trkpt lat="44.28188924089901" lon="11.587120502101769"><ele>136.0</ele><time>2026-04-26T09:10:36Z</time></trkpt><trkpt lat="44.28182520265147" lon="11.587083227008716"><ele>136.0</ele><time>2026-04-26T09:11:01Z</time></trkpt><trkpt lat="44.281759596793506" lon="11.587040880263013"><ele>135.99999999999997</ele><time>2026-04-26T09:11:47.001Z</time></trkpt><trkpt lat="44.28169368931831" lon="11.587005758583626"><ele>136.0</ele><time>2026-04-26T09:12:11.001Z</time></trkpt><trkpt lat="44.28164014543252" lon="11.586955134933083"><ele>135.5</ele><time>2026-04-26T09:12:28.002Z</time></trkpt><trkpt lat="44.28156209233917" lon="11.586903108500234"><ele>135.0</ele><time>2026-04-26T09:13:12Z</time></trkpt><trkpt lat="44.28148737225761" lon="11.58686445786078"><ele>134.5</ele><time>2026-04-26T09:14:22.002Z</time></trkpt><trkpt lat="44.28139026527695" lon="11.586815272306229"><ele>134.0</ele><time>2026-04-26T09:16:15.002Z</time></trkpt><trkpt lat="44.28132996675617" lon="11.58677413565448"><ele>133.5</ele><time>2026-04-26T09:16:43.002Z</time></trkpt><trkpt lat="44.281283226235246" lon="11.586715011806488"><ele>133.0</ele><time>2026-04-26T09:17:39.001Z</time></trkpt><trkpt lat="44.281231833855" lon="11.586625795733621"><ele>129.66666666666669</ele><time>2026-04-26T09:17:43.001Z</time></trkpt><trkpt lat="44.28113593828985" lon="11.58658972129689"><ele>126.33333333333334</ele><time>2026-04-26T09:17:46.001Z</time></trkpt><trkpt lat="44.28104404329506" lon="11.586547296819248"><ele>123.0</ele><time>2026-04-26T09:17:48.001Z</time></trkpt><trkpt lat="44.280982627215856" lon="11.586523685808325"><ele>119.66666666666666</ele><time>2026-04-26T09:17:50.001Z</time></trkpt><trkpt lat="44.28090035740162" lon="11.586483715725139"><ele>116.33333333333333</ele><time>2026-04-26T09:17:53.001Z</time></trkpt><trkpt lat="44.280833451035036" lon="11.586448697234271"><ele>113.0</ele><time>2026-04-26T09:17:56.001Z</time></trkpt><trkpt lat="44.280746515214155" lon="11.586480806110838"><ele>113.0</ele><time>2026-04-26T09:28:35.001Z</time></trkpt><trkpt lat="44.280675166671344" lon="11.586589816478138"><ele>113.00000000000001</ele><time>2026-04-26T09:28:37.001Z</time></trkpt><trkpt lat="44.28062372168209" lon="11.58667659919373"><ele>113.00000000000001</ele><time>2026-04-26T09:28:39.001Z</time></trkpt><trkpt lat="44.28056559143435" lon="11.586811834273481"><ele>113.0</ele><time>2026-04-26T09:28:41.001Z</time></trkpt><trkpt lat="44.28051413083216" lon="11.586917900196763"><ele>113.0</ele><time>2026-04-26T09:28:43.001Z</time></trkpt><trkpt lat="44.28043454644942" lon="11.58701374738341"><ele>109.83333333333333</ele><time>2026-04-26T09:28:45.001Z</time></trkpt><trkpt lat="44.28035399260781" lon="11.587094613998596"><ele>106.66666666666666</ele><time>2026-04-26T09:28:47.001Z</time></trkpt><trkpt lat="44.28027424325228" lon="11.587126663519507"><ele>103.5</ele><time>2026-04-26T09:28:49.001Z</time></trkpt><trkpt lat="44.28021044229464" lon="11.587128806081031"><ele>100.33333333333333</ele><time>2026-04-26T09:28:51.001Z</time></trkpt><trkpt lat="44.2801840656096" lon="11.587247337134334"><ele>97.16666666666666</ele><time>2026-04-26T09:28:54.001Z</time></trkpt><trkpt lat="44.28019249526398" lon="11.587374666604603"><ele>94.0</ele><time>2026-04-26T09:28:56.001Z</time></trkpt><trkpt lat="44.28020919029534" lon="11.587489401507643"><ele>94.0</ele><time>2026-04-26T09:28:58.001Z</time></trkpt><trkpt lat="44.28021709795906" lon="11.587587834325182"><ele>94.0</ele><time>2026-04-26T09:29:00.001Z</time></trkpt><trkpt lat="44.28023017146444" lon="11.587683366801242"><ele>94.0</ele><time>2026-04-26T09:29:02.002Z</time></trkpt><trkpt lat="44.280247716749706" lon="11.587771274452583"><ele>94.0</ele><time>2026-04-26T09:29:04.002Z</time></trkpt><trkpt lat="44.280273343549695" lon="11.587872057666338"><ele>94.0</ele><time>2026-04-26T09:29:07.002Z</time></trkpt><trkpt lat="44.28027863692564" lon="11.58799593853816"><ele>94.0</ele><time>2026-04-26T09:29:11.002Z</time></trkpt><trkpt lat="44.280274626774485" lon="11.58811787968306"><ele>94.0</ele><time>2026-04-26T09:29:13.002Z</time></trkpt><trkpt lat="44.28017485559143" lon="11.58818365448627"><ele>94.0</ele><time>2026-04-26T09:29:15.002Z</time></trkpt><trkpt lat="44.28007851581174" lon="11.588193271960055"><ele>94.0</ele><time>2026-04-26T09:29:17.002Z</time></trkpt><trkpt lat="44.2800037631954" lon="11.588204132185755"><ele>94.0</ele><time>2026-04-26T09:29:18.002Z</time></trkpt><trkpt lat="44.27988229618136" lon="11.588195555437581"><ele>94.0</ele><time>2026-04-26T09:29:19.002Z</time></trkpt><trkpt lat="44.279717370850456" lon="11.588197580877061"><ele>94.0</ele><time>2026-04-26T09:29:20.002Z</time></trkpt><trkpt lat="44.27951252299466" lon="11.588217935905147"><ele>94.0</ele><time>2026-04-26T09:29:21.002Z</time></trkpt><trkpt lat="44.2793083081063" lon="11.588234796725256"><ele>94.0</ele><time>2026-04-26T09:29:22.002Z</time></trkpt><trkpt lat="44.279135018793" lon="11.588250415625405"><ele>94.0</ele><time>2026-04-26T09:29:23.002Z</time></trkpt><trkpt lat="44.27898197870228" lon="11.588285074546915"><ele>94.0</ele><time>2026-04-26T09:29:24Z</time></trkpt><trkpt lat="44.278839326769365" lon="11.58833706751389"><ele>94.0</ele><time>2026-04-26T09:29:25Z</time></trkpt><trkpt lat="44.278719941827" lon="11.588378398484188"><ele>94.0</ele><time>2026-04-26T09:29:26Z</time></trkpt><trkpt lat="44.27860637869593" lon="11.588406960897375"><ele>94.4</ele><time>2026-04-26T09:29:27Z</time></trkpt><trkpt lat="44.2784937545538" lon="11.588436269239928"><ele>94.80000000000001</ele><time>2026-04-26T09:29:28Z</time></trkpt><trkpt lat="44.27839290912107" lon="11.5884538948602"><ele>95.19999999999999</ele><time>2026-04-26T09:29:29Z</time></trkpt><trkpt lat="44.27828482790264" lon="11.58850357378804"><ele>95.6</ele><time>2026-04-26T09:29:30Z</time></trkpt><trkpt lat="44.2781856021292" lon="11.588514142307147"><ele>96.0</ele><time>2026-04-26T09:29:31Z</time></trkpt><trkpt lat="44.27804872881424" lon="11.588521461992121"><ele>96.5</ele><time>2026-04-26T09:29:32Z</time></trkpt><trkpt lat="44.27793189677993" lon="11.588517131674088"><ele>97.0</ele><time>2026-04-26T09:29:33Z</time></trkpt><trkpt lat="44.27782090004027" lon="11.58851026496407"><ele>97.5</ele><time>2026-04-26T09:29:34Z</time></trkpt><trkpt lat="44.27769424084535" lon="11.588497131575812"><ele>98.0</ele><time>2026-04-26T09:29:35Z</time></trkpt><trkpt lat="44.27758131387753" lon="11.588468899005614"><ele>98.0</ele><time>2026-04-26T09:29:36Z</time></trkpt><trkpt lat="44.27747276244438" lon="11.588423741652932"><ele>98.0</ele><time>2026-04-26T09:29:37Z</time></trkpt><trkpt lat="44.27736793810163" lon="11.588370114894323"><ele>98.0</ele><time>2026-04-26T09:29:38Z</time></trkpt><trkpt lat="44.27725931520167" lon="11.588319060676419"><ele>98.0</ele><time>2026-04-26T09:29:39Z</time></trkpt><trkpt lat="44.27714936611444" lon="11.588237425075075"><ele>98.5</ele><time>2026-04-26T09:29:40Z</time></trkpt><trkpt lat="44.277048163520334" lon="11.588148997904634"><ele>99.0</ele><time>2026-04-26T09:29:41Z</time></trkpt><trkpt lat="44.276937367656814" lon="11.588066223464827"><ele>99.5</ele><time>2026-04-26T09:29:42Z</time></trkpt><trkpt lat="44.27683738442811" lon="11.587990509816542"><ele>100.0</ele><time>2026-04-26T09:29:43Z</time></trkpt><trkpt lat="44.27672091402175" lon="11.587913236795206"><ele>99.75</ele><time>2026-04-26T09:29:44Z</time></trkpt><trkpt lat="44.27661702724946" lon="11.587835925590307"><ele>99.5</ele><time>2026-04-26T09:29:45Z</time></trkpt><trkpt lat="44.27651148222387" lon="11.587766028173748"><ele>99.25</ele><time>2026-04-26T09:29:46Z</time></trkpt><trkpt lat="44.27641772737376" lon="11.58769138059688"><ele>99.0</ele><time>2026-04-26T09:29:47Z</time></trkpt><trkpt lat="44.27631085518286" lon="11.587608081555917"><ele>99.5</ele><time>2026-04-26T09:29:48Z</time></trkpt><trkpt lat="44.276199850570706" lon="11.587513579312608"><ele>100.0</ele><time>2026-04-26T09:29:49Z</time></trkpt><trkpt lat="44.27608061971113" lon="11.58743342422458"><ele>100.5</ele><time>2026-04-26T09:29:50Z</time></trkpt><trkpt lat="44.27595011206824" lon="11.587356366050749"><ele>101.0</ele><time>2026-04-26T09:29:51Z</time></trkpt><trkpt lat="44.2758208320599" lon="11.587280011443113"><ele>101.0</ele><time>2026-04-26T09:29:52Z</time></trkpt><trkpt lat="44.275689117170955" lon="11.58728375669319"><ele>101.0</ele><time>2026-04-26T09:29:53Z</time></trkpt><trkpt lat="44.275541207239726" lon="11.587299233340156"><ele>101.0</ele><time>2026-04-26T09:29:54Z</time></trkpt><trkpt lat="44.27536576290422" lon="11.587370442461333"><ele>101.0</ele><time>2026-04-26T09:29:55Z</time></trkpt><trkpt lat="44.2752153621445" lon="11.587454264318456"><ele>101.0</ele><time>2026-04-26T09:29:56Z</time></trkpt><trkpt lat="44.275070323715966" lon="11.587522013002575"><ele>101.0</ele><time>2026-04-26T09:29:57Z</time></trkpt><trkpt lat="44.27493837038843" lon="11.587583166151163"><ele>101.0</ele><time>2026-04-26T09:29:58Z</time></trkpt><trkpt lat="44.27481676938333" lon="11.587639265338032"><ele>101.0</ele><time>2026-04-26T09:29:59Z</time></trkpt><trkpt lat="44.2746967466433" lon="11.587691838782899"><ele>101.0</ele><time>2026-04-26T09:30:00Z</time></trkpt><trkpt lat="44.27457669591642" lon="11.58774114224572"><ele>101.0</ele><time>2026-04-26T09:30:01Z</time></trkpt><trkpt lat="44.274461200233475" lon="11.587788731474502"><ele>101.19999999999999</ele><time>2026-04-26T09:30:02Z</time></trkpt><trkpt lat="44.274358234327416" lon="11.58783498759948"><ele>101.39999999999999</ele><time>2026-04-26T09:30:03Z</time></trkpt><trkpt lat="44.27425932248396" lon="11.587867803044716"><ele>101.6</ele><time>2026-04-26T09:30:04Z</time></trkpt><trkpt lat="44.27416563915802" lon="11.587903899145758"><ele>101.8</ele><time>2026-04-26T09:30:05Z</time></trkpt><trkpt lat="44.274065661894916" lon="11.58790877485639"><ele>102.0</ele><time>2026-04-26T09:30:06Z</time></trkpt><trkpt lat="44.27395296879282" lon="11.587878796505132"><ele>104.5</ele><time>2026-04-26T09:30:07Z</time></trkpt><trkpt lat="44.27385911710977" lon="11.58778605239447"><ele>107.0</ele><time>2026-04-26T09:30:08Z</time></trkpt><trkpt lat="44.27379696163649" lon="11.587629313856842"><ele>109.5</ele><time>2026-04-26T09:30:09Z</time></trkpt><trkpt lat="44.27372832515693" lon="11.587467745816136"><ele>112.0</ele><time>2026-04-26T09:30:10.001Z</time></trkpt><trkpt lat="44.27366705083296" lon="11.587325810825257"><ele>112.0</ele><time>2026-04-26T09:30:11.001Z</time></trkpt><trkpt lat="44.27360542362849" lon="11.587190936079105"><ele>111.99999999999999</ele><time>2026-04-26T09:30:12.001Z</time></trkpt><trkpt lat="44.27354882201175" lon="11.587066549745805"><ele>111.99999999999999</ele><time>2026-04-26T09:30:13.001Z</time></trkpt><trkpt lat="44.27350348379911" lon="11.586960223159767"><ele>112.0</ele><time>2026-04-26T09:30:14.001Z</time></trkpt><trkpt lat="44.27345221675486" lon="11.586854663136979"><ele>112.0</ele><time>2026-04-26T09:30:15.001Z</time></trkpt><trkpt lat="44.273403785659134" lon="11.586747520399655"><ele>111.16666666666667</ele><time>2026-04-26T09:30:16.001Z</time></trkpt><trkpt lat="44.273358211542984" lon="11.586640506822272"><ele>110.33333333333334</ele><time>2026-04-26T09:30:17.001Z</time></trkpt><trkpt lat="44.27331106676139" lon="11.586542582119577"><ele>109.5</ele><time>2026-04-26T09:30:18.001Z</time></trkpt><trkpt lat="44.27326071590664" lon="11.586446948899763"><ele>108.66666666666666</ele><time>2026-04-26T09:30:19.001Z</time></trkpt><trkpt lat="44.27321175981191" lon="11.586347326001704"><ele>107.83333333333333</ele><time>2026-04-26T09:30:20.001Z</time></trkpt><trkpt lat="44.27315941389264" lon="11.586239871966065"><ele>107.0</ele><time>2026-04-26T09:30:21.001Z</time></trkpt><trkpt lat="44.27310802630117" lon="11.586133164406041"><ele>108.0</ele><time>2026-04-26T09:30:22.001Z</time></trkpt><trkpt lat="44.273055987221596" lon="11.586024712565562"><ele>108.99999999999999</ele><time>2026-04-26T09:30:23.001Z</time></trkpt><trkpt lat="44.27301158294201" lon="11.585909254496565"><ele>109.99999999999999</ele><time>2026-04-26T09:30:24.001Z</time></trkpt><trkpt lat="44.27295338075548" lon="11.585797899700651"><ele>111.0</ele><time>2026-04-26T09:30:25.001Z</time></trkpt><trkpt lat="44.27289512767864" lon="11.585679474234455"><ele>112.0</ele><time>2026-04-26T09:30:26.001Z</time></trkpt><trkpt lat="44.27283420239116" lon="11.5855501803738"><ele>112.0</ele><time>2026-04-26T09:30:27.001Z</time></trkpt><trkpt lat="44.27278134195009" lon="11.585415679450874"><ele>111.99999999999999</ele><time>2026-04-26T09:30:28.001Z</time></trkpt><trkpt lat="44.27273459488657" lon="11.585297282966511"><ele>111.99999999999999</ele><time>2026-04-26T09:30:29.001Z</time></trkpt><trkpt lat="44.27271465762538" lon="11.585164821290695"><ele>112.0</ele><time>2026-04-26T09:30:30.001Z</time></trkpt><trkpt lat="44.27268551282903" lon="11.585032248342014"><ele>112.0</ele><time>2026-04-26T09:30:31.001Z</time></trkpt><trkpt lat="44.2726633509281" lon="11.58490087630638"><ele>112.39999999999999</ele><time>2026-04-26T09:30:32.001Z</time></trkpt><trkpt lat="44.27262753605001" lon="11.584767455721112"><ele>112.79999999999998</ele><time>2026-04-26T09:30:33.001Z</time></trkpt><trkpt lat="44.272608588316494" lon="11.584624278813665"><ele>113.2</ele><time>2026-04-26T09:30:34.001Z</time></trkpt><trkpt lat="44.27258834649886" lon="11.584472521770312"><ele>113.6</ele><time>2026-04-26T09:30:35.001Z</time></trkpt><trkpt lat="44.27257012456016" lon="11.584328272790327"><ele>114.0</ele><time>2026-04-26T09:30:36.001Z</time></trkpt><trkpt lat="44.272546480156215" lon="11.584168178399244"><ele>113.0</ele><time>2026-04-26T09:30:37.001Z</time></trkpt><trkpt lat="44.27251640697919" lon="11.584007772076465"><ele>112.0</ele><time>2026-04-26T09:30:38.001Z</time></trkpt><trkpt lat="44.272490551848925" lon="11.58383660171265"><ele>111.0</ele><time>2026-04-26T09:30:39.001Z</time></trkpt><trkpt lat="44.27245913875824" lon="11.583674239228898"><ele>110.0</ele><time>2026-04-26T09:30:40.001Z</time></trkpt><trkpt lat="44.27241728716624" lon="11.583500084117604"><ele>109.75</ele><time>2026-04-26T09:30:41.001Z</time></trkpt><trkpt lat="44.27235895234873" lon="11.583321436771172"><ele>109.5</ele><time>2026-04-26T09:30:42.001Z</time></trkpt><trkpt lat="44.2722817261159" lon="11.583148615772517"><ele>109.25</ele><time>2026-04-26T09:30:43.001Z</time></trkpt><trkpt lat="44.272187994184534" lon="11.582992067821651"><ele>109.0</ele><time>2026-04-26T09:30:44.001Z</time></trkpt><trkpt lat="44.27208082372679" lon="11.582855282064981"><ele>111.66666666666667</ele><time>2026-04-26T09:30:45.001Z</time></trkpt><trkpt lat="44.27195684364539" lon="11.582735149926657"><ele>114.33333333333334</ele><time>2026-04-26T09:30:46.001Z</time></trkpt><trkpt lat="44.27183237163879" lon="11.58261691069617"><ele>117.0</ele><time>2026-04-26T09:30:47.001Z</time></trkpt><trkpt lat="44.27170615845259" lon="11.582500171707485"><ele>117.0</ele><time>2026-04-26T09:30:48.001Z</time></trkpt><trkpt lat="44.27158025225895" lon="11.582383084676682"><ele>117.0</ele><time>2026-04-26T09:30:49.001Z</time></trkpt><trkpt lat="44.2714578402783" lon="11.582261911829164"><ele>117.0</ele><time>2026-04-26T09:30:50.001Z</time></trkpt><trkpt lat="44.27133602651396" lon="11.582136793191859"><ele>117.5</ele><time>2026-04-26T09:30:51.001Z</time></trkpt><trkpt lat="44.27121544503904" lon="11.582016580244032"><ele>118.0</ele><time>2026-04-26T09:30:52.001Z</time></trkpt><trkpt lat="44.271105379685615" lon="11.581912119622746"><ele>118.5</ele><time>2026-04-26T09:30:53.001Z</time></trkpt><trkpt lat="44.270991897058245" lon="11.581801795360589"><ele>119.0</ele><time>2026-04-26T09:30:54.001Z</time></trkpt><trkpt lat="44.27087879770491" lon="11.581683813537175"><ele>119.0</ele><time>2026-04-26T09:30:55.001Z</time></trkpt><trkpt lat="44.27076355396443" lon="11.581553212573949"><ele>119.0</ele><time>2026-04-26T09:30:56.001Z</time></trkpt><trkpt lat="44.27065251778688" lon="11.581409955707159"><ele>119.0</ele><time>2026-04-26T09:30:57.001Z</time></trkpt><trkpt lat="44.27053659639214" lon="11.581255079654662"><ele>122.33333333333333</ele><time>2026-04-26T09:30:58.001Z</time></trkpt><trkpt lat="44.2704199541162" lon="11.581091317281672"><ele>125.66666666666666</ele><time>2026-04-26T09:30:59.001Z</time></trkpt><trkpt lat="44.2703007494379" lon="11.580929111137007"><ele>129.0</ele><time>2026-04-26T09:31:00.001Z</time></trkpt><trkpt lat="44.27018539207009" lon="11.580781245108064"><ele>129.0</ele><time>2026-04-26T09:31:01.001Z</time></trkpt><trkpt lat="44.27007576374471" lon="11.580633865734514"><ele>129.0</ele><time>2026-04-26T09:31:02.001Z</time></trkpt><trkpt lat="44.26997072346583" lon="11.580488868668748"><ele>129.0</ele><time>2026-04-26T09:31:03.001Z</time></trkpt><trkpt lat="44.269867262104704" lon="11.58034777118316"><ele>129.0</ele><time>2026-04-26T09:31:04.001Z</time></trkpt><trkpt lat="44.26975998851415" lon="11.58020197571222"><ele>130.25</ele><time>2026-04-26T09:31:05.001Z</time></trkpt><trkpt lat="44.26965735867439" lon="11.580053985312706"><ele>131.5</ele><time>2026-04-26T09:31:06.001Z</time></trkpt><trkpt lat="44.26955205947049" lon="11.579906325816948"><ele>132.75</ele><time>2026-04-26T09:31:07.001Z</time></trkpt><trkpt lat="44.26945149756273" lon="11.579763523328449"><ele>134.0</ele><time>2026-04-26T09:31:08.001Z</time></trkpt><trkpt lat="44.269347738479695" lon="11.579616677775926"><ele>132.5</ele><time>2026-04-26T09:31:09.001Z</time></trkpt><trkpt lat="44.26924596078998" lon="11.579483393637956"><ele>131.0</ele><time>2026-04-26T09:31:10.001Z</time></trkpt><trkpt lat="44.2691592079372" lon="11.57935960046296"><ele>129.5</ele><time>2026-04-26T09:31:11.001Z</time></trkpt><trkpt lat="44.26908692342103" lon="11.579241719661908"><ele>128.0</ele><time>2026-04-26T09:31:12.001Z</time></trkpt><trkpt lat="44.26903323224771" lon="11.579124154511522"><ele>128.0</ele><time>2026-04-26T09:31:13.001Z</time></trkpt><trkpt lat="44.26898237344429" lon="11.579009381088964"><ele>128.0</ele><time>2026-04-26T09:31:14.002Z</time></trkpt><trkpt lat="44.268938298727214" lon="11.578893981050918"><ele>128.0</ele><time>2026-04-26T09:31:15.002Z</time></trkpt><trkpt lat="44.2689012548571" lon="11.578768210506318"><ele>128.0</ele><time>2026-04-26T09:31:16.002Z</time></trkpt><trkpt lat="44.26886097419204" lon="11.57863156380513"><ele>128.0</ele><time>2026-04-26T09:31:17.002Z</time></trkpt><trkpt lat="44.26881914590556" lon="11.578487289693255"><ele>128.75</ele><time>2026-04-26T09:31:18.002Z</time></trkpt><trkpt lat="44.26880105602772" lon="11.57832138265398"><ele>129.5</ele><time>2026-04-26T09:31:19.002Z</time></trkpt><trkpt lat="44.2687584312532" lon="11.578162677424986"><ele>130.25</ele><time>2026-04-26T09:31:20.002Z</time></trkpt><trkpt lat="44.268715786675706" lon="11.57800389846341"><ele>131.0</ele><time>2026-04-26T09:31:21.002Z</time></trkpt><trkpt lat="44.26867016979984" lon="11.577834748290392"><ele>131.0</ele><time>2026-04-26T09:31:22.002Z</time></trkpt><trkpt lat="44.268624127677846" lon="11.577664166003668"><ele>131.0</ele><time>2026-04-26T09:31:23.002Z</time></trkpt><trkpt lat="44.268577093468096" lon="11.577489908079372"><ele>131.0</ele><time>2026-04-26T09:31:24.002Z</time></trkpt><trkpt lat="44.26852768272175" lon="11.577310256126975"><ele>131.0</ele><time>2026-04-26T09:31:25.002Z</time></trkpt><trkpt lat="44.268462718082866" lon="11.577132570018366"><ele>130.33333333333331</ele><time>2026-04-26T09:31:26.002Z</time></trkpt><trkpt lat="44.26842309484816" lon="11.576930176927151"><ele>129.66666666666666</ele><time>2026-04-26T09:31:27.002Z</time></trkpt><trkpt lat="44.268366763894484" lon="11.576728453013303"><ele>129.0</ele><time>2026-04-26T09:31:28.002Z</time></trkpt><trkpt lat="44.2683091031172" lon="11.576522118657358"><ele>129.0</ele><time>2026-04-26T09:31:29Z</time></trkpt><trkpt lat="44.268250161698916" lon="11.576312535211326"><ele>129.0</ele><time>2026-04-26T09:31:30Z</time></trkpt><trkpt lat="44.268190648672366" lon="11.57610091924443"><ele>129.0</ele><time>2026-04-26T09:31:31Z</time></trkpt><trkpt lat="44.268129534144975" lon="11.575883608670189"><ele>131.33333333333334</ele><time>2026-04-26T09:31:32Z</time></trkpt><trkpt lat="44.268067884939654" lon="11.575664396898834"><ele>133.66666666666669</ele><time>2026-04-26T09:31:33Z</time></trkpt><trkpt lat="44.26801103022281" lon="11.57546223319624"><ele>136.0</ele><time>2026-04-26T09:31:34Z</time></trkpt><trkpt lat="44.26795684905473" lon="11.575267574583638"><ele>136.0</ele><time>2026-04-26T09:31:35Z</time></trkpt><trkpt lat="44.267901574451" lon="11.575069590014445"><ele>136.0</ele><time>2026-04-26T09:31:36Z</time></trkpt><trkpt lat="44.26784730859818" lon="11.574875218631021"><ele>136.0</ele><time>2026-04-26T09:31:37Z</time></trkpt><trkpt lat="44.267794587524" lon="11.574686380392002"><ele>136.0</ele><time>2026-04-26T09:31:38Z</time></trkpt><trkpt lat="44.267739568531994" lon="11.57448931138518"><ele>137.0</ele><time>2026-04-26T09:31:39Z</time></trkpt><trkpt lat="44.267685561794494" lon="11.574295868114282"><ele>138.0</ele><time>2026-04-26T09:31:40Z</time></trkpt><trkpt lat="44.26763160659981" lon="11.574102609459535"><ele>139.0</ele><time>2026-04-26T09:31:41Z</time></trkpt><trkpt lat="44.26757678240884" lon="11.573909887978907"><ele>140.0</ele><time>2026-04-26T09:31:42Z</time></trkpt><trkpt lat="44.26752201983208" lon="11.573717386138412"><ele>141.0</ele><time>2026-04-26T09:31:43Z</time></trkpt><trkpt lat="44.26746920566325" lon="11.573525903259254"><ele>142.0</ele><time>2026-04-26T09:31:44Z</time></trkpt><trkpt lat="44.26741611974883" lon="11.573333559446366"><ele>143.0</ele><time>2026-04-26T09:31:45Z</time></trkpt><trkpt lat="44.267361355427646" lon="11.573136790986807"><ele>144.0</ele><time>2026-04-26T09:31:46Z</time></trkpt><trkpt lat="44.2673071975584" lon="11.572942201513769"><ele>146.25</ele><time>2026-04-26T09:31:47Z</time></trkpt><trkpt lat="44.267251851038985" lon="11.572749061086862"><ele>148.5</ele><time>2026-04-26T09:31:48Z</time></trkpt><trkpt lat="44.26719590120594" lon="11.572556499705907"><ele>150.75</ele><time>2026-04-26T09:31:49Z</time></trkpt><trkpt lat="44.26713768147464" lon="11.572365588818771"><ele>153.0</ele><time>2026-04-26T09:31:50Z</time></trkpt><trkpt lat="44.26706765257472" lon="11.572179509262222"><ele>153.0</ele><time>2026-04-26T09:31:51Z</time></trkpt><trkpt lat="44.266971897188895" lon="11.572030254462687"><ele>153.0</ele><time>2026-04-26T09:31:52Z</time></trkpt><trkpt lat="44.26687938677547" lon="11.571889525305266"><ele>153.0</ele><time>2026-04-26T09:31:53Z</time></trkpt><trkpt lat="44.266773595497085" lon="11.571755014031787"><ele>153.0</ele><time>2026-04-26T09:31:54Z</time></trkpt><trkpt lat="44.26666686399971" lon="11.571626526866819"><ele>152.5</ele><time>2026-04-26T09:31:55Z</time></trkpt><trkpt lat="44.26656450832361" lon="11.571508845216286"><ele>152.0</ele><time>2026-04-26T09:31:56Z</time></trkpt><trkpt lat="44.26647454373485" lon="11.571392360820116"><ele>151.5</ele><time>2026-04-26T09:31:57Z</time></trkpt><trkpt lat="44.26638107837129" lon="11.571278827910923"><ele>151.0</ele><time>2026-04-26T09:31:58Z</time></trkpt><trkpt lat="44.26628797864619" lon="11.571163902803619"><ele>152.75</ele><time>2026-04-26T09:31:59Z</time></trkpt><trkpt lat="44.26619136699635" lon="11.571053632956797"><ele>154.5</ele><time>2026-04-26T09:32:00Z</time></trkpt><trkpt lat="44.26609485781567" lon="11.570937549092351"><ele>156.25</ele><time>2026-04-26T09:32:01Z</time></trkpt><trkpt lat="44.26599297233532" lon="11.570817283981654"><ele>158.0</ele><time>2026-04-26T09:32:02Z</time></trkpt><trkpt lat="44.26589274477583" lon="11.570690623287991"><ele>158.0</ele><time>2026-04-26T09:32:03Z</time></trkpt><trkpt lat="44.26578612662835" lon="11.570564724677133"><ele>158.0</ele><time>2026-04-26T09:32:04Z</time></trkpt><trkpt lat="44.26567990828927" lon="11.570438052244736"><ele>158.0</ele><time>2026-04-26T09:32:05Z</time></trkpt><trkpt lat="44.265573522976624" lon="11.570308720693843"><ele>158.0</ele><time>2026-04-26T09:32:06Z</time></trkpt><trkpt lat="44.265477273263016" lon="11.570194875887376"><ele>158.5</ele><time>2026-04-26T09:32:07Z</time></trkpt><trkpt lat="44.265385466162854" lon="11.570083824826042"><ele>159.0</ele><time>2026-04-26T09:32:08Z</time></trkpt><trkpt lat="44.26529205852793" lon="11.56996335426333"><ele>159.5</ele><time>2026-04-26T09:32:09Z</time></trkpt><trkpt lat="44.26520677426001" lon="11.569830166973642"><ele>160.0</ele><time>2026-04-26T09:32:10Z</time></trkpt><trkpt lat="44.26510742375732" lon="11.569707903235173"><ele>160.0</ele><time>2026-04-26T09:32:11Z</time></trkpt><trkpt lat="44.26502732475946" lon="11.569555058417782"><ele>160.0</ele><time>2026-04-26T09:32:12Z</time></trkpt><trkpt lat="44.264958452321395" lon="11.569388319561083"><ele>160.0</ele><time>2026-04-26T09:32:13Z</time></trkpt><trkpt lat="44.264902779063455" lon="11.569194414268079"><ele>160.0</ele><time>2026-04-26T09:32:14Z</time></trkpt><trkpt lat="44.26483911947951" lon="11.569005133056917"><ele>160.0</ele><time>2026-04-26T09:32:15Z</time></trkpt><trkpt lat="44.26477417064384" lon="11.568807092971038"><ele>160.0</ele><time>2026-04-26T09:32:16.001Z</time></trkpt><trkpt lat="44.26470902225062" lon="11.56860844441284"><ele>160.0</ele><time>2026-04-26T09:32:17.001Z</time></trkpt><trkpt lat="44.26464544741498" lon="11.568410359637017"><ele>160.0</ele><time>2026-04-26T09:32:18.001Z</time></trkpt><trkpt lat="44.264582485840194" lon="11.568213845960496"><ele>160.0</ele><time>2026-04-26T09:32:19.001Z</time></trkpt><trkpt lat="44.26452182983252" lon="11.568028601734948"><ele>160.0</ele><time>2026-04-26T09:32:20.001Z</time></trkpt><trkpt lat="44.264461554691096" lon="11.56784219780669"><ele>160.0</ele><time>2026-04-26T09:32:21.001Z</time></trkpt><trkpt lat="44.26439178998215" lon="11.567680141640016"><ele>159.75</ele><time>2026-04-26T09:32:22.001Z</time></trkpt><trkpt lat="44.26433733722271" lon="11.567507476409736"><ele>159.5</ele><time>2026-04-26T09:32:23.001Z</time></trkpt><trkpt lat="44.26429496415728" lon="11.567325524078154"><ele>159.25</ele><time>2026-04-26T09:32:24.001Z</time></trkpt><trkpt lat="44.26422625490116" lon="11.567160299980094"><ele>159.0</ele><time>2026-04-26T09:32:25.001Z</time></trkpt><trkpt lat="44.26416986009638" lon="11.566980620158505"><ele>158.0</ele><time>2026-04-26T09:32:26.001Z</time></trkpt><trkpt lat="44.264110747578364" lon="11.566805941044525"><ele>157.0</ele><time>2026-04-26T09:32:27.001Z</time></trkpt><trkpt lat="44.26406725430271" lon="11.566619194685611"><ele>156.0</ele><time>2026-04-26T09:32:28.001Z</time></trkpt><trkpt lat="44.263992649584104" lon="11.566458263954432"><ele>155.0</ele><time>2026-04-26T09:32:29.001Z</time></trkpt><trkpt lat="44.263927107564385" lon="11.566290831092028"><ele>156.75</ele><time>2026-04-26T09:32:30.001Z</time></trkpt><trkpt lat="44.263861274804476" lon="11.566145969993682"><ele>158.5</ele><time>2026-04-26T09:32:31.001Z</time></trkpt><trkpt lat="44.26379147888503" lon="11.566013581735339"><ele>160.25</ele><time>2026-04-26T09:32:32.001Z</time></trkpt><trkpt lat="44.26371861026346" lon="11.565890589205244"><ele>162.0</ele><time>2026-04-26T09:32:33.001Z</time></trkpt><trkpt lat="44.263646858417275" lon="11.565778420138779"><ele>162.0</ele><time>2026-04-26T09:32:34.001Z</time></trkpt><trkpt lat="44.26357158525774" lon="11.565677016090971"><ele>162.0</ele><time>2026-04-26T09:32:35.001Z</time></trkpt><trkpt lat="44.26349283853803" lon="11.565578729073053"><ele>162.0</ele><time>2026-04-26T09:32:36.001Z</time></trkpt><trkpt lat="44.26341401417525" lon="11.565478846403629"><ele>162.0</ele><time>2026-04-26T09:32:37.001Z</time></trkpt><trkpt lat="44.26333575133192" lon="11.565378728031208"><ele>162.0</ele><time>2026-04-26T09:32:38.001Z</time></trkpt><trkpt lat="44.263258534196886" lon="11.56528054109654"><ele>161.0</ele><time>2026-04-26T09:32:39.001Z</time></trkpt><trkpt lat="44.26317636960341" lon="11.565180238663917"><ele>160.0</ele><time>2026-04-26T09:32:40.001Z</time></trkpt><trkpt lat="44.26309072825908" lon="11.565074602120513"><ele>159.0</ele><time>2026-04-26T09:32:41.001Z</time></trkpt><trkpt lat="44.26300336353069" lon="11.564964495131187"><ele>158.0</ele><time>2026-04-26T09:32:42.001Z</time></trkpt><trkpt lat="44.262911129876485" lon="11.564847839235293"><ele>159.0</ele><time>2026-04-26T09:32:43.001Z</time></trkpt><trkpt lat="44.262814976243504" lon="11.564727632264614"><ele>160.0</ele><time>2026-04-26T09:32:44.001Z</time></trkpt><trkpt lat="44.262716026498204" lon="11.564604442633833"><ele>161.0</ele><time>2026-04-26T09:32:45.001Z</time></trkpt><trkpt lat="44.26261636687812" lon="11.564481736095528"><ele>162.0</ele><time>2026-04-26T09:32:46.001Z</time></trkpt><trkpt lat="44.26251994367454" lon="11.564362549391559"><ele>162.0</ele><time>2026-04-26T09:32:47.001Z</time></trkpt><trkpt lat="44.262422656618206" lon="11.564246338663073"><ele>162.0</ele><time>2026-04-26T09:32:48.001Z</time></trkpt><trkpt lat="44.26232431177467" lon="11.564122816289599"><ele>162.0</ele><time>2026-04-26T09:32:49.001Z</time></trkpt><trkpt lat="44.26222886228748" lon="11.564000586602091"><ele>162.0</ele><time>2026-04-26T09:32:50.001Z</time></trkpt><trkpt lat="44.262135185662544" lon="11.563883830395357"><ele>163.0</ele><time>2026-04-26T09:32:51.001Z</time></trkpt><trkpt lat="44.26204524567199" lon="11.563769580577677"><ele>164.0</ele><time>2026-04-26T09:32:52.001Z</time></trkpt><trkpt lat="44.26195680267264" lon="11.563654323442602"><ele>165.0</ele><time>2026-04-26T09:32:53.001Z</time></trkpt><trkpt lat="44.26186801132058" lon="11.563541041661043"><ele>166.0</ele><time>2026-04-26T09:32:54.001Z</time></trkpt><trkpt lat="44.26178358650137" lon="11.563424751385318"><ele>166.0</ele><time>2026-04-26T09:32:55.001Z</time></trkpt><trkpt lat="44.26169404724967" lon="11.563312463279592"><ele>166.0</ele><time>2026-04-26T09:32:56.001Z</time></trkpt><trkpt lat="44.2615943545188" lon="11.563197677990683"><ele>166.0</ele><time>2026-04-26T09:32:57.001Z</time></trkpt><trkpt lat="44.26150230811776" lon="11.563080231805591"><ele>166.0</ele><time>2026-04-26T09:32:58.001Z</time></trkpt><trkpt lat="44.261412509413454" lon="11.5629651971175"><ele>167.25</ele><time>2026-04-26T09:32:59.001Z</time></trkpt><trkpt lat="44.26132321840799" lon="11.562850682166518"><ele>168.5</ele><time>2026-04-26T09:33:00.001Z</time></trkpt><trkpt lat="44.261229631743944" lon="11.562738339674052"><ele>169.75</ele><time>2026-04-26T09:33:01.001Z</time></trkpt><trkpt lat="44.26113336872788" lon="11.562624703459612"><ele>171.0</ele><time>2026-04-26T09:33:02.001Z</time></trkpt><trkpt lat="44.261035999880484" lon="11.562519254226746"><ele>171.0</ele><time>2026-04-26T09:33:03.001Z</time></trkpt><trkpt lat="44.26093577405442" lon="11.562419936194944"><ele>171.0</ele><time>2026-04-26T09:33:04.001Z</time></trkpt><trkpt lat="44.260826561454515" lon="11.56233326229457"><ele>171.0</ele><time>2026-04-26T09:33:05.001Z</time></trkpt><trkpt lat="44.2607126728686" lon="11.562266782785958"><ele>171.0</ele><time>2026-04-26T09:33:06.001Z</time></trkpt><trkpt lat="44.26059618565907" lon="11.56220484042258"><ele>170.60000000000002</ele><time>2026-04-26T09:33:07.001Z</time></trkpt><trkpt lat="44.260484450782826" lon="11.562143951916566"><ele>170.2</ele><time>2026-04-26T09:33:08.001Z</time></trkpt><trkpt lat="44.260377842870234" lon="11.562086557437652"><ele>169.8</ele><time>2026-04-26T09:33:09.001Z</time></trkpt><trkpt lat="44.26027823065003" lon="11.562040559230109"><ele>169.39999999999998</ele><time>2026-04-26T09:33:10.001Z</time></trkpt><trkpt lat="44.260176519196754" lon="11.561989630584877"><ele>169.0</ele><time>2026-04-26T09:33:11.001Z</time></trkpt><trkpt lat="44.26007498023978" lon="11.56194018390122"><ele>169.79999999999998</ele><time>2026-04-26T09:33:12.001Z</time></trkpt><trkpt lat="44.259972059150456" lon="11.561886875478418"><ele>170.6</ele><time>2026-04-26T09:33:13.001Z</time></trkpt><trkpt lat="44.25986777208078" lon="11.561831662906641"><ele>171.4</ele><time>2026-04-26T09:33:14.001Z</time></trkpt><trkpt lat="44.25976403990644" lon="11.561777416483089"><ele>172.2</ele><time>2026-04-26T09:33:15.001Z</time></trkpt><trkpt lat="44.2596584691799" lon="11.561713848520379"><ele>173.0</ele><time>2026-04-26T09:33:16.001Z</time></trkpt><trkpt lat="44.25955579474333" lon="11.56164324443079"><ele>173.0</ele><time>2026-04-26T09:33:17.002Z</time></trkpt><trkpt lat="44.25945829167669" lon="11.561563744645028"><ele>173.0</ele><time>2026-04-26T09:33:18.002Z</time></trkpt><trkpt lat="44.25937090223872" lon="11.5614656834395"><ele>173.0</ele><time>2026-04-26T09:33:19.002Z</time></trkpt><trkpt lat="44.259295952526635" lon="11.56135148986032"><ele>173.0</ele><time>2026-04-26T09:33:20.002Z</time></trkpt><trkpt lat="44.2592271566679" lon="11.56122570856754"><ele>173.0</ele><time>2026-04-26T09:33:21.002Z</time></trkpt><trkpt lat="44.25916739909124" lon="11.56108787964619"><ele>172.4</ele><time>2026-04-26T09:33:22.002Z</time></trkpt><trkpt lat="44.259115082917646" lon="11.560945403803624"><ele>171.8</ele><time>2026-04-26T09:33:23.002Z</time></trkpt><trkpt lat="44.25907744535204" lon="11.560802976976385"><ele>171.2</ele><time>2026-04-26T09:33:24.002Z</time></trkpt><trkpt lat="44.25904182406107" lon="11.560665468731054"><ele>170.6</ele><time>2026-04-26T09:33:25.002Z</time></trkpt><trkpt lat="44.25900621062941" lon="11.560528433547486"><ele>170.0</ele><time>2026-04-26T09:33:26.002Z</time></trkpt><trkpt lat="44.25896921560936" lon="11.560395335559104"><ele>169.8</ele><time>2026-04-26T09:33:27.002Z</time></trkpt><trkpt lat="44.25893766630563" lon="11.56025905025093"><ele>169.6</ele><time>2026-04-26T09:33:28.002Z</time></trkpt><trkpt lat="44.25890888727375" lon="11.560151034239947"><ele>169.39999999999998</ele><time>2026-04-26T09:33:29.002Z</time></trkpt><trkpt lat="44.258876322812924" lon="11.560020531888755"><ele>169.2</ele><time>2026-04-26T09:33:31.002Z</time></trkpt><trkpt lat="44.25886304523502" lon="11.559914450175805"><ele>169.0</ele><time>2026-04-26T09:33:33.002Z</time></trkpt><trkpt lat="44.25870405193811" lon="11.55996063691136"><ele>169.0</ele><time>2026-04-26T09:33:37Z</time></trkpt><trkpt lat="44.25863412041857" lon="11.55990592415796"><ele>169.0</ele><time>2026-04-26T09:33:40Z</time></trkpt><trkpt lat="44.25880835603167" lon="11.559700060682607"><ele>169.0</ele><time>2026-04-26T09:33:42Z</time></trkpt><trkpt lat="44.25872628250577" lon="11.55982394951097"><ele>169.0</ele><time>2026-04-26T09:34:31.001Z</time></trkpt><trkpt lat="44.25868847798723" lon="11.559931899154178"><ele>169.0</ele><time>2026-04-26T09:37:28.002Z</time></trkpt><trkpt lat="44.25861843659924" lon="11.559877742460142"><ele>169.0</ele><time>2026-04-26T09:37:37.002Z</time></trkpt><trkpt lat="44.2587506297046" lon="11.559858298513447"><ele>169.0</ele><time>2026-04-26T09:38:06Z</time></trkpt><trkpt lat="44.258759853509545" lon="11.559981382439995"><ele>169.0</ele><time>2026-04-26T09:38:23Z</time></trkpt><trkpt lat="44.25881728039705" lon="11.560035527208694"><ele>169.0</ele><time>2026-04-26T09:38:25Z</time></trkpt><trkpt lat="44.25891313760118" lon="11.559758227390866"><ele>169.0</ele><time>2026-04-26T09:38:39.001Z</time></trkpt><trkpt lat="44.25888136848959" lon="11.559665293696467"><ele>169.0</ele><time>2026-04-26T09:38:40.001Z</time></trkpt><trkpt lat="44.25883507657406" lon="11.559553667521149"><ele>169.0</ele><time>2026-04-26T09:38:41.001Z</time></trkpt><trkpt lat="44.258783223324954" lon="11.559416051390148"><ele>169.0</ele><time>2026-04-26T09:38:42.001Z</time></trkpt><trkpt lat="44.25873380915183" lon="11.559264404412314"><ele>169.0</ele><time>2026-04-26T09:38:43.001Z</time></trkpt><trkpt lat="44.25869345112081" lon="11.559118531516798"><ele>170.2</ele><time>2026-04-26T09:38:44.001Z</time></trkpt><trkpt lat="44.2586561362898" lon="11.558967599452199"><ele>171.39999999999998</ele><time>2026-04-26T09:38:45.001Z</time></trkpt><trkpt lat="44.258614114665335" lon="11.558819793336292"><ele>172.6</ele><time>2026-04-26T09:38:46.001Z</time></trkpt><trkpt lat="44.258573271696925" lon="11.558681120680244"><ele>173.8</ele><time>2026-04-26T09:38:47.001Z</time></trkpt><trkpt lat="44.25852140457102" lon="11.558551145246685"><ele>175.0</ele><time>2026-04-26T09:38:48.001Z</time></trkpt><trkpt lat="44.25846587966831" lon="11.558427343415273"><ele>175.0</ele><time>2026-04-26T09:38:49.001Z</time></trkpt><trkpt lat="44.25839773469898" lon="11.558320959461408"><ele>175.0</ele><time>2026-04-26T09:38:50.001Z</time></trkpt><trkpt lat="44.258329731218154" lon="11.55822097677359"><ele>175.0</ele><time>2026-04-26T09:38:51.001Z</time></trkpt><trkpt lat="44.25826569901706" lon="11.558119718281791"><ele>175.0</ele><time>2026-04-26T09:38:52.001Z</time></trkpt><trkpt lat="44.258195429686126" lon="11.558023102211932"><ele>175.0</ele><time>2026-04-26T09:38:53.001Z</time></trkpt><trkpt lat="44.25812520897093" lon="11.557926568151986"><ele>174.6</ele><time>2026-04-26T09:38:54.001Z</time></trkpt><trkpt lat="44.25805727601371" lon="11.557825607927553"><ele>174.2</ele><time>2026-04-26T09:38:55.001Z</time></trkpt><trkpt lat="44.25798884364524" lon="11.557729146572271"><ele>173.8</ele><time>2026-04-26T09:38:56.001Z</time></trkpt><trkpt lat="44.257904343598355" lon="11.55762990962904"><ele>173.4</ele><time>2026-04-26T09:38:57.001Z</time></trkpt><trkpt lat="44.25783285813631" lon="11.557517730376054"><ele>173.0</ele><time>2026-04-26T09:38:58.001Z</time></trkpt><trkpt lat="44.25775102725587" lon="11.557393700839977"><ele>173.0</ele><time>2026-04-26T09:38:59.001Z</time></trkpt><trkpt lat="44.25766500090911" lon="11.55727025067683"><ele>173.0</ele><time>2026-04-26T09:39:00.001Z</time></trkpt><trkpt lat="44.25757133532875" lon="11.557133155198267"><ele>173.0</ele><time>2026-04-26T09:39:01.001Z</time></trkpt><trkpt lat="44.257477876012096" lon="11.5569937720328"><ele>173.0</ele><time>2026-04-26T09:39:02.001Z</time></trkpt><trkpt lat="44.257387330343796" lon="11.55685042310599"><ele>173.33333333333331</ele><time>2026-04-26T09:39:03.001Z</time></trkpt><trkpt lat="44.257184447615884" lon="11.556566787510734"><ele>173.66666666666666</ele><time>2026-04-26T09:39:05.001Z</time></trkpt><trkpt lat="44.25708174897764" lon="11.556413655577757"><ele>174.0</ele><time>2026-04-26T09:39:06.001Z</time></trkpt><trkpt lat="44.25697837911051" lon="11.556255193436677"><ele>174.0</ele><time>2026-04-26T09:39:07.001Z</time></trkpt><trkpt lat="44.25687335583466" lon="11.556096854062373"><ele>174.0</ele><time>2026-04-26T09:39:08.001Z</time></trkpt><trkpt lat="44.25677143682211" lon="11.555949028408762"><ele>174.0</ele><time>2026-04-26T09:39:09.001Z</time></trkpt><trkpt lat="44.256663873123486" lon="11.555782579251467"><ele>174.0</ele><time>2026-04-26T09:39:10.001Z</time></trkpt><trkpt lat="44.25655917449237" lon="11.555626295241781"><ele>174.0</ele><time>2026-04-26T09:39:11.001Z</time></trkpt><trkpt lat="44.25645934449626" lon="11.55547147809971"><ele>174.0</ele><time>2026-04-26T09:39:12.001Z</time></trkpt><trkpt lat="44.25635576527268" lon="11.555319489234474"><ele>174.0</ele><time>2026-04-26T09:39:13.001Z</time></trkpt><trkpt lat="44.25625181289291" lon="11.555172351349004"><ele>174.0</ele><time>2026-04-26T09:39:14.001Z</time></trkpt><trkpt lat="44.25615024028044" lon="11.555022383351597"><ele>174.0</ele><time>2026-04-26T09:39:15.001Z</time></trkpt><trkpt lat="44.25605210023996" lon="11.554880094574909"><ele>174.0</ele><time>2026-04-26T09:39:16.001Z</time></trkpt><trkpt lat="44.255957914940055" lon="11.554728891366711"><ele>174.0</ele><time>2026-04-26T09:39:17.001Z</time></trkpt><trkpt lat="44.25586093636129" lon="11.55457892203477"><ele>174.0</ele><time>2026-04-26T09:39:18.001Z</time></trkpt><trkpt lat="44.255760087652405" lon="11.554430768521428"><ele>174.0</ele><time>2026-04-26T09:39:19.001Z</time></trkpt><trkpt lat="44.25566393087282" lon="11.554265508256698"><ele>174.0</ele><time>2026-04-26T09:39:20.001Z</time></trkpt><trkpt lat="44.25557262743476" lon="11.554100784531846"><ele>174.66666666666666</ele><time>2026-04-26T09:39:21.001Z</time></trkpt><trkpt lat="44.25548262145134" lon="11.553918895110206"><ele>175.33333333333331</ele><time>2026-04-26T09:39:22.001Z</time></trkpt><trkpt lat="44.25539125958511" lon="11.55372787607399"><ele>176.0</ele><time>2026-04-26T09:39:23.001Z</time></trkpt><trkpt lat="44.2552984825928" lon="11.553511537869195"><ele>174.0</ele><time>2026-04-26T09:39:24.001Z</time></trkpt><trkpt lat="44.25521173101696" lon="11.553296109194488"><ele>172.0</ele><time>2026-04-26T09:39:25.001Z</time></trkpt><trkpt lat="44.255122595896815" lon="11.553071943564186"><ele>170.0</ele><time>2026-04-26T09:39:26.001Z</time></trkpt><trkpt lat="44.255038072057545" lon="11.552851861815137"><ele>169.33333333333331</ele><time>2026-04-26T09:39:27.002Z</time></trkpt><trkpt lat="44.25494626741177" lon="11.552626306799091"><ele>168.66666666666666</ele><time>2026-04-26T09:39:28.002Z</time></trkpt><trkpt lat="44.25485268892766" lon="11.552396427991596"><ele>168.0</ele><time>2026-04-26T09:39:29.002Z</time></trkpt><trkpt lat="44.25475724473365" lon="11.552158283793535"><ele>168.0</ele><time>2026-04-26T09:39:30.002Z</time></trkpt><trkpt lat="44.254657464032746" lon="11.551917520879455"><ele>168.0</ele><time>2026-04-26T09:39:31.002Z</time></trkpt><trkpt lat="44.25453581009794" lon="11.551684909445104"><ele>168.0</ele><time>2026-04-26T09:39:32.002Z</time></trkpt><trkpt lat="44.25437585113969" lon="11.551474693006412"><ele>168.0</ele><time>2026-04-26T09:39:33.002Z</time></trkpt><trkpt lat="44.25418406639226" lon="11.551279960400286"><ele>168.0</ele><time>2026-04-26T09:39:34.002Z</time></trkpt><trkpt lat="44.253997941563064" lon="11.551122811174881"><ele>170.0</ele><time>2026-04-26T09:39:35.002Z</time></trkpt><trkpt lat="44.25382521868758" lon="11.550971398060577"><ele>172.0</ele><time>2026-04-26T09:39:36.002Z</time></trkpt><trkpt lat="44.25366092147513" lon="11.550824464663325"><ele>174.0</ele><time>2026-04-26T09:39:37.002Z</time></trkpt><trkpt lat="44.25350504255107" lon="11.550683099681834"><ele>174.0</ele><time>2026-04-26T09:39:38.002Z</time></trkpt><trkpt lat="44.25336212237299" lon="11.55055435802809"><ele>174.0</ele><time>2026-04-26T09:39:39.002Z</time></trkpt><trkpt lat="44.253236073926125" lon="11.550444246091638"><ele>174.0</ele><time>2026-04-26T09:39:40.002Z</time></trkpt><trkpt lat="44.253121643898474" lon="11.550340429405178"><ele>174.75</ele><time>2026-04-26T09:39:41.002Z</time></trkpt><trkpt lat="44.253015453159826" lon="11.550226234655163"><ele>175.5</ele><time>2026-04-26T09:39:42.002Z</time></trkpt><trkpt lat="44.25292066204459" lon="11.550088247204137"><ele>176.25</ele><time>2026-04-26T09:39:43.002Z</time></trkpt><trkpt lat="44.25284654823418" lon="11.549922842877873"><ele>177.0</ele><time>2026-04-26T09:39:44.002Z</time></trkpt><trkpt lat="44.2527779844406" lon="11.549741481213532"><ele>177.0</ele><time>2026-04-26T09:39:45.002Z</time></trkpt><trkpt lat="44.25271735301" lon="11.549544074951939"><ele>177.0</ele><time>2026-04-26T09:39:46.002Z</time></trkpt><trkpt lat="44.25267052190005" lon="11.549319576038043"><ele>177.0</ele><time>2026-04-26T09:39:47.002Z</time></trkpt><trkpt lat="44.252628579822435" lon="11.549069908230859"><ele>176.66666666666666</ele><time>2026-04-26T09:39:48.002Z</time></trkpt><trkpt lat="44.25259845672692" lon="11.54878480247781"><ele>176.33333333333331</ele><time>2026-04-26T09:39:49.002Z</time></trkpt><trkpt lat="44.2525464513703" lon="11.548471689935939"><ele>176.0</ele><time>2026-04-26T09:39:50.002Z</time></trkpt><trkpt lat="44.25248843943301" lon="11.548174033582885"><ele>176.0</ele><time>2026-04-26T09:39:51.002Z</time></trkpt><trkpt lat="44.25244736749532" lon="11.547901950070061"><ele>176.0</ele><time>2026-04-26T09:39:52.002Z</time></trkpt><trkpt lat="44.252404205671965" lon="11.547640792934164"><ele>176.0</ele><time>2026-04-26T09:39:53Z</time></trkpt><trkpt lat="44.25235925856732" lon="11.547394102588749"><ele>175.66666666666666</ele><time>2026-04-26T09:39:54Z</time></trkpt><trkpt lat="44.252319839726205" lon="11.54716322208765"><ele>175.33333333333334</ele><time>2026-04-26T09:39:55Z</time></trkpt><trkpt lat="44.25228271887461" lon="11.54694905965874"><ele>175.0</ele><time>2026-04-26T09:39:56Z</time></trkpt><trkpt lat="44.25224451189826" lon="11.546746119049127"><ele>175.0</ele><time>2026-04-26T09:39:57Z</time></trkpt><trkpt lat="44.252199942572524" lon="11.54654793624828"><ele>175.0</ele><time>2026-04-26T09:39:58Z</time></trkpt><trkpt lat="44.25213729433058" lon="11.546351106580499"><ele>175.0</ele><time>2026-04-26T09:39:59Z</time></trkpt><trkpt lat="44.25205029545896" lon="11.5461658460647"><ele>175.25</ele><time>2026-04-26T09:40:00Z</time></trkpt><trkpt lat="44.25194970157993" lon="11.546002375567287"><ele>175.5</ele><time>2026-04-26T09:40:01Z</time></trkpt><trkpt lat="44.251852634602784" lon="11.545858846658067"><ele>175.75</ele><time>2026-04-26T09:40:02Z</time></trkpt><trkpt lat="44.25175245307333" lon="11.54572740392734"><ele>176.0</ele><time>2026-04-26T09:40:03Z</time></trkpt><trkpt lat="44.25165010538683" lon="11.545604331799796"><ele>176.0</ele><time>2026-04-26T09:40:04Z</time></trkpt><trkpt lat="44.251549140560336" lon="11.545487415144137"><ele>176.0</ele><time>2026-04-26T09:40:05Z</time></trkpt><trkpt lat="44.251455420307856" lon="11.545374059286145"><ele>176.0</ele><time>2026-04-26T09:40:06Z</time></trkpt><trkpt lat="44.2513672650706" lon="11.545273276485164"><ele>176.0</ele><time>2026-04-26T09:40:07Z</time></trkpt><trkpt lat="44.251290031165716" lon="11.54518832895535"><ele>176.0</ele><time>2026-04-26T09:40:08Z</time></trkpt><trkpt lat="44.25122284317255" lon="11.545114463198221"><ele>176.0</ele><time>2026-04-26T09:40:09Z</time></trkpt><trkpt lat="44.251168200823045" lon="11.545053132958556"><ele>176.0</ele><time>2026-04-26T09:40:10Z</time></trkpt><trkpt lat="44.25108951598691" lon="11.544950006059072"><ele>176.0</ele><time>2026-04-26T09:40:12Z</time></trkpt><trkpt lat="44.251074257074336" lon="11.544823724476508"><ele>176.0</ele><time>2026-04-26T09:40:14Z</time></trkpt><trkpt lat="44.25111367023034" lon="11.544699773158566"><ele>176.0</ele><time>2026-04-26T09:40:16Z</time></trkpt><trkpt lat="44.251142633475084" lon="11.544619076838732"><ele>176.0</ele><time>2026-04-26T09:40:17Z</time></trkpt><trkpt lat="44.25105420402795" lon="11.544502492454491"><ele>176.0</ele><time>2026-04-26T09:40:18Z</time></trkpt><trkpt lat="44.250989567284755" lon="11.54444295023029"><ele>176.0</ele><time>2026-04-26T09:40:19Z</time></trkpt><trkpt lat="44.25092301040673" lon="11.54438066205273"><ele>176.0</ele><time>2026-04-26T09:40:20Z</time></trkpt><trkpt lat="44.25087792732738" lon="11.544289937802791"><ele>176.0</ele><time>2026-04-26T09:40:21Z</time></trkpt><trkpt lat="44.25086058881091" lon="11.544180632196245"><ele>174.83333333333331</ele><time>2026-04-26T09:40:22Z</time></trkpt><trkpt lat="44.25084538928841" lon="11.544072043064618"><ele>173.66666666666666</ele><time>2026-04-26T09:40:23Z</time></trkpt><trkpt lat="44.25081155742415" lon="11.543957524474337"><ele>172.5</ele><time>2026-04-26T09:40:24Z</time></trkpt><trkpt lat="44.250763536366414" lon="11.543853904672744"><ele>171.33333333333334</ele><time>2026-04-26T09:40:25Z</time></trkpt><trkpt lat="44.250697971847" lon="11.543768285580155"><ele>170.16666666666669</ele><time>2026-04-26T09:40:26Z</time></trkpt><trkpt lat="44.250623562199515" lon="11.543709850350748"><ele>169.0</ele><time>2026-04-26T09:40:27Z</time></trkpt><trkpt lat="44.2505557117484" lon="11.543653021781306"><ele>168.83333333333334</ele><time>2026-04-26T09:40:28Z</time></trkpt><trkpt lat="44.25049768813452" lon="11.543568918659565"><ele>168.66666666666669</ele><time>2026-04-26T09:40:29Z</time></trkpt><trkpt lat="44.25046710615154" lon="11.543461336707537"><ele>168.5</ele><time>2026-04-26T09:40:30Z</time></trkpt><trkpt lat="44.2504601476835" lon="11.543334168264838"><ele>168.33333333333334</ele><time>2026-04-26T09:40:31Z</time></trkpt><trkpt lat="44.25047602739677" lon="11.5432044644356"><ele>168.16666666666666</ele><time>2026-04-26T09:40:32Z</time></trkpt><trkpt lat="44.250513771510846" lon="11.543080188435395"><ele>168.0</ele><time>2026-04-26T09:40:33Z</time></trkpt><trkpt lat="44.250565268635455" lon="11.542955340714123"><ele>166.60000000000002</ele><time>2026-04-26T09:40:34Z</time></trkpt><trkpt lat="44.25060699237113" lon="11.542823530589073"><ele>165.20000000000002</ele><time>2026-04-26T09:40:35Z</time></trkpt><trkpt lat="44.250625394137344" lon="11.542687322486884"><ele>163.8</ele><time>2026-04-26T09:40:36Z</time></trkpt><trkpt lat="44.25063862481883" lon="11.542552406603464"><ele>162.4</ele><time>2026-04-26T09:40:37Z</time></trkpt><trkpt lat="44.250674381809134" lon="11.542429956989208"><ele>161.0</ele><time>2026-04-26T09:40:38.001Z</time></trkpt><trkpt lat="44.250732575897985" lon="11.542325492788322"><ele>158.4</ele><time>2026-04-26T09:40:39.001Z</time></trkpt><trkpt lat="44.25080426200018" lon="11.542245280626327"><ele>155.8</ele><time>2026-04-26T09:40:40.001Z</time></trkpt><trkpt lat="44.250879912376476" lon="11.542171337365463"><ele>153.20000000000002</ele><time>2026-04-26T09:40:41.001Z</time></trkpt><trkpt lat="44.25096054138191" lon="11.54211923371649"><ele>150.60000000000002</ele><time>2026-04-26T09:40:42.001Z</time></trkpt><trkpt lat="44.25102284261065" lon="11.542015911985075"><ele>148.0</ele><time>2026-04-26T09:40:43.001Z</time></trkpt><trkpt lat="44.25108875688413" lon="11.541884807183559"><ele>147.6</ele><time>2026-04-26T09:40:44.001Z</time></trkpt><trkpt lat="44.25117762700125" lon="11.541747769668849"><ele>147.20000000000002</ele><time>2026-04-26T09:40:45.001Z</time></trkpt><trkpt lat="44.251249265793504" lon="11.54162553201621"><ele>146.8</ele><time>2026-04-26T09:40:46.001Z</time></trkpt><trkpt lat="44.251297358184615" lon="11.541491089134178"><ele>146.4</ele><time>2026-04-26T09:40:47.001Z</time></trkpt><trkpt lat="44.25130352217487" lon="11.541372055422418"><ele>146.0</ele><time>2026-04-26T09:40:48.001Z</time></trkpt><trkpt lat="44.251269760517026" lon="11.54126549408554"><ele>146.0</ele><time>2026-04-26T09:40:49.001Z</time></trkpt><trkpt lat="44.25121767287647" lon="11.54116767587048"><ele>146.0</ele><time>2026-04-26T09:40:50.001Z</time></trkpt><trkpt lat="44.25116994205253" lon="11.541068696612816"><ele>146.0</ele><time>2026-04-26T09:40:51.001Z</time></trkpt><trkpt lat="44.251132806626195" lon="11.540966059104916"><ele>146.0</ele><time>2026-04-26T09:40:52.001Z</time></trkpt><trkpt lat="44.251095215314876" lon="11.54084841081006"><ele>146.0</ele><time>2026-04-26T09:40:53.001Z</time></trkpt><trkpt lat="44.251032499792686" lon="11.540741379777055"><ele>146.0</ele><time>2026-04-26T09:40:54.001Z</time></trkpt><trkpt lat="44.250981681984726" lon="11.540618305012822"><ele>146.0</ele><time>2026-04-26T09:40:55.001Z</time></trkpt><trkpt lat="44.25092833610854" lon="11.540494027636724"><ele>146.0</ele><time>2026-04-26T09:40:56.001Z</time></trkpt><trkpt lat="44.250879083892805" lon="11.540380144514382"><ele>146.0</ele><time>2026-04-26T09:40:57.001Z</time></trkpt><trkpt lat="44.2508313359339" lon="11.540266630089892"><ele>146.0</ele><time>2026-04-26T09:40:58.001Z</time></trkpt><trkpt lat="44.25077909167722" lon="11.540140186221814"><ele>146.0</ele><time>2026-04-26T09:40:59.001Z</time></trkpt><trkpt lat="44.25072392897445" lon="11.540017091467515"><ele>145.8</ele><time>2026-04-26T09:41:00.001Z</time></trkpt><trkpt lat="44.25066669642743" lon="11.539901995290869"><ele>145.6</ele><time>2026-04-26T09:41:01.001Z</time></trkpt><trkpt lat="44.25060891179154" lon="11.539794552093444"><ele>145.4</ele><time>2026-04-26T09:41:02.001Z</time></trkpt><trkpt lat="44.25054579055541" lon="11.539670063275004"><ele>145.2</ele><time>2026-04-26T09:41:03.001Z</time></trkpt><trkpt lat="44.25047304971598" lon="11.539546176804295"><ele>145.0</ele><time>2026-04-26T09:41:04.001Z</time></trkpt><trkpt lat="44.25038627037982" lon="11.539430454668024"><ele>145.0</ele><time>2026-04-26T09:41:05.001Z</time></trkpt><trkpt lat="44.25030059041904" lon="11.539316892946028"><ele>145.0</ele><time>2026-04-26T09:41:06.001Z</time></trkpt><trkpt lat="44.250217572106884" lon="11.53921789163824"><ele>145.0</ele><time>2026-04-26T09:41:07.001Z</time></trkpt><trkpt lat="44.25013874079533" lon="11.539130754567989"><ele>145.0</ele><time>2026-04-26T09:41:08.001Z</time></trkpt><trkpt lat="44.25006625481507" lon="11.539055875954887"><ele>145.0</ele><time>2026-04-26T09:41:09.001Z</time></trkpt><trkpt lat="44.249995015607404" lon="11.538984913514078"><ele>145.0</ele><time>2026-04-26T09:41:10.001Z</time></trkpt><trkpt lat="44.24992841677609" lon="11.538911566218077"><ele>145.0</ele><time>2026-04-26T09:41:11.001Z</time></trkpt><trkpt lat="44.24987056391899" lon="11.538840557567244"><ele>145.0</ele><time>2026-04-26T09:41:12.001Z</time></trkpt><trkpt lat="44.24982335737111" lon="11.538763276376208"><ele>145.0</ele><time>2026-04-26T09:41:13.001Z</time></trkpt><trkpt lat="44.24979468684504" lon="11.538674115035459"><ele>145.0</ele><time>2026-04-26T09:41:14.001Z</time></trkpt><trkpt lat="44.24978498671473" lon="11.538579201088611"><ele>145.0</ele><time>2026-04-26T09:41:15.001Z</time></trkpt><trkpt lat="44.24979015703665" lon="11.538468862974725"><ele>143.33333333333334</ele><time>2026-04-26T09:41:16.001Z</time></trkpt><trkpt lat="44.24983493370215" lon="11.538384289843263"><ele>141.66666666666669</ele><time>2026-04-26T09:41:17.001Z</time></trkpt><trkpt lat="44.24987808509536" lon="11.53830495157947"><ele>140.0</ele><time>2026-04-26T09:41:18.001Z</time></trkpt><trkpt lat="44.249910222383875" lon="11.538208171257383"><ele>138.33333333333334</ele><time>2026-04-26T09:41:19.001Z</time></trkpt><trkpt lat="44.24995942138946" lon="11.538117791564092"><ele>136.66666666666666</ele><time>2026-04-26T09:41:20.001Z</time></trkpt><trkpt lat="44.250009781328004" lon="11.538023224153356"><ele>135.0</ele><time>2026-04-26T09:41:21.001Z</time></trkpt><trkpt lat="44.250062991945576" lon="11.537921652050303"><ele>134.5</ele><time>2026-04-26T09:41:22.001Z</time></trkpt><trkpt lat="44.25011315376789" lon="11.537806651213693"><ele>134.0</ele><time>2026-04-26T09:41:23.001Z</time></trkpt><trkpt lat="44.25016521325217" lon="11.537710898131103"><ele>133.5</ele><time>2026-04-26T09:41:24.001Z</time></trkpt><trkpt lat="44.250217734284384" lon="11.537622884040355"><ele>133.0</ele><time>2026-04-26T09:41:25.001Z</time></trkpt><trkpt lat="44.250261566438354" lon="11.537526557276449"><ele>132.5</ele><time>2026-04-26T09:41:26.001Z</time></trkpt><trkpt lat="44.250311939370825" lon="11.537436125996107"><ele>132.0</ele><time>2026-04-26T09:41:27.001Z</time></trkpt><trkpt lat="44.25035470614562" lon="11.53734687045764"><ele>132.0</ele><time>2026-04-26T09:41:28.001Z</time></trkpt><trkpt lat="44.250402875607165" lon="11.53725566470875"><ele>132.0</ele><time>2026-04-26T09:41:29.001Z</time></trkpt><trkpt lat="44.25044571214529" lon="11.537167106607482"><ele>132.0</ele><time>2026-04-26T09:41:30.001Z</time></trkpt><trkpt lat="44.25046115947556" lon="11.537054136159202"><ele>132.0</ele><time>2026-04-26T09:41:31.001Z</time></trkpt><trkpt lat="44.250457206396995" lon="11.536929829614042"><ele>132.0</ele><time>2026-04-26T09:41:32.001Z</time></trkpt><trkpt lat="44.250400718999714" lon="11.536836576258962"><ele>132.0</ele><time>2026-04-26T09:41:33.001Z</time></trkpt><trkpt lat="44.2503565800328" lon="11.536749389508321"><ele>133.16666666666666</ele><time>2026-04-26T09:41:34.001Z</time></trkpt><trkpt lat="44.25031157714991" lon="11.536658459158032"><ele>134.33333333333334</ele><time>2026-04-26T09:41:35.002Z</time></trkpt><trkpt lat="44.2502693222613" lon="11.536562104852129"><ele>135.5</ele><time>2026-04-26T09:41:36.002Z</time></trkpt><trkpt lat="44.250222007818756" lon="11.536469732006134"><ele>136.66666666666669</ele><time>2026-04-26T09:41:37.002Z</time></trkpt><trkpt lat="44.250170211069566" lon="11.536380905611367"><ele>137.83333333333334</ele><time>2026-04-26T09:41:38.002Z</time></trkpt><trkpt lat="44.250120939986274" lon="11.536285331116682"><ele>139.0</ele><time>2026-04-26T09:41:39.002Z</time></trkpt><trkpt lat="44.25009126421811" lon="11.536190781652584"><ele>141.2</ele><time>2026-04-26T09:41:40.002Z</time></trkpt><trkpt lat="44.25007452983688" lon="11.53608378805534"><ele>143.4</ele><time>2026-04-26T09:41:41.002Z</time></trkpt><trkpt lat="44.25008960664807" lon="11.535967912462104"><ele>145.6</ele><time>2026-04-26T09:41:42.002Z</time></trkpt><trkpt lat="44.250157205999194" lon="11.53588166222043"><ele>147.8</ele><time>2026-04-26T09:41:43.002Z</time></trkpt><trkpt lat="44.25022526348379" lon="11.535787647106089"><ele>150.0</ele><time>2026-04-26T09:41:44.002Z</time></trkpt><trkpt lat="44.250287833293065" lon="11.535672543835606"><ele>150.0</ele><time>2026-04-26T09:41:45.002Z</time></trkpt><trkpt lat="44.25036381246063" lon="11.535567343308088"><ele>150.0</ele><time>2026-04-26T09:41:46.002Z</time></trkpt><trkpt lat="44.250426456923684" lon="11.535460119681819"><ele>150.0</ele><time>2026-04-26T09:41:47.002Z</time></trkpt><trkpt lat="44.25048823191027" lon="11.535349117392705"><ele>150.0</ele><time>2026-04-26T09:41:48.002Z</time></trkpt><trkpt lat="44.25055780248416" lon="11.535235929884607"><ele>150.0</ele><time>2026-04-26T09:41:49.002Z</time></trkpt><trkpt lat="44.25062971121001" lon="11.535129497433957"><ele>151.4</ele><time>2026-04-26T09:41:50.002Z</time></trkpt><trkpt lat="44.25070167823865" lon="11.535034978581212"><ele>152.8</ele><time>2026-04-26T09:41:51.002Z</time></trkpt><trkpt lat="44.250769157362036" lon="11.534941374070982"><ele>154.2</ele><time>2026-04-26T09:41:52.002Z</time></trkpt><trkpt lat="44.25082968052391" lon="11.53484651364857"><ele>155.6</ele><time>2026-04-26T09:41:53.002Z</time></trkpt><trkpt lat="44.25088324002203" lon="11.534733113709377"><ele>157.0</ele><time>2026-04-26T09:41:54.002Z</time></trkpt><trkpt lat="44.25090590868765" lon="11.534599093589115"><ele>159.39999999999998</ele><time>2026-04-26T09:41:55.002Z</time></trkpt><trkpt lat="44.25089888675858" lon="11.534454047516233"><ele>161.79999999999998</ele><time>2026-04-26T09:41:56.002Z</time></trkpt><trkpt lat="44.250861132045856" lon="11.53430159789748"><ele>164.2</ele><time>2026-04-26T09:41:57.002Z</time></trkpt><trkpt lat="44.25080232586368" lon="11.534168630961428"><ele>166.6</ele><time>2026-04-26T09:41:58.002Z</time></trkpt><trkpt lat="44.25074240892833" lon="11.534034942248937"><ele>169.0</ele><time>2026-04-26T09:41:59Z</time></trkpt><trkpt lat="44.250690714164165" lon="11.533907442752177"><ele>169.0</ele><time>2026-04-26T09:42:00Z</time></trkpt><trkpt lat="44.25064395058721" lon="11.533780108279766"><ele>169.0</ele><time>2026-04-26T09:42:01Z</time></trkpt><trkpt lat="44.25060266938763" lon="11.533650020188034"><ele>169.0</ele><time>2026-04-26T09:42:02Z</time></trkpt><trkpt lat="44.250560771784244" lon="11.533507411762468"><ele>169.0</ele><time>2026-04-26T09:42:03Z</time></trkpt><trkpt lat="44.25050472092416" lon="11.533352010517365"><ele>169.0</ele><time>2026-04-26T09:42:04Z</time></trkpt><trkpt lat="44.25044365575759" lon="11.533177165865265"><ele>168.75</ele><time>2026-04-26T09:42:05Z</time></trkpt><trkpt lat="44.25038652113921" lon="11.532992347990708"><ele>168.5</ele><time>2026-04-26T09:42:06Z</time></trkpt><trkpt lat="44.25031676300427" lon="11.532808588573983"><ele>168.25</ele><time>2026-04-26T09:42:07Z</time></trkpt><trkpt lat="44.25024967297562" lon="11.532668943914938"><ele>168.0</ele><time>2026-04-26T09:42:08Z</time></trkpt><trkpt lat="44.25020098837487" lon="11.53254079460093"><ele>168.0</ele><time>2026-04-26T09:42:09Z</time></trkpt><trkpt lat="44.25019431687607" lon="11.532437633818532"><ele>168.0</ele><time>2026-04-26T09:42:10Z</time></trkpt><trkpt lat="44.250233311308804" lon="11.532355761529672"><ele>168.0</ele><time>2026-04-26T09:42:11Z</time></trkpt><trkpt lat="44.25029976411856" lon="11.532288322316507"><ele>168.0</ele><time>2026-04-26T09:42:12Z</time></trkpt><trkpt lat="44.25038812449689" lon="11.532282882002429"><ele>168.0</ele><time>2026-04-26T09:42:13Z</time></trkpt><trkpt lat="44.25046882917356" lon="11.532340375574998"><ele>168.0</ele><time>2026-04-26T09:42:14Z</time></trkpt><trkpt lat="44.250531797402914" lon="11.53243971352809"><ele>168.0</ele><time>2026-04-26T09:42:15Z</time></trkpt><trkpt lat="44.250586773954176" lon="11.532564854598862"><ele>168.0</ele><time>2026-04-26T09:42:16Z</time></trkpt><trkpt lat="44.25064811803736" lon="11.532694139424933"><ele>168.0</ele><time>2026-04-26T09:42:17Z</time></trkpt><trkpt lat="44.250714961417316" lon="11.532826018854246"><ele>168.0</ele><time>2026-04-26T09:42:18Z</time></trkpt><trkpt lat="44.25078893989333" lon="11.532973697310013"><ele>170.75</ele><time>2026-04-26T09:42:19Z</time></trkpt><trkpt lat="44.25086196197935" lon="11.533132269566003"><ele>173.5</ele><time>2026-04-26T09:42:20Z</time></trkpt><trkpt lat="44.25093045016133" lon="11.533308449569013"><ele>176.25</ele><time>2026-04-26T09:42:21Z</time></trkpt><trkpt lat="44.25099866635981" lon="11.53348658886654"><ele>179.0</ele><time>2026-04-26T09:42:22Z</time></trkpt><trkpt lat="44.25105701397212" lon="11.533668817983923"><ele>177.0</ele><time>2026-04-26T09:42:23Z</time></trkpt><trkpt lat="44.251103741956065" lon="11.533833702603197"><ele>175.0</ele><time>2026-04-26T09:42:24Z</time></trkpt><trkpt lat="44.25116047357875" lon="11.533969462578456"><ele>173.0</ele><time>2026-04-26T09:42:25Z</time></trkpt><trkpt lat="44.25122717237858" lon="11.534010370195412"><ele>171.0</ele><time>2026-04-26T09:42:26Z</time></trkpt><trkpt lat="44.251300368598024" lon="11.533987441917803"><ele>169.0</ele><time>2026-04-26T09:42:27Z</time></trkpt><trkpt lat="44.251372021030676" lon="11.533882211371251"><ele>169.0</ele><time>2026-04-26T09:42:28Z</time></trkpt><trkpt lat="44.25138945607181" lon="11.533725210510216"><ele>169.0</ele><time>2026-04-26T09:42:29Z</time></trkpt><trkpt lat="44.25134700591771" lon="11.53354793537185"><ele>169.0</ele><time>2026-04-26T09:42:30Z</time></trkpt><trkpt lat="44.25126234822144" lon="11.533351066173564"><ele>169.0</ele><time>2026-04-26T09:42:31Z</time></trkpt><trkpt lat="44.25114889411688" lon="11.533148200935061"><ele>172.33333333333334</ele><time>2026-04-26T09:42:32Z</time></trkpt><trkpt lat="44.25106393826461" lon="11.532921775834087"><ele>175.66666666666666</ele><time>2026-04-26T09:42:33Z</time></trkpt><trkpt lat="44.25100654247406" lon="11.53267076432038"><ele>179.0</ele><time>2026-04-26T09:42:34Z</time></trkpt><trkpt lat="44.25099308758933" lon="11.53241287313647"><ele>181.66666666666666</ele><time>2026-04-26T09:42:35Z</time></trkpt><trkpt lat="44.25100352959688" lon="11.532139923849213"><ele>184.33333333333334</ele><time>2026-04-26T09:42:36Z</time></trkpt><trkpt lat="44.25103954442145" lon="11.531871917134614"><ele>187.0</ele><time>2026-04-26T09:42:37Z</time></trkpt><trkpt lat="44.25110168491702" lon="11.531612157372328"><ele>187.0</ele><time>2026-04-26T09:42:38Z</time></trkpt><trkpt lat="44.25115581403248" lon="11.531358749261006"><ele>187.0</ele><time>2026-04-26T09:42:39Z</time></trkpt><trkpt lat="44.251215600907074" lon="11.531112541584882"><ele>187.0</ele><time>2026-04-26T09:42:40Z</time></trkpt><trkpt lat="44.25131268259604" lon="11.530877928065806"><ele>184.66666666666669</ele><time>2026-04-26T09:42:41.001Z</time></trkpt><trkpt lat="44.251435652601835" lon="11.530653337591719"><ele>182.33333333333334</ele><time>2026-04-26T09:42:42.001Z</time></trkpt><trkpt lat="44.25151349376869" lon="11.530395516513115"><ele>180.0</ele><time>2026-04-26T09:42:43.001Z</time></trkpt><trkpt lat="44.25155328414149" lon="11.53010185599299"><ele>186.0</ele><time>2026-04-26T09:42:44.001Z</time></trkpt><trkpt lat="44.25160834496429" lon="11.529817011485017"><ele>192.0</ele><time>2026-04-26T09:42:45.001Z</time></trkpt><trkpt lat="44.25168979399153" lon="11.529588713331508"><ele>198.0</ele><time>2026-04-26T09:42:46.001Z</time></trkpt><trkpt lat="44.25175185183979" lon="11.529407150152853"><ele>198.0</ele><time>2026-04-26T09:42:47.001Z</time></trkpt><trkpt lat="44.25177673107097" lon="11.529289522866964"><ele>198.0</ele><time>2026-04-26T09:42:48.001Z</time></trkpt><trkpt lat="44.25177532854925" lon="11.529181300169569"><ele>198.0</ele><time>2026-04-26T09:42:49.001Z</time></trkpt><trkpt lat="44.2518587299821" lon="11.529060694779773"><ele>198.0</ele><time>2026-04-26T09:42:51.001Z</time></trkpt><trkpt lat="44.25194064393568" lon="11.529094971811576"><ele>198.0</ele><time>2026-04-26T09:42:52.001Z</time></trkpt><trkpt lat="44.25198348998319" lon="11.529172633161737"><ele>198.0</ele><time>2026-04-26T09:42:53.001Z</time></trkpt><trkpt lat="44.25198262571251" lon="11.529304572738981"><ele>198.0</ele><time>2026-04-26T09:42:54.001Z</time></trkpt><trkpt lat="44.25191298604024" lon="11.529446048329314"><ele>198.0</ele><time>2026-04-26T09:42:55.001Z</time></trkpt><trkpt lat="44.251846127512536" lon="11.529571545624236"><ele>198.0</ele><time>2026-04-26T09:42:56.001Z</time></trkpt><trkpt lat="44.25178993786123" lon="11.529708196335148"><ele>198.0</ele><time>2026-04-26T09:42:57.001Z</time></trkpt><trkpt lat="44.25175621104503" lon="11.52986661907006"><ele>199.60000000000002</ele><time>2026-04-26T09:42:58.001Z</time></trkpt><trkpt lat="44.25173573692092" lon="11.530020206256907"><ele>201.20000000000002</ele><time>2026-04-26T09:42:59.001Z</time></trkpt><trkpt lat="44.25172775919624" lon="11.530171814373674"><ele>202.8</ele><time>2026-04-26T09:43:00.001Z</time></trkpt><trkpt lat="44.251752715142516" lon="11.530311318709167"><ele>204.4</ele><time>2026-04-26T09:43:01.001Z</time></trkpt><trkpt lat="44.25180368421646" lon="11.530460172268192"><ele>206.0</ele><time>2026-04-26T09:43:02.001Z</time></trkpt><trkpt lat="44.251845742558324" lon="11.530580298800778"><ele>208.75</ele><time>2026-04-26T09:43:03.001Z</time></trkpt><trkpt lat="44.251844796979235" lon="11.53073993834102"><ele>211.5</ele><time>2026-04-26T09:43:04.001Z</time></trkpt><trkpt lat="44.25180951196919" lon="11.530902913713442"><ele>214.25</ele><time>2026-04-26T09:43:05.001Z</time></trkpt><trkpt lat="44.25176172798146" lon="11.531050898558457"><ele>217.0</ele><time>2026-04-26T09:43:06.001Z</time></trkpt><trkpt lat="44.2517171150972" lon="11.531190756453983"><ele>218.5</ele><time>2026-04-26T09:43:07.001Z</time></trkpt><trkpt lat="44.251672716578966" lon="11.53133924900047"><ele>220.0</ele><time>2026-04-26T09:43:08.001Z</time></trkpt><trkpt lat="44.25163494317273" lon="11.531489503466732"><ele>221.5</ele><time>2026-04-26T09:43:09.001Z</time></trkpt><trkpt lat="44.251598892741406" lon="11.531637545041622"><ele>223.0</ele><time>2026-04-26T09:43:10.001Z</time></trkpt><trkpt lat="44.25156154699888" lon="11.531783418023613"><ele>223.0</ele><time>2026-04-26T09:43:11.001Z</time></trkpt><trkpt lat="44.25156054195717" lon="11.53193543237442"><ele>223.0</ele><time>2026-04-26T09:43:12.001Z</time></trkpt><trkpt lat="44.25156936714404" lon="11.53210025445822"><ele>223.0</ele><time>2026-04-26T09:43:13.001Z</time></trkpt><trkpt lat="44.251597276815666" lon="11.532263885044419"><ele>223.0</ele><time>2026-04-26T09:43:14.001Z</time></trkpt><trkpt lat="44.251653461030536" lon="11.532390344874617"><ele>222.0</ele><time>2026-04-26T09:43:15.001Z</time></trkpt><trkpt lat="44.25174581936017" lon="11.532459279780209"><ele>221.0</ele><time>2026-04-26T09:43:16.001Z</time></trkpt><trkpt lat="44.25185069117601" lon="11.53246533627361"><ele>220.0</ele><time>2026-04-26T09:43:17.001Z</time></trkpt><trkpt lat="44.25194693607148" lon="11.532395990567492"><ele>219.0</ele><time>2026-04-26T09:43:18.001Z</time></trkpt><trkpt lat="44.252028785804015" lon="11.5322892440651"><ele>218.0</ele><time>2026-04-26T09:43:19.001Z</time></trkpt><trkpt lat="44.25206949071366" lon="11.532144623729897"><ele>219.25</ele><time>2026-04-26T09:43:20.001Z</time></trkpt><trkpt lat="44.25206765523442" lon="11.531941534192486"><ele>220.5</ele><time>2026-04-26T09:43:21.001Z</time></trkpt><trkpt lat="44.252059750319056" lon="11.53175054666009"><ele>221.75</ele><time>2026-04-26T09:43:22.001Z</time></trkpt><trkpt lat="44.25203931128785" lon="11.531557839385178"><ele>223.0</ele><time>2026-04-26T09:43:23.001Z</time></trkpt><trkpt lat="44.252036222784994" lon="11.531371868119619"><ele>221.5</ele><time>2026-04-26T09:43:24.001Z</time></trkpt><trkpt lat="44.2520837460033" lon="11.531208055684315"><ele>220.0</ele><time>2026-04-26T09:43:25.001Z</time></trkpt><trkpt lat="44.2521378763018" lon="11.531058441018539"><ele>218.5</ele><time>2026-04-26T09:43:26.001Z</time></trkpt><trkpt lat="44.25218769179075" lon="11.530905677062872"><ele>217.0</ele><time>2026-04-26T09:43:27.001Z</time></trkpt><trkpt lat="44.25225087490651" lon="11.530766650266116"><ele>223.0</ele><time>2026-04-26T09:43:28.001Z</time></trkpt><trkpt lat="44.25229602349034" lon="11.530608166682129"><ele>229.0</ele><time>2026-04-26T09:43:29.001Z</time></trkpt><trkpt lat="44.25231099680911" lon="11.530436425345599"><ele>235.0</ele><time>2026-04-26T09:43:30.001Z</time></trkpt><trkpt lat="44.25232464760571" lon="11.530274625526076"><ele>241.0</ele><time>2026-04-26T09:43:31.001Z</time></trkpt><trkpt lat="44.25234982023104" lon="11.530117189101823"><ele>241.20000000000002</ele><time>2026-04-26T09:43:32.001Z</time></trkpt><trkpt lat="44.25240372395951" lon="11.52998175313046"><ele>241.40000000000003</ele><time>2026-04-26T09:43:33.001Z</time></trkpt><trkpt lat="44.2524639773081" lon="11.529844112913409"><ele>241.6</ele><time>2026-04-26T09:43:34.001Z</time></trkpt><trkpt lat="44.25250730799595" lon="11.529706462251555"><ele>241.8</ele><time>2026-04-26T09:43:35.001Z</time></trkpt><trkpt lat="44.252536859555526" lon="11.529558649386814"><ele>242.0</ele><time>2026-04-26T09:43:36.001Z</time></trkpt><trkpt lat="44.25257111485269" lon="11.529414618872366"><ele>241.6</ele><time>2026-04-26T09:43:37.001Z</time></trkpt><trkpt lat="44.25260419141705" lon="11.529271866983857"><ele>241.2</ele><time>2026-04-26T09:43:38.002Z</time></trkpt><trkpt lat="44.252631267043895" lon="11.529127371809306"><ele>240.8</ele><time>2026-04-26T09:43:39.002Z</time></trkpt><trkpt lat="44.252659237487435" lon="11.528984361854379"><ele>240.4</ele><time>2026-04-26T09:43:40.002Z</time></trkpt><trkpt lat="44.25269858446338" lon="11.528850660168237"><ele>240.0</ele><time>2026-04-26T09:43:41.002Z</time></trkpt><trkpt lat="44.252757994500534" lon="11.52872884079937"><ele>241.0</ele><time>2026-04-26T09:43:42.002Z</time></trkpt><trkpt lat="44.25282292333932" lon="11.528614169557198"><ele>242.0</ele><time>2026-04-26T09:43:43.002Z</time></trkpt><trkpt lat="44.25288716114967" lon="11.528506249381762"><ele>243.0</ele><time>2026-04-26T09:43:44.002Z</time></trkpt><trkpt lat="44.252949070890324" lon="11.528401076305522"><ele>244.0</ele><time>2026-04-26T09:43:45.002Z</time></trkpt><trkpt lat="44.2530111463893" lon="11.528297961217252"><ele>245.0</ele><time>2026-04-26T09:43:46.002Z</time></trkpt><trkpt lat="44.25307114949202" lon="11.528192144443372"><ele>245.0</ele><time>2026-04-26T09:43:47.002Z</time></trkpt><trkpt lat="44.25311555735762" lon="11.52806720092956"><ele>245.0</ele><time>2026-04-26T09:43:48.002Z</time></trkpt><trkpt lat="44.25314625035443" lon="11.527924237802416"><ele>245.0</ele><time>2026-04-26T09:43:49.002Z</time></trkpt><trkpt lat="44.25315774207534" lon="11.527765426399155"><ele>245.0</ele><time>2026-04-26T09:43:50.002Z</time></trkpt><trkpt lat="44.253145032357956" lon="11.52761029980397"><ele>245.0</ele><time>2026-04-26T09:43:51.002Z</time></trkpt><trkpt lat="44.25314017145268" lon="11.527462270911345"><ele>243.25</ele><time>2026-04-26T09:43:52.002Z</time></trkpt><trkpt lat="44.25312244747162" lon="11.527313063934166"><ele>241.5</ele><time>2026-04-26T09:43:53.002Z</time></trkpt><trkpt lat="44.253096748550085" lon="11.527132183516711"><ele>239.75</ele><time>2026-04-26T09:43:54.002Z</time></trkpt><trkpt lat="44.253070732684606" lon="11.52695669725091"><ele>238.0</ele><time>2026-04-26T09:43:55.002Z</time></trkpt><trkpt lat="44.25304370755185" lon="11.526779669578048"><ele>237.5</ele><time>2026-04-26T09:43:56.002Z</time></trkpt><trkpt lat="44.2530193492681" lon="11.526603044163547"><ele>237.0</ele><time>2026-04-26T09:43:57.002Z</time></trkpt><trkpt lat="44.252997788790196" lon="11.526427973974918"><ele>236.5</ele><time>2026-04-26T09:43:58.002Z</time></trkpt><trkpt lat="44.252978739461795" lon="11.526251123393378"><ele>236.0</ele><time>2026-04-26T09:43:59.002Z</time></trkpt><trkpt lat="44.252959561968936" lon="11.526074550043704"><ele>239.25</ele><time>2026-04-26T09:44:00.002Z</time></trkpt><trkpt lat="44.252941427278124" lon="11.52589939250829"><ele>242.5</ele><time>2026-04-26T09:44:01.002Z</time></trkpt><trkpt lat="44.25292388021153" lon="11.525723085285813"><ele>245.75</ele><time>2026-04-26T09:44:02.002Z</time></trkpt><trkpt lat="44.25290288520264" lon="11.5255490446893"><ele>249.0</ele><time>2026-04-26T09:44:03.002Z</time></trkpt><trkpt lat="44.25288217110181" lon="11.525372140213365"><ele>254.25</ele><time>2026-04-26T09:44:04.002Z</time></trkpt><trkpt lat="44.252853477123615" lon="11.52520387934594"><ele>259.5</ele><time>2026-04-26T09:44:05Z</time></trkpt><trkpt lat="44.25279473070441" lon="11.525047358764164"><ele>264.75</ele><time>2026-04-26T09:44:06Z</time></trkpt><trkpt lat="44.25271063091615" lon="11.524911746510451"><ele>270.0</ele><time>2026-04-26T09:44:07Z</time></trkpt><trkpt lat="44.252620921509774" lon="11.524784077660918"><ele>270.0</ele><time>2026-04-26T09:44:08Z</time></trkpt><trkpt lat="44.25254746139339" lon="11.52463918939336"><ele>270.0</ele><time>2026-04-26T09:44:09Z</time></trkpt><trkpt lat="44.25248876761746" lon="11.524496652892267"><ele>270.0</ele><time>2026-04-26T09:44:10Z</time></trkpt><trkpt lat="44.25243288585282" lon="11.52436587541219"><ele>270.0</ele><time>2026-04-26T09:44:11Z</time></trkpt><trkpt lat="44.25239643860556" lon="11.524239083695463"><ele>269.4</ele><time>2026-04-26T09:44:12Z</time></trkpt><trkpt lat="44.25235707884256" lon="11.524115226555972"><ele>268.8</ele><time>2026-04-26T09:44:13Z</time></trkpt><trkpt lat="44.25232876855541" lon="11.523998900784543"><ele>268.2</ele><time>2026-04-26T09:44:14Z</time></trkpt><trkpt lat="44.25229521577479" lon="11.523870498049861"><ele>267.6</ele><time>2026-04-26T09:44:15Z</time></trkpt><trkpt lat="44.2522717300421" lon="11.523744821824414"><ele>267.0</ele><time>2026-04-26T09:44:16Z</time></trkpt><trkpt lat="44.25225403156107" lon="11.523615103869721"><ele>267.0</ele><time>2026-04-26T09:44:17Z</time></trkpt><trkpt lat="44.2522441565339" lon="11.523482360233043"><ele>267.0</ele><time>2026-04-26T09:44:18Z</time></trkpt><trkpt lat="44.25223994209882" lon="11.52336440352285"><ele>267.0</ele><time>2026-04-26T09:44:19Z</time></trkpt><trkpt lat="44.25224318554385" lon="11.5232569014242"><ele>267.0</ele><time>2026-04-26T09:44:20Z</time></trkpt><trkpt lat="44.25224287190391" lon="11.52315280076427"><ele>267.0</ele><time>2026-04-26T09:44:21Z</time></trkpt><trkpt lat="44.2522458095216" lon="11.52305974311453"><ele>267.0</ele><time>2026-04-26T09:44:22Z</time></trkpt><trkpt lat="44.252245239579224" lon="11.522953429881793"><ele>269.2</ele><time>2026-04-26T09:44:23Z</time></trkpt><trkpt lat="44.25224343079272" lon="11.522835082510962"><ele>271.4</ele><time>2026-04-26T09:44:24Z</time></trkpt><trkpt lat="44.25223899560881" lon="11.522709440293276"><ele>273.6</ele><time>2026-04-26T09:44:25Z</time></trkpt><trkpt lat="44.25222851702431" lon="11.522591283291211"><ele>275.8</ele><time>2026-04-26T09:44:26Z</time></trkpt><trkpt lat="44.25220514844079" lon="11.522467085028193"><ele>278.0</ele><time>2026-04-26T09:44:27Z</time></trkpt><trkpt lat="44.252176971141175" lon="11.522335479626548"><ele>278.0</ele><time>2026-04-26T09:44:28Z</time></trkpt><trkpt lat="44.25214038142859" lon="11.522200024491347"><ele>278.0</ele><time>2026-04-26T09:44:29Z</time></trkpt><trkpt lat="44.252099203064866" lon="11.522075007661169"><ele>278.0</ele><time>2026-04-26T09:44:30Z</time></trkpt><trkpt lat="44.25205488669621" lon="11.521948126899693"><ele>278.0</ele><time>2026-04-26T09:44:31Z</time></trkpt><trkpt lat="44.25200457672723" lon="11.5218201401667"><ele>278.0</ele><time>2026-04-26T09:44:32Z</time></trkpt><trkpt lat="44.25195410385114" lon="11.521690345651125"><ele>281.75</ele><time>2026-04-26T09:44:33Z</time></trkpt><trkpt lat="44.251906540198966" lon="11.521550512479408"><ele>285.5</ele><time>2026-04-26T09:44:34Z</time></trkpt><trkpt lat="44.25186333343474" lon="11.52140720644188"><ele>289.25</ele><time>2026-04-26T09:44:35Z</time></trkpt><trkpt lat="44.251814503065674" lon="11.521260483940782"><ele>293.0</ele><time>2026-04-26T09:44:36Z</time></trkpt><trkpt lat="44.251755127253375" lon="11.521118783561878"><ele>295.5</ele><time>2026-04-26T09:44:37Z</time></trkpt><trkpt lat="44.251677930333756" lon="11.520989255564745"><ele>298.0</ele><time>2026-04-26T09:44:38Z</time></trkpt><trkpt lat="44.2515918040591" lon="11.520870667697771"><ele>300.5</ele><time>2026-04-26T09:44:39Z</time></trkpt><trkpt lat="44.25151217023812" lon="11.520766648776673"><ele>303.0</ele><time>2026-04-26T09:44:40Z</time></trkpt><trkpt lat="44.25143257402391" lon="11.520670025030615"><ele>303.0</ele><time>2026-04-26T09:44:41Z</time></trkpt><trkpt lat="44.25135585805659" lon="11.520577672474078"><ele>303.0</ele><time>2026-04-26T09:44:42Z</time></trkpt><trkpt lat="44.251275581184785" lon="11.520492165537688"><ele>303.0</ele><time>2026-04-26T09:44:43Z</time></trkpt><trkpt lat="44.25118993589181" lon="11.520421774302292"><ele>303.0</ele><time>2026-04-26T09:44:44Z</time></trkpt><trkpt lat="44.25110142199391" lon="11.520366288181258"><ele>303.0</ele><time>2026-04-26T09:44:45.001Z</time></trkpt><trkpt lat="44.25101679079997" lon="11.520314392621783"><ele>305.0</ele><time>2026-04-26T09:44:46.001Z</time></trkpt><trkpt lat="44.250952842846" lon="11.520252182540137"><ele>307.0</ele><time>2026-04-26T09:44:47.001Z</time></trkpt><trkpt lat="44.25091091748353" lon="11.520166629270069"><ele>309.0</ele><time>2026-04-26T09:44:48.001Z</time></trkpt><trkpt lat="44.25091206760425" lon="11.52005969327806"><ele>311.0</ele><time>2026-04-26T09:44:49.001Z</time></trkpt><trkpt lat="44.25094790436282" lon="11.519952395761553"><ele>313.0</ele><time>2026-04-26T09:44:50.001Z</time></trkpt><trkpt lat="44.25099311555633" lon="11.519836714473348"><ele>315.0</ele><time>2026-04-26T09:44:51.001Z</time></trkpt><trkpt lat="44.25100213015002" lon="11.519713074072012"><ele>315.0</ele><time>2026-04-26T09:44:52.001Z</time></trkpt><trkpt lat="44.250981664143325" lon="11.519581083545198"><ele>315.0</ele><time>2026-04-26T09:44:53.001Z</time></trkpt><trkpt lat="44.250952834519474" lon="11.519452380292606"><ele>315.0</ele><time>2026-04-26T09:44:54.001Z</time></trkpt><trkpt lat="44.25092681006058" lon="11.519340804476085"><ele>315.0</ele><time>2026-04-26T09:44:55.001Z</time></trkpt><trkpt lat="44.250905433210846" lon="11.519249813608061"><ele>315.0</ele><time>2026-04-26T09:44:56.001Z</time></trkpt><trkpt lat="44.25087517566684" lon="11.519151595910019"><ele>315.0</ele><time>2026-04-26T09:44:57.001Z</time></trkpt><trkpt lat="44.25084340685113" lon="11.51904599586601"><ele>315.8</ele><time>2026-04-26T09:44:58.001Z</time></trkpt><trkpt lat="44.25080806940054" lon="11.51892794628893"><ele>316.6</ele><time>2026-04-26T09:44:59.001Z</time></trkpt><trkpt lat="44.250774009622155" lon="11.51879953909913"><ele>317.4</ele><time>2026-04-26T09:45:00.001Z</time></trkpt><trkpt lat="44.250741717959464" lon="11.518671189308913"><ele>318.2</ele><time>2026-04-26T09:45:01.001Z</time></trkpt><trkpt lat="44.25070798882929" lon="11.51853945660529"><ele>319.0</ele><time>2026-04-26T09:45:02.001Z</time></trkpt><trkpt lat="44.2506809219612" lon="11.518422957379581"><ele>320.3333333333333</ele><time>2026-04-26T09:45:03.001Z</time></trkpt><trkpt lat="44.25065683197111" lon="11.518318075230397"><ele>321.66666666666663</ele><time>2026-04-26T09:45:04.001Z</time></trkpt><trkpt lat="44.2506352523007" lon="11.51822697320894"><ele>323.0</ele><time>2026-04-26T09:45:05.001Z</time></trkpt><trkpt lat="44.250599850445866" lon="11.51808213483079"><ele>324.3333333333333</ele><time>2026-04-26T09:45:07.001Z</time></trkpt><trkpt lat="44.25057507939419" lon="11.517991538263983"><ele>325.6666666666667</ele><time>2026-04-26T09:45:09.001Z</time></trkpt><trkpt lat="44.25052115708102" lon="11.51788291850056"><ele>327.0</ele><time>2026-04-26T09:45:11.001Z</time></trkpt><trkpt lat="44.25042340524434" lon="11.51775740562729"><ele>328.0</ele><time>2026-04-26T09:45:13.001Z</time></trkpt><trkpt lat="44.25037104837272" lon="11.517668750844589"><ele>329.0</ele><time>2026-04-26T09:45:14.001Z</time></trkpt><trkpt lat="44.250320890819424" lon="11.517615627855356"><ele>330.0</ele><time>2026-04-26T09:45:15.001Z</time></trkpt><trkpt lat="44.250229433073486" lon="11.517552237406315"><ele>331.0</ele><time>2026-04-26T09:45:17.001Z</time></trkpt><trkpt lat="44.250144890969096" lon="11.51748257430553"><ele>332.0</ele><time>2026-04-26T09:45:19.001Z</time></trkpt><trkpt lat="44.25007566971243" lon="11.517413096537119"><ele>333.0</ele><time>2026-04-26T09:45:21.001Z</time></trkpt><trkpt lat="44.24999823864267" lon="11.517319984539505"><ele>333.0</ele><time>2026-04-26T09:45:23.001Z</time></trkpt><trkpt lat="44.249915889961144" lon="11.51721184823388"><ele>333.0</ele><time>2026-04-26T09:45:25.001Z</time></trkpt><trkpt lat="44.249851174728626" lon="11.51716775119129"><ele>333.0</ele><time>2026-04-26T09:45:26.001Z</time></trkpt><trkpt lat="44.2497752811932" lon="11.517139398314203"><ele>333.0</ele><time>2026-04-26T09:45:27.001Z</time></trkpt><trkpt lat="44.24969207914177" lon="11.5171273690931"><ele>333.0</ele><time>2026-04-26T09:45:28.001Z</time></trkpt><trkpt lat="44.24961909552021" lon="11.517131131587243"><ele>333.0</ele><time>2026-04-26T09:45:29.001Z</time></trkpt><trkpt lat="44.2495398980671" lon="11.517137148037493"><ele>333.79999999999995</ele><time>2026-04-26T09:45:30.001Z</time></trkpt><trkpt lat="44.24945360605542" lon="11.517140610095456"><ele>334.6</ele><time>2026-04-26T09:45:31.001Z</time></trkpt><trkpt lat="44.24936418210063" lon="11.517116105511825"><ele>335.4</ele><time>2026-04-26T09:45:32.001Z</time></trkpt><trkpt lat="44.249272520831305" lon="11.517060252933335"><ele>336.20000000000005</ele><time>2026-04-26T09:45:33.001Z</time></trkpt><trkpt lat="44.24918705342989" lon="11.516988422245776"><ele>337.0</ele><time>2026-04-26T09:45:34.001Z</time></trkpt><trkpt lat="44.249105488733136" lon="11.51691663520258"><ele>340.6</ele><time>2026-04-26T09:45:35.001Z</time></trkpt><trkpt lat="44.249009741366386" lon="11.516852391618325"><ele>344.20000000000005</ele><time>2026-04-26T09:45:36.001Z</time></trkpt><trkpt lat="44.24891189985499" lon="11.51679560055923"><ele>347.8</ele><time>2026-04-26T09:45:37.001Z</time></trkpt><trkpt lat="44.24881486253362" lon="11.51674711349476"><ele>351.4</ele><time>2026-04-26T09:45:38.001Z</time></trkpt><trkpt lat="44.24872574556826" lon="11.516686782235634"><ele>355.0</ele><time>2026-04-26T09:45:39.001Z</time></trkpt><trkpt lat="44.24864470196332" lon="11.516610035995742"><ele>355.0</ele><time>2026-04-26T09:45:40.001Z</time></trkpt><trkpt lat="44.24856401970777" lon="11.516510577632307"><ele>355.0</ele><time>2026-04-26T09:45:41.001Z</time></trkpt><trkpt lat="44.24848968249574" lon="11.516383544492374"><ele>355.0</ele><time>2026-04-26T09:45:42.001Z</time></trkpt><trkpt lat="44.24841208762122" lon="11.516242739924698"><ele>355.0</ele><time>2026-04-26T09:45:43.002Z</time></trkpt><trkpt lat="44.248331905284886" lon="11.516098898380225"><ele>354.25</ele><time>2026-04-26T09:45:44.002Z</time></trkpt><trkpt lat="44.24825567560885" lon="11.515954202342668"><ele>353.5</ele><time>2026-04-26T09:45:45.002Z</time></trkpt><trkpt lat="44.24818570679509" lon="11.515815649493193"><ele>352.75</ele><time>2026-04-26T09:45:46.002Z</time></trkpt><trkpt lat="44.24812528070026" lon="11.515682430648315"><ele>352.0</ele><time>2026-04-26T09:45:47.002Z</time></trkpt><trkpt lat="44.248070476732444" lon="11.51556732514448"><ele>351.20000000000005</ele><time>2026-04-26T09:45:48.002Z</time></trkpt><trkpt lat="44.24801886359161" lon="11.515465119466006"><ele>350.4</ele><time>2026-04-26T09:45:49.002Z</time></trkpt><trkpt lat="44.247966517470296" lon="11.515362537524675"><ele>349.6</ele><time>2026-04-26T09:45:50.002Z</time></trkpt><trkpt lat="44.24790893044165" lon="11.515248908839926"><ele>348.79999999999995</ele><time>2026-04-26T09:45:51.002Z</time></trkpt><trkpt lat="44.2478416187537" lon="11.515108407416655"><ele>348.0</ele><time>2026-04-26T09:45:52.002Z</time></trkpt><trkpt lat="44.247769215799195" lon="11.514947187079406"><ele>348.0</ele><time>2026-04-26T09:45:53.002Z</time></trkpt><trkpt lat="44.24768852070727" lon="11.514771381436509"><ele>348.0</ele><time>2026-04-26T09:45:54.002Z</time></trkpt><trkpt lat="44.24760571253584" lon="11.514589174617369"><ele>348.0</ele><time>2026-04-26T09:45:55.002Z</time></trkpt><trkpt lat="44.24753250431373" lon="11.514407503922502"><ele>349.0</ele><time>2026-04-26T09:45:56.002Z</time></trkpt><trkpt lat="44.24747572276955" lon="11.514226125154924"><ele>350.0</ele><time>2026-04-26T09:45:57.002Z</time></trkpt><trkpt lat="44.2474279111656" lon="11.514033453644803"><ele>351.0</ele><time>2026-04-26T09:45:58.002Z</time></trkpt><trkpt lat="44.247374720441584" lon="11.513843092142277"><ele>352.0</ele><time>2026-04-26T09:45:59.002Z</time></trkpt><trkpt lat="44.247314146927934" lon="11.513671860060958"><ele>356.75</ele><time>2026-04-26T09:46:00.002Z</time></trkpt><trkpt lat="44.24724438174965" lon="11.513514168090587"><ele>361.5</ele><time>2026-04-26T09:46:01.002Z</time></trkpt><trkpt lat="44.24716821445507" lon="11.513378813457383"><ele>366.25</ele><time>2026-04-26T09:46:02.002Z</time></trkpt><trkpt lat="44.24708901499932" lon="11.513251314831201"><ele>371.0</ele><time>2026-04-26T09:46:03.002Z</time></trkpt><trkpt lat="44.24700544880301" lon="11.513139620734433"><ele>371.0</ele><time>2026-04-26T09:46:04.002Z</time></trkpt><trkpt lat="44.246926592076335" lon="11.51302183980596"><ele>371.0</ele><time>2026-04-26T09:46:05.002Z</time></trkpt><trkpt lat="44.246867763611164" lon="11.512891261052234"><ele>371.0</ele><time>2026-04-26T09:46:06.002Z</time></trkpt><trkpt lat="44.24683354524383" lon="11.512728634797982"><ele>371.0</ele><time>2026-04-26T09:46:07.002Z</time></trkpt><trkpt lat="44.246805645459034" lon="11.512563928468124"><ele>369.5</ele><time>2026-04-26T09:46:08.002Z</time></trkpt><trkpt lat="44.24676315007866" lon="11.512386717177607"><ele>368.0</ele><time>2026-04-26T09:46:09.002Z</time></trkpt><trkpt lat="44.24670037058438" lon="11.512200039301751"><ele>366.5</ele><time>2026-04-26T09:46:10.002Z</time></trkpt><trkpt lat="44.24663083607906" lon="11.512009641945534"><ele>365.0</ele><time>2026-04-26T09:46:11Z</time></trkpt><trkpt lat="44.246553813190715" lon="11.511805743225068"><ele>365.25</ele><time>2026-04-26T09:46:12Z</time></trkpt><trkpt lat="44.246476312999825" lon="11.51161297772834"><ele>365.5</ele><time>2026-04-26T09:46:13Z</time></trkpt><trkpt lat="44.24640271220496" lon="11.51143382370761"><ele>365.75</ele><time>2026-04-26T09:46:14Z</time></trkpt><trkpt lat="44.24631864980681" lon="11.511274265128952"><ele>366.0</ele><time>2026-04-26T09:46:15Z</time></trkpt><trkpt lat="44.24621300390171" lon="11.511133296470305"><ele>366.0</ele><time>2026-04-26T09:46:16Z</time></trkpt><trkpt lat="44.246090141987864" lon="11.51100843497319"><ele>366.0</ele><time>2026-04-26T09:46:17Z</time></trkpt><trkpt lat="44.24595760371485" lon="11.51088433779135"><ele>366.0</ele><time>2026-04-26T09:46:18Z</time></trkpt><trkpt lat="44.245825899757705" lon="11.510760576388535"><ele>366.0</ele><time>2026-04-26T09:46:19Z</time></trkpt><trkpt lat="44.2456975735441" lon="11.510640094887416"><ele>366.0</ele><time>2026-04-26T09:46:20Z</time></trkpt><trkpt lat="44.2455772644735" lon="11.510524596583567"><ele>366.0</ele><time>2026-04-26T09:46:21Z</time></trkpt><trkpt lat="44.24547032455082" lon="11.510425216602567"><ele>366.0</ele><time>2026-04-26T09:46:22Z</time></trkpt><trkpt lat="44.245375366613224" lon="11.510330911345507"><ele>369.0</ele><time>2026-04-26T09:46:23Z</time></trkpt><trkpt lat="44.245291025502404" lon="11.510228614811606"><ele>372.0</ele><time>2026-04-26T09:46:24Z</time></trkpt><trkpt lat="44.24521375263888" lon="11.510105003815331"><ele>375.0</ele><time>2026-04-26T09:46:25Z</time></trkpt><trkpt lat="44.24514951062373" lon="11.50996774660626"><ele>378.0</ele><time>2026-04-26T09:46:26Z</time></trkpt><trkpt lat="44.245108038081234" lon="11.509810623704247"><ele>378.0</ele><time>2026-04-26T09:46:27Z</time></trkpt><trkpt lat="44.245096354668775" lon="11.509643333931836"><ele>378.0</ele><time>2026-04-26T09:46:28Z</time></trkpt><trkpt lat="44.245112025480346" lon="11.509468119983277"><ele>378.0</ele><time>2026-04-26T09:46:29Z</time></trkpt><trkpt lat="44.24515386792818" lon="11.509283691731472"><ele>378.0</ele><time>2026-04-26T09:46:30Z</time></trkpt><trkpt lat="44.24521361639292" lon="11.509089627702966"><ele>382.0</ele><time>2026-04-26T09:46:31Z</time></trkpt><trkpt lat="44.24528230961307" lon="11.508868690169406"><ele>386.0</ele><time>2026-04-26T09:46:32Z</time></trkpt><trkpt lat="44.24535074961128" lon="11.508647787802294"><ele>390.0</ele><time>2026-04-26T09:46:33Z</time></trkpt><trkpt lat="44.245422411243915" lon="11.508429171214072"><ele>392.0</ele><time>2026-04-26T09:46:34Z</time></trkpt><trkpt lat="44.245509754743054" lon="11.508228107427694"><ele>394.0</ele><time>2026-04-26T09:46:35Z</time></trkpt><trkpt lat="44.24557914978874" lon="11.508045263405426"><ele>396.0</ele><time>2026-04-26T09:46:36Z</time></trkpt><trkpt lat="44.24564447465881" lon="11.507877679391264"><ele>396.0</ele><time>2026-04-26T09:46:37Z</time></trkpt><trkpt lat="44.24569913709285" lon="11.507734645176681"><ele>396.0</ele><time>2026-04-26T09:46:38Z</time></trkpt><trkpt lat="44.24574629970537" lon="11.507598882128189"><ele>396.0</ele><time>2026-04-26T09:46:39Z</time></trkpt><trkpt lat="44.245777652860696" lon="11.507450025193247"><ele>396.0</ele><time>2026-04-26T09:46:40Z</time></trkpt><trkpt lat="44.2458138884209" lon="11.50730918089969"><ele>396.0</ele><time>2026-04-26T09:46:41Z</time></trkpt><trkpt lat="44.245813902243746" lon="11.507160481770413"><ele>395.75</ele><time>2026-04-26T09:46:42Z</time></trkpt><trkpt lat="44.245783075529644" lon="11.507013937768878"><ele>395.5</ele><time>2026-04-26T09:46:43Z</time></trkpt><trkpt lat="44.245728896943604" lon="11.506868346155946"><ele>395.25</ele><time>2026-04-26T09:46:44Z</time></trkpt><trkpt lat="44.24567215907149" lon="11.506711467271169"><ele>395.0</ele><time>2026-04-26T09:46:45Z</time></trkpt><trkpt lat="44.24561676622568" lon="11.506543132353446"><ele>396.75</ele><time>2026-04-26T09:46:46Z</time></trkpt><trkpt lat="44.245565964539765" lon="11.506371114703931"><ele>398.5</ele><time>2026-04-26T09:46:47Z</time></trkpt><trkpt lat="44.24551326654986" lon="11.50619422692215"><ele>400.25</ele><time>2026-04-26T09:46:48Z</time></trkpt><trkpt lat="44.24546091356715" lon="11.506002528466372"><ele>402.0</ele><time>2026-04-26T09:46:49Z</time></trkpt><trkpt lat="44.24540848794206" lon="11.505804942165918"><ele>402.0</ele><time>2026-04-26T09:46:50Z</time></trkpt><trkpt lat="44.24535404832831" lon="11.505602456152573"><ele>402.0</ele><time>2026-04-26T09:46:51Z</time></trkpt><trkpt lat="44.24530021456104" lon="11.505394694392843"><ele>402.0</ele><time>2026-04-26T09:46:52Z</time></trkpt><trkpt lat="44.24525267327954" lon="11.505186885600677"><ele>399.0</ele><time>2026-04-26T09:46:53.001Z</time></trkpt><trkpt lat="44.245215138831746" lon="11.505003850424016"><ele>396.0</ele><time>2026-04-26T09:46:54.001Z</time></trkpt><trkpt lat="44.24519805215349" lon="11.504837647860525"><ele>393.0</ele><time>2026-04-26T09:46:55.001Z</time></trkpt><trkpt lat="44.24521275720759" lon="11.504678662443956"><ele>390.0</ele><time>2026-04-26T09:46:56.001Z</time></trkpt><trkpt lat="44.24523908301221" lon="11.504530837444989"><ele>390.0</ele><time>2026-04-26T09:46:57.001Z</time></trkpt><trkpt lat="44.24526086249636" lon="11.504400428905873"><ele>390.0</ele><time>2026-04-26T09:46:58.001Z</time></trkpt><trkpt lat="44.245277505089405" lon="11.504262585342355"><ele>390.0</ele><time>2026-04-26T09:46:59.001Z</time></trkpt><trkpt lat="44.24529359336361" lon="11.504122717850857"><ele>390.0</ele><time>2026-04-26T09:47:00.001Z</time></trkpt><trkpt lat="44.24531530461826" lon="11.503982621761175"><ele>390.0</ele><time>2026-04-26T09:47:01.001Z</time></trkpt><trkpt lat="44.245319194636096" lon="11.503821239288635"><ele>391.2</ele><time>2026-04-26T09:47:02.001Z</time></trkpt><trkpt lat="44.24530732694114" lon="11.503658248033569"><ele>392.4</ele><time>2026-04-26T09:47:03.001Z</time></trkpt><trkpt lat="44.245281734835785" lon="11.503504088953727"><ele>393.6</ele><time>2026-04-26T09:47:04.001Z</time></trkpt><trkpt lat="44.245257568047094" lon="11.503363597724963"><ele>394.8</ele><time>2026-04-26T09:47:05.001Z</time></trkpt><trkpt lat="44.24523437213695" lon="11.503209721183579"><ele>396.0</ele><time>2026-04-26T09:47:06.001Z</time></trkpt><trkpt lat="44.24520447436423" lon="11.503041501012625"><ele>399.0</ele><time>2026-04-26T09:47:07.001Z</time></trkpt><trkpt lat="44.24518397691878" lon="11.50284847387303"><ele>402.0</ele><time>2026-04-26T09:47:08.001Z</time></trkpt><trkpt lat="44.24515107475786" lon="11.50267574365173"><ele>405.0</ele><time>2026-04-26T09:47:09.001Z</time></trkpt><trkpt lat="44.24509034545227" lon="11.502516775930987"><ele>408.0</ele><time>2026-04-26T09:47:10.001Z</time></trkpt><trkpt lat="44.24501143608599" lon="11.502374630284283"><ele>408.0</ele><time>2026-04-26T09:47:11.001Z</time></trkpt><trkpt lat="44.244930488291324" lon="11.502229629597236"><ele>408.0</ele><time>2026-04-26T09:47:12.001Z</time></trkpt><trkpt lat="44.24484778351812" lon="11.502074381390544"><ele>408.0</ele><time>2026-04-26T09:47:13.001Z</time></trkpt><trkpt lat="44.244765404427625" lon="11.501904972402253"><ele>408.0</ele><time>2026-04-26T09:47:14.001Z</time></trkpt><trkpt lat="44.24468076703237" lon="11.501729957707107"><ele>407.66666666666663</ele><time>2026-04-26T09:47:15.001Z</time></trkpt><trkpt lat="44.24459429796051" lon="11.501541974658885"><ele>407.3333333333333</ele><time>2026-04-26T09:47:16.001Z</time></trkpt><trkpt lat="44.244503832867615" lon="11.50134954319844"><ele>407.0</ele><time>2026-04-26T09:47:17.001Z</time></trkpt><trkpt lat="44.244411112625954" lon="11.501149841532017"><ele>410.66666666666663</ele><time>2026-04-26T09:47:18.001Z</time></trkpt><trkpt lat="44.24431601801224" lon="11.50094027057943"><ele>414.33333333333337</ele><time>2026-04-26T09:47:19.001Z</time></trkpt><trkpt lat="44.2442246401926" lon="11.500738703507542"><ele>418.0</ele><time>2026-04-26T09:47:20.001Z</time></trkpt><trkpt lat="44.24413632414089" lon="11.50053968692805"><ele>419.6666666666667</ele><time>2026-04-26T09:47:21.001Z</time></trkpt><trkpt lat="44.24404994143255" lon="11.500350208263624"><ele>421.33333333333337</ele><time>2026-04-26T09:47:22.001Z</time></trkpt><trkpt lat="44.2439630083862" lon="11.50016427356324"><ele>423.0</ele><time>2026-04-26T09:47:23.001Z</time></trkpt><trkpt lat="44.243877955621045" lon="11.499987774580402"><ele>425.5</ele><time>2026-04-26T09:47:24.001Z</time></trkpt><trkpt lat="44.24380719913112" lon="11.499825895630636"><ele>428.0</ele><time>2026-04-26T09:47:25.001Z</time></trkpt><trkpt lat="44.24375279420703" lon="11.499662784317294"><ele>430.5</ele><time>2026-04-26T09:47:26.001Z</time></trkpt><trkpt lat="44.24370828835915" lon="11.499506141589547"><ele>433.0</ele><time>2026-04-26T09:47:27.001Z</time></trkpt><trkpt lat="44.24366297812784" lon="11.499351718500701"><ele>434.59999999999997</ele><time>2026-04-26T09:47:28.001Z</time></trkpt><trkpt lat="44.243616722818366" lon="11.49920705184364"><ele>436.19999999999993</ele><time>2026-04-26T09:47:29.001Z</time></trkpt><trkpt lat="44.24357259063106" lon="11.49908149613802"><ele>437.8</ele><time>2026-04-26T09:47:30.001Z</time></trkpt><trkpt lat="44.24351979122728" lon="11.498943971437717"><ele>439.4</ele><time>2026-04-26T09:47:31.001Z</time></trkpt><trkpt lat="44.243463906124404" lon="11.498806994684676"><ele>441.0</ele><time>2026-04-26T09:47:32.001Z</time></trkpt><trkpt lat="44.2434017504263" lon="11.498678857604675"><ele>441.0</ele><time>2026-04-26T09:47:33.001Z</time></trkpt><trkpt lat="44.24333071811778" lon="11.498555401864008"><ele>441.0</ele><time>2026-04-26T09:47:34.001Z</time></trkpt><trkpt lat="44.243258571638556" lon="11.498429422126438"><ele>441.0</ele><time>2026-04-26T09:47:35.001Z</time></trkpt><trkpt lat="44.24318008543717" lon="11.498291140325433"><ele>441.0</ele><time>2026-04-26T09:47:36.001Z</time></trkpt><trkpt lat="44.24309287214589" lon="11.498138628188476"><ele>441.75</ele><time>2026-04-26T09:47:37.001Z</time></trkpt><trkpt lat="44.24300423926269" lon="11.497971681144486"><ele>442.5</ele><time>2026-04-26T09:47:38.001Z</time></trkpt><trkpt lat="44.24292068308914" lon="11.497797085283734"><ele>443.25</ele><time>2026-04-26T09:47:39.001Z</time></trkpt><trkpt lat="44.242842867253565" lon="11.497626302067923"><ele>444.0</ele><time>2026-04-26T09:47:40.001Z</time></trkpt><trkpt lat="44.242769815258484" lon="11.497449438117256"><ele>444.0</ele><time>2026-04-26T09:47:41.001Z</time></trkpt><trkpt lat="44.242703075479376" lon="11.497264427909085"><ele>444.0</ele><time>2026-04-26T09:47:42.001Z</time></trkpt><trkpt lat="44.242644396286764" lon="11.497067690977227"><ele>444.0</ele><time>2026-04-26T09:47:43.001Z</time></trkpt><trkpt lat="44.242578302594374" lon="11.496870521567333"><ele>443.66666666666663</ele><time>2026-04-26T09:47:44.001Z</time></trkpt><trkpt lat="44.2424904653788" lon="11.49669193313635"><ele>443.3333333333333</ele><time>2026-04-26T09:47:45.001Z</time></trkpt><trkpt lat="44.242377684216024" lon="11.496528807037373"><ele>443.0</ele><time>2026-04-26T09:47:46.001Z</time></trkpt><trkpt lat="44.24226170671657" lon="11.49638234454253"><ele>443.25</ele><time>2026-04-26T09:47:47.001Z</time></trkpt><trkpt lat="44.242161662816656" lon="11.496232509172149"><ele>443.5</ele><time>2026-04-26T09:47:48.001Z</time></trkpt><trkpt lat="44.24206097365806" lon="11.49610148198227"><ele>443.75</ele><time>2026-04-26T09:47:49.001Z</time></trkpt><trkpt lat="44.24196611273474" lon="11.495978609023824"><ele>444.0</ele><time>2026-04-26T09:47:50.001Z</time></trkpt><trkpt lat="44.2418799003958" lon="11.495856137053561"><ele>444.0</ele><time>2026-04-26T09:47:51.002Z</time></trkpt><trkpt lat="44.241807825961324" lon="11.495731767313336"><ele>444.0</ele><time>2026-04-26T09:47:52.002Z</time></trkpt><trkpt lat="44.24178108742108" lon="11.495568356344151"><ele>444.0</ele><time>2026-04-26T09:47:53.002Z</time></trkpt><trkpt lat="44.241788298472954" lon="11.495386051762525"><ele>444.0</ele><time>2026-04-26T09:47:54.002Z</time></trkpt><trkpt lat="44.24183615479987" lon="11.49521424448936"><ele>447.5</ele><time>2026-04-26T09:47:55.002Z</time></trkpt><trkpt lat="44.24188248635236" lon="11.495053901831449"><ele>451.0</ele><time>2026-04-26T09:47:56.002Z</time></trkpt><trkpt lat="44.241920772766896" lon="11.494886426483212"><ele>454.5</ele><time>2026-04-26T09:47:57.002Z</time></trkpt><trkpt lat="44.24197525725171" lon="11.494727004319193"><ele>458.0</ele><time>2026-04-26T09:47:58.002Z</time></trkpt><trkpt lat="44.24202704737222" lon="11.494561605925865"><ele>461.0</ele><time>2026-04-26T09:47:59.002Z</time></trkpt><trkpt lat="44.242067541424305" lon="11.494414992397628"><ele>463.99999999999994</ele><time>2026-04-26T09:48:00.002Z</time></trkpt><trkpt lat="44.24210107977147" lon="11.494286453459733"><ele>466.99999999999994</ele><time>2026-04-26T09:48:01.002Z</time></trkpt><trkpt lat="44.24212598535247" lon="11.494159558268487"><ele>470.0</ele><time>2026-04-26T09:48:02.002Z</time></trkpt><trkpt lat="44.24213763079036" lon="11.494024065145874"><ele>473.0</ele><time>2026-04-26T09:48:03.002Z</time></trkpt><trkpt lat="44.2421234098894" lon="11.493892162719453"><ele>473.0</ele><time>2026-04-26T09:48:04.002Z</time></trkpt><trkpt lat="44.24207100390683" lon="11.49377966242731"><ele>472.99999999999994</ele><time>2026-04-26T09:48:05.002Z</time></trkpt><trkpt lat="44.241992237085825" lon="11.493695792785974"><ele>472.99999999999994</ele><time>2026-04-26T09:48:06.002Z</time></trkpt><trkpt lat="44.241894445468695" lon="11.493610320965702"><ele>473.0</ele><time>2026-04-26T09:48:07.002Z</time></trkpt><trkpt lat="44.24178783119777" lon="11.49352023148388"><ele>473.0</ele><time>2026-04-26T09:48:08.002Z</time></trkpt><trkpt lat="44.24167944360435" lon="11.493441505721062"><ele>472.59999999999997</ele><time>2026-04-26T09:48:09.002Z</time></trkpt><trkpt lat="44.24157736501234" lon="11.493380982858206"><ele>472.19999999999993</ele><time>2026-04-26T09:48:10.002Z</time></trkpt><trkpt lat="44.24148907580573" lon="11.493326985610175"><ele>471.8</ele><time>2026-04-26T09:48:11.002Z</time></trkpt><trkpt lat="44.2413982573857" lon="11.493275722375431"><ele>471.4</ele><time>2026-04-26T09:48:12.002Z</time></trkpt><trkpt lat="44.24131280509796" lon="11.493211675401007"><ele>471.0</ele><time>2026-04-26T09:48:13.002Z</time></trkpt><trkpt lat="44.241228121683854" lon="11.49313603475696"><ele>471.6</ele><time>2026-04-26T09:48:14.002Z</time></trkpt><trkpt lat="44.24114780177918" lon="11.493048160268529"><ele>472.20000000000005</ele><time>2026-04-26T09:48:15.002Z</time></trkpt><trkpt lat="44.241075413191844" lon="11.492941861706718"><ele>472.79999999999995</ele><time>2026-04-26T09:48:16.002Z</time></trkpt><trkpt lat="44.24102033844882" lon="11.492830517460146"><ele>473.4</ele><time>2026-04-26T09:48:17Z</time></trkpt><trkpt lat="44.24099224871428" lon="11.49271795656526"><ele>474.0</ele><time>2026-04-26T09:48:18Z</time></trkpt><trkpt lat="44.24098887957204" lon="11.492586877517393"><ele>474.0</ele><time>2026-04-26T09:48:19Z</time></trkpt><trkpt lat="44.241011962791084" lon="11.492431390187106"><ele>474.0</ele><time>2026-04-26T09:48:20Z</time></trkpt><trkpt lat="44.24104980002914" lon="11.492259325148122"><ele>474.0</ele><time>2026-04-26T09:48:21Z</time></trkpt><trkpt lat="44.24110311069339" lon="11.492074365045312"><ele>474.0</ele><time>2026-04-26T09:48:22Z</time></trkpt><trkpt lat="44.241160156109494" lon="11.491884048437685"><ele>472.5</ele><time>2026-04-26T09:48:23Z</time></trkpt><trkpt lat="44.24118719120909" lon="11.491702674950767"><ele>471.0</ele><time>2026-04-26T09:48:24Z</time></trkpt><trkpt lat="44.241189826935646" lon="11.491524208625384"><ele>469.5</ele><time>2026-04-26T09:48:25Z</time></trkpt><trkpt lat="44.24117807462329" lon="11.491354318231782"><ele>468.0</ele><time>2026-04-26T09:48:26Z</time></trkpt><trkpt lat="44.241163087584226" lon="11.49118545083822"><ele>468.0</ele><time>2026-04-26T09:48:27Z</time></trkpt><trkpt lat="44.24113788303458" lon="11.491006441941167"><ele>468.0</ele><time>2026-04-26T09:48:28Z</time></trkpt><trkpt lat="44.241095949626256" lon="11.49082244352472"><ele>468.0</ele><time>2026-04-26T09:48:29Z</time></trkpt><trkpt lat="44.24103363254815" lon="11.49066293673602"><ele>468.0</ele><time>2026-04-26T09:48:30Z</time></trkpt><trkpt lat="44.240981926976445" lon="11.490516165043628"><ele>469.0</ele><time>2026-04-26T09:48:31Z</time></trkpt><trkpt lat="44.24095675109211" lon="11.490369928035904"><ele>469.99999999999994</ele><time>2026-04-26T09:48:32Z</time></trkpt><trkpt lat="44.2409680563255" lon="11.490234057737608"><ele>470.99999999999994</ele><time>2026-04-26T09:48:33Z</time></trkpt><trkpt lat="44.24101179690128" lon="11.490110752914259"><ele>472.0</ele><time>2026-04-26T09:48:34Z</time></trkpt><trkpt lat="44.24109885404828" lon="11.490006710034756"><ele>473.0</ele><time>2026-04-26T09:48:35Z</time></trkpt><trkpt lat="44.24120360517546" lon="11.48991401543992"><ele>473.0</ele><time>2026-04-26T09:48:36Z</time></trkpt><trkpt lat="44.24132173083389" lon="11.48982793666427"><ele>473.0</ele><time>2026-04-26T09:48:37Z</time></trkpt><trkpt lat="44.24143689930891" lon="11.48972269378553"><ele>473.0</ele><time>2026-04-26T09:48:38Z</time></trkpt><trkpt lat="44.24156004759495" lon="11.489636998782773"><ele>473.0</ele><time>2026-04-26T09:48:39Z</time></trkpt><trkpt lat="44.241670412806954" lon="11.489540304172142"><ele>472.5</ele><time>2026-04-26T09:48:40Z</time></trkpt><trkpt lat="44.24177439951065" lon="11.489425729797464"><ele>472.0</ele><time>2026-04-26T09:48:41Z</time></trkpt><trkpt lat="44.24186441087411" lon="11.489294421447687"><ele>471.5</ele><time>2026-04-26T09:48:42Z</time></trkpt><trkpt lat="44.24193974516322" lon="11.489134456782987"><ele>471.0</ele><time>2026-04-26T09:48:43Z</time></trkpt><trkpt lat="44.24198280500945" lon="11.488952824967328"><ele>471.0</ele><time>2026-04-26T09:48:44Z</time></trkpt><trkpt lat="44.242012323838274" lon="11.488766602165065"><ele>471.0</ele><time>2026-04-26T09:48:45Z</time></trkpt><trkpt lat="44.242043766432865" lon="11.488587873742853"><ele>471.0</ele><time>2026-04-26T09:48:46Z</time></trkpt><trkpt lat="44.24207971594084" lon="11.488408579762206"><ele>471.0</ele><time>2026-04-26T09:48:47Z</time></trkpt><trkpt lat="44.24210536567049" lon="11.488248165509853"><ele>473.0</ele><time>2026-04-26T09:48:48Z</time></trkpt><trkpt lat="44.24214300216047" lon="11.488097194309264"><ele>475.0</ele><time>2026-04-26T09:48:49Z</time></trkpt><trkpt lat="44.24219418366294" lon="11.487963220405634"><ele>477.0</ele><time>2026-04-26T09:48:50Z</time></trkpt><trkpt lat="44.242256672557595" lon="11.487840118617843"><ele>479.0</ele><time>2026-04-26T09:48:51Z</time></trkpt><trkpt lat="44.24233655424257" lon="11.487732250055066"><ele>481.0</ele><time>2026-04-26T09:48:52Z</time></trkpt><trkpt lat="44.242396335464015" lon="11.487620909528479"><ele>481.0</ele><time>2026-04-26T09:48:53Z</time></trkpt><trkpt lat="44.24241425984003" lon="11.487500244745645"><ele>481.0</ele><time>2026-04-26T09:48:54Z</time></trkpt><trkpt lat="44.24240128660286" lon="11.487372300292412"><ele>481.0</ele><time>2026-04-26T09:48:55Z</time></trkpt><trkpt lat="44.24235806300261" lon="11.487237510544732"><ele>481.0</ele><time>2026-04-26T09:48:56Z</time></trkpt><trkpt lat="44.242310228377505" lon="11.487107377767888"><ele>481.0</ele><time>2026-04-26T09:48:57.001Z</time></trkpt><trkpt lat="44.24227000737579" lon="11.486954649706103"><ele>475.0</ele><time>2026-04-26T09:48:58.001Z</time></trkpt><trkpt lat="44.24224042961288" lon="11.486789778891765"><ele>469.0</ele><time>2026-04-26T09:48:59.001Z</time></trkpt><trkpt lat="44.242216232091224" lon="11.48663173397369"><ele>463.0</ele><time>2026-04-26T09:49:00.001Z</time></trkpt><trkpt lat="44.24219924038342" lon="11.486487249358925"><ele>457.0</ele><time>2026-04-26T09:49:01.001Z</time></trkpt><trkpt lat="44.24217914027934" lon="11.486354134966422"><ele>451.0</ele><time>2026-04-26T09:49:02.001Z</time></trkpt><trkpt lat="44.24216490466269" lon="11.48624051991463"><ele>451.00000000000006</ele><time>2026-04-26T09:49:03.001Z</time></trkpt><trkpt lat="44.24213882054606" lon="11.48610698426619"><ele>451.0</ele><time>2026-04-26T09:49:05.001Z</time></trkpt><trkpt lat="44.24210826036721" lon="11.486016814311688"><ele>451.0</ele><time>2026-04-26T09:49:08.001Z</time></trkpt><trkpt lat="44.242079986418034" lon="11.485931671121785"><ele>451.0</ele><time>2026-04-26T09:49:12.001Z</time></trkpt><trkpt lat="44.24204444030556" lon="11.485851598294415"><ele>451.00000000000006</ele><time>2026-04-26T09:49:14.001Z</time></trkpt><trkpt lat="44.24200658250614" lon="11.48571487790282"><ele>451.0</ele><time>2026-04-26T09:49:16.001Z</time></trkpt><trkpt lat="44.24201126537112" lon="11.485588009598125"><ele>451.0</ele><time>2026-04-26T09:49:17.001Z</time></trkpt><trkpt lat="44.24204278271296" lon="11.485452697813214"><ele>451.0</ele><time>2026-04-26T09:49:18.001Z</time></trkpt><trkpt lat="44.24208545630239" lon="11.485324055721764"><ele>451.0</ele><time>2026-04-26T09:49:19.001Z</time></trkpt><trkpt lat="44.24213397518583" lon="11.485213797586413"><ele>451.0</ele><time>2026-04-26T09:49:20.001Z</time></trkpt><trkpt lat="44.24217164896035" lon="11.485127556729644"><ele>451.0</ele><time>2026-04-26T09:49:21.001Z</time></trkpt><trkpt lat="44.24221656483462" lon="11.485012401400512"><ele>451.00000000000006</ele><time>2026-04-26T09:49:23.001Z</time></trkpt><trkpt lat="44.242238711638876" lon="11.484895081033427"><ele>451.0</ele><time>2026-04-26T09:49:25.001Z</time></trkpt><trkpt lat="44.24223883785937" lon="11.484803166244555"><ele>451.0</ele><time>2026-04-26T09:49:26.001Z</time></trkpt><trkpt lat="44.242228665203335" lon="11.48470411918935"><ele>451.0</ele><time>2026-04-26T09:49:27.001Z</time></trkpt><trkpt lat="44.242195659130715" lon="11.48457794445693"><ele>451.00000000000006</ele><time>2026-04-26T09:49:29.001Z</time></trkpt><trkpt lat="44.24214076237493" lon="11.484428688225144"><ele>451.0</ele><time>2026-04-26T09:50:08.002Z</time></trkpt><trkpt lat="44.24214882431042" lon="11.484314434627798"><ele>450.6</ele><time>2026-04-26T09:50:09.002Z</time></trkpt><trkpt lat="44.24219605286597" lon="11.48419549202182"><ele>450.20000000000005</ele><time>2026-04-26T09:50:10.002Z</time></trkpt><trkpt lat="44.242256472527956" lon="11.48408530075965"><ele>449.79999999999995</ele><time>2026-04-26T09:50:11.002Z</time></trkpt><trkpt lat="44.242278803203405" lon="11.483946556135306"><ele>449.4</ele><time>2026-04-26T09:50:12.002Z</time></trkpt><trkpt lat="44.24231524098464" lon="11.483753398456892"><ele>449.0</ele><time>2026-04-26T09:50:13.002Z</time></trkpt><trkpt lat="44.24234045104461" lon="11.483570122576802"><ele>450.0</ele><time>2026-04-26T09:50:14.002Z</time></trkpt><trkpt lat="44.24235342336204" lon="11.483414477671193"><ele>451.0</ele><time>2026-04-26T09:50:15.002Z</time></trkpt><trkpt lat="44.242328183129665" lon="11.483245407248367"><ele>452.0</ele><time>2026-04-26T09:50:16.002Z</time></trkpt><trkpt lat="44.24225588402723" lon="11.48304990018907"><ele>453.0</ele><time>2026-04-26T09:50:17.002Z</time></trkpt><trkpt lat="44.24215377340386" lon="11.482878093311651"><ele>458.25</ele><time>2026-04-26T09:50:18.002Z</time></trkpt><trkpt lat="44.2420410037716" lon="11.482724400160587"><ele>463.5</ele><time>2026-04-26T09:50:19.002Z</time></trkpt><trkpt lat="44.24197558522979" lon="11.482557114774234"><ele>468.75</ele><time>2026-04-26T09:50:20.002Z</time></trkpt><trkpt lat="44.24191541320093" lon="11.482387269456215"><ele>474.0</ele><time>2026-04-26T09:50:21.002Z</time></trkpt><trkpt lat="44.24183441492172" lon="11.48226068647956"><ele>474.0</ele><time>2026-04-26T09:50:22.002Z</time></trkpt><trkpt lat="44.24173378890772" lon="11.48218321181337"><ele>474.0</ele><time>2026-04-26T09:50:23Z</time></trkpt><trkpt lat="44.24161633015169" lon="11.482134968002525"><ele>474.0</ele><time>2026-04-26T09:50:24Z</time></trkpt><trkpt lat="44.241495170376446" lon="11.482098239509304"><ele>474.0</ele><time>2026-04-26T09:50:25Z</time></trkpt><trkpt lat="44.24137381596127" lon="11.482029228884501"><ele>476.2</ele><time>2026-04-26T09:50:26Z</time></trkpt><trkpt lat="44.24125522614629" lon="11.481931419577657"><ele>478.4</ele><time>2026-04-26T09:50:27Z</time></trkpt><trkpt lat="44.241168743730285" lon="11.481825878495666"><ele>480.6</ele><time>2026-04-26T09:50:28Z</time></trkpt><trkpt lat="44.24111360510048" lon="11.481713860196823"><ele>482.8</ele><time>2026-04-26T09:50:29Z</time></trkpt><trkpt lat="44.24109230978617" lon="11.481608218398783"><ele>485.0</ele><time>2026-04-26T09:50:30Z</time></trkpt><trkpt lat="44.24105750708681" lon="11.481454166301583"><ele>485.0</ele><time>2026-04-26T09:50:32Z</time></trkpt><trkpt lat="44.241003414323195" lon="11.481385325391432"><ele>485.0</ele><time>2026-04-26T09:50:33Z</time></trkpt><trkpt lat="44.24094421631287" lon="11.481276215967224"><ele>485.0</ele><time>2026-04-26T09:50:34Z</time></trkpt><trkpt lat="44.24087575021864" lon="11.481120308733345"><ele>485.0</ele><time>2026-04-26T09:50:35Z</time></trkpt><trkpt lat="44.24076625891396" lon="11.48092605344341"><ele>485.66666666666663</ele><time>2026-04-26T09:50:36Z</time></trkpt><trkpt lat="44.2406388351866" lon="11.480725189908625"><ele>486.33333333333337</ele><time>2026-04-26T09:50:37Z</time></trkpt><trkpt lat="44.24051170515772" lon="11.48055799508853"><ele>487.0</ele><time>2026-04-26T09:50:38Z</time></trkpt><trkpt lat="44.24039224574633" lon="11.48039524924022"><ele>484.6666666666667</ele><time>2026-04-26T09:50:39Z</time></trkpt><trkpt lat="44.24027588842977" lon="11.480231337458214"><ele>482.33333333333337</ele><time>2026-04-26T09:50:40Z</time></trkpt><trkpt lat="44.24015835100192" lon="11.480061465991275"><ele>480.0</ele><time>2026-04-26T09:50:41Z</time></trkpt><trkpt lat="44.24005827984501" lon="11.47991494968382"><ele>480.0</ele><time>2026-04-26T09:50:42Z</time></trkpt><trkpt lat="44.23996070484484" lon="11.479767697300057"><ele>480.0</ele><time>2026-04-26T09:50:43Z</time></trkpt><trkpt lat="44.23986454902152" lon="11.47961283477076"><ele>480.0</ele><time>2026-04-26T09:50:44Z</time></trkpt><trkpt lat="44.23975460438476" lon="11.479438132860167"><ele>481.0</ele><time>2026-04-26T09:50:45Z</time></trkpt><trkpt lat="44.23962444399661" lon="11.479290167038833"><ele>482.0</ele><time>2026-04-26T09:50:46Z</time></trkpt><trkpt lat="44.23947190643039" lon="11.479174511677344"><ele>483.0</ele><time>2026-04-26T09:50:47Z</time></trkpt><trkpt lat="44.23930918510665" lon="11.47907848789626"><ele>483.0</ele><time>2026-04-26T09:50:48Z</time></trkpt><trkpt lat="44.239143513636016" lon="11.478990055121102"><ele>483.0</ele><time>2026-04-26T09:50:49Z</time></trkpt><trkpt lat="44.23898165084379" lon="11.478895255948691"><ele>483.0</ele><time>2026-04-26T09:50:50Z</time></trkpt><trkpt lat="44.23882031609568" lon="11.478791714813603"><ele>482.25</ele><time>2026-04-26T09:50:51Z</time></trkpt><trkpt lat="44.23867951810133" lon="11.47870181778325"><ele>481.5</ele><time>2026-04-26T09:50:52Z</time></trkpt><trkpt lat="44.238573789163425" lon="11.47861593656105"><ele>480.75</ele><time>2026-04-26T09:50:53Z</time></trkpt><trkpt lat="44.23848371039117" lon="11.478543354732993"><ele>480.0</ele><time>2026-04-26T09:50:54Z</time></trkpt><trkpt lat="44.23840959498683" lon="11.478477886962889"><ele>480.0</ele><time>2026-04-26T09:50:55Z</time></trkpt><trkpt lat="44.23835097031039" lon="11.478423324314281"><ele>480.0</ele><time>2026-04-26T09:50:56Z</time></trkpt><trkpt lat="44.238265481894295" lon="11.478348868028176"><ele>480.0</ele><time>2026-04-26T09:50:58Z</time></trkpt><trkpt lat="44.23819477116126" lon="11.47829344812396"><ele>480.0</ele><time>2026-04-26T09:51:00Z</time></trkpt><trkpt lat="44.238126923801346" lon="11.478250798106895"><ele>480.0</ele><time>2026-04-26T09:51:04.001Z</time></trkpt><trkpt lat="44.23800608017077" lon="11.478202000170166"><ele>479.8</ele><time>2026-04-26T09:52:02.002Z</time></trkpt><trkpt lat="44.2379452610674" lon="11.478171534064659"><ele>479.6</ele><time>2026-04-26T09:52:03.002Z</time></trkpt><trkpt lat="44.237861340398986" lon="11.478135639290949"><ele>479.4</ele><time>2026-04-26T09:52:04.002Z</time></trkpt><trkpt lat="44.23777071960133" lon="11.478121247403063"><ele>479.2</ele><time>2026-04-26T09:52:05.002Z</time></trkpt><trkpt lat="44.23765885122216" lon="11.478125469313582"><ele>479.0</ele><time>2026-04-26T09:52:06.002Z</time></trkpt><trkpt lat="44.2375474194274" lon="11.47816382733329"><ele>479.0</ele><time>2026-04-26T09:52:07.002Z</time></trkpt><trkpt lat="44.23745400421012" lon="11.47822982263063"><ele>479.0</ele><time>2026-04-26T09:52:08.002Z</time></trkpt><trkpt lat="44.23737065406538" lon="11.478295710754098"><ele>479.0</ele><time>2026-04-26T09:52:09.002Z</time></trkpt><trkpt lat="44.23727345084938" lon="11.478332470860613"><ele>479.0</ele><time>2026-04-26T09:52:10.002Z</time></trkpt><trkpt lat="44.23716582570446" lon="11.47833011369637"><ele>479.0</ele><time>2026-04-26T09:52:11.002Z</time></trkpt><trkpt lat="44.23705916885008" lon="11.478258628194533"><ele>478.3333333333333</ele><time>2026-04-26T09:52:12.002Z</time></trkpt><trkpt lat="44.23694722753808" lon="11.478150538797905"><ele>477.66666666666663</ele><time>2026-04-26T09:52:13.002Z</time></trkpt><trkpt lat="44.236805630945945" lon="11.478028799411764"><ele>477.0</ele><time>2026-04-26T09:52:14.002Z</time></trkpt><trkpt lat="44.23664571594788" lon="11.477959922124244"><ele>477.33333333333337</ele><time>2026-04-26T09:52:15.002Z</time></trkpt><trkpt lat="44.23646584130281" lon="11.477930858755945"><ele>477.6666666666667</ele><time>2026-04-26T09:52:16.002Z</time></trkpt><trkpt lat="44.23630428893363" lon="11.477931547520233"><ele>478.0</ele><time>2026-04-26T09:52:17.002Z</time></trkpt><trkpt lat="44.23612933694871" lon="11.477929198027638"><ele>478.0</ele><time>2026-04-26T09:52:18.002Z</time></trkpt><trkpt lat="44.235952038025715" lon="11.477893471170685"><ele>478.0</ele><time>2026-04-26T09:52:19.002Z</time></trkpt><trkpt lat="44.23579516964695" lon="11.477828162347262"><ele>478.0</ele><time>2026-04-26T09:52:20.002Z</time></trkpt><trkpt lat="44.23565451619537" lon="11.477704621072759"><ele>479.6666666666667</ele><time>2026-04-26T09:52:21.002Z</time></trkpt><trkpt lat="44.2355351900726" lon="11.477509653303047"><ele>481.33333333333337</ele><time>2026-04-26T09:52:22.002Z</time></trkpt><trkpt lat="44.235441616027884" lon="11.47727851312914"><ele>483.0</ele><time>2026-04-26T09:52:23.002Z</time></trkpt><trkpt lat="44.235370809373805" lon="11.477064744475694"><ele>483.0</ele><time>2026-04-26T09:52:24.002Z</time></trkpt><trkpt lat="44.235290832186784" lon="11.476887780903436"><ele>483.0</ele><time>2026-04-26T09:52:25.002Z</time></trkpt><trkpt lat="44.23521597632023" lon="11.47672834905955"><ele>483.0</ele><time>2026-04-26T09:52:26.002Z</time></trkpt><trkpt lat="44.23512181154103" lon="11.476587332501609"><ele>483.0</ele><time>2026-04-26T09:52:27.002Z</time></trkpt><trkpt lat="44.23498459726323" lon="11.476473322177766"><ele>483.0</ele><time>2026-04-26T09:52:28.002Z</time></trkpt><trkpt lat="44.2348234278045" lon="11.47638309393941"><ele>483.0</ele><time>2026-04-26T09:52:29Z</time></trkpt><trkpt lat="44.23465542233152" lon="11.476289272626188"><ele>483.0</ele><time>2026-04-26T09:52:30Z</time></trkpt><trkpt lat="44.23450769960577" lon="11.476194049760137"><ele>483.33333333333337</ele><time>2026-04-26T09:52:31Z</time></trkpt><trkpt lat="44.23436892389967" lon="11.476065562135624"><ele>483.6666666666667</ele><time>2026-04-26T09:52:32Z</time></trkpt><trkpt lat="44.234264470932665" lon="11.47589347938036"><ele>484.0</ele><time>2026-04-26T09:52:33Z</time></trkpt><trkpt lat="44.234176565913984" lon="11.475718458507437"><ele>484.0</ele><time>2026-04-26T09:52:34Z</time></trkpt><trkpt lat="44.23406664812372" lon="11.475582196991718"><ele>484.0</ele><time>2026-04-26T09:52:35Z</time></trkpt><trkpt lat="44.23391971058619" lon="11.47548916387585"><ele>484.0</ele><time>2026-04-26T09:52:36Z</time></trkpt><trkpt lat="44.23377977701915" lon="11.475420714670076"><ele>483.0</ele><time>2026-04-26T09:52:37Z</time></trkpt><trkpt lat="44.233649375226115" lon="11.47537159195764"><ele>482.0</ele><time>2026-04-26T09:52:38Z</time></trkpt><trkpt lat="44.23352945573038" lon="11.475323956906724"><ele>481.0</ele><time>2026-04-26T09:52:39Z</time></trkpt><trkpt lat="44.233435683323144" lon="11.475245043203296"><ele>480.0</ele><time>2026-04-26T09:52:40Z</time></trkpt><trkpt lat="44.233365982849705" lon="11.475149442550459"><ele>480.0</ele><time>2026-04-26T09:52:41Z</time></trkpt><trkpt lat="44.23331314329118" lon="11.475034251731065"><ele>480.0</ele><time>2026-04-26T09:52:42Z</time></trkpt><trkpt lat="44.23328994287295" lon="11.474861451468314"><ele>480.0</ele><time>2026-04-26T09:52:43Z</time></trkpt><trkpt lat="44.23328636569555" lon="11.474645147683646"><ele>480.0</ele><time>2026-04-26T09:52:44Z</time></trkpt><trkpt lat="44.233288210377964" lon="11.474409401756379"><ele>479.75</ele><time>2026-04-26T09:52:45Z</time></trkpt><trkpt lat="44.23328902141371" lon="11.474196481494355"><ele>479.5</ele><time>2026-04-26T09:52:46Z</time></trkpt><trkpt lat="44.23327648561934" lon="11.473996771560364"><ele>479.25</ele><time>2026-04-26T09:52:47Z</time></trkpt><trkpt lat="44.233266662449225" lon="11.473814501805291"><ele>479.0</ele><time>2026-04-26T09:52:48Z</time></trkpt><trkpt lat="44.233247909521026" lon="11.473637686147626"><ele>479.0</ele><time>2026-04-26T09:52:49Z</time></trkpt><trkpt lat="44.23319169352736" lon="11.473489531330985"><ele>479.0</ele><time>2026-04-26T09:52:50Z</time></trkpt><trkpt lat="44.23309623832944" lon="11.473385021595558"><ele>479.0</ele><time>2026-04-26T09:52:51Z</time></trkpt><trkpt lat="44.2329739877738" lon="11.473368671920777"><ele>479.0</ele><time>2026-04-26T09:52:52Z</time></trkpt><trkpt lat="44.2328374219591" lon="11.47341624163455"><ele>476.25</ele><time>2026-04-26T09:52:53Z</time></trkpt><trkpt lat="44.23270991001109" lon="11.473486501174937"><ele>473.5</ele><time>2026-04-26T09:52:54Z</time></trkpt><trkpt lat="44.23259622624322" lon="11.473507263670731"><ele>470.75</ele><time>2026-04-26T09:52:55Z</time></trkpt><trkpt lat="44.23248941506255" lon="11.473454859833854"><ele>468.0</ele><time>2026-04-26T09:52:56Z</time></trkpt><trkpt lat="44.23241560982046" lon="11.473347739889327"><ele>468.0</ele><time>2026-04-26T09:52:57Z</time></trkpt><trkpt lat="44.232369242366836" lon="11.473195065885315"><ele>468.0</ele><time>2026-04-26T09:52:58Z</time></trkpt><trkpt lat="44.23237141123227" lon="11.473017387841177"><ele>468.0</ele><time>2026-04-26T09:52:59Z</time></trkpt><trkpt lat="44.23242032552241" lon="11.4728108687046"><ele>468.0</ele><time>2026-04-26T09:53:00Z</time></trkpt><trkpt lat="44.23245629810468" lon="11.4725937757672"><ele>468.75</ele><time>2026-04-26T09:53:01Z</time></trkpt><trkpt lat="44.23244222642124" lon="11.47239600317044"><ele>469.5</ele><time>2026-04-26T09:53:02Z</time></trkpt><trkpt lat="44.23237759364457" lon="11.47221432948136"><ele>470.25</ele><time>2026-04-26T09:53:03Z</time></trkpt><trkpt lat="44.23228236915089" lon="11.472038024291681"><ele>471.0</ele><time>2026-04-26T09:53:04Z</time></trkpt><trkpt lat="44.232179494623956" lon="11.471893467829801"><ele>465.75</ele><time>2026-04-26T09:53:05.001Z</time></trkpt><trkpt lat="44.23209680810609" lon="11.471751578242085"><ele>460.5</ele><time>2026-04-26T09:53:06.001Z</time></trkpt><trkpt lat="44.23202891875816" lon="11.471609196272386"><ele>455.25</ele><time>2026-04-26T09:53:07.001Z</time></trkpt><trkpt lat="44.23195696186487" lon="11.471474455974775"><ele>450.0</ele><time>2026-04-26T09:53:08.001Z</time></trkpt><trkpt lat="44.23188708509567" lon="11.471346931735974"><ele>451.6666666666667</ele><time>2026-04-26T09:53:09.001Z</time></trkpt><trkpt lat="44.231827963154714" lon="11.471240374082983"><ele>453.33333333333337</ele><time>2026-04-26T09:53:10.001Z</time></trkpt><trkpt lat="44.23178790416616" lon="11.471162194833513"><ele>455.0</ele><time>2026-04-26T09:53:11.001Z</time></trkpt><trkpt lat="44.23174698837381" lon="11.471080074646016"><ele>456.6666666666667</ele><time>2026-04-26T09:53:12.001Z</time></trkpt><trkpt lat="44.231705394263635" lon="11.470999477098534"><ele>458.33333333333337</ele><time>2026-04-26T09:53:13.001Z</time></trkpt><trkpt lat="44.23167406271378" lon="11.470922744147403"><ele>460.0</ele><time>2026-04-26T09:53:14.001Z</time></trkpt><trkpt lat="44.23161386104819" lon="11.47078558126302"><ele>460.0</ele><time>2026-04-26T09:53:16.001Z</time></trkpt><trkpt lat="44.231555303220716" lon="11.470688603013501"><ele>460.0</ele><time>2026-04-26T09:53:18.001Z</time></trkpt><trkpt lat="44.23149753134965" lon="11.47060597054218"><ele>460.0</ele><time>2026-04-26T09:53:20.001Z</time></trkpt><trkpt lat="44.231438462064276" lon="11.470524882644145"><ele>460.0</ele><time>2026-04-26T09:53:23.001Z</time></trkpt><trkpt lat="44.23137115856057" lon="11.470500288302343"><ele>460.0</ele><time>2026-04-26T09:53:51.001Z</time></trkpt><trkpt lat="44.23124129804226" lon="11.470501854321416"><ele>459.6</ele><time>2026-04-26T09:53:53.001Z</time></trkpt><trkpt lat="44.23115205957502" lon="11.470542897533438"><ele>459.2</ele><time>2026-04-26T09:53:54.001Z</time></trkpt><trkpt lat="44.23107549842809" lon="11.470607180872234"><ele>458.79999999999995</ele><time>2026-04-26T09:53:55.001Z</time></trkpt><trkpt lat="44.230984757095136" lon="11.470658439300632"><ele>458.4</ele><time>2026-04-26T09:53:56.001Z</time></trkpt><trkpt lat="44.23088221377981" lon="11.470693273164907"><ele>458.0</ele><time>2026-04-26T09:53:57.001Z</time></trkpt><trkpt lat="44.230766802542234" lon="11.470706664717099"><ele>458.0</ele><time>2026-04-26T09:53:58.001Z</time></trkpt><trkpt lat="44.23064553901814" lon="11.470692659650961"><ele>458.0</ele><time>2026-04-26T09:53:59.001Z</time></trkpt><trkpt lat="44.23052531870594" lon="11.47067174752051"><ele>458.0</ele><time>2026-04-26T09:54:00.001Z</time></trkpt><trkpt lat="44.23041729780854" lon="11.470602066012153"><ele>458.0</ele><time>2026-04-26T09:54:01.001Z</time></trkpt><trkpt lat="44.230313655520554" lon="11.470515000462948"><ele>458.0</ele><time>2026-04-26T09:54:02.001Z</time></trkpt><trkpt lat="44.23024341982089" lon="11.470374198081076"><ele>458.0</ele><time>2026-04-26T09:54:03.001Z</time></trkpt><trkpt lat="44.23016477779989" lon="11.470228689705086"><ele>458.0</ele><time>2026-04-26T09:54:04.001Z</time></trkpt><trkpt lat="44.230098232225394" lon="11.470096206074055"><ele>458.0</ele><time>2026-04-26T09:54:05.001Z</time></trkpt><trkpt lat="44.230049359953796" lon="11.469981298032694"><ele>457.99999999999994</ele><time>2026-04-26T09:54:06.001Z</time></trkpt><trkpt lat="44.22999779603698" lon="11.469877747154584"><ele>458.0</ele><time>2026-04-26T09:54:07.001Z</time></trkpt><trkpt lat="44.22995286156238" lon="11.469793599268776"><ele>458.0</ele><time>2026-04-26T09:54:08.002Z</time></trkpt><trkpt lat="44.2299227765995" lon="11.469663637018177"><ele>458.0</ele><time>2026-04-26T09:54:10.002Z</time></trkpt><trkpt lat="44.23000696781878" lon="11.469555613544204"><ele>457.99999999999994</ele><time>2026-04-26T09:54:12.002Z</time></trkpt><trkpt lat="44.23007424821098" lon="11.46952323314362"><ele>458.0</ele><time>2026-04-26T09:54:13.002Z</time></trkpt><trkpt lat="44.23015199465457" lon="11.469477956448063"><ele>457.0</ele><time>2026-04-26T09:54:14.002Z</time></trkpt><trkpt lat="44.2302360925886" lon="11.469414449641606"><ele>455.99999999999994</ele><time>2026-04-26T09:54:15.002Z</time></trkpt><trkpt lat="44.23030992943771" lon="11.469357467182459"><ele>454.99999999999994</ele><time>2026-04-26T09:54:16.002Z</time></trkpt><trkpt lat="44.23039149754951" lon="11.469305584215244"><ele>454.0</ele><time>2026-04-26T09:54:17.002Z</time></trkpt><trkpt lat="44.23048017591027" lon="11.469244460806319"><ele>453.0</ele><time>2026-04-26T09:54:18.002Z</time></trkpt><trkpt lat="44.23056012984916" lon="11.469187408706064"><ele>452.79999999999995</ele><time>2026-04-26T09:54:19.002Z</time></trkpt><trkpt lat="44.23064414435395" lon="11.469132704208361"><ele>452.59999999999997</ele><time>2026-04-26T09:54:20.002Z</time></trkpt><trkpt lat="44.23072537464686" lon="11.469072815456563"><ele>452.40000000000003</ele><time>2026-04-26T09:54:21.002Z</time></trkpt><trkpt lat="44.23080550173523" lon="11.469019376550456"><ele>452.20000000000005</ele><time>2026-04-26T09:54:22.002Z</time></trkpt><trkpt lat="44.23088693813573" lon="11.468966685277186"><ele>452.0</ele><time>2026-04-26T09:54:23.002Z</time></trkpt><trkpt lat="44.23097898457257" lon="11.468927975381995"><ele>452.0</ele><time>2026-04-26T09:54:24.002Z</time></trkpt><trkpt lat="44.23108371218735" lon="11.468910064566012"><ele>452.00000000000006</ele><time>2026-04-26T09:54:25.002Z</time></trkpt><trkpt lat="44.23118547387485" lon="11.468908658861773"><ele>452.00000000000006</ele><time>2026-04-26T09:54:26.002Z</time></trkpt><trkpt lat="44.231279873573314" lon="11.468945170138817"><ele>452.0</ele><time>2026-04-26T09:54:27.002Z</time></trkpt><trkpt lat="44.231372986160565" lon="11.469015845635807"><ele>452.0</ele><time>2026-04-26T09:54:28.002Z</time></trkpt><trkpt lat="44.23147508813813" lon="11.469108742394262"><ele>449.25</ele><time>2026-04-26T09:54:29.002Z</time></trkpt><trkpt lat="44.231558874962275" lon="11.469255152896459"><ele>446.5</ele><time>2026-04-26T09:54:30.002Z</time></trkpt><trkpt lat="44.231657430170685" lon="11.46937498474679"><ele>443.75</ele><time>2026-04-26T09:54:31.002Z</time></trkpt><trkpt lat="44.23175180047057" lon="11.469490040308976"><ele>441.0</ele><time>2026-04-26T09:54:32.002Z</time></trkpt><trkpt lat="44.231850134682055" lon="11.469595844334155"><ele>443.5</ele><time>2026-04-26T09:54:33.002Z</time></trkpt><trkpt lat="44.23197162700161" lon="11.46966943596114"><ele>446.0</ele><time>2026-04-26T09:54:34.002Z</time></trkpt><trkpt lat="44.232102273476286" lon="11.469685544961159"><ele>448.5</ele><time>2026-04-26T09:54:35Z</time></trkpt><trkpt lat="44.23223548532625" lon="11.46962525901403"><ele>451.0</ele><time>2026-04-26T09:54:36Z</time></trkpt><trkpt lat="44.232385259272455" lon="11.469576259706358"><ele>445.5</ele><time>2026-04-26T09:54:37Z</time></trkpt><trkpt lat="44.23253474088531" lon="11.46955214570816"><ele>440.0</ele><time>2026-04-26T09:54:38Z</time></trkpt><trkpt lat="44.23267453855848" lon="11.469510425187405"><ele>434.5</ele><time>2026-04-26T09:54:39Z</time></trkpt><trkpt lat="44.23282051643677" lon="11.469464970027357"><ele>429.0</ele><time>2026-04-26T09:54:40Z</time></trkpt><trkpt lat="44.23295782779858" lon="11.469411756776974"><ele>429.0</ele><time>2026-04-26T09:54:41Z</time></trkpt><trkpt lat="44.2330878028631" lon="11.469336252943975"><ele>429.0</ele><time>2026-04-26T09:54:42Z</time></trkpt><trkpt lat="44.23322065504095" lon="11.469223196671736"><ele>429.0</ele><time>2026-04-26T09:54:43Z</time></trkpt><trkpt lat="44.233347707013586" lon="11.469079968912169"><ele>429.66666666666663</ele><time>2026-04-26T09:54:44Z</time></trkpt><trkpt lat="44.23346277238114" lon="11.468921317668762"><ele>430.3333333333333</ele><time>2026-04-26T09:54:45Z</time></trkpt><trkpt lat="44.23357265435702" lon="11.468765178724126"><ele>431.0</ele><time>2026-04-26T09:54:46Z</time></trkpt><trkpt lat="44.23368120922922" lon="11.46861752074443"><ele>429.5</ele><time>2026-04-26T09:54:47Z</time></trkpt><trkpt lat="44.2337877550844" lon="11.468475728050107"><ele>428.0</ele><time>2026-04-26T09:54:48Z</time></trkpt><trkpt lat="44.23390071743217" lon="11.468328271986689"><ele>426.5</ele><time>2026-04-26T09:54:49Z</time></trkpt><trkpt lat="44.2340058191719" lon="11.468187683244155"><ele>425.0</ele><time>2026-04-26T09:54:50Z</time></trkpt><trkpt lat="44.234109986012044" lon="11.468045003860517"><ele>423.0</ele><time>2026-04-26T09:54:51Z</time></trkpt><trkpt lat="44.23419704896105" lon="11.467922839751576"><ele>421.0</ele><time>2026-04-26T09:54:52Z</time></trkpt><trkpt lat="44.23428805732211" lon="11.467854343039814"><ele>419.0</ele><time>2026-04-26T09:54:53Z</time></trkpt><trkpt lat="44.23439401500182" lon="11.46780280499462"><ele>417.0</ele><time>2026-04-26T09:54:54Z</time></trkpt><trkpt lat="44.23449909791204" lon="11.467840318714977"><ele>415.0</ele><time>2026-04-26T09:54:55Z</time></trkpt><trkpt lat="44.23460380523272" lon="11.46789417298184"><ele>415.75</ele><time>2026-04-26T09:54:56Z</time></trkpt><trkpt lat="44.234724659392704" lon="11.46796160921624"><ele>416.5</ele><time>2026-04-26T09:54:57Z</time></trkpt><trkpt lat="44.23486542402779" lon="11.467986539393067"><ele>417.25</ele><time>2026-04-26T09:54:58Z</time></trkpt><trkpt lat="44.23501064729403" lon="11.467991776488295"><ele>418.0</ele><time>2026-04-26T09:54:59Z</time></trkpt><trkpt lat="44.235156893569126" lon="11.467979940275063"><ele>418.0</ele><time>2026-04-26T09:55:00Z</time></trkpt><trkpt lat="44.235293311734765" lon="11.467962640343186"><ele>418.0</ele><time>2026-04-26T09:55:01Z</time></trkpt><trkpt lat="44.235427860232186" lon="11.467942679809905"><ele>418.0</ele><time>2026-04-26T09:55:02Z</time></trkpt><trkpt lat="44.23556140649007" lon="11.467925193721115"><ele>418.0</ele><time>2026-04-26T09:55:03Z</time></trkpt><trkpt lat="44.23568531448842" lon="11.467912599611042"><ele>416.4</ele><time>2026-04-26T09:55:04Z</time></trkpt><trkpt lat="44.23579211461423" lon="11.467912575930367"><ele>414.79999999999995</ele><time>2026-04-26T09:55:05Z</time></trkpt><trkpt lat="44.2359006321635" lon="11.467929197063476"><ele>413.2</ele><time>2026-04-26T09:55:06Z</time></trkpt><trkpt lat="44.23599526423376" lon="11.46797621673859"><ele>411.6</ele><time>2026-04-26T09:55:07Z</time></trkpt><trkpt lat="44.236048960297204" lon="11.468070358914053"><ele>410.0</ele><time>2026-04-26T09:55:08Z</time></trkpt><trkpt lat="44.23611338643418" lon="11.468161586552108"><ele>409.99999999999994</ele><time>2026-04-26T09:55:09Z</time></trkpt><trkpt lat="44.23615766445092" lon="11.468292753015426"><ele>410.0</ele><time>2026-04-26T09:55:10Z</time></trkpt><trkpt lat="44.236195722171864" lon="11.468405776282394"><ele>410.0</ele><time>2026-04-26T09:55:11Z</time></trkpt><trkpt lat="44.23624151753748" lon="11.468478210319748"><ele>410.0</ele><time>2026-04-26T09:55:12Z</time></trkpt><trkpt lat="44.23629767923033" lon="11.46854977235204"><ele>409.99999999999994</ele><time>2026-04-26T09:55:13Z</time></trkpt><trkpt lat="44.23636156224002" lon="11.468560763695425"><ele>410.0</ele><time>2026-04-26T09:55:14Z</time></trkpt><trkpt lat="44.23644856772874" lon="11.468501626766427"><ele>409.99999999999994</ele><time>2026-04-26T09:55:16.001Z</time></trkpt><trkpt lat="44.236493839368165" lon="11.468432895285098"><ele>410.0</ele><time>2026-04-26T09:55:19.001Z</time></trkpt><trkpt lat="44.23647021117074" lon="11.468299136309696"><ele>410.0</ele><time>2026-04-26T09:55:30.001Z</time></trkpt><trkpt lat="44.236468802388934" lon="11.468201823468819"><ele>410.0</ele><time>2026-04-26T09:55:31.001Z</time></trkpt><trkpt lat="44.236442051054986" lon="11.468084388290027"><ele>409.99999999999994</ele><time>2026-04-26T09:55:32.001Z</time></trkpt><trkpt lat="44.236394819616955" lon="11.467972145457777"><ele>410.0</ele><time>2026-04-26T09:55:33.001Z</time></trkpt><trkpt lat="44.236370385843216" lon="11.467846368615326"><ele>407.4</ele><time>2026-04-26T09:55:34.001Z</time></trkpt><trkpt lat="44.236352217061615" lon="11.4677277981703"><ele>404.8</ele><time>2026-04-26T09:55:35.001Z</time></trkpt><trkpt lat="44.23631354556274" lon="11.467613517696535"><ele>402.20000000000005</ele><time>2026-04-26T09:55:36.001Z</time></trkpt><trkpt lat="44.236269946741686" lon="11.467496348505035"><ele>399.6</ele><time>2026-04-26T09:55:37.001Z</time></trkpt><trkpt lat="44.23621625046698" lon="11.467389905788748"><ele>397.0</ele><time>2026-04-26T09:55:38.001Z</time></trkpt><trkpt lat="44.2361648009088" lon="11.467288510446798"><ele>397.0</ele><time>2026-04-26T09:55:39.001Z</time></trkpt><trkpt lat="44.23610405645907" lon="11.467196841635168"><ele>397.0</ele><time>2026-04-26T09:55:40.001Z</time></trkpt><trkpt lat="44.23603636598674" lon="11.467123461391232"><ele>397.0</ele><time>2026-04-26T09:55:41.001Z</time></trkpt><trkpt lat="44.235951851463874" lon="11.467058601088022"><ele>397.0</ele><time>2026-04-26T09:55:42.001Z</time></trkpt><trkpt lat="44.235858777560395" lon="11.466993782370828"><ele>397.0</ele><time>2026-04-26T09:55:43.001Z</time></trkpt><trkpt lat="44.235757238219136" lon="11.466911242340434"><ele>396.6</ele><time>2026-04-26T09:55:44.001Z</time></trkpt><trkpt lat="44.23566824589615" lon="11.46684120767011"><ele>396.20000000000005</ele><time>2026-04-26T09:55:45.001Z</time></trkpt><trkpt lat="44.23558982874011" lon="11.466769844261133"><ele>395.8</ele><time>2026-04-26T09:55:46.001Z</time></trkpt><trkpt lat="44.235527746990584" lon="11.46668591644959"><ele>395.4</ele><time>2026-04-26T09:55:47.001Z</time></trkpt><trkpt lat="44.235482025937024" lon="11.466583245451227"><ele>395.0</ele><time>2026-04-26T09:55:48.001Z</time></trkpt><trkpt lat="44.235456473526014" lon="11.46647061679827"><ele>395.0</ele><time>2026-04-26T09:55:49.001Z</time></trkpt><trkpt lat="44.235440323346474" lon="11.466326827062428"><ele>395.0</ele><time>2026-04-26T09:55:50.001Z</time></trkpt><trkpt lat="44.23543220140771" lon="11.466150392707082"><ele>395.0</ele><time>2026-04-26T09:55:51.001Z</time></trkpt><trkpt lat="44.2354137818503" lon="11.465962884767027"><ele>395.0</ele><time>2026-04-26T09:55:52.001Z</time></trkpt><trkpt lat="44.23538988713178" lon="11.465770441149049"><ele>393.25</ele><time>2026-04-26T09:55:53.001Z</time></trkpt><trkpt lat="44.235370139294936" lon="11.465597636218098"><ele>391.5</ele><time>2026-04-26T09:55:54.001Z</time></trkpt><trkpt lat="44.23534304729059" lon="11.465431759336607"><ele>389.75</ele><time>2026-04-26T09:55:55.001Z</time></trkpt><trkpt lat="44.23531058432347" lon="11.4652683107335"><ele>388.0</ele><time>2026-04-26T09:55:56.001Z</time></trkpt><trkpt lat="44.23527523509105" lon="11.465122062315281"><ele>384.75</ele><time>2026-04-26T09:55:57.001Z</time></trkpt><trkpt lat="44.235227903354755" lon="11.464985739849118"><ele>381.5</ele><time>2026-04-26T09:55:58.001Z</time></trkpt><trkpt lat="44.23516478565725" lon="11.464835666444817"><ele>378.25</ele><time>2026-04-26T09:55:59.001Z</time></trkpt><trkpt lat="44.23510207254498" lon="11.464697808756819"><ele>375.0</ele><time>2026-04-26T09:56:00.001Z</time></trkpt><trkpt lat="44.23504578870158" lon="11.464562734750794"><ele>374.75</ele><time>2026-04-26T09:56:01.001Z</time></trkpt><trkpt lat="44.234994260856425" lon="11.464419901142625"><ele>374.5</ele><time>2026-04-26T09:56:02.001Z</time></trkpt><trkpt lat="44.23493112056808" lon="11.464263406153185"><ele>374.25</ele><time>2026-04-26T09:56:03.001Z</time></trkpt><trkpt lat="44.234854057687265" lon="11.464088954736527"><ele>374.0</ele><time>2026-04-26T09:56:04.001Z</time></trkpt><trkpt lat="44.234779536232196" lon="11.463931653606735"><ele>374.0</ele><time>2026-04-26T09:56:05.001Z</time></trkpt><trkpt lat="44.23471374687404" lon="11.463788730027952"><ele>374.0</ele><time>2026-04-26T09:56:06.001Z</time></trkpt><trkpt lat="44.23465385644024" lon="11.463665249718696"><ele>374.0</ele><time>2026-04-26T09:56:07.001Z</time></trkpt><trkpt lat="44.234609813043484" lon="11.46355615554668"><ele>374.0</ele><time>2026-04-26T09:56:08.001Z</time></trkpt><trkpt lat="44.234572871708586" lon="11.46343729605209"><ele>374.0</ele><time>2026-04-26T09:56:09.001Z</time></trkpt><trkpt lat="44.234542083856404" lon="11.463303044922919"><ele>372.4</ele><time>2026-04-26T09:56:10.001Z</time></trkpt><trkpt lat="44.23453134244201" lon="11.463167344188747"><ele>370.79999999999995</ele><time>2026-04-26T09:56:11.001Z</time></trkpt><trkpt lat="44.23453051648511" lon="11.463025518140727"><ele>369.20000000000005</ele><time>2026-04-26T09:56:12.001Z</time></trkpt><trkpt lat="44.23454684058587" lon="11.462883662335377"><ele>367.6</ele><time>2026-04-26T09:56:13.001Z</time></trkpt><trkpt lat="44.23458480296119" lon="11.462751354064807"><ele>366.0</ele><time>2026-04-26T09:56:14.001Z</time></trkpt><trkpt lat="44.23463683125098" lon="11.462644058624198"><ele>364.6</ele><time>2026-04-26T09:56:15.001Z</time></trkpt><trkpt lat="44.23470136817789" lon="11.46253534680809"><ele>363.20000000000005</ele><time>2026-04-26T09:56:16.001Z</time></trkpt><trkpt lat="44.234774272280646" lon="11.462446559229406"><ele>361.79999999999995</ele><time>2026-04-26T09:56:17.001Z</time></trkpt><trkpt lat="44.234853572515355" lon="11.462388686994787"><ele>360.4</ele><time>2026-04-26T09:56:18.001Z</time></trkpt><trkpt lat="44.23495866582282" lon="11.46233688708505"><ele>359.0</ele><time>2026-04-26T09:56:19.002Z</time></trkpt><trkpt lat="44.235060317807715" lon="11.462298727699645"><ele>357.6</ele><time>2026-04-26T09:56:20.002Z</time></trkpt><trkpt lat="44.235155840631265" lon="11.46228604865249"><ele>356.2</ele><time>2026-04-26T09:56:21.002Z</time></trkpt><trkpt lat="44.2352443751574" lon="11.462305442344658"><ele>354.8</ele><time>2026-04-26T09:56:22.002Z</time></trkpt><trkpt lat="44.23533526089244" lon="11.462353519411465"><ele>353.40000000000003</ele><time>2026-04-26T09:56:23.002Z</time></trkpt><trkpt lat="44.235413987660024" lon="11.462416578699688"><ele>352.0</ele><time>2026-04-26T09:56:24.002Z</time></trkpt><trkpt lat="44.235485423474735" lon="11.462489421976935"><ele>352.0</ele><time>2026-04-26T09:56:25.002Z</time></trkpt><trkpt lat="44.23556800772117" lon="11.462580331864485"><ele>352.0</ele><time>2026-04-26T09:56:26.002Z</time></trkpt><trkpt lat="44.23564577495111" lon="11.462679925358135"><ele>352.0</ele><time>2026-04-26T09:56:27.002Z</time></trkpt><trkpt lat="44.235749823601616" lon="11.46280600767136"><ele>352.0</ele><time>2026-04-26T09:56:28.002Z</time></trkpt><trkpt lat="44.23585733703628" lon="11.462932765439854"><ele>351.20000000000005</ele><time>2026-04-26T09:56:29.002Z</time></trkpt><trkpt lat="44.23595694684777" lon="11.463040162443983"><ele>350.4</ele><time>2026-04-26T09:56:30.002Z</time></trkpt><trkpt lat="44.23604288482511" lon="11.463138604729025"><ele>349.6</ele><time>2026-04-26T09:56:31.002Z</time></trkpt><trkpt lat="44.23611355649802" lon="11.46322558750692"><ele>348.79999999999995</ele><time>2026-04-26T09:56:32.002Z</time></trkpt><trkpt lat="44.236183081930506" lon="11.46328814825762"><ele>348.0</ele><time>2026-04-26T09:56:33.002Z</time></trkpt><trkpt lat="44.23626243392253" lon="11.463323098859142"><ele>348.0</ele><time>2026-04-26T09:56:34.002Z</time></trkpt><trkpt lat="44.23633901364389" lon="11.463332556079443"><ele>348.0</ele><time>2026-04-26T09:56:35.002Z</time></trkpt><trkpt lat="44.23642520198072" lon="11.463299267982759"><ele>348.0</ele><time>2026-04-26T09:56:36.002Z</time></trkpt><trkpt lat="44.23651354889362" lon="11.463248758800795"><ele>348.0</ele><time>2026-04-26T09:56:37.002Z</time></trkpt><trkpt lat="44.23660197731342" lon="11.463172001944363"><ele>348.0</ele><time>2026-04-26T09:56:38.002Z</time></trkpt><trkpt lat="44.236682117852204" lon="11.463086451717162"><ele>346.2</ele><time>2026-04-26T09:56:39.002Z</time></trkpt><trkpt lat="44.23677891939212" lon="11.462972913331114"><ele>344.4</ele><time>2026-04-26T09:56:40.002Z</time></trkpt><trkpt lat="44.23684860822619" lon="11.462856282528644"><ele>342.59999999999997</ele><time>2026-04-26T09:56:41Z</time></trkpt><trkpt lat="44.23691407644901" lon="11.462784191896457"><ele>340.79999999999995</ele><time>2026-04-26T09:56:42Z</time></trkpt><trkpt lat="44.23698690316518" lon="11.462700036434557"><ele>339.0</ele><time>2026-04-26T09:56:44Z</time></trkpt><trkpt lat="44.23705069042129" lon="11.462732334922919"><ele>339.0</ele><time>2026-04-26T09:56:48Z</time></trkpt><trkpt lat="44.23708763310728" lon="11.462806336748384"><ele>339.0</ele><time>2026-04-26T09:57:07Z</time></trkpt><trkpt lat="44.2371446877711" lon="11.462900390414157"><ele>339.0</ele><time>2026-04-26T09:57:09Z</time></trkpt><trkpt lat="44.23717606184761" lon="11.463007251099196"><ele>339.0</ele><time>2026-04-26T09:57:10Z</time></trkpt><trkpt lat="44.237211925301715" lon="11.463150694645503"><ele>339.0</ele><time>2026-04-26T09:57:11Z</time></trkpt><trkpt lat="44.237262557554054" lon="11.463273716920988"><ele>339.0</ele><time>2026-04-26T09:57:12Z</time></trkpt><trkpt lat="44.23734561173226" lon="11.463391398759496"><ele>337.3333333333333</ele><time>2026-04-26T09:57:13Z</time></trkpt><trkpt lat="44.23746401483508" lon="11.463532144824246"><ele>335.66666666666663</ele><time>2026-04-26T09:57:14Z</time></trkpt><trkpt lat="44.237589327435714" lon="11.463666849841198"><ele>334.0</ele><time>2026-04-26T09:57:15Z</time></trkpt><trkpt lat="44.23772055625262" lon="11.463801946655979"><ele>333.75</ele><time>2026-04-26T09:57:16Z</time></trkpt><trkpt lat="44.2378429743043" lon="11.4639201042306"><ele>333.5</ele><time>2026-04-26T09:57:17Z</time></trkpt><trkpt lat="44.23795154218391" lon="11.464041187444973"><ele>333.25</ele><time>2026-04-26T09:57:18Z</time></trkpt><trkpt lat="44.23804926317193" lon="11.464141615826465"><ele>333.0</ele><time>2026-04-26T09:57:19Z</time></trkpt><trkpt lat="44.238166095996675" lon="11.46421564996995"><ele>332.5</ele><time>2026-04-26T09:57:20Z</time></trkpt><trkpt lat="44.238293771737894" lon="11.464295812542874"><ele>332.0</ele><time>2026-04-26T09:57:21Z</time></trkpt><trkpt lat="44.23842087448971" lon="11.464384168233133"><ele>331.5</ele><time>2026-04-26T09:57:22Z</time></trkpt><trkpt lat="44.23853476413967" lon="11.464463467472642"><ele>331.0</ele><time>2026-04-26T09:57:23Z</time></trkpt><trkpt lat="44.23866224470678" lon="11.46449690354245"><ele>331.0</ele><time>2026-04-26T09:57:24.001Z</time></trkpt><trkpt lat="44.238779722984006" lon="11.464494841453241"><ele>331.0</ele><time>2026-04-26T09:57:25.001Z</time></trkpt><trkpt lat="44.23890448031461" lon="11.464465621295131"><ele>331.0</ele><time>2026-04-26T09:57:26.001Z</time></trkpt><trkpt lat="44.23904064828678" lon="11.464416925035422"><ele>331.0</ele><time>2026-04-26T09:57:27.001Z</time></trkpt><trkpt lat="44.239189987512155" lon="11.464371516979059"><ele>330.66666666666663</ele><time>2026-04-26T09:57:28.001Z</time></trkpt><trkpt lat="44.23933275642259" lon="11.464362197693726"><ele>330.3333333333333</ele><time>2026-04-26T09:57:29.001Z</time></trkpt><trkpt lat="44.239497463385874" lon="11.46435723144952"><ele>330.0</ele><time>2026-04-26T09:57:30.001Z</time></trkpt><trkpt lat="44.239674111800625" lon="11.464343383701195"><ele>330.0</ele><time>2026-04-26T09:57:31.001Z</time></trkpt><trkpt lat="44.23982821550365" lon="11.464341269805857"><ele>330.0</ele><time>2026-04-26T09:57:32.001Z</time></trkpt><trkpt lat="44.23996814571836" lon="11.464345484990531"><ele>330.0</ele><time>2026-04-26T09:57:33.001Z</time></trkpt><trkpt lat="44.240096711743824" lon="11.464344089034928"><ele>330.0</ele><time>2026-04-26T09:57:34.001Z</time></trkpt><trkpt lat="44.24022767326321" lon="11.464327945607652"><ele>330.0</ele><time>2026-04-26T09:57:35.001Z</time></trkpt><trkpt lat="44.24034978876055" lon="11.464322944550382"><ele>330.0</ele><time>2026-04-26T09:57:36.001Z</time></trkpt><trkpt lat="44.2404361310658" lon="11.464345217868358"><ele>330.0</ele><time>2026-04-26T09:57:37.001Z</time></trkpt><trkpt lat="44.24051308358056" lon="11.464390110941093"><ele>330.0</ele><time>2026-04-26T09:57:38.001Z</time></trkpt><trkpt lat="44.24057955842658" lon="11.464367173015752"><ele>330.0</ele><time>2026-04-26T09:57:39.001Z</time></trkpt><trkpt lat="44.24063211719144" lon="11.464313531894168"><ele>330.0</ele><time>2026-04-26T09:57:40.001Z</time></trkpt><trkpt lat="44.240690723339235" lon="11.464219310747511"><ele>329.8333333333333</ele><time>2026-04-26T09:57:41.001Z</time></trkpt><trkpt lat="44.24074163029791" lon="11.464140671159742"><ele>329.6666666666667</ele><time>2026-04-26T09:57:42.001Z</time></trkpt><trkpt lat="44.240839111048444" lon="11.464169215998993"><ele>329.5</ele><time>2026-04-26T09:57:44.001Z</time></trkpt><trkpt lat="44.24088657328569" lon="11.464267628665342"><ele>329.33333333333337</ele><time>2026-04-26T09:57:46.001Z</time></trkpt><trkpt lat="44.24088060069512" lon="11.464375637348235"><ele>329.1666666666667</ele><time>2026-04-26T09:57:49.001Z</time></trkpt><trkpt lat="44.24085051361947" lon="11.464487239950786"><ele>329.0</ele><time>2026-04-26T09:57:52.001Z</time></trkpt><trkpt lat="44.24083570995307" lon="11.46457265808929"><ele>329.0</ele><time>2026-04-26T09:57:54.001Z</time></trkpt><trkpt lat="44.24081070392596" lon="11.4646709199322"><ele>329.0</ele><time>2026-04-26T09:57:56.001Z</time></trkpt><trkpt lat="44.240765784622106" lon="11.464771235955272"><ele>329.0</ele><time>2026-04-26T09:57:59.001Z</time></trkpt><trkpt lat="44.24072331936564" lon="11.464881397942316"><ele>329.0</ele><time>2026-04-26T09:58:02.001Z</time></trkpt><trkpt lat="44.24070240190259" lon="11.464965233841536"><ele>329.0</ele><time>2026-04-26T09:58:04.001Z</time></trkpt><trkpt lat="44.24069840867362" lon="11.46514859724097"><ele>329.0</ele><time>2026-04-26T09:58:06.001Z</time></trkpt><trkpt lat="44.24072286350595" lon="11.465243646047627"><ele>329.0</ele><time>2026-04-26T09:58:07.001Z</time></trkpt><trkpt lat="44.24075784538654" lon="11.465344959374193"><ele>329.0</ele><time>2026-04-26T09:58:08.001Z</time></trkpt><trkpt lat="44.24080210139275" lon="11.465455430650398"><ele>329.0</ele><time>2026-04-26T09:58:09.001Z</time></trkpt><trkpt lat="44.2408666320982" lon="11.465582884779188"><ele>329.0</ele><time>2026-04-26T09:58:10.001Z</time></trkpt><trkpt lat="44.240954591883934" lon="11.465724096237963"><ele>329.0</ele><time>2026-04-26T09:58:11.001Z</time></trkpt><trkpt lat="44.24105488315855" lon="11.465844662384557"><ele>328.4</ele><time>2026-04-26T09:58:12.001Z</time></trkpt><trkpt lat="44.241136738373065" lon="11.465971972528825"><ele>327.79999999999995</ele><time>2026-04-26T09:58:13.001Z</time></trkpt><trkpt lat="44.241207465624434" lon="11.466104466502586"><ele>327.20000000000005</ele><time>2026-04-26T09:58:14.001Z</time></trkpt><trkpt lat="44.24129289358846" lon="11.466185168389886"><ele>326.6</ele><time>2026-04-26T09:58:15.001Z</time></trkpt><trkpt lat="44.24137874911801" lon="11.466224979544359"><ele>326.0</ele><time>2026-04-26T09:58:16.001Z</time></trkpt><trkpt lat="44.241476988347166" lon="11.466221336424885"><ele>326.0</ele><time>2026-04-26T09:58:17.001Z</time></trkpt><trkpt lat="44.241544033783256" lon="11.46622644306012"><ele>326.0</ele><time>2026-04-26T09:58:18.001Z</time></trkpt><trkpt lat="44.24168594094848" lon="11.466287107726354"><ele>326.0</ele><time>2026-04-26T09:58:20.001Z</time></trkpt><trkpt lat="44.241820674873615" lon="11.466337871647434"><ele>326.0</ele><time>2026-04-26T09:58:21.001Z</time></trkpt><trkpt lat="44.241977652681335" lon="11.466355649219278"><ele>325.83333333333337</ele><time>2026-04-26T09:58:22.001Z</time></trkpt><trkpt lat="44.24209332983529" lon="11.466355684784123"><ele>325.6666666666667</ele><time>2026-04-26T09:58:23.001Z</time></trkpt><trkpt lat="44.242170369644164" lon="11.466362224160406"><ele>325.5</ele><time>2026-04-26T09:58:24.001Z</time></trkpt><trkpt lat="44.24223477543793" lon="11.466394326194285"><ele>325.3333333333333</ele><time>2026-04-26T09:58:25.001Z</time></trkpt><trkpt lat="44.24228876502383" lon="11.46647135342185"><ele>325.16666666666663</ele><time>2026-04-26T09:58:26.002Z</time></trkpt><trkpt lat="44.242331606361866" lon="11.466569892048513"><ele>325.0</ele><time>2026-04-26T09:58:27.002Z</time></trkpt><trkpt lat="44.2423760641219" lon="11.466637474420859"><ele>324.8333333333333</ele><time>2026-04-26T09:58:28.002Z</time></trkpt><trkpt lat="44.24247838958224" lon="11.466615307517648"><ele>324.66666666666663</ele><time>2026-04-26T09:58:30.002Z</time></trkpt><trkpt lat="44.24252427620854" lon="11.466543444538054"><ele>324.5</ele><time>2026-04-26T09:58:32.002Z</time></trkpt><trkpt lat="44.24259190459537" lon="11.46645803888532"><ele>324.3333333333333</ele><time>2026-04-26T09:58:35.002Z</time></trkpt><trkpt lat="44.24265008626616" lon="11.46641736250941"><ele>324.1666666666667</ele><time>2026-04-26T09:58:36.002Z</time></trkpt><trkpt lat="44.242717552561174" lon="11.46638831660351"><ele>324.0</ele><time>2026-04-26T09:58:37.002Z</time></trkpt><trkpt lat="44.24283946101803" lon="11.466363774717976"><ele>324.0</ele><time>2026-04-26T09:58:39.002Z</time></trkpt><trkpt lat="44.2429320506392" lon="11.466380651043348"><ele>324.0</ele><time>2026-04-26T09:58:41.002Z</time></trkpt><trkpt lat="44.243019975958376" lon="11.466463216109796"><ele>324.0</ele><time>2026-04-26T09:58:43.002Z</time></trkpt><trkpt lat="44.24311231755892" lon="11.466520192752364"><ele>324.0</ele><time>2026-04-26T09:58:45.002Z</time></trkpt><trkpt lat="44.24319650782011" lon="11.466597545463591"><ele>324.0</ele><time>2026-04-26T09:58:47Z</time></trkpt><trkpt lat="44.24328515849232" lon="11.466702012748893"><ele>323.6</ele><time>2026-04-26T09:58:49Z</time></trkpt><trkpt lat="44.24331914967918" lon="11.466854846700139"><ele>323.2</ele><time>2026-04-26T09:58:51Z</time></trkpt><trkpt lat="44.243395502649264" lon="11.466953571958584"><ele>322.8</ele><time>2026-04-26T09:58:54Z</time></trkpt><trkpt lat="44.24348178231533" lon="11.466930994794563"><ele>322.40000000000003</ele><time>2026-04-26T09:58:56Z</time></trkpt><trkpt lat="44.243572695804794" lon="11.466893219958779"><ele>322.0</ele><time>2026-04-26T09:58:57Z</time></trkpt><trkpt lat="44.24368056076131" lon="11.46686035343423"><ele>322.0</ele><time>2026-04-26T09:58:59Z</time></trkpt><trkpt lat="44.24380238009043" lon="11.466850559381099"><ele>322.0</ele><time>2026-04-26T09:59:01Z</time></trkpt><trkpt lat="44.24389688506167" lon="11.466886218692833"><ele>322.0</ele><time>2026-04-26T09:59:03Z</time></trkpt><trkpt lat="44.24397061201336" lon="11.466980492249466"><ele>322.0</ele><time>2026-04-26T09:59:05Z</time></trkpt><trkpt lat="44.24404006786472" lon="11.467016939431412"><ele>322.0</ele><time>2026-04-26T09:59:06Z</time></trkpt><trkpt lat="44.24410853436084" lon="11.467007536777135"><ele>322.0</ele><time>2026-04-26T09:59:07Z</time></trkpt><trkpt lat="44.24419406488934" lon="11.467065586292138"><ele>322.0</ele><time>2026-04-26T09:59:08Z</time></trkpt><trkpt lat="44.24429231271825" lon="11.467128613491367"><ele>322.0</ele><time>2026-04-26T09:59:09Z</time></trkpt><trkpt lat="44.24437674526138" lon="11.467166559388733"><ele>322.0</ele><time>2026-04-26T09:59:10Z</time></trkpt><trkpt lat="44.24444979805381" lon="11.467208993623485"><ele>322.0</ele><time>2026-04-26T09:59:11Z</time></trkpt><trkpt lat="44.244519722651475" lon="11.467253886613896"><ele>322.0</ele><time>2026-04-26T09:59:12Z</time></trkpt><trkpt lat="44.24457232767943" lon="11.46731676618348"><ele>322.2857142857143</ele><time>2026-04-26T09:59:13Z</time></trkpt><trkpt lat="44.244611151922854" lon="11.467388447319593"><ele>322.57142857142856</ele><time>2026-04-26T09:59:14Z</time></trkpt><trkpt lat="44.24465679522636" lon="11.467454490749805"><ele>322.8571428571429</ele><time>2026-04-26T09:59:15Z</time></trkpt><trkpt lat="44.244721082074356" lon="11.467520615547564"><ele>323.1428571428571</ele><time>2026-04-26T09:59:16Z</time></trkpt><trkpt lat="44.244795543859865" lon="11.467583638012917"><ele>323.42857142857144</ele><time>2026-04-26T09:59:17Z</time></trkpt><trkpt lat="44.24485290782474" lon="11.467639811334223"><ele>323.7142857142857</ele><time>2026-04-26T09:59:18Z</time></trkpt><trkpt lat="44.24491369465889" lon="11.467689554010732"><ele>324.0</ele><time>2026-04-26T09:59:19Z</time></trkpt><trkpt lat="44.245014591615295" lon="11.467723897128103"><ele>323.1666666666667</ele><time>2026-04-26T09:59:21Z</time></trkpt><trkpt lat="44.245077943067834" lon="11.467705276334362"><ele>322.3333333333333</ele><time>2026-04-26T09:59:27.001Z</time></trkpt><trkpt lat="44.24512114208572" lon="11.467618311655245"><ele>321.5</ele><time>2026-04-26T09:59:31.001Z</time></trkpt><trkpt lat="44.24516831890649" lon="11.467533480156781"><ele>320.66666666666663</ele><time>2026-04-26T09:59:33.001Z</time></trkpt><trkpt lat="44.245220692391854" lon="11.467482809728306"><ele>319.8333333333333</ele><time>2026-04-26T09:59:35.001Z</time></trkpt><trkpt lat="44.245297833601164" lon="11.467538456173036"><ele>319.0</ele><time>2026-04-26T10:00:28.001Z</time></trkpt><trkpt lat="44.245374274977145" lon="11.467633939675869"><ele>319.0</ele><time>2026-04-26T10:00:30.002Z</time></trkpt><trkpt lat="44.24542828121964" lon="11.467707764982944"><ele>319.0</ele><time>2026-04-26T10:00:31.002Z</time></trkpt><trkpt lat="44.245491884531425" lon="11.467776479534049"><ele>319.0</ele><time>2026-04-26T10:00:32.002Z</time></trkpt><trkpt lat="44.24559116854566" lon="11.467829393908184"><ele>319.0</ele><time>2026-04-26T10:00:34.002Z</time></trkpt><trkpt lat="44.245651417359106" lon="11.467873730854002"><ele>319.0</ele><time>2026-04-26T10:00:43.002Z</time></trkpt><trkpt lat="44.2457184937772" lon="11.467927522483349"><ele>319.0</ele><time>2026-04-26T10:00:46.002Z</time></trkpt><trkpt lat="44.24578514327715" lon="11.467952161071729"><ele>319.0</ele><time>2026-04-26T10:00:49.002Z</time></trkpt><trkpt lat="44.24585248850198" lon="11.46793885471067"><ele>319.0</ele><time>2026-04-26T10:00:55Z</time></trkpt><trkpt lat="44.24601060566682" lon="11.467896962128796"><ele>319.0</ele><time>2026-04-26T10:01:14Z</time></trkpt><trkpt lat="44.246079858326105" lon="11.467920347801812"><ele>319.0</ele><time>2026-04-26T10:01:17Z</time></trkpt><trkpt lat="44.24613870780827" lon="11.467969460429167"><ele>319.0</ele><time>2026-04-26T10:01:23Z</time></trkpt><trkpt lat="44.24620624735899" lon="11.468073938061181"><ele>319.0</ele><time>2026-04-26T10:02:18.001Z</time></trkpt><trkpt lat="44.246276800740134" lon="11.46814912394972"><ele>319.0</ele><time>2026-04-26T10:02:19.001Z</time></trkpt><trkpt lat="44.24634797686905" lon="11.468232986367838"><ele>319.0</ele><time>2026-04-26T10:02:20.001Z</time></trkpt><trkpt lat="44.246412000610675" lon="11.468305272752836"><ele>319.0</ele><time>2026-04-26T10:02:21.001Z</time></trkpt><trkpt lat="44.24647735582108" lon="11.468354699208385"><ele>319.0</ele><time>2026-04-26T10:02:22.001Z</time></trkpt><trkpt lat="44.24653753084729" lon="11.468382688382842"><ele>319.0</ele><time>2026-04-26T10:02:23.001Z</time></trkpt><trkpt lat="44.246637545447875" lon="11.46837724627361"><ele>318.4</ele><time>2026-04-26T10:02:25.001Z</time></trkpt><trkpt lat="44.24669322358411" lon="11.468257223123302"><ele>317.79999999999995</ele><time>2026-04-26T10:02:27.001Z</time></trkpt><trkpt lat="44.246738821180266" lon="11.468114767086785"><ele>317.20000000000005</ele><time>2026-04-26T10:02:29.001Z</time></trkpt><trkpt lat="44.24683190150827" lon="11.468033686919757"><ele>316.6</ele><time>2026-04-26T10:02:31.001Z</time></trkpt><trkpt lat="44.24691409727818" lon="11.467947964239567"><ele>316.0</ele><time>2026-04-26T10:02:33.001Z</time></trkpt><trkpt lat="44.24695065735609" lon="11.467866435230757"><ele>316.0</ele><time>2026-04-26T10:02:35.002Z</time></trkpt><trkpt lat="44.246982470870776" lon="11.467779322011154"><ele>316.0</ele><time>2026-04-26T10:02:52.002Z</time></trkpt><trkpt lat="44.247055493833855" lon="11.467678629437788"><ele>316.0</ele><time>2026-04-26T10:02:55.002Z</time></trkpt><trkpt lat="44.24712804877493" lon="11.46769502407917"><ele>316.0</ele><time>2026-04-26T10:02:58.002Z</time></trkpt><trkpt lat="44.24722609041574" lon="11.467728485288486"><ele>316.0</ele><time>2026-04-26T10:03:00Z</time></trkpt><trkpt lat="44.24729914490323" lon="11.467752558518844"><ele>316.0</ele><time>2026-04-26T10:03:02Z</time></trkpt><trkpt lat="44.24736800384191" lon="11.467789154243977"><ele>316.0</ele><time>2026-04-26T10:03:04Z</time></trkpt><trkpt lat="44.24743163350767" lon="11.467804034694291"><ele>316.0</ele><time>2026-04-26T10:03:06Z</time></trkpt><trkpt lat="44.2475046928599" lon="11.467828287630123"><ele>316.0</ele><time>2026-04-26T10:03:09Z</time></trkpt><trkpt lat="44.24761136542227" lon="11.46785447871428"><ele>316.0</ele><time>2026-04-26T10:03:11Z</time></trkpt><trkpt lat="44.24767969564908" lon="11.467864002477844"><ele>316.0</ele><time>2026-04-26T10:03:12Z</time></trkpt><trkpt lat="44.24778785696512" lon="11.467936970016407"><ele>316.0</ele><time>2026-04-26T10:03:14Z</time></trkpt><trkpt lat="44.2478532480305" lon="11.467978323905783"><ele>315.3333333333333</ele><time>2026-04-26T10:03:15Z</time></trkpt><trkpt lat="44.24791596076524" lon="11.468025844337086"><ele>314.66666666666663</ele><time>2026-04-26T10:03:16Z</time></trkpt><trkpt lat="44.2479926093828" lon="11.468078233120416"><ele>314.0</ele><time>2026-04-26T10:03:17Z</time></trkpt><trkpt lat="44.24805963571731" lon="11.468124283972115"><ele>313.3333333333333</ele><time>2026-04-26T10:03:18Z</time></trkpt><trkpt lat="44.248147701114014" lon="11.468140933637319"><ele>312.6666666666667</ele><time>2026-04-26T10:03:20Z</time></trkpt><trkpt lat="44.24821201146432" lon="11.46811125867072"><ele>312.0</ele><time>2026-04-26T10:03:22Z</time></trkpt><trkpt lat="44.24828076518818" lon="11.468118022837123"><ele>312.0</ele><time>2026-04-26T10:03:24Z</time></trkpt><trkpt lat="44.248330811078574" lon="11.46819049065187"><ele>312.0</ele><time>2026-04-26T10:03:26Z</time></trkpt><trkpt lat="44.2483996831074" lon="11.468220030150057"><ele>312.0</ele><time>2026-04-26T10:03:28Z</time></trkpt><trkpt lat="44.24846032034081" lon="11.468246880816265"><ele>312.0</ele><time>2026-04-26T10:03:31.001Z</time></trkpt><trkpt lat="44.24854304177898" lon="11.468257168396503"><ele>312.0</ele><time>2026-04-26T10:03:34.001Z</time></trkpt><trkpt lat="44.248642672104175" lon="11.468293289934081"><ele>312.0</ele><time>2026-04-26T10:03:36.001Z</time></trkpt><trkpt lat="44.24878437437194" lon="11.468312188457771"><ele>312.0</ele><time>2026-04-26T10:03:37.001Z</time></trkpt><trkpt lat="44.24890303838498" lon="11.468348934471766"><ele>312.0</ele><time>2026-04-26T10:03:39.001Z</time></trkpt><trkpt lat="44.248997616364946" lon="11.468398516219981"><ele>312.0</ele><time>2026-04-26T10:03:41.001Z</time></trkpt><trkpt lat="44.24909009385459" lon="11.468481519721772"><ele>312.0</ele><time>2026-04-26T10:03:43.001Z</time></trkpt><trkpt lat="44.24912297408618" lon="11.468594000547865"><ele>312.0</ele><time>2026-04-26T10:03:45.001Z</time></trkpt><trkpt lat="44.24914392113178" lon="11.468777327853864"><ele>312.2</ele><time>2026-04-26T10:03:47.001Z</time></trkpt><trkpt lat="44.24920981868877" lon="11.46893941912439"><ele>312.4</ele><time>2026-04-26T10:03:49.001Z</time></trkpt><trkpt lat="44.249266575674504" lon="11.469018254410562"><ele>312.6</ele><time>2026-04-26T10:03:50.001Z</time></trkpt><trkpt lat="44.24933831036881" lon="11.469101833812518"><ele>312.8</ele><time>2026-04-26T10:03:51.001Z</time></trkpt><trkpt lat="44.249404077672764" lon="11.46915678926969"><ele>313.0</ele><time>2026-04-26T10:03:52.001Z</time></trkpt><trkpt lat="44.249477434244646" lon="11.469188416599813"><ele>313.0</ele><time>2026-04-26T10:03:53.001Z</time></trkpt><trkpt lat="44.24954635267615" lon="11.469198983479828"><ele>313.0</ele><time>2026-04-26T10:03:54.001Z</time></trkpt><trkpt lat="44.249620451664995" lon="11.469173216679064"><ele>313.0</ele><time>2026-04-26T10:03:55.001Z</time></trkpt><trkpt lat="44.24969148577444" lon="11.469148799593313"><ele>313.0</ele><time>2026-04-26T10:03:57.001Z</time></trkpt><trkpt lat="44.24962531861243" lon="11.469135056575384"><ele>313.0</ele><time>2026-04-26T10:06:32.001Z</time></trkpt><trkpt lat="44.2495329230773" lon="11.469100174941762"><ele>313.0</ele><time>2026-04-26T10:07:19Z</time></trkpt><trkpt lat="44.249616189451416" lon="11.46914458717455"><ele>313.0</ele><time>2026-04-26T10:07:27Z</time></trkpt><trkpt lat="44.249683608014124" lon="11.469117592920568"><ele>313.0</ele><time>2026-04-26T10:07:44Z</time></trkpt><trkpt lat="44.2497445768988" lon="11.469067519037937"><ele>313.0</ele><time>2026-04-26T10:07:46Z</time></trkpt><trkpt lat="44.24982307265779" lon="11.469048752420756"><ele>313.0</ele><time>2026-04-26T10:07:48Z</time></trkpt><trkpt lat="44.24991557306681" lon="11.469060631707405"><ele>313.0</ele><time>2026-04-26T10:07:50Z</time></trkpt><trkpt lat="44.250045621961966" lon="11.46912457759285"><ele>312.8333333333333</ele><time>2026-04-26T10:07:52Z</time></trkpt><trkpt lat="44.25013011574578" lon="11.469155890733957"><ele>312.66666666666663</ele><time>2026-04-26T10:07:54Z</time></trkpt><trkpt lat="44.25019085466862" lon="11.469221779361094"><ele>312.5</ele><time>2026-04-26T10:07:56Z</time></trkpt><trkpt lat="44.25023127750081" lon="11.469349587543341"><ele>312.3333333333333</ele><time>2026-04-26T10:07:58Z</time></trkpt><trkpt lat="44.250197277795145" lon="11.469479675834188"><ele>312.1666666666667</ele><time>2026-04-26T10:08:00Z</time></trkpt><trkpt lat="44.25019502341381" lon="11.469571713083978"><ele>312.0</ele><time>2026-04-26T10:08:01Z</time></trkpt><trkpt lat="44.250253373950834" lon="11.469650439629891"><ele>312.0</ele><time>2026-04-26T10:08:03Z</time></trkpt><trkpt lat="44.25037646070016" lon="11.46969208267075"><ele>312.0</ele><time>2026-04-26T10:08:05Z</time></trkpt><trkpt lat="44.2504664149325" lon="11.469669972577595"><ele>312.0</ele><time>2026-04-26T10:08:06Z</time></trkpt><trkpt lat="44.250520751642874" lon="11.469621316094095"><ele>312.0</ele><time>2026-04-26T10:08:07Z</time></trkpt><trkpt lat="44.25059684303609" lon="11.469583439360582"><ele>312.0</ele><time>2026-04-26T10:08:08Z</time></trkpt><trkpt lat="44.25069821315374" lon="11.469532781112767"><ele>311.0</ele><time>2026-04-26T10:08:09Z</time></trkpt><trkpt lat="44.2507938283885" lon="11.46949050213929"><ele>310.0</ele><time>2026-04-26T10:08:10Z</time></trkpt><trkpt lat="44.250920171358494" lon="11.469512519915607"><ele>309.0</ele><time>2026-04-26T10:08:12Z</time></trkpt><trkpt lat="44.25101137288221" lon="11.469567170615715"><ele>308.0</ele><time>2026-04-26T10:08:13Z</time></trkpt><trkpt lat="44.25113927547317" lon="11.46962996554397"><ele>308.0</ele><time>2026-04-26T10:08:14Z</time></trkpt><trkpt lat="44.251263098517725" lon="11.469665724864925"><ele>308.0</ele><time>2026-04-26T10:08:15Z</time></trkpt><trkpt lat="44.25137106629421" lon="11.469681009200954"><ele>308.0</ele><time>2026-04-26T10:08:16.001Z</time></trkpt><trkpt lat="44.25146741111987" lon="11.469742821099793"><ele>308.0</ele><time>2026-04-26T10:08:17.001Z</time></trkpt><trkpt lat="44.25156608801909" lon="11.469853122909834"><ele>308.0</ele><time>2026-04-26T10:08:18.001Z</time></trkpt><trkpt lat="44.25167126989735" lon="11.469965794750786"><ele>308.0</ele><time>2026-04-26T10:08:19.001Z</time></trkpt><trkpt lat="44.25177273027982" lon="11.470042658692154"><ele>308.0</ele><time>2026-04-26T10:08:20.001Z</time></trkpt><trkpt lat="44.2518414421757" lon="11.470099824343226"><ele>308.0</ele><time>2026-04-26T10:08:21.001Z</time></trkpt><trkpt lat="44.2519491897819" lon="11.470141351823653"><ele>308.0</ele><time>2026-04-26T10:08:23.001Z</time></trkpt><trkpt lat="44.252029985121474" lon="11.47011331552008"><ele>308.0</ele><time>2026-04-26T10:08:24.001Z</time></trkpt><trkpt lat="44.25214263447383" lon="11.47005303270222"><ele>308.0</ele><time>2026-04-26T10:08:25.001Z</time></trkpt><trkpt lat="44.252265720992504" lon="11.470014794622328"><ele>308.0</ele><time>2026-04-26T10:08:26.001Z</time></trkpt><trkpt lat="44.2523910634285" lon="11.469979721967537"><ele>308.0</ele><time>2026-04-26T10:08:27.001Z</time></trkpt><trkpt lat="44.252490645371246" lon="11.469957806314326"><ele>307.5</ele><time>2026-04-26T10:08:28.001Z</time></trkpt><trkpt lat="44.25255642035674" lon="11.469966215635864"><ele>307.0</ele><time>2026-04-26T10:08:29.001Z</time></trkpt><trkpt lat="44.25263404852228" lon="11.470009945532944"><ele>306.5</ele><time>2026-04-26T10:08:30.001Z</time></trkpt><trkpt lat="44.252692691823455" lon="11.470092095882492"><ele>306.0</ele><time>2026-04-26T10:08:31.001Z</time></trkpt><trkpt lat="44.25275298854214" lon="11.470178483086537"><ele>305.5</ele><time>2026-04-26T10:08:32.001Z</time></trkpt><trkpt lat="44.25281475154183" lon="11.470213713465174"><ele>305.0</ele><time>2026-04-26T10:08:33.001Z</time></trkpt><trkpt lat="44.25290775600904" lon="11.470145967110636"><ele>305.0</ele><time>2026-04-26T10:08:34.001Z</time></trkpt><trkpt lat="44.25300871944614" lon="11.470127780541775"><ele>305.0</ele><time>2026-04-26T10:08:35.001Z</time></trkpt><trkpt lat="44.253104429016034" lon="11.470147236670089"><ele>305.0</ele><time>2026-04-26T10:08:36.001Z</time></trkpt><trkpt lat="44.25318862168598" lon="11.47015702091341"><ele>305.0</ele><time>2026-04-26T10:08:37.001Z</time></trkpt><trkpt lat="44.2532547143734" lon="11.47016475645559"><ele>305.0</ele><time>2026-04-26T10:08:38.001Z</time></trkpt><trkpt lat="44.25332505506206" lon="11.470133266846286"><ele>305.0</ele><time>2026-04-26T10:09:01.001Z</time></trkpt><trkpt lat="44.25339197028219" lon="11.4701331217112"><ele>304.8571428571429</ele><time>2026-04-26T10:09:04.001Z</time></trkpt><trkpt lat="44.25346085264216" lon="11.470125058974691"><ele>304.71428571428567</ele><time>2026-04-26T10:09:25.999Z</time></trkpt><trkpt lat="44.253449834028515" lon="11.470034230612187"><ele>304.57142857142856</ele><time>2026-04-26T10:09:31.999Z</time></trkpt><trkpt lat="44.2534049635795" lon="11.469952154630361"><ele>304.42857142857144</ele><time>2026-04-26T10:09:34.999Z</time></trkpt><trkpt lat="44.253359097959475" lon="11.469880662673845"><ele>304.28571428571433</ele><time>2026-04-26T10:09:38Z</time></trkpt><trkpt lat="44.25335283584303" lon="11.469788957981367"><ele>304.1428571428571</ele><time>2026-04-26T10:09:41Z</time></trkpt><trkpt lat="44.25333346008513" lon="11.469673152690818"><ele>304.0</ele><time>2026-04-26T10:09:44Z</time></trkpt><trkpt lat="44.25333168803375" lon="11.469528135600243"><ele>304.0</ele><time>2026-04-26T10:09:46Z</time></trkpt><trkpt lat="44.253370518279596" lon="11.469444539263698"><ele>304.0</ele><time>2026-04-26T10:09:48Z</time></trkpt><trkpt lat="44.25346271945856" lon="11.469449708210023"><ele>304.0</ele><time>2026-04-26T10:09:52Z</time></trkpt><trkpt lat="44.25352554038627" lon="11.469517650397044"><ele>304.0</ele><time>2026-04-26T10:09:56Z</time></trkpt><trkpt lat="44.253592838130494" lon="11.46955722340288"><ele>304.0</ele><time>2026-04-26T10:10:00Z</time></trkpt><trkpt lat="44.25363777956063" lon="11.469623030739871"><ele>304.0</ele><time>2026-04-26T10:10:06Z</time></trkpt><trkpt lat="44.253651652232904" lon="11.46971256579524"><ele>304.0</ele><time>2026-04-26T10:10:10Z</time></trkpt><trkpt lat="44.25363540260987" lon="11.469626749573978"><ele>304.0</ele><time>2026-04-26T10:10:50.001Z</time></trkpt><trkpt lat="44.25366094570122" lon="11.46971580858652"><ele>304.0</ele><time>2026-04-26T10:11:22.002Z</time></trkpt><trkpt lat="44.25363095935112" lon="11.469812157893369"><ele>304.0</ele><time>2026-04-26T10:12:05.001Z</time></trkpt><trkpt lat="44.25363871699061" lon="11.469900121849262"><ele>304.0</ele><time>2026-04-26T10:12:11.001Z</time></trkpt><trkpt lat="44.25366993131409" lon="11.469809742710106"><ele>304.0</ele><time>2026-04-26T10:16:02.001Z</time></trkpt><trkpt lat="44.253696824574604" lon="11.469889256932431"><ele>304.0</ele><time>2026-04-26T10:16:27.001Z</time></trkpt><trkpt lat="44.25377520098782" lon="11.469892251791327"><ele>304.0</ele><time>2026-04-26T10:16:40.001Z</time></trkpt><trkpt lat="44.25386971524789" lon="11.469817020123541"><ele>303.66666666666663</ele><time>2026-04-26T10:16:42.001Z</time></trkpt><trkpt lat="44.25398368127997" lon="11.469766476114927"><ele>303.3333333333333</ele><time>2026-04-26T10:16:44.001Z</time></trkpt><trkpt lat="44.25407279020351" lon="11.469744869180007"><ele>303.0</ele><time>2026-04-26T10:16:45.001Z</time></trkpt><trkpt lat="44.2541538173124" lon="11.469733209356265"><ele>302.6666666666667</ele><time>2026-04-26T10:16:46.001Z</time></trkpt><trkpt lat="44.25422495442075" lon="11.469735495771499"><ele>302.33333333333337</ele><time>2026-04-26T10:16:47.001Z</time></trkpt><trkpt lat="44.25429564111289" lon="11.469775301433726"><ele>302.0</ele><time>2026-04-26T10:16:48.001Z</time></trkpt><trkpt lat="44.25438311518195" lon="11.469832401985785"><ele>302.0</ele><time>2026-04-26T10:16:49.001Z</time></trkpt><trkpt lat="44.254471757111595" lon="11.46986895934769"><ele>302.0</ele><time>2026-04-26T10:16:50.001Z</time></trkpt><trkpt lat="44.25455401635476" lon="11.469906569532416"><ele>302.0</ele><time>2026-04-26T10:16:51.001Z</time></trkpt><trkpt lat="44.254627248880865" lon="11.469915138031194"><ele>302.0</ele><time>2026-04-26T10:16:52.001Z</time></trkpt><trkpt lat="44.25471754178637" lon="11.469918273619001"><ele>302.0</ele><time>2026-04-26T10:16:53.001Z</time></trkpt><trkpt lat="44.25479250572557" lon="11.469927278008766"><ele>302.0</ele><time>2026-04-26T10:16:54.001Z</time></trkpt><trkpt lat="44.25486203524392" lon="11.469922509986537"><ele>301.83333333333337</ele><time>2026-04-26T10:16:55.001Z</time></trkpt><trkpt lat="44.25492917811559" lon="11.46988219215814"><ele>301.6666666666667</ele><time>2026-04-26T10:16:56.001Z</time></trkpt><trkpt lat="44.25500028085563" lon="11.469826229240256"><ele>301.5</ele><time>2026-04-26T10:16:57.001Z</time></trkpt><trkpt lat="44.25508769808549" lon="11.469770362121558"><ele>301.3333333333333</ele><time>2026-04-26T10:16:58.001Z</time></trkpt><trkpt lat="44.25515630173856" lon="11.469761307412814"><ele>301.16666666666663</ele><time>2026-04-26T10:16:59.001Z</time></trkpt><trkpt lat="44.25525164407447" lon="11.469766250288156"><ele>301.0</ele><time>2026-04-26T10:17:00.001Z</time></trkpt><trkpt lat="44.25536165583" lon="11.469801625371613"><ele>301.0</ele><time>2026-04-26T10:17:01.001Z</time></trkpt><trkpt lat="44.255488682349835" lon="11.469833306011022"><ele>301.0</ele><time>2026-04-26T10:17:02.001Z</time></trkpt><trkpt lat="44.25559532325002" lon="11.469852846660407"><ele>301.0</ele><time>2026-04-26T10:17:03.001Z</time></trkpt><trkpt lat="44.25567911249213" lon="11.469832629957828"><ele>301.0</ele><time>2026-04-26T10:17:04.001Z</time></trkpt><trkpt lat="44.255784324485695" lon="11.469796117126636"><ele>301.0</ele><time>2026-04-26T10:17:05.001Z</time></trkpt><trkpt lat="44.255867408010104" lon="11.469768675265545"><ele>300.8333333333333</ele><time>2026-04-26T10:17:06.001Z</time></trkpt><trkpt lat="44.255945553647386" lon="11.469755859553809"><ele>300.66666666666663</ele><time>2026-04-26T10:17:07.001Z</time></trkpt><trkpt lat="44.25602974719981" lon="11.469739522918577"><ele>300.5</ele><time>2026-04-26T10:17:08.001Z</time></trkpt><trkpt lat="44.2561159205096" lon="11.46969668999049"><ele>300.3333333333333</ele><time>2026-04-26T10:17:09.002Z</time></trkpt><trkpt lat="44.256184843694" lon="11.469664097876871"><ele>300.1666666666667</ele><time>2026-04-26T10:17:10.002Z</time></trkpt><trkpt lat="44.25626601376433" lon="11.469627429023333"><ele>300.0</ele><time>2026-04-26T10:17:12.002Z</time></trkpt><trkpt lat="44.25634442727532" lon="11.469664039206652"><ele>300.0</ele><time>2026-04-26T10:17:14.002Z</time></trkpt><trkpt lat="44.256434558247406" lon="11.46977797378308"><ele>300.0</ele><time>2026-04-26T10:17:16.002Z</time></trkpt><trkpt lat="44.25652757763423" lon="11.469899800267463"><ele>300.0</ele><time>2026-04-26T10:17:18.002Z</time></trkpt><trkpt lat="44.25659033042333" lon="11.469961789788664"><ele>300.0</ele><time>2026-04-26T10:17:19.002Z</time></trkpt><trkpt lat="44.25667699170617" lon="11.469965714792513"><ele>300.0</ele><time>2026-04-26T10:17:20.002Z</time></trkpt><trkpt lat="44.25674619525402" lon="11.469973933210586"><ele>300.0</ele><time>2026-04-26T10:17:21.002Z</time></trkpt><trkpt lat="44.25681580740993" lon="11.469979472476478"><ele>300.0</ele><time>2026-04-26T10:17:22.002Z</time></trkpt><trkpt lat="44.25689867815605" lon="11.46999068169985"><ele>300.0</ele><time>2026-04-26T10:17:23.002Z</time></trkpt><trkpt lat="44.25699724716466" lon="11.470023482459975"><ele>300.0</ele><time>2026-04-26T10:17:24.002Z</time></trkpt><trkpt lat="44.25712431559231" lon="11.470042470913889"><ele>300.0</ele><time>2026-04-26T10:17:25.002Z</time></trkpt><trkpt lat="44.257233590474044" lon="11.470048987623734"><ele>299.8333333333333</ele><time>2026-04-26T10:17:26.002Z</time></trkpt><trkpt lat="44.25731866387693" lon="11.470085538184192"><ele>299.6666666666667</ele><time>2026-04-26T10:17:27.002Z</time></trkpt><trkpt lat="44.25738881913873" lon="11.47014272171488"><ele>299.5</ele><time>2026-04-26T10:17:28.002Z</time></trkpt><trkpt lat="44.25744943648312" lon="11.470203574561088"><ele>299.33333333333337</ele><time>2026-04-26T10:17:29.002Z</time></trkpt><trkpt lat="44.25750755342325" lon="11.470241229635628"><ele>299.1666666666667</ele><time>2026-04-26T10:17:30.002Z</time></trkpt><trkpt lat="44.257581514120005" lon="11.4702630884128"><ele>299.0</ele><time>2026-04-26T10:17:32.002Z</time></trkpt><trkpt lat="44.25766273209791" lon="11.470297306315546"><ele>299.0</ele><time>2026-04-26T10:18:15.001Z</time></trkpt><trkpt lat="44.25773423095368" lon="11.470304335531612"><ele>299.0</ele><time>2026-04-26T10:18:19.001Z</time></trkpt><trkpt lat="44.257789675698135" lon="11.470230176315033"><ele>299.0</ele><time>2026-04-26T10:18:26.001Z</time></trkpt><trkpt lat="44.257844591356" lon="11.470133714818068"><ele>299.0</ele><time>2026-04-26T10:18:28.001Z</time></trkpt><trkpt lat="44.257892057791935" lon="11.470050856321448"><ele>299.0</ele><time>2026-04-26T10:18:31.001Z</time></trkpt><trkpt lat="44.257955715774216" lon="11.46997448837024"><ele>299.0</ele><time>2026-04-26T10:18:35.001Z</time></trkpt><trkpt lat="44.25802245878249" lon="11.469931787890982"><ele>299.0</ele><time>2026-04-26T10:18:39.001Z</time></trkpt><trkpt lat="44.25808898185404" lon="11.469912363564463"><ele>299.0</ele><time>2026-04-26T10:18:41.001Z</time></trkpt><trkpt lat="44.25817773478997" lon="11.469880769441989"><ele>299.0</ele><time>2026-04-26T10:18:43.001Z</time></trkpt><trkpt lat="44.25823437992189" lon="11.469830102172303"><ele>299.0</ele><time>2026-04-26T10:18:46.001Z</time></trkpt><trkpt lat="44.258299962649566" lon="11.469783149948485"><ele>299.0</ele><time>2026-04-26T10:18:47.001Z</time></trkpt><trkpt lat="44.25836753514509" lon="11.469799539935423"><ele>299.0</ele><time>2026-04-26T10:18:50.001Z</time></trkpt><trkpt lat="44.25840320642818" lon="11.469875216980103"><ele>299.0</ele><time>2026-04-26T10:18:53.001Z</time></trkpt><trkpt lat="44.2584817002238" lon="11.469907807136797"><ele>298.7142857142857</ele><time>2026-04-26T10:19:03.001Z</time></trkpt><trkpt lat="44.25854986943076" lon="11.469931002380301"><ele>298.42857142857144</ele><time>2026-04-26T10:19:09.001Z</time></trkpt><trkpt lat="44.25860588051454" lon="11.469888351801808"><ele>298.14285714285717</ele><time>2026-04-26T10:19:12.001Z</time></trkpt><trkpt lat="44.25867123945403" lon="11.469863541755087"><ele>297.8571428571429</ele><time>2026-04-26T10:19:17.001Z</time></trkpt><trkpt lat="44.25860805909483" lon="11.469865838121354"><ele>297.5714285714286</ele><time>2026-04-26T10:19:33.002Z</time></trkpt><trkpt lat="44.25854831032922" lon="11.469935550786008"><ele>297.2857142857143</ele><time>2026-04-26T10:19:45.002Z</time></trkpt><trkpt lat="44.25858800184416" lon="11.469865375917962"><ele>297.0</ele><time>2026-04-26T10:20:59.001Z</time></trkpt><trkpt lat="44.258539800160314" lon="11.46992868774747"><ele>297.0</ele><time>2026-04-26T10:21:19.001Z</time></trkpt><trkpt lat="44.25860732015934" lon="11.46987562615324"><ele>297.0</ele><time>2026-04-26T10:22:55.001Z</time></trkpt><trkpt lat="44.258547707059826" lon="11.469921258236342"><ele>297.0</ele><time>2026-04-26T10:24:43.001Z</time></trkpt><trkpt lat="44.25862331762213" lon="11.46987398448403"><ele>297.0</ele><time>2026-04-26T10:25:22.001Z</time></trkpt><trkpt lat="44.25869108293808" lon="11.469865124711584"><ele>297.0</ele><time>2026-04-26T10:25:46.001Z</time></trkpt><trkpt lat="44.258761141924076" lon="11.469924030057536"><ele>297.0</ele><time>2026-04-26T10:25:53.001Z</time></trkpt><trkpt lat="44.258837971209296" lon="11.470002231173906"><ele>297.0</ele><time>2026-04-26T10:25:55.001Z</time></trkpt><trkpt lat="44.25893006473674" lon="11.469961407294923"><ele>297.0</ele><time>2026-04-26T10:25:58.001Z</time></trkpt><trkpt lat="44.259017044054715" lon="11.469962254221477"><ele>297.0</ele><time>2026-04-26T10:26:00.001Z</time></trkpt><trkpt lat="44.25913349689724" lon="11.469948599789396"><ele>297.0</ele><time>2026-04-26T10:26:02.002Z</time></trkpt><trkpt lat="44.25919696757246" lon="11.469954045917143"><ele>297.0</ele><time>2026-04-26T10:26:03.002Z</time></trkpt><trkpt lat="44.259269052947" lon="11.469945092422947"><ele>297.0</ele><time>2026-04-26T10:26:04.002Z</time></trkpt><trkpt lat="44.25934009795504" lon="11.469930472976543"><ele>297.0</ele><time>2026-04-26T10:26:05Z</time></trkpt><trkpt lat="44.25940764703649" lon="11.469912307659243"><ele>297.0</ele><time>2026-04-26T10:26:06Z</time></trkpt><trkpt lat="44.25948234597702" lon="11.469909586082968"><ele>297.0</ele><time>2026-04-26T10:26:07Z</time></trkpt><trkpt lat="44.25955125234211" lon="11.46990747850239"><ele>297.0</ele><time>2026-04-26T10:26:08Z</time></trkpt><trkpt lat="44.259618546539734" lon="11.469922540682296"><ele>297.0</ele><time>2026-04-26T10:26:09Z</time></trkpt><trkpt lat="44.25968266636559" lon="11.469945324052317"><ele>297.0</ele><time>2026-04-26T10:26:10Z</time></trkpt><trkpt lat="44.25981521546304" lon="11.469961017931599"><ele>296.8</ele><time>2026-04-26T10:26:12Z</time></trkpt><trkpt lat="44.259879951565715" lon="11.469962223932303"><ele>296.6</ele><time>2026-04-26T10:26:13Z</time></trkpt><trkpt lat="44.26000564994214" lon="11.469986472152527"><ele>296.40000000000003</ele><time>2026-04-26T10:26:15Z</time></trkpt><trkpt lat="44.26009269218326" lon="11.470002350641023"><ele>296.2</ele><time>2026-04-26T10:26:16Z</time></trkpt><trkpt lat="44.260210069991345" lon="11.470022532039389"><ele>296.0</ele><time>2026-04-26T10:26:18Z</time></trkpt><trkpt lat="44.26028057361865" lon="11.470010557466324"><ele>296.0</ele><time>2026-04-26T10:26:19Z</time></trkpt><trkpt lat="44.26040020807204" lon="11.469976135656154"><ele>296.0</ele><time>2026-04-26T10:26:21Z</time></trkpt><trkpt lat="44.26048160017151" lon="11.46995851214298"><ele>296.0</ele><time>2026-04-26T10:26:22Z</time></trkpt><trkpt lat="44.26054926979375" lon="11.469940210508618"><ele>296.0</ele><time>2026-04-26T10:26:23Z</time></trkpt><trkpt lat="44.260625288013145" lon="11.469912447921953"><ele>296.0</ele><time>2026-04-26T10:26:24Z</time></trkpt><trkpt lat="44.260713789740734" lon="11.469896111323783"><ele>296.0</ele><time>2026-04-26T10:26:25Z</time></trkpt><trkpt lat="44.2608459174602" lon="11.46992811275668"><ele>295.33333333333337</ele><time>2026-04-26T10:26:27Z</time></trkpt><trkpt lat="44.260900930534135" lon="11.469979232672715"><ele>294.6666666666667</ele><time>2026-04-26T10:26:28Z</time></trkpt><trkpt lat="44.26097274757016" lon="11.470044125405673"><ele>294.0</ele><time>2026-04-26T10:26:29Z</time></trkpt><trkpt lat="44.261036306207544" lon="11.470117211472266"><ele>293.3333333333333</ele><time>2026-04-26T10:26:30Z</time></trkpt><trkpt lat="44.26110015855362" lon="11.47016858934865"><ele>292.66666666666663</ele><time>2026-04-26T10:26:31Z</time></trkpt><trkpt lat="44.26118193019892" lon="11.470202687217926"><ele>292.0</ele><time>2026-04-26T10:26:32Z</time></trkpt><trkpt lat="44.26127269685912" lon="11.470204681867278"><ele>292.0</ele><time>2026-04-26T10:26:33Z</time></trkpt><trkpt lat="44.26137770640653" lon="11.470189571114338"><ele>292.0</ele><time>2026-04-26T10:26:34Z</time></trkpt><trkpt lat="44.261465841876216" lon="11.470188923327541"><ele>292.0</ele><time>2026-04-26T10:26:35Z</time></trkpt><trkpt lat="44.26156331401303" lon="11.470203961786083"><ele>292.0</ele><time>2026-04-26T10:26:36Z</time></trkpt><trkpt lat="44.26167270917918" lon="11.470185485761382"><ele>292.0</ele><time>2026-04-26T10:26:37Z</time></trkpt><trkpt lat="44.26178384317887" lon="11.470195624744791"><ele>291.8333333333333</ele><time>2026-04-26T10:26:38Z</time></trkpt><trkpt lat="44.26186906539938" lon="11.470214508264352"><ele>291.66666666666663</ele><time>2026-04-26T10:26:39Z</time></trkpt><trkpt lat="44.261941765032056" lon="11.470240472115268"><ele>291.5</ele><time>2026-04-26T10:26:40Z</time></trkpt><trkpt lat="44.2620035415174" lon="11.470276431730479"><ele>291.3333333333333</ele><time>2026-04-26T10:26:41Z</time></trkpt><trkpt lat="44.26208991626405" lon="11.47033385322586"><ele>291.1666666666667</ele><time>2026-04-26T10:26:43Z</time></trkpt><trkpt lat="44.26218970033982" lon="11.470371878770525"><ele>291.0</ele><time>2026-04-26T10:26:45Z</time></trkpt><trkpt lat="44.26231282442039" lon="11.470447513562384"><ele>291.0</ele><time>2026-04-26T10:26:47Z</time></trkpt><trkpt lat="44.262378654697926" lon="11.470475344204473"><ele>291.0</ele><time>2026-04-26T10:26:48Z</time></trkpt><trkpt lat="44.26249605425975" lon="11.470523778287744"><ele>291.0</ele><time>2026-04-26T10:26:50Z</time></trkpt><trkpt lat="44.262565442080486" lon="11.470538674515073"><ele>291.0</ele><time>2026-04-26T10:26:51Z</time></trkpt><trkpt lat="44.26268685218931" lon="11.470532759218383"><ele>291.0</ele><time>2026-04-26T10:26:53Z</time></trkpt><trkpt lat="44.26283284813445" lon="11.470587579263157"><ele>291.0</ele><time>2026-04-26T10:26:55Z</time></trkpt><trkpt lat="44.262902795511984" lon="11.470613861500349"><ele>291.0</ele><time>2026-04-26T10:26:56Z</time></trkpt><trkpt lat="44.263001445716185" lon="11.4706264480797"><ele>291.0</ele><time>2026-04-26T10:26:57Z</time></trkpt><trkpt lat="44.26310785073699" lon="11.470667111991427"><ele>291.0</ele><time>2026-04-26T10:26:58.001Z</time></trkpt><trkpt lat="44.26323291064731" lon="11.470682172600855"><ele>291.0</ele><time>2026-04-26T10:26:59.001Z</time></trkpt><trkpt lat="44.26335164503809" lon="11.470713115202786"><ele>290.8</ele><time>2026-04-26T10:27:00.001Z</time></trkpt><trkpt lat="44.26345516701329" lon="11.470754295463442"><ele>290.6</ele><time>2026-04-26T10:27:01.001Z</time></trkpt><trkpt lat="44.26355807451023" lon="11.470796608991279"><ele>290.4</ele><time>2026-04-26T10:27:02.001Z</time></trkpt><trkpt lat="44.26366267624762" lon="11.47081604315358"><ele>290.2</ele><time>2026-04-26T10:27:03.001Z</time></trkpt><trkpt lat="44.263744179035285" lon="11.470836683303427"><ele>290.0</ele><time>2026-04-26T10:27:04.001Z</time></trkpt><trkpt lat="44.263824127495134" lon="11.47084755468"><ele>290.0</ele><time>2026-04-26T10:27:05.001Z</time></trkpt><trkpt lat="44.26388934858683" lon="11.470856553641903"><ele>290.0</ele><time>2026-04-26T10:27:06.001Z</time></trkpt><trkpt lat="44.26401580672194" lon="11.470869233564475"><ele>290.0</ele><time>2026-04-26T10:27:08.001Z</time></trkpt><trkpt lat="44.26405581361519" lon="11.470978494382786"><ele>290.0</ele><time>2026-04-26T10:27:11.001Z</time></trkpt><trkpt lat="44.264064172403884" lon="11.47110774664525"><ele>290.0</ele><time>2026-04-26T10:27:13.001Z</time></trkpt><trkpt lat="44.26406476700434" lon="11.471279365200239"><ele>290.33333333333337</ele><time>2026-04-26T10:27:15.001Z</time></trkpt><trkpt lat="44.264082750565045" lon="11.471377847177168"><ele>290.6666666666667</ele><time>2026-04-26T10:27:16.001Z</time></trkpt><trkpt lat="44.264118494379716" lon="11.471479232549667"><ele>291.0</ele><time>2026-04-26T10:27:17.001Z</time></trkpt><trkpt lat="44.26416387720219" lon="11.471568846151957"><ele>291.3333333333333</ele><time>2026-04-26T10:27:18.001Z</time></trkpt><trkpt lat="44.26420276935214" lon="11.471645126806706"><ele>291.66666666666663</ele><time>2026-04-26T10:27:19.001Z</time></trkpt><trkpt lat="44.264237601205494" lon="11.471738127893868"><ele>292.0</ele><time>2026-04-26T10:27:20.001Z</time></trkpt><trkpt lat="44.26428869952155" lon="11.471843761202004"><ele>292.0</ele><time>2026-04-26T10:27:21.001Z</time></trkpt><trkpt lat="44.26435369220809" lon="11.471939196924053"><ele>292.0</ele><time>2026-04-26T10:27:22.001Z</time></trkpt><trkpt lat="44.26443433107773" lon="11.47200590739848"><ele>292.0</ele><time>2026-04-26T10:27:23.001Z</time></trkpt><trkpt lat="44.264539534476775" lon="11.472092850655027"><ele>292.0</ele><time>2026-04-26T10:27:24.001Z</time></trkpt><trkpt lat="44.26462747846492" lon="11.472175905333106"><ele>292.0</ele><time>2026-04-26T10:27:25.001Z</time></trkpt><trkpt lat="44.264740972540174" lon="11.47228796075252"><ele>294.2</ele><time>2026-04-26T10:27:26.001Z</time></trkpt><trkpt lat="44.264866118443706" lon="11.472391908600093"><ele>296.4</ele><time>2026-04-26T10:27:27.001Z</time></trkpt><trkpt lat="44.264974869496896" lon="11.472488965116375"><ele>298.6</ele><time>2026-04-26T10:27:28.001Z</time></trkpt><trkpt lat="44.26505144598401" lon="11.472550539179423"><ele>300.8</ele><time>2026-04-26T10:27:29.001Z</time></trkpt><trkpt lat="44.265116039194005" lon="11.472606057300013"><ele>303.0</ele><time>2026-04-26T10:27:30.001Z</time></trkpt><trkpt lat="44.265166148813016" lon="11.472680059405405"><ele>303.0</ele><time>2026-04-26T10:27:32.001Z</time></trkpt><trkpt lat="44.26515876491503" lon="11.472779928996278"><ele>303.0</ele><time>2026-04-26T10:28:40Z</time></trkpt><trkpt lat="44.26522937626806" lon="11.472813119262957"><ele>303.0</ele><time>2026-04-26T10:28:43Z</time></trkpt><trkpt lat="44.26528471620278" lon="11.47274993921564"><ele>303.0</ele><time>2026-04-26T10:28:44Z</time></trkpt><trkpt lat="44.26534390687786" lon="11.47267340279874"><ele>303.0</ele><time>2026-04-26T10:28:45Z</time></trkpt><trkpt lat="44.26542164938535" lon="11.472601196767412"><ele>303.0</ele><time>2026-04-26T10:28:46Z</time></trkpt><trkpt lat="44.265502636823506" lon="11.47254810949379"><ele>303.0</ele><time>2026-04-26T10:28:47Z</time></trkpt><trkpt lat="44.26561186713661" lon="11.47245668262961"><ele>303.0</ele><time>2026-04-26T10:28:48Z</time></trkpt><trkpt lat="44.26572248608332" lon="11.472396493904201"><ele>303.0</ele><time>2026-04-26T10:28:49Z</time></trkpt><trkpt lat="44.265838746377455" lon="11.472356353214922"><ele>303.0</ele><time>2026-04-26T10:28:50Z</time></trkpt><trkpt lat="44.265953096712195" lon="11.472352630146649"><ele>304.25</ele><time>2026-04-26T10:28:51Z</time></trkpt><trkpt lat="44.26606629598824" lon="11.472276104018515"><ele>305.5</ele><time>2026-04-26T10:28:52Z</time></trkpt><trkpt lat="44.2661785820358" lon="11.472213985134342"><ele>306.75</ele><time>2026-04-26T10:28:53Z</time></trkpt><trkpt lat="44.266284644108794" lon="11.472154635995382"><ele>308.0</ele><time>2026-04-26T10:28:54Z</time></trkpt><trkpt lat="44.26639371742578" lon="11.472100713328961"><ele>305.75</ele><time>2026-04-26T10:28:55Z</time></trkpt><trkpt lat="44.26650866231921" lon="11.472038162624766"><ele>303.5</ele><time>2026-04-26T10:28:56Z</time></trkpt><trkpt lat="44.26662288531627" lon="11.47195674747539"><ele>301.25</ele><time>2026-04-26T10:28:57Z</time></trkpt><trkpt lat="44.266729224074915" lon="11.47185972943262"><ele>299.0</ele><time>2026-04-26T10:28:58Z</time></trkpt><trkpt lat="44.266827772776196" lon="11.471745652254086"><ele>299.0</ele><time>2026-04-26T10:28:59Z</time></trkpt><trkpt lat="44.26691829268921" lon="11.471608241106088"><ele>299.0</ele><time>2026-04-26T10:29:00Z</time></trkpt><trkpt lat="44.26700523901051" lon="11.471468251416912"><ele>299.0</ele><time>2026-04-26T10:29:01Z</time></trkpt><trkpt lat="44.267104158489545" lon="11.471311018505945"><ele>299.0</ele><time>2026-04-26T10:29:02Z</time></trkpt><trkpt lat="44.267209785885264" lon="11.471146737440689"><ele>298.5</ele><time>2026-04-26T10:29:03Z</time></trkpt><trkpt lat="44.267310929527305" lon="11.47100258877687"><ele>298.0</ele><time>2026-04-26T10:29:04Z</time></trkpt><trkpt lat="44.267411033257694" lon="11.470854425075053"><ele>297.5</ele><time>2026-04-26T10:29:05.001Z</time></trkpt><trkpt lat="44.26751120375597" lon="11.470704729368256"><ele>297.0</ele><time>2026-04-26T10:29:06.001Z</time></trkpt><trkpt lat="44.267613712872325" lon="11.47054289110381"><ele>294.75</ele><time>2026-04-26T10:29:07.001Z</time></trkpt><trkpt lat="44.26771200135894" lon="11.470402982020657"><ele>292.5</ele><time>2026-04-26T10:29:08.001Z</time></trkpt><trkpt lat="44.26780692578611" lon="11.470243299832706"><ele>290.25</ele><time>2026-04-26T10:29:09.001Z</time></trkpt><trkpt lat="44.26788594019353" lon="11.470061139945694"><ele>288.0</ele><time>2026-04-26T10:29:10.001Z</time></trkpt><trkpt lat="44.26794449411419" lon="11.469873058930375"><ele>288.0</ele><time>2026-04-26T10:29:11.001Z</time></trkpt><trkpt lat="44.26800666329312" lon="11.469675381436605"><ele>288.0</ele><time>2026-04-26T10:29:12.001Z</time></trkpt><trkpt lat="44.26806944757679" lon="11.469481673758184"><ele>288.0</ele><time>2026-04-26T10:29:13.001Z</time></trkpt><trkpt lat="44.26813944667626" lon="11.469291496895387"><ele>289.0</ele><time>2026-04-26T10:29:14.001Z</time></trkpt><trkpt lat="44.26821517115" lon="11.46910035344661"><ele>290.0</ele><time>2026-04-26T10:29:15.001Z</time></trkpt><trkpt lat="44.268299361666855" lon="11.46891972864305"><ele>291.0</ele><time>2026-04-26T10:29:16.001Z</time></trkpt><trkpt lat="44.26837862271631" lon="11.468739323151356"><ele>291.0</ele><time>2026-04-26T10:29:17.001Z</time></trkpt><trkpt lat="44.26844811327573" lon="11.468556798939087"><ele>291.0</ele><time>2026-04-26T10:29:18.001Z</time></trkpt><trkpt lat="44.268514125968196" lon="11.468364336834842"><ele>291.0</ele><time>2026-04-26T10:29:19.001Z</time></trkpt><trkpt lat="44.26857765070636" lon="11.46817035017457"><ele>291.0</ele><time>2026-04-26T10:29:20.001Z</time></trkpt><trkpt lat="44.268640579386684" lon="11.467978196702322"><ele>291.0</ele><time>2026-04-26T10:29:21.001Z</time></trkpt><trkpt lat="44.26868434692126" lon="11.467760026487952"><ele>291.0</ele><time>2026-04-26T10:29:22.001Z</time></trkpt><trkpt lat="44.26871473859839" lon="11.467535034929783"><ele>290.0</ele><time>2026-04-26T10:29:23.001Z</time></trkpt><trkpt lat="44.268727732416174" lon="11.467305384718912"><ele>289.0</ele><time>2026-04-26T10:29:24.001Z</time></trkpt><trkpt lat="44.26874435659459" lon="11.467118529184853"><ele>288.0</ele><time>2026-04-26T10:29:25.001Z</time></trkpt><trkpt lat="44.26879478966131" lon="11.466951128174895"><ele>287.0</ele><time>2026-04-26T10:29:26.001Z</time></trkpt><trkpt lat="44.26888901908493" lon="11.466826233822063"><ele>290.33333333333337</ele><time>2026-04-26T10:29:27.001Z</time></trkpt><trkpt lat="44.26901429269392" lon="11.466700422774087"><ele>293.6666666666667</ele><time>2026-04-26T10:29:28.001Z</time></trkpt><trkpt lat="44.26911245576553" lon="11.466509721795823"><ele>297.0</ele><time>2026-04-26T10:29:29.001Z</time></trkpt><trkpt lat="44.26920069610323" lon="11.466310322925356"><ele>294.25</ele><time>2026-04-26T10:29:30.001Z</time></trkpt><trkpt lat="44.26929334915403" lon="11.466145718673475"><ele>291.5</ele><time>2026-04-26T10:29:31.001Z</time></trkpt><trkpt lat="44.269377613972864" lon="11.465983285045168"><ele>288.75</ele><time>2026-04-26T10:29:32.001Z</time></trkpt><trkpt lat="44.269461814107444" lon="11.46582140523568"><ele>286.0</ele><time>2026-04-26T10:29:33.001Z</time></trkpt><trkpt lat="44.26952783809633" lon="11.46565251601389"><ele>286.0</ele><time>2026-04-26T10:29:34.001Z</time></trkpt><trkpt lat="44.2696047561518" lon="11.465506336682447"><ele>286.0</ele><time>2026-04-26T10:29:35.001Z</time></trkpt><trkpt lat="44.26967135251154" lon="11.465370586692101"><ele>286.0</ele><time>2026-04-26T10:29:36.001Z</time></trkpt><trkpt lat="44.26972403818438" lon="11.465247493739877"><ele>286.0</ele><time>2026-04-26T10:29:37.001Z</time></trkpt><trkpt lat="44.26977096752807" lon="11.465118818361194"><ele>286.0</ele><time>2026-04-26T10:29:38.001Z</time></trkpt><trkpt lat="44.26979675251622" lon="11.464977367960598"><ele>286.0</ele><time>2026-04-26T10:29:39.001Z</time></trkpt><trkpt lat="44.269795964901064" lon="11.464816848405972"><ele>286.0</ele><time>2026-04-26T10:29:40.001Z</time></trkpt><trkpt lat="44.26977642477149" lon="11.464652871067633"><ele>286.0</ele><time>2026-04-26T10:29:41.001Z</time></trkpt><trkpt lat="44.26977452097021" lon="11.464488129266533"><ele>286.0</ele><time>2026-04-26T10:29:42.001Z</time></trkpt><trkpt lat="44.26973588239598" lon="11.464339582578175"><ele>286.0</ele><time>2026-04-26T10:29:43.001Z</time></trkpt><trkpt lat="44.26974100445228" lon="11.46419321414206"><ele>286.0</ele><time>2026-04-26T10:29:44.001Z</time></trkpt><trkpt lat="44.26977960127145" lon="11.464065841648448"><ele>286.0</ele><time>2026-04-26T10:29:45.001Z</time></trkpt><trkpt lat="44.26984240213448" lon="11.463947539122008"><ele>286.0</ele><time>2026-04-26T10:29:46.001Z</time></trkpt><trkpt lat="44.26990974052561" lon="11.463852198003893"><ele>286.6</ele><time>2026-04-26T10:29:47.001Z</time></trkpt><trkpt lat="44.269969293300434" lon="11.463755151715254"><ele>287.20000000000005</ele><time>2026-04-26T10:29:48.001Z</time></trkpt><trkpt lat="44.270016132627745" lon="11.463633326973705"><ele>287.79999999999995</ele><time>2026-04-26T10:29:49.001Z</time></trkpt><trkpt lat="44.27005337071215" lon="11.463504833185272"><ele>288.4</ele><time>2026-04-26T10:29:50.001Z</time></trkpt><trkpt lat="44.27008932307653" lon="11.463373637435241"><ele>289.0</ele><time>2026-04-26T10:29:51.001Z</time></trkpt><trkpt lat="44.27012824241385" lon="11.463255910741477"><ele>289.0</ele><time>2026-04-26T10:29:52.001Z</time></trkpt><trkpt lat="44.270156811833964" lon="11.463144668255321"><ele>289.0</ele><time>2026-04-26T10:29:53.001Z</time></trkpt><trkpt lat="44.270164347852635" lon="11.46301409251407"><ele>289.0</ele><time>2026-04-26T10:29:54.001Z</time></trkpt><trkpt lat="44.27015205705878" lon="11.46289079059239"><ele>289.0</ele><time>2026-04-26T10:29:55.001Z</time></trkpt><trkpt lat="44.27012622579661" lon="11.462756808425619"><ele>289.0</ele><time>2026-04-26T10:29:56.001Z</time></trkpt><trkpt lat="44.27007937069797" lon="11.462622488850181"><ele>290.0</ele><time>2026-04-26T10:29:57.001Z</time></trkpt><trkpt lat="44.27002976899681" lon="11.462479963761261"><ele>291.0</ele><time>2026-04-26T10:29:58.001Z</time></trkpt><trkpt lat="44.270021715693346" lon="11.462327257106596"><ele>292.0</ele><time>2026-04-26T10:29:59.001Z</time></trkpt><trkpt lat="44.27005639657053" lon="11.462169910689559"><ele>293.0</ele><time>2026-04-26T10:30:00.001Z</time></trkpt><trkpt lat="44.270109537439176" lon="11.46201207064496"><ele>294.5</ele><time>2026-04-26T10:30:01.001Z</time></trkpt><trkpt lat="44.27019499115414" lon="11.461860856425437"><ele>296.0</ele><time>2026-04-26T10:30:02.001Z</time></trkpt><trkpt lat="44.27029296544641" lon="11.461707491257318"><ele>297.5</ele><time>2026-04-26T10:30:03.001Z</time></trkpt><trkpt lat="44.270388082830095" lon="11.461559749495375"><ele>299.0</ele><time>2026-04-26T10:30:04.001Z</time></trkpt><trkpt lat="44.270490069569206" lon="11.461411324292559"><ele>296.33333333333337</ele><time>2026-04-26T10:30:05.001Z</time></trkpt><trkpt lat="44.27059647236415" lon="11.461232799780037"><ele>293.6666666666667</ele><time>2026-04-26T10:30:06.001Z</time></trkpt><trkpt lat="44.270695315195454" lon="11.461064976138676"><ele>291.0</ele><time>2026-04-26T10:30:07.001Z</time></trkpt><trkpt lat="44.270793233659724" lon="11.460893187574586"><ele>291.0</ele><time>2026-04-26T10:30:08.001Z</time></trkpt><trkpt lat="44.27090359250694" lon="11.460712646169599"><ele>291.0</ele><time>2026-04-26T10:30:09.001Z</time></trkpt><trkpt lat="44.27100680229984" lon="11.46051487648717"><ele>291.0</ele><time>2026-04-26T10:30:10.001Z</time></trkpt><trkpt lat="44.27112880860738" lon="11.460339374210795"><ele>293.3333333333333</ele><time>2026-04-26T10:30:11.001Z</time></trkpt><trkpt lat="44.27122077048566" lon="11.46016717636292"><ele>295.66666666666663</ele><time>2026-04-26T10:30:12.001Z</time></trkpt><trkpt lat="44.27132779835723" lon="11.460010778850648"><ele>298.0</ele><time>2026-04-26T10:30:13.001Z</time></trkpt><trkpt lat="44.27141832743236" lon="11.459821097669273"><ele>293.66666666666663</ele><time>2026-04-26T10:30:14.001Z</time></trkpt><trkpt lat="44.271491043504824" lon="11.459606347435525"><ele>289.3333333333333</ele><time>2026-04-26T10:30:15.001Z</time></trkpt><trkpt lat="44.271548344803634" lon="11.459374894169912"><ele>285.0</ele><time>2026-04-26T10:30:16.001Z</time></trkpt><trkpt lat="44.27159607679524" lon="11.459137805664332"><ele>285.0</ele><time>2026-04-26T10:30:17Z</time></trkpt><trkpt lat="44.2716624057929" lon="11.458910092985755"><ele>285.0</ele><time>2026-04-26T10:30:18Z</time></trkpt><trkpt lat="44.27174356173705" lon="11.458694959456947"><ele>285.0</ele><time>2026-04-26T10:30:19Z</time></trkpt><trkpt lat="44.271829227172795" lon="11.458510185068045"><ele>286.6666666666667</ele><time>2026-04-26T10:30:20Z</time></trkpt><trkpt lat="44.27193888835402" lon="11.458363601735508"><ele>288.33333333333337</ele><time>2026-04-26T10:30:21Z</time></trkpt><trkpt lat="44.27206880117909" lon="11.458254566817082"><ele>290.0</ele><time>2026-04-26T10:30:22Z</time></trkpt><trkpt lat="44.272218438357235" lon="11.458160180691278"><ele>290.6666666666667</ele><time>2026-04-26T10:30:23Z</time></trkpt><trkpt lat="44.27237284985804" lon="11.458078641385061"><ele>291.3333333333333</ele><time>2026-04-26T10:30:24Z</time></trkpt><trkpt lat="44.27250758415258" lon="11.457974990385708"><ele>292.0</ele><time>2026-04-26T10:30:25Z</time></trkpt><trkpt lat="44.27262779749304" lon="11.457848075667016"><ele>292.0</ele><time>2026-04-26T10:30:26Z</time></trkpt><trkpt lat="44.27273248430727" lon="11.457692563138568"><ele>292.0</ele><time>2026-04-26T10:30:27Z</time></trkpt><trkpt lat="44.27282646116642" lon="11.457551786300552"><ele>292.0</ele><time>2026-04-26T10:30:28Z</time></trkpt><trkpt lat="44.272905017407055" lon="11.457417935875819"><ele>292.0</ele><time>2026-04-26T10:30:29Z</time></trkpt><trkpt lat="44.273004593335486" lon="11.457346840919444"><ele>291.0</ele><time>2026-04-26T10:30:30Z</time></trkpt><trkpt lat="44.27311139957893" lon="11.457338148091708"><ele>290.0</ele><time>2026-04-26T10:30:31Z</time></trkpt><trkpt lat="44.27320531652399" lon="11.457383043903443"><ele>289.0</ele><time>2026-04-26T10:30:32Z</time></trkpt><trkpt lat="44.27332028957206" lon="11.457413461678394"><ele>288.0</ele><time>2026-04-26T10:30:33Z</time></trkpt><trkpt lat="44.273429893227345" lon="11.457480545465787"><ele>287.0</ele><time>2026-04-26T10:30:34Z</time></trkpt><trkpt lat="44.27352993196977" lon="11.457529658916782"><ele>287.0</ele><time>2026-04-26T10:30:35Z</time></trkpt><trkpt lat="44.2736209204925" lon="11.457573586680528"><ele>287.0</ele><time>2026-04-26T10:30:36Z</time></trkpt><trkpt lat="44.27370649641349" lon="11.457609088643261"><ele>287.0</ele><time>2026-04-26T10:30:37Z</time></trkpt><trkpt lat="44.273775849338676" lon="11.457640907255554"><ele>287.0</ele><time>2026-04-26T10:30:38Z</time></trkpt><trkpt lat="44.27385311681434" lon="11.457577628765364"><ele>287.0</ele><time>2026-04-26T10:30:40Z</time></trkpt><trkpt lat="44.273846128169886" lon="11.457429000367625"><ele>287.0</ele><time>2026-04-26T10:30:42Z</time></trkpt><trkpt lat="44.273729671958655" lon="11.457367874195022"><ele>287.0</ele><time>2026-04-26T10:30:44Z</time></trkpt><trkpt lat="44.27363823617601" lon="11.457355841342553"><ele>287.0</ele><time>2026-04-26T10:30:45Z</time></trkpt><trkpt lat="44.273558639614656" lon="11.457330802783611"><ele>287.0</ele><time>2026-04-26T10:30:46Z</time></trkpt><trkpt lat="44.2735165029272" lon="11.457254672715553"><ele>287.0</ele><time>2026-04-26T10:30:47Z</time></trkpt><trkpt lat="44.2735652286135" lon="11.457102722593177"><ele>289.25</ele><time>2026-04-26T10:30:49Z</time></trkpt><trkpt lat="44.27370445620052" lon="11.457022346063734"><ele>291.5</ele><time>2026-04-26T10:30:51Z</time></trkpt><trkpt lat="44.27380607528831" lon="11.456945644813961"><ele>293.75</ele><time>2026-04-26T10:30:52Z</time></trkpt><trkpt lat="44.273870276821924" lon="11.456801725625544"><ele>296.0</ele><time>2026-04-26T10:30:53Z</time></trkpt><trkpt lat="44.27390288526576" lon="11.4566344022513"><ele>296.0</ele><time>2026-04-26T10:30:54Z</time></trkpt><trkpt lat="44.273930980955484" lon="11.45646986330025"><ele>296.0</ele><time>2026-04-26T10:30:55Z</time></trkpt><trkpt lat="44.273972430647135" lon="11.456339838899769"><ele>296.0</ele><time>2026-04-26T10:30:56Z</time></trkpt><trkpt lat="44.274028635131245" lon="11.456253781967416"><ele>296.0</ele><time>2026-04-26T10:30:57Z</time></trkpt><trkpt lat="44.27410067557718" lon="11.456201972919185"><ele>296.0</ele><time>2026-04-26T10:30:58Z</time></trkpt><trkpt lat="44.274198055610434" lon="11.456202255646204"><ele>299.0</ele><time>2026-04-26T10:30:59Z</time></trkpt><trkpt lat="44.274315643308825" lon="11.45623347006785"><ele>302.0</ele><time>2026-04-26T10:31:00Z</time></trkpt><trkpt lat="44.27441851634397" lon="11.456255522022783"><ele>305.0</ele><time>2026-04-26T10:31:01Z</time></trkpt><trkpt lat="44.27453469634879" lon="11.456261626553472"><ele>308.0</ele><time>2026-04-26T10:31:02Z</time></trkpt><trkpt lat="44.27464550701424" lon="11.456255718160742"><ele>308.0</ele><time>2026-04-26T10:31:03Z</time></trkpt><trkpt lat="44.27475329396117" lon="11.456248254565395"><ele>308.0</ele><time>2026-04-26T10:31:04Z</time></trkpt><trkpt lat="44.274837210192345" lon="11.456238872959895"><ele>308.0</ele><time>2026-04-26T10:31:05Z</time></trkpt><trkpt lat="44.27492926098505" lon="11.45622663186014"><ele>308.0</ele><time>2026-04-26T10:31:06Z</time></trkpt><trkpt lat="44.27501725154625" lon="11.456125253349855"><ele>308.0</ele><time>2026-04-26T10:31:08Z</time></trkpt><trkpt lat="44.27501622108801" lon="11.456033484259645"><ele>308.0</ele><time>2026-04-26T10:31:09Z</time></trkpt><trkpt lat="44.27496431134234" lon="11.455956850265212"><ele>308.0</ele><time>2026-04-26T10:31:10Z</time></trkpt><trkpt lat="44.27488866859199" lon="11.45589581118749"><ele>308.0</ele><time>2026-04-26T10:31:11Z</time></trkpt><trkpt lat="44.274819845882476" lon="11.455810802280537"><ele>308.0</ele><time>2026-04-26T10:31:12.001Z</time></trkpt><trkpt lat="44.27474700648361" lon="11.455734375195032"><ele>308.0</ele><time>2026-04-26T10:31:13.001Z</time></trkpt><trkpt lat="44.27466429563004" lon="11.455643636511605"><ele>308.0</ele><time>2026-04-26T10:31:14.001Z</time></trkpt><trkpt lat="44.274590340030265" lon="11.455562507961906"><ele>308.0</ele><time>2026-04-26T10:31:15.001Z</time></trkpt><trkpt lat="44.27452042642351" lon="11.455482091192312"><ele>308.0</ele><time>2026-04-26T10:31:16.001Z</time></trkpt><trkpt lat="44.274451245528276" lon="11.45539690332202"><ele>308.0</ele><time>2026-04-26T10:31:17.001Z</time></trkpt><trkpt lat="44.27438820291339" lon="11.45529491889099"><ele>308.0</ele><time>2026-04-26T10:31:18.001Z</time></trkpt><trkpt lat="44.27434236669327" lon="11.455159469029864"><ele>310.0</ele><time>2026-04-26T10:31:19.001Z</time></trkpt><trkpt lat="44.274280473595134" lon="11.455003496399316"><ele>312.0</ele><time>2026-04-26T10:31:20.001Z</time></trkpt><trkpt lat="44.27421898392285" lon="11.454848541531438"><ele>314.0</ele><time>2026-04-26T10:31:21.001Z</time></trkpt><trkpt lat="44.274163108607056" lon="11.454709462640993"><ele>316.0</ele><time>2026-04-26T10:31:22.001Z</time></trkpt><trkpt lat="44.27410414475421" lon="11.45456210795679"><ele>317.75</ele><time>2026-04-26T10:31:23.001Z</time></trkpt><trkpt lat="44.27404294797935" lon="11.454409172945265"><ele>319.5</ele><time>2026-04-26T10:31:24.001Z</time></trkpt><trkpt lat="44.273977233986095" lon="11.454247652311135"><ele>321.25</ele><time>2026-04-26T10:31:25.001Z</time></trkpt><trkpt lat="44.27389497925996" lon="11.454091063287434"><ele>323.0</ele><time>2026-04-26T10:31:26.001Z</time></trkpt><trkpt lat="44.273828007949334" lon="11.453925663158167"><ele>326.0</ele><time>2026-04-26T10:31:27.001Z</time></trkpt><trkpt lat="44.27376100973543" lon="11.453751522604641"><ele>329.0</ele><time>2026-04-26T10:31:28.001Z</time></trkpt><trkpt lat="44.2736901848698" lon="11.453579466104655"><ele>332.0</ele><time>2026-04-26T10:31:29.001Z</time></trkpt><trkpt lat="44.27362286412614" lon="11.453406726637493"><ele>335.0</ele><time>2026-04-26T10:31:30.001Z</time></trkpt><trkpt lat="44.27355995901824" lon="11.45323027493564"><ele>335.0</ele><time>2026-04-26T10:31:31.001Z</time></trkpt><trkpt lat="44.27350550704353" lon="11.453046704265496"><ele>335.0</ele><time>2026-04-26T10:31:32.001Z</time></trkpt><trkpt lat="44.27348241676281" lon="11.452844791474543"><ele>335.0</ele><time>2026-04-26T10:31:33.001Z</time></trkpt><trkpt lat="44.27345096374412" lon="11.452655873319062"><ele>335.0</ele><time>2026-04-26T10:31:34.001Z</time></trkpt><trkpt lat="44.2734434419076" lon="11.452445759228722"><ele>338.0</ele><time>2026-04-26T10:31:35.001Z</time></trkpt><trkpt lat="44.273433292563894" lon="11.452233577779449"><ele>341.0</ele><time>2026-04-26T10:31:36.001Z</time></trkpt><trkpt lat="44.273400520464726" lon="11.452014604059304"><ele>344.0</ele><time>2026-04-26T10:31:37.001Z</time></trkpt><trkpt lat="44.273366422192275" lon="11.451804386562905"><ele>345.5</ele><time>2026-04-26T10:31:38.001Z</time></trkpt><trkpt lat="44.27333135841917" lon="11.451602440133474"><ele>347.0</ele><time>2026-04-26T10:31:39.001Z</time></trkpt><trkpt lat="44.27331748663052" lon="11.451412084150373"><ele>348.5</ele><time>2026-04-26T10:31:40.001Z</time></trkpt><trkpt lat="44.27329649959611" lon="11.45126162693329"><ele>350.0</ele><time>2026-04-26T10:31:41.001Z</time></trkpt><trkpt lat="44.27327764037082" lon="11.451126971136409"><ele>351.5</ele><time>2026-04-26T10:31:42.001Z</time></trkpt><trkpt lat="44.27330629085818" lon="11.450987915238601"><ele>353.0</ele><time>2026-04-26T10:31:43.001Z</time></trkpt><trkpt lat="44.27338787493743" lon="11.450886077981876"><ele>354.5</ele><time>2026-04-26T10:31:44.001Z</time></trkpt><trkpt lat="44.273492699719874" lon="11.450807323193635"><ele>356.0</ele><time>2026-04-26T10:31:45.001Z</time></trkpt><trkpt lat="44.273581331378985" lon="11.45065970714896"><ele>356.0</ele><time>2026-04-26T10:31:46.001Z</time></trkpt><trkpt lat="44.27363148300501" lon="11.45049467976365"><ele>356.0</ele><time>2026-04-26T10:31:47.001Z</time></trkpt><trkpt lat="44.273685019071344" lon="11.45031862563286"><ele>356.0</ele><time>2026-04-26T10:31:48.001Z</time></trkpt><trkpt lat="44.273730784079454" lon="11.450155886768085"><ele>356.0</ele><time>2026-04-26T10:31:49.001Z</time></trkpt><trkpt lat="44.27380484062833" lon="11.450036682234392"><ele>356.4</ele><time>2026-04-26T10:31:50.001Z</time></trkpt><trkpt lat="44.27391497017745" lon="11.44997059610251"><ele>356.8</ele><time>2026-04-26T10:31:51.001Z</time></trkpt><trkpt lat="44.273982403705865" lon="11.449884419550393"><ele>357.2</ele><time>2026-04-26T10:31:52.001Z</time></trkpt><trkpt lat="44.27402916048754" lon="11.44979676937596"><ele>357.59999999999997</ele><time>2026-04-26T10:31:53.001Z</time></trkpt><trkpt lat="44.27406117257429" lon="11.449703141717263"><ele>358.0</ele><time>2026-04-26T10:31:54.001Z</time></trkpt><trkpt lat="44.27401685497671" lon="11.449589057891693"><ele>360.25</ele><time>2026-04-26T10:31:55.001Z</time></trkpt><trkpt lat="44.273936342169144" lon="11.449536761621083"><ele>362.5</ele><time>2026-04-26T10:31:56.001Z</time></trkpt><trkpt lat="44.27383410940626" lon="11.449559422191706"><ele>364.75</ele><time>2026-04-26T10:31:57.001Z</time></trkpt><trkpt lat="44.27371322582844" lon="11.449574433432137"><ele>367.0</ele><time>2026-04-26T10:31:58.001Z</time></trkpt><trkpt lat="44.2735631013552" lon="11.449600035376418"><ele>367.0</ele><time>2026-04-26T10:31:59.001Z</time></trkpt><trkpt lat="44.27343850667868" lon="11.449610331708584"><ele>367.0</ele><time>2026-04-26T10:32:00.001Z</time></trkpt><trkpt lat="44.27333002110356" lon="11.449622020859993"><ele>367.0</ele><time>2026-04-26T10:32:01.001Z</time></trkpt><trkpt lat="44.27321410050148" lon="11.449643831231487"><ele>367.0</ele><time>2026-04-26T10:32:02.001Z</time></trkpt><trkpt lat="44.27310359939278" lon="11.44967011772637"><ele>370.0</ele><time>2026-04-26T10:32:03.001Z</time></trkpt><trkpt lat="44.272996232579096" lon="11.449702364526914"><ele>373.0</ele><time>2026-04-26T10:32:04.001Z</time></trkpt><trkpt lat="44.27289158534762" lon="11.449727441303878"><ele>376.0</ele><time>2026-04-26T10:32:05.001Z</time></trkpt><trkpt lat="44.27278638693926" lon="11.449664251907539"><ele>379.0</ele><time>2026-04-26T10:32:06.001Z</time></trkpt><trkpt lat="44.27267901471831" lon="11.449589481351103"><ele>380.4</ele><time>2026-04-26T10:32:07.001Z</time></trkpt><trkpt lat="44.272596449686404" lon="11.449508569601717"><ele>381.79999999999995</ele><time>2026-04-26T10:32:08.001Z</time></trkpt><trkpt lat="44.272552972771365" lon="11.449402447767223"><ele>383.20000000000005</ele><time>2026-04-26T10:32:09.001Z</time></trkpt><trkpt lat="44.272541526118665" lon="11.44927741241702"><ele>384.6</ele><time>2026-04-26T10:32:10.001Z</time></trkpt><trkpt lat="44.27254389917585" lon="11.449140882176216"><ele>386.0</ele><time>2026-04-26T10:32:11.001Z</time></trkpt><trkpt lat="44.27255525476931" lon="11.448957826522445"><ele>388.5</ele><time>2026-04-26T10:32:12.001Z</time></trkpt><trkpt lat="44.27257841558415" lon="11.448762314279925"><ele>391.0</ele><time>2026-04-26T10:32:13.001Z</time></trkpt><trkpt lat="44.2725969021604" lon="11.44856298488575"><ele>393.5</ele><time>2026-04-26T10:32:14.001Z</time></trkpt><trkpt lat="44.272607083086115" lon="11.448394351822818"><ele>396.0</ele><time>2026-04-26T10:32:15.001Z</time></trkpt><trkpt lat="44.272603386051216" lon="11.448219353184465"><ele>396.0</ele><time>2026-04-26T10:32:16.001Z</time></trkpt><trkpt lat="44.272591122466594" lon="11.448056875619317"><ele>396.0</ele><time>2026-04-26T10:32:17.001Z</time></trkpt><trkpt lat="44.27257423178305" lon="11.447905341479336"><ele>396.0</ele><time>2026-04-26T10:32:18.001Z</time></trkpt><trkpt lat="44.27255078829884" lon="11.447755560783179"><ele>396.0</ele><time>2026-04-26T10:32:19.001Z</time></trkpt><trkpt lat="44.272528222065915" lon="11.447600104355852"><ele>396.75</ele><time>2026-04-26T10:32:20.001Z</time></trkpt><trkpt lat="44.27250988351545" lon="11.447449282887135"><ele>397.5</ele><time>2026-04-26T10:32:21.001Z</time></trkpt><trkpt lat="44.272480595026835" lon="11.447303700534931"><ele>398.25</ele><time>2026-04-26T10:32:22.001Z</time></trkpt><trkpt lat="44.272417739174195" lon="11.44714760690671"><ele>399.0</ele><time>2026-04-26T10:32:23Z</time></trkpt><trkpt lat="44.27234330277514" lon="11.447010013121025"><ele>403.25</ele><time>2026-04-26T10:32:24Z</time></trkpt><trkpt lat="44.27226736040274" lon="11.446860707885406"><ele>407.5</ele><time>2026-04-26T10:32:25Z</time></trkpt><trkpt lat="44.272175549290054" lon="11.446710810248009"><ele>411.75</ele><time>2026-04-26T10:32:26Z</time></trkpt><trkpt lat="44.27207849843938" lon="11.446555735689286"><ele>416.0</ele><time>2026-04-26T10:32:27Z</time></trkpt><trkpt lat="44.27197980787322" lon="11.446399243572628"><ele>415.25</ele><time>2026-04-26T10:32:28Z</time></trkpt><trkpt lat="44.27187185838444" lon="11.44624707619723"><ele>414.5</ele><time>2026-04-26T10:32:29Z</time></trkpt><trkpt lat="44.2717834166742" lon="11.446086081786959"><ele>413.75</ele><time>2026-04-26T10:32:30Z</time></trkpt><trkpt lat="44.271698771506" lon="11.445949799367463"><ele>413.0</ele><time>2026-04-26T10:32:31Z</time></trkpt><trkpt lat="44.271621303744546" lon="11.445825072700575"><ele>413.0</ele><time>2026-04-26T10:32:32Z</time></trkpt><trkpt lat="44.27153321993843" lon="11.445723419290188"><ele>413.0</ele><time>2026-04-26T10:32:33Z</time></trkpt><trkpt lat="44.271448070599114" lon="11.445621721567827"><ele>413.0</ele><time>2026-04-26T10:32:34Z</time></trkpt><trkpt lat="44.27133341200837" lon="11.445548477783214"><ele>413.0</ele><time>2026-04-26T10:32:35Z</time></trkpt><trkpt lat="44.27118886669794" lon="11.445502749864076"><ele>416.25</ele><time>2026-04-26T10:32:36Z</time></trkpt><trkpt lat="44.27102859773983" lon="11.445481916335549"><ele>419.5</ele><time>2026-04-26T10:32:37Z</time></trkpt><trkpt lat="44.270883088066164" lon="11.445481417997296"><ele>422.75</ele><time>2026-04-26T10:32:38Z</time></trkpt><trkpt lat="44.270753176461255" lon="11.445477382769147"><ele>426.0</ele><time>2026-04-26T10:32:39Z</time></trkpt><trkpt lat="44.27062629293132" lon="11.445464542145242"><ele>426.6</ele><time>2026-04-26T10:32:40Z</time></trkpt><trkpt lat="44.27051288410137" lon="11.445410832872962"><ele>427.20000000000005</ele><time>2026-04-26T10:32:41Z</time></trkpt><trkpt lat="44.27041647182573" lon="11.445358203336047"><ele>427.79999999999995</ele><time>2026-04-26T10:32:42Z</time></trkpt><trkpt lat="44.27032474638595" lon="11.445286317731641"><ele>428.4</ele><time>2026-04-26T10:32:43Z</time></trkpt><trkpt lat="44.270241684515206" lon="11.445191884667551"><ele>429.0</ele><time>2026-04-26T10:32:44Z</time></trkpt><trkpt lat="44.27014414582441" lon="11.445088499110046"><ele>429.0</ele><time>2026-04-26T10:32:45Z</time></trkpt><trkpt lat="44.270077182009054" lon="11.444932955410243"><ele>429.0</ele><time>2026-04-26T10:32:46Z</time></trkpt><trkpt lat="44.2700178726227" lon="11.444756006369534"><ele>429.0</ele><time>2026-04-26T10:32:47Z</time></trkpt><trkpt lat="44.26995586675171" lon="11.444574655660418"><ele>429.0</ele><time>2026-04-26T10:32:48Z</time></trkpt><trkpt lat="44.26988964202427" lon="11.444412083893305"><ele>428.75</ele><time>2026-04-26T10:32:49Z</time></trkpt><trkpt lat="44.269812522566156" lon="11.44425025187698"><ele>428.5</ele><time>2026-04-26T10:32:50Z</time></trkpt><trkpt lat="44.269736493250534" lon="11.444090491167676"><ele>428.25</ele><time>2026-04-26T10:32:51Z</time></trkpt><trkpt lat="44.26965015508788" lon="11.443940152440986"><ele>428.0</ele><time>2026-04-26T10:32:52Z</time></trkpt><trkpt lat="44.26955764360699" lon="11.443800308493879"><ele>430.0</ele><time>2026-04-26T10:32:53Z</time></trkpt><trkpt lat="44.269476531454" lon="11.44365279567894"><ele>432.0</ele><time>2026-04-26T10:32:54Z</time></trkpt><trkpt lat="44.269397532521836" lon="11.443509323948927"><ele>434.0</ele><time>2026-04-26T10:32:55Z</time></trkpt><trkpt lat="44.26932668865074" lon="11.443367417468753"><ele>436.0</ele><time>2026-04-26T10:32:56Z</time></trkpt><trkpt lat="44.26928265357848" lon="11.443190166465417"><ele>436.0</ele><time>2026-04-26T10:32:57Z</time></trkpt><trkpt lat="44.26924295537656" lon="11.44302512106498"><ele>436.0</ele><time>2026-04-26T10:32:58Z</time></trkpt><trkpt lat="44.269239465438055" lon="11.442832691096692"><ele>436.0</ele><time>2026-04-26T10:32:59Z</time></trkpt><trkpt lat="44.269242383461986" lon="11.44262483630098"><ele>436.0</ele><time>2026-04-26T10:33:00Z</time></trkpt><trkpt lat="44.269256578208655" lon="11.442432270585494"><ele>435.33333333333337</ele><time>2026-04-26T10:33:01Z</time></trkpt><trkpt lat="44.26927943067845" lon="11.442227935099824"><ele>434.66666666666663</ele><time>2026-04-26T10:33:02Z</time></trkpt><trkpt lat="44.26929714794843" lon="11.442009913291221"><ele>434.0</ele><time>2026-04-26T10:33:03Z</time></trkpt><trkpt lat="44.26934423673103" lon="11.441755989298867"><ele>434.0</ele><time>2026-04-26T10:33:04Z</time></trkpt><trkpt lat="44.26938060589355" lon="11.441519404644888"><ele>434.0</ele><time>2026-04-26T10:33:05Z</time></trkpt><trkpt lat="44.26940663693485" lon="11.441295396044321"><ele>434.0</ele><time>2026-04-26T10:33:06Z</time></trkpt><trkpt lat="44.269426215317495" lon="11.441135088871036"><ele>432.0</ele><time>2026-04-26T10:33:07Z</time></trkpt><trkpt lat="44.26943036086813" lon="11.440974991993286"><ele>430.0</ele><time>2026-04-26T10:33:08Z</time></trkpt><trkpt lat="44.26942738900478" lon="11.440809837618543"><ele>428.0</ele><time>2026-04-26T10:33:09Z</time></trkpt><trkpt lat="44.26933813317487" lon="11.440637850854273"><ele>426.0</ele><time>2026-04-26T10:33:10Z</time></trkpt><trkpt lat="44.2692604520557" lon="11.440457906176755"><ele>421.0</ele><time>2026-04-26T10:33:11Z</time></trkpt><trkpt lat="44.269179597992526" lon="11.44026347471668"><ele>416.0</ele><time>2026-04-26T10:33:12Z</time></trkpt><trkpt lat="44.26911477965045" lon="11.440067325135445"><ele>411.0</ele><time>2026-04-26T10:33:13Z</time></trkpt><trkpt lat="44.269052935791926" lon="11.4398779552699"><ele>411.0</ele><time>2026-04-26T10:33:14Z</time></trkpt><trkpt lat="44.26900598681102" lon="11.439698506616253"><ele>411.0</ele><time>2026-04-26T10:33:15Z</time></trkpt><trkpt lat="44.268898242754545" lon="11.43958898816231"><ele>411.0</ele><time>2026-04-26T10:33:16Z</time></trkpt><trkpt lat="44.26879624803437" lon="11.43949715513219"><ele>411.0</ele><time>2026-04-26T10:33:17Z</time></trkpt><trkpt lat="44.268696261203694" lon="11.439391372340735"><ele>412.75</ele><time>2026-04-26T10:33:18Z</time></trkpt><trkpt lat="44.26863451368309" lon="11.43926471345154"><ele>414.5</ele><time>2026-04-26T10:33:19Z</time></trkpt><trkpt lat="44.26863002547403" lon="11.439099430717446"><ele>416.25</ele><time>2026-04-26T10:33:20Z</time></trkpt><trkpt lat="44.26859871879846" lon="11.438915917745424"><ele>418.0</ele><time>2026-04-26T10:33:21.001Z</time></trkpt><trkpt lat="44.26853404056367" lon="11.438765936751453"><ele>418.0</ele><time>2026-04-26T10:33:22.001Z</time></trkpt><trkpt lat="44.26843043351537" lon="11.438667080779364"><ele>418.0</ele><time>2026-04-26T10:33:23.001Z</time></trkpt><trkpt lat="44.26832111777181" lon="11.438563889480253"><ele>418.0</ele><time>2026-04-26T10:33:24.001Z</time></trkpt><trkpt lat="44.26827244493498" lon="11.438413332512821"><ele>418.0</ele><time>2026-04-26T10:33:25.001Z</time></trkpt><trkpt lat="44.268265167185305" lon="11.438240537813577"><ele>418.0</ele><time>2026-04-26T10:33:26.001Z</time></trkpt><trkpt lat="44.26822259865703" lon="11.438008996488783"><ele>418.0</ele><time>2026-04-26T10:33:27.001Z</time></trkpt><trkpt lat="44.26814359961175" lon="11.437810415809556"><ele>418.0</ele><time>2026-04-26T10:33:28.001Z</time></trkpt><trkpt lat="44.26808538526678" lon="11.437626324416208"><ele>420.5</ele><time>2026-04-26T10:33:29.001Z</time></trkpt><trkpt lat="44.268023774121474" lon="11.437464545840735"><ele>423.0</ele><time>2026-04-26T10:33:30.001Z</time></trkpt><trkpt lat="44.26797876562498" lon="11.43730902211548"><ele>425.5</ele><time>2026-04-26T10:33:31.001Z</time></trkpt><trkpt lat="44.26792847626758" lon="11.437164416152028"><ele>428.0</ele><time>2026-04-26T10:33:32.001Z</time></trkpt><trkpt lat="44.26790051029847" lon="11.437025807323431"><ele>428.0</ele><time>2026-04-26T10:33:33.001Z</time></trkpt><trkpt lat="44.26790606145858" lon="11.436916886121535"><ele>427.99999999999994</ele><time>2026-04-26T10:33:34.001Z</time></trkpt><trkpt lat="44.26796367510212" lon="11.436782131179596"><ele>427.99999999999994</ele><time>2026-04-26T10:33:35.001Z</time></trkpt><trkpt lat="44.268009697076536" lon="11.436660303039629"><ele>428.0</ele><time>2026-04-26T10:33:36.001Z</time></trkpt><trkpt lat="44.26802257375965" lon="11.436543790228932"><ele>428.0</ele><time>2026-04-26T10:33:37.001Z</time></trkpt><trkpt lat="44.267964342271796" lon="11.436434580611703"><ele>428.0</ele><time>2026-04-26T10:33:38.001Z</time></trkpt><trkpt lat="44.26788074694138" lon="11.436337173697101"><ele>427.99999999999994</ele><time>2026-04-26T10:33:39.001Z</time></trkpt><trkpt lat="44.267770110219466" lon="11.43629215999581"><ele>427.99999999999994</ele><time>2026-04-26T10:33:40.001Z</time></trkpt><trkpt lat="44.267649895018515" lon="11.436272966842548"><ele>428.0</ele><time>2026-04-26T10:33:41.001Z</time></trkpt><trkpt lat="44.26755835016146" lon="11.43622379812547"><ele>428.0</ele><time>2026-04-26T10:33:42.001Z</time></trkpt><trkpt lat="44.26748923567321" lon="11.43609660732228"><ele>428.5</ele><time>2026-04-26T10:33:43.001Z</time></trkpt><trkpt lat="44.267442229756554" lon="11.435918205256757"><ele>429.0</ele><time>2026-04-26T10:33:44.001Z</time></trkpt><trkpt lat="44.26738090361291" lon="11.435729944529879"><ele>429.5</ele><time>2026-04-26T10:33:45.001Z</time></trkpt><trkpt lat="44.26732247292933" lon="11.435544139227861"><ele>430.0</ele><time>2026-04-26T10:33:46.001Z</time></trkpt><trkpt lat="44.267264510937125" lon="11.435363889458385"><ele>431.8</ele><time>2026-04-26T10:33:47.001Z</time></trkpt><trkpt lat="44.26723551342474" lon="11.435211940730845"><ele>433.6</ele><time>2026-04-26T10:33:48.001Z</time></trkpt><trkpt lat="44.26724736433407" lon="11.435086771952061"><ele>435.4</ele><time>2026-04-26T10:33:49.001Z</time></trkpt><trkpt lat="44.26730116785192" lon="11.434995972422128"><ele>437.2</ele><time>2026-04-26T10:33:50.001Z</time></trkpt><trkpt lat="44.26738613612803" lon="11.434926976602252"><ele>439.0</ele><time>2026-04-26T10:33:51.001Z</time></trkpt><trkpt lat="44.26749567671753" lon="11.434891697277601"><ele>439.25</ele><time>2026-04-26T10:33:52.001Z</time></trkpt><trkpt lat="44.26761947598815" lon="11.434864975593465"><ele>439.5</ele><time>2026-04-26T10:33:53.001Z</time></trkpt><trkpt lat="44.26775290133691" lon="11.434831565648878"><ele>439.75</ele><time>2026-04-26T10:33:54.001Z</time></trkpt><trkpt lat="44.26786983191737" lon="11.434782763886382"><ele>440.0</ele><time>2026-04-26T10:33:55.001Z</time></trkpt><trkpt lat="44.26796307531058" lon="11.434686638347992"><ele>442.75</ele><time>2026-04-26T10:33:56.001Z</time></trkpt><trkpt lat="44.26805367113928" lon="11.434565869510793"><ele>445.5</ele><time>2026-04-26T10:33:57.001Z</time></trkpt><trkpt lat="44.26812945847179" lon="11.43443476359605"><ele>448.25</ele><time>2026-04-26T10:33:58.001Z</time></trkpt><trkpt lat="44.26820341932895" lon="11.434297354824704"><ele>451.0</ele><time>2026-04-26T10:33:59.001Z</time></trkpt><trkpt lat="44.268273572468345" lon="11.434155984306043"><ele>451.0</ele><time>2026-04-26T10:34:00.001Z</time></trkpt><trkpt lat="44.268350069421906" lon="11.434028129354811"><ele>451.0</ele><time>2026-04-26T10:34:01.001Z</time></trkpt><trkpt lat="44.26844402975206" lon="11.4339404762779"><ele>451.0</ele><time>2026-04-26T10:34:02.001Z</time></trkpt><trkpt lat="44.26856788825223" lon="11.433899063162013"><ele>451.0</ele><time>2026-04-26T10:34:03.001Z</time></trkpt><trkpt lat="44.26871221159936" lon="11.433887176924417"><ele>451.0</ele><time>2026-04-26T10:34:04.001Z</time></trkpt><trkpt lat="44.26884673735777" lon="11.433851238774164"><ele>451.0</ele><time>2026-04-26T10:34:05.001Z</time></trkpt><trkpt lat="44.26896770529867" lon="11.433785923676137"><ele>451.0</ele><time>2026-04-26T10:34:06.001Z</time></trkpt><trkpt lat="44.26908442358317" lon="11.43371309761054"><ele>451.0</ele><time>2026-04-26T10:34:07.001Z</time></trkpt><trkpt lat="44.26920517410853" lon="11.433645243058221"><ele>453.5</ele><time>2026-04-26T10:34:08.001Z</time></trkpt><trkpt lat="44.26932708053724" lon="11.433579207688732"><ele>456.0</ele><time>2026-04-26T10:34:09.001Z</time></trkpt><trkpt lat="44.269452719693724" lon="11.433525790538063"><ele>458.5</ele><time>2026-04-26T10:34:10.001Z</time></trkpt><trkpt lat="44.269583597203045" lon="11.433492620319447"><ele>461.0</ele><time>2026-04-26T10:34:11.001Z</time></trkpt><trkpt lat="44.2696995132881" lon="11.433502230704008"><ele>461.25</ele><time>2026-04-26T10:34:12.001Z</time></trkpt><trkpt lat="44.269786588579244" lon="11.433485827363313"><ele>461.5</ele><time>2026-04-26T10:34:13.001Z</time></trkpt><trkpt lat="44.26986467368989" lon="11.4333928983097"><ele>461.75</ele><time>2026-04-26T10:34:14.001Z</time></trkpt><trkpt lat="44.26992586149168" lon="11.433241567518495"><ele>462.0</ele><time>2026-04-26T10:34:15.001Z</time></trkpt><trkpt lat="44.26996295444973" lon="11.433053857790492"><ele>464.75</ele><time>2026-04-26T10:34:16.001Z</time></trkpt><trkpt lat="44.270039102953135" lon="11.432881464498458"><ele>467.5</ele><time>2026-04-26T10:34:17.001Z</time></trkpt><trkpt lat="44.27014894142977" lon="11.432748074522529"><ele>470.25</ele><time>2026-04-26T10:34:18.001Z</time></trkpt><trkpt lat="44.27026511057809" lon="11.432646686951498"><ele>473.0</ele><time>2026-04-26T10:34:19.001Z</time></trkpt><trkpt lat="44.27038639100864" lon="11.432541737929625"><ele>473.0</ele><time>2026-04-26T10:34:20.001Z</time></trkpt><trkpt lat="44.2704864131524" lon="11.432407379346984"><ele>473.0</ele><time>2026-04-26T10:34:21.001Z</time></trkpt><trkpt lat="44.270584530405564" lon="11.43226666203449"><ele>473.0</ele><time>2026-04-26T10:34:22.001Z</time></trkpt><trkpt lat="44.27067482933887" lon="11.432113871702292"><ele>473.0</ele><time>2026-04-26T10:34:23.001Z</time></trkpt><trkpt lat="44.270763441184585" lon="11.431969728532861"><ele>475.5</ele><time>2026-04-26T10:34:24.001Z</time></trkpt><trkpt lat="44.27085144854212" lon="11.43185601389675"><ele>478.0</ele><time>2026-04-26T10:34:25.001Z</time></trkpt><trkpt lat="44.27096319567338" lon="11.431785702787415"><ele>480.5</ele><time>2026-04-26T10:34:26.001Z</time></trkpt><trkpt lat="44.271101394824754" lon="11.431752165688263"><ele>483.0</ele><time>2026-04-26T10:34:27.001Z</time></trkpt><trkpt lat="44.271243074244516" lon="11.431758717590313"><ele>483.0</ele><time>2026-04-26T10:34:28.001Z</time></trkpt><trkpt lat="44.271384142967925" lon="11.431764352190006"><ele>483.0</ele><time>2026-04-26T10:34:29Z</time></trkpt><trkpt lat="44.27151357919853" lon="11.431742994541386"><ele>483.0</ele><time>2026-04-26T10:34:30Z</time></trkpt><trkpt lat="44.271631663892826" lon="11.431708971580404"><ele>483.0</ele><time>2026-04-26T10:34:31Z</time></trkpt><trkpt lat="44.27173496875921" lon="11.43167288407443"><ele>483.8333333333333</ele><time>2026-04-26T10:34:32Z</time></trkpt><trkpt lat="44.27181509681827" lon="11.431632466880606"><ele>484.66666666666663</ele><time>2026-04-26T10:34:33Z</time></trkpt><trkpt lat="44.27185882214746" lon="11.431564183549323"><ele>485.5</ele><time>2026-04-26T10:34:34Z</time></trkpt><trkpt lat="44.27185989601917" lon="11.431473491414351"><ele>486.3333333333333</ele><time>2026-04-26T10:34:35Z</time></trkpt><trkpt lat="44.271815504857535" lon="11.43137304231343"><ele>487.16666666666663</ele><time>2026-04-26T10:34:36Z</time></trkpt><trkpt lat="44.27174415417052" lon="11.431301528466438"><ele>488.0</ele><time>2026-04-26T10:34:37Z</time></trkpt><trkpt lat="44.271641289309606" lon="11.431219179495496"><ele>490.75</ele><time>2026-04-26T10:34:38Z</time></trkpt><trkpt lat="44.271541560214615" lon="11.431101814494836"><ele>493.5</ele><time>2026-04-26T10:34:39Z</time></trkpt><trkpt lat="44.27145697950971" lon="11.430959279852075"><ele>496.25</ele><time>2026-04-26T10:34:40Z</time></trkpt><trkpt lat="44.27138421600798" lon="11.430827424212037"><ele>499.0</ele><time>2026-04-26T10:34:41Z</time></trkpt><trkpt lat="44.2713029366666" lon="11.430695540121162"><ele>499.25</ele><time>2026-04-26T10:34:42Z</time></trkpt><trkpt lat="44.27121518282463" lon="11.430545633323675"><ele>499.5</ele><time>2026-04-26T10:34:43Z</time></trkpt><trkpt lat="44.2711522585458" lon="11.430388021436507"><ele>499.75</ele><time>2026-04-26T10:34:44Z</time></trkpt><trkpt lat="44.2710565580966" lon="11.430256014752086"><ele>500.0</ele><time>2026-04-26T10:34:45Z</time></trkpt><trkpt lat="44.27096483934868" lon="11.430108624432828"><ele>503.0</ele><time>2026-04-26T10:34:46Z</time></trkpt><trkpt lat="44.270883895356576" lon="11.429949967107968"><ele>506.0</ele><time>2026-04-26T10:34:47Z</time></trkpt><trkpt lat="44.27079047783882" lon="11.42981059624887"><ele>509.0</ele><time>2026-04-26T10:34:48Z</time></trkpt><trkpt lat="44.270730831684276" lon="11.429689626607573"><ele>512.0</ele><time>2026-04-26T10:34:49Z</time></trkpt><trkpt lat="44.27069644324804" lon="11.429556492348677"><ele>514.0</ele><time>2026-04-26T10:34:50Z</time></trkpt><trkpt lat="44.270710981529035" lon="11.429418607254416"><ele>516.0</ele><time>2026-04-26T10:34:51Z</time></trkpt><trkpt lat="44.27071259895511" lon="11.42925148733162"><ele>518.0</ele><time>2026-04-26T10:34:52Z</time></trkpt><trkpt lat="44.27067766862436" lon="11.429066056765713"><ele>520.0</ele><time>2026-04-26T10:34:53Z</time></trkpt><trkpt lat="44.27058419888339" lon="11.428934409449486"><ele>522.8</ele><time>2026-04-26T10:34:54Z</time></trkpt><trkpt lat="44.27049349711407" lon="11.428840443173595"><ele>525.6</ele><time>2026-04-26T10:34:55Z</time></trkpt><trkpt lat="44.27047549428617" lon="11.428710605502244"><ele>528.4</ele><time>2026-04-26T10:34:56Z</time></trkpt><trkpt lat="44.270503387324155" lon="11.428588619541209"><ele>531.2</ele><time>2026-04-26T10:34:57Z</time></trkpt><trkpt lat="44.270575090746775" lon="11.428468573512387"><ele>534.0</ele><time>2026-04-26T10:34:58Z</time></trkpt><trkpt lat="44.27060737921343" lon="11.42832172378282"><ele>532.25</ele><time>2026-04-26T10:34:59Z</time></trkpt><trkpt lat="44.27061168946433" lon="11.428189631956784"><ele>530.5</ele><time>2026-04-26T10:35:00Z</time></trkpt><trkpt lat="44.270522161223596" lon="11.428053336571471"><ele>528.75</ele><time>2026-04-26T10:35:01Z</time></trkpt><trkpt lat="44.270427551278864" lon="11.427945972387889"><ele>527.0</ele><time>2026-04-26T10:35:02Z</time></trkpt><trkpt lat="44.27032043425687" lon="11.427890927415522"><ele>530.2</ele><time>2026-04-26T10:35:03Z</time></trkpt><trkpt lat="44.27020160521682" lon="11.427895091804913"><ele>533.4000000000001</ele><time>2026-04-26T10:35:04Z</time></trkpt><trkpt lat="44.27007661464429" lon="11.427872583440028"><ele>536.5999999999999</ele><time>2026-04-26T10:35:05Z</time></trkpt><trkpt lat="44.269996305640255" lon="11.427794441039703"><ele>539.8</ele><time>2026-04-26T10:35:06Z</time></trkpt><trkpt lat="44.269946339484605" lon="11.427668274709706"><ele>543.0</ele><time>2026-04-26T10:35:07Z</time></trkpt><trkpt lat="44.269903353987495" lon="11.427523141365855"><ele>543.0</ele><time>2026-04-26T10:35:08Z</time></trkpt><trkpt lat="44.26984473028845" lon="11.427378395012392"><ele>543.0</ele><time>2026-04-26T10:35:09Z</time></trkpt><trkpt lat="44.26977854630497" lon="11.427248282225595"><ele>543.0</ele><time>2026-04-26T10:35:10Z</time></trkpt><trkpt lat="44.26970677670192" lon="11.427133728246016"><ele>543.0</ele><time>2026-04-26T10:35:11Z</time></trkpt><trkpt lat="44.269711726350096" lon="11.427007554353395"><ele>543.0</ele><time>2026-04-26T10:35:12Z</time></trkpt><trkpt lat="44.269767675480566" lon="11.426899823115246"><ele>543.8</ele><time>2026-04-26T10:35:13Z</time></trkpt><trkpt lat="44.269850750991104" lon="11.426795145147782"><ele>544.5999999999999</ele><time>2026-04-26T10:35:14Z</time></trkpt><trkpt lat="44.26989428057306" lon="11.426675240553449"><ele>545.4000000000001</ele><time>2026-04-26T10:35:15Z</time></trkpt><trkpt lat="44.26985885392155" lon="11.426546026932943"><ele>546.2</ele><time>2026-04-26T10:35:16Z</time></trkpt><trkpt lat="44.26978103632631" lon="11.426438502801565"><ele>547.0</ele><time>2026-04-26T10:35:17Z</time></trkpt><trkpt lat="44.26966592517686" lon="11.42634929655752"><ele>551.75</ele><time>2026-04-26T10:35:18Z</time></trkpt><trkpt lat="44.269563794479915" lon="11.426208766376789"><ele>556.5</ele><time>2026-04-26T10:35:19Z</time></trkpt><trkpt lat="44.26949541079586" lon="11.42605663747361"><ele>561.25</ele><time>2026-04-26T10:35:20Z</time></trkpt><trkpt lat="44.26942096434973" lon="11.425923505534945"><ele>566.0</ele><time>2026-04-26T10:35:21.001Z</time></trkpt><trkpt lat="44.26936767774928" lon="11.425770467360284"><ele>566.0</ele><time>2026-04-26T10:35:22.001Z</time></trkpt><trkpt lat="44.26928097597163" lon="11.425660148076721"><ele>566.0</ele><time>2026-04-26T10:35:23.001Z</time></trkpt><trkpt lat="44.269200837941895" lon="11.425555770524644"><ele>566.0</ele><time>2026-04-26T10:35:24.001Z</time></trkpt><trkpt lat="44.269102511900535" lon="11.425492813018572"><ele>566.0</ele><time>2026-04-26T10:35:25.001Z</time></trkpt><trkpt lat="44.26899101685188" lon="11.4254646918977"><ele>566.0</ele><time>2026-04-26T10:35:26.001Z</time></trkpt><trkpt lat="44.26887898949922" lon="11.425452564587927"><ele>568.8</ele><time>2026-04-26T10:35:27.001Z</time></trkpt><trkpt lat="44.26879309815464" lon="11.425400002543135"><ele>571.6</ele><time>2026-04-26T10:35:28.001Z</time></trkpt><trkpt lat="44.268750859747584" lon="11.425266757961133"><ele>574.4</ele><time>2026-04-26T10:35:29.001Z</time></trkpt><trkpt lat="44.26872027434067" lon="11.425132182623736"><ele>577.2</ele><time>2026-04-26T10:35:30.001Z</time></trkpt><trkpt lat="44.26871164905923" lon="11.424973007632016"><ele>580.0</ele><time>2026-04-26T10:35:31.001Z</time></trkpt><trkpt lat="44.26872462996051" lon="11.424783879228936"><ele>581.0</ele><time>2026-04-26T10:35:32.001Z</time></trkpt><trkpt lat="44.2687446744803" lon="11.424591242189365"><ele>582.0</ele><time>2026-04-26T10:35:33.001Z</time></trkpt><trkpt lat="44.268766473936545" lon="11.424399090703835"><ele>583.0</ele><time>2026-04-26T10:35:34.001Z</time></trkpt><trkpt lat="44.26879425289397" lon="11.424208884177103"><ele>584.0</ele><time>2026-04-26T10:35:35.001Z</time></trkpt><trkpt lat="44.26883660602856" lon="11.424016020568033"><ele>584.0</ele><time>2026-04-26T10:35:36.001Z</time></trkpt><trkpt lat="44.26890088600002" lon="11.423828674468048"><ele>584.0</ele><time>2026-04-26T10:35:37.001Z</time></trkpt><trkpt lat="44.26897115883535" lon="11.423643428655447"><ele>584.0</ele><time>2026-04-26T10:35:38.001Z</time></trkpt><trkpt lat="44.26903648349622" lon="11.423480871370574"><ele>584.0</ele><time>2026-04-26T10:35:39.001Z</time></trkpt><trkpt lat="44.269101782481535" lon="11.423372168628761"><ele>584.4</ele><time>2026-04-26T10:35:40.001Z</time></trkpt><trkpt lat="44.26917229426147" lon="11.423298845315106"><ele>584.8</ele><time>2026-04-26T10:35:41.001Z</time></trkpt><trkpt lat="44.269265517178006" lon="11.423295450519598"><ele>585.2</ele><time>2026-04-26T10:35:42.001Z</time></trkpt><trkpt lat="44.269366568384214" lon="11.423270925388234"><ele>585.6</ele><time>2026-04-26T10:35:43.001Z</time></trkpt><trkpt lat="44.26947345818074" lon="11.423281197557186"><ele>586.0</ele><time>2026-04-26T10:35:44.001Z</time></trkpt><trkpt lat="44.26954612011838" lon="11.423251815456371"><ele>586.0</ele><time>2026-04-26T10:35:45.001Z</time></trkpt><trkpt lat="44.26957780759792" lon="11.42316621367566"><ele>586.0</ele><time>2026-04-26T10:35:46.001Z</time></trkpt><trkpt lat="44.269565325729495" lon="11.423065072308193"><ele>586.0</ele><time>2026-04-26T10:35:47.001Z</time></trkpt><trkpt lat="44.26950393847337" lon="11.422990896102718"><ele>586.0</ele><time>2026-04-26T10:35:48.001Z</time></trkpt><trkpt lat="44.26940878609879" lon="11.422952598893247"><ele>586.0</ele><time>2026-04-26T10:35:49.001Z</time></trkpt><trkpt lat="44.26928362960001" lon="11.422956238669052"><ele>586.0</ele><time>2026-04-26T10:35:50.001Z</time></trkpt><trkpt lat="44.269142879833325" lon="11.422958714086251"><ele>589.75</ele><time>2026-04-26T10:35:51.001Z</time></trkpt><trkpt lat="44.26901876696288" lon="11.422933860166358"><ele>593.5</ele><time>2026-04-26T10:35:52.001Z</time></trkpt><trkpt lat="44.26889093993357" lon="11.422907669658647"><ele>597.25</ele><time>2026-04-26T10:35:53.001Z</time></trkpt><trkpt lat="44.26875792990384" lon="11.422890187767255"><ele>601.0</ele><time>2026-04-26T10:35:54.001Z</time></trkpt><trkpt lat="44.26862616560629" lon="11.422887806121327"><ele>600.75</ele><time>2026-04-26T10:35:55.001Z</time></trkpt><trkpt lat="44.268492226105316" lon="11.422889785712856"><ele>600.5</ele><time>2026-04-26T10:35:56.001Z</time></trkpt><trkpt lat="44.26834742861649" lon="11.422906584921424"><ele>600.25</ele><time>2026-04-26T10:35:57.001Z</time></trkpt><trkpt lat="44.26819692233884" lon="11.422924674228028"><ele>600.0</ele><time>2026-04-26T10:35:58.001Z</time></trkpt><trkpt lat="44.268046142589014" lon="11.422949691094145"><ele>600.0</ele><time>2026-04-26T10:35:59.001Z</time></trkpt><trkpt lat="44.26788331093941" lon="11.422968643060749"><ele>600.0</ele><time>2026-04-26T10:36:00.001Z</time></trkpt><trkpt lat="44.26772183694855" lon="11.42298932313201"><ele>600.0</ele><time>2026-04-26T10:36:01.001Z</time></trkpt><trkpt lat="44.26756772314079" lon="11.423013910366935"><ele>599.75</ele><time>2026-04-26T10:36:02.001Z</time></trkpt><trkpt lat="44.267431065556906" lon="11.423068501428705"><ele>599.5</ele><time>2026-04-26T10:36:03.001Z</time></trkpt><trkpt lat="44.26730090648457" lon="11.423167329732095"><ele>599.25</ele><time>2026-04-26T10:36:04.001Z</time></trkpt><trkpt lat="44.26717235047412" lon="11.423293803631305"><ele>599.0</ele><time>2026-04-26T10:36:05.001Z</time></trkpt><trkpt lat="44.26705834757549" lon="11.423417010523938"><ele>599.75</ele><time>2026-04-26T10:36:06.001Z</time></trkpt><trkpt lat="44.266950496239254" lon="11.423512228927487"><ele>600.5</ele><time>2026-04-26T10:36:07.001Z</time></trkpt><trkpt lat="44.26683325702727" lon="11.423588643452813"><ele>601.25</ele><time>2026-04-26T10:36:08.001Z</time></trkpt><trkpt lat="44.266691908526056" lon="11.423651312138803"><ele>602.0</ele><time>2026-04-26T10:36:09.001Z</time></trkpt><trkpt lat="44.26654496351351" lon="11.423696353709309"><ele>603.6666666666666</ele><time>2026-04-26T10:36:10.001Z</time></trkpt><trkpt lat="44.26639418759043" lon="11.423739384456185"><ele>605.3333333333334</ele><time>2026-04-26T10:36:11.001Z</time></trkpt><trkpt lat="44.26624774941577" lon="11.423773150778786"><ele>607.0</ele><time>2026-04-26T10:36:12.001Z</time></trkpt><trkpt lat="44.2660905266546" lon="11.423767574991349"><ele>607.0</ele><time>2026-04-26T10:36:13.001Z</time></trkpt><trkpt lat="44.26591957297664" lon="11.423791455270713"><ele>607.0</ele><time>2026-04-26T10:36:14.001Z</time></trkpt><trkpt lat="44.26573968255205" lon="11.423802639377149"><ele>607.0</ele><time>2026-04-26T10:36:15.001Z</time></trkpt><trkpt lat="44.26555892479751" lon="11.42381792341168"><ele>608.6666666666667</ele><time>2026-04-26T10:36:16.001Z</time></trkpt><trkpt lat="44.26538154309892" lon="11.42380893791722"><ele>610.3333333333334</ele><time>2026-04-26T10:36:17.001Z</time></trkpt><trkpt lat="44.26521566868525" lon="11.423816531684443"><ele>612.0</ele><time>2026-04-26T10:36:18.001Z</time></trkpt><trkpt lat="44.26505886449468" lon="11.423826947297187"><ele>614.0</ele><time>2026-04-26T10:36:19.001Z</time></trkpt><trkpt lat="44.26490270083879" lon="11.423859173415636"><ele>616.0</ele><time>2026-04-26T10:36:20.001Z</time></trkpt><trkpt lat="44.26475504926816" lon="11.423867588095689"><ele>618.0</ele><time>2026-04-26T10:36:21.001Z</time></trkpt><trkpt lat="44.26462343474178" lon="11.423865672564693"><ele>620.0</ele><time>2026-04-26T10:36:22.001Z</time></trkpt><trkpt lat="44.26450922902529" lon="11.42386194053683"><ele>619.8333333333333</ele><time>2026-04-26T10:36:23.001Z</time></trkpt><trkpt lat="44.26442447580294" lon="11.423814015959113"><ele>619.6666666666666</ele><time>2026-04-26T10:36:24.001Z</time></trkpt><trkpt lat="44.26435795681811" lon="11.423781236944894"><ele>619.5</ele><time>2026-04-26T10:36:25.001Z</time></trkpt><trkpt lat="44.26426968343614" lon="11.423856618025871"><ele>619.3333333333334</ele><time>2026-04-26T10:36:26.001Z</time></trkpt><trkpt lat="44.264192041523735" lon="11.42388265285494"><ele>619.1666666666667</ele><time>2026-04-26T10:36:27.001Z</time></trkpt><trkpt lat="44.264106001180934" lon="11.42390672318677"><ele>619.0</ele><time>2026-04-26T10:36:28.001Z</time></trkpt><trkpt lat="44.26402829374704" lon="11.423924940431844"><ele>619.6666666666667</ele><time>2026-04-26T10:36:29.001Z</time></trkpt><trkpt lat="44.26395429429614" lon="11.42393301783741"><ele>620.3333333333334</ele><time>2026-04-26T10:36:30.001Z</time></trkpt><trkpt lat="44.263865860562554" lon="11.423937605839523"><ele>621.0</ele><time>2026-04-26T10:36:32.001Z</time></trkpt><trkpt lat="44.26380232160608" lon="11.423903862401158"><ele>621.6666666666666</ele><time>2026-04-26T10:36:35Z</time></trkpt><trkpt lat="44.26371343655815" lon="11.42393630332491"><ele>622.3333333333333</ele><time>2026-04-26T10:37:01Z</time></trkpt><trkpt lat="44.26363837995875" lon="11.423932841498763"><ele>623.0</ele><time>2026-04-26T10:37:02Z</time></trkpt><trkpt lat="44.263564390940594" lon="11.423949384252323"><ele>624.5</ele><time>2026-04-26T10:37:03Z</time></trkpt><trkpt lat="44.263476535043864" lon="11.423986361127433"><ele>626.0</ele><time>2026-04-26T10:37:04Z</time></trkpt><trkpt lat="44.26336842179363" lon="11.424001170628529"><ele>627.5</ele><time>2026-04-26T10:37:05Z</time></trkpt><trkpt lat="44.26324183852489" lon="11.424034986167406"><ele>629.0</ele><time>2026-04-26T10:37:06Z</time></trkpt><trkpt lat="44.26309368035476" lon="11.424074565284402"><ele>631.0</ele><time>2026-04-26T10:37:07Z</time></trkpt><trkpt lat="44.26293899131263" lon="11.424126157190088"><ele>633.0</ele><time>2026-04-26T10:37:08Z</time></trkpt><trkpt lat="44.26278780897392" lon="11.42417908681784"><ele>635.0</ele><time>2026-04-26T10:37:09Z</time></trkpt><trkpt lat="44.262645128980104" lon="11.424233819581142"><ele>635.0</ele><time>2026-04-26T10:37:10Z</time></trkpt><trkpt lat="44.262518836606965" lon="11.424263409986994"><ele>635.0</ele><time>2026-04-26T10:37:11Z</time></trkpt><trkpt lat="44.26241627011254" lon="11.4242371336266"><ele>635.0</ele><time>2026-04-26T10:37:12Z</time></trkpt><trkpt lat="44.26234791341107" lon="11.424175954277525"><ele>635.0</ele><time>2026-04-26T10:37:13Z</time></trkpt><trkpt lat="44.26225184957637" lon="11.424095671145466"><ele>635.0</ele><time>2026-04-26T10:37:14Z</time></trkpt><trkpt lat="44.262159210177195" lon="11.424005177418762"><ele>637.3333333333333</ele><time>2026-04-26T10:37:15Z</time></trkpt><trkpt lat="44.26204172018977" lon="11.42389081898784"><ele>639.6666666666666</ele><time>2026-04-26T10:37:16Z</time></trkpt><trkpt lat="44.261902908881055" lon="11.42376143100349"><ele>642.0</ele><time>2026-04-26T10:37:17Z</time></trkpt><trkpt lat="44.26173313940149" lon="11.423612945115483"><ele>642.3333333333334</ele><time>2026-04-26T10:37:18Z</time></trkpt><trkpt lat="44.261570953276085" lon="11.423474146321078"><ele>642.6666666666667</ele><time>2026-04-26T10:37:19Z</time></trkpt><trkpt lat="44.261400083290056" lon="11.423352641550908"><ele>643.0</ele><time>2026-04-26T10:37:20Z</time></trkpt><trkpt lat="44.261238365990096" lon="11.423190428664475"><ele>646.3333333333334</ele><time>2026-04-26T10:37:21Z</time></trkpt><trkpt lat="44.261073559898406" lon="11.423044064048188"><ele>649.6666666666666</ele><time>2026-04-26T10:37:22Z</time></trkpt><trkpt lat="44.26091681022444" lon="11.422907401471887"><ele>653.0</ele><time>2026-04-26T10:37:23.001Z</time></trkpt><trkpt lat="44.260780657130844" lon="11.422842796403897"><ele>653.0</ele><time>2026-04-26T10:37:24.001Z</time></trkpt><trkpt lat="44.26066341671994" lon="11.422790865107762"><ele>653.0</ele><time>2026-04-26T10:37:25.001Z</time></trkpt><trkpt lat="44.26054416576833" lon="11.422786511075262"><ele>653.0</ele><time>2026-04-26T10:37:26.001Z</time></trkpt><trkpt lat="44.26038759540151" lon="11.42281013760258"><ele>653.0</ele><time>2026-04-26T10:37:27.001Z</time></trkpt><trkpt lat="44.26020611598166" lon="11.422831848502462"><ele>654.75</ele><time>2026-04-26T10:37:28.001Z</time></trkpt><trkpt lat="44.26001888988307" lon="11.422839471843384"><ele>656.5</ele><time>2026-04-26T10:37:29.001Z</time></trkpt><trkpt lat="44.259860994929994" lon="11.422838081359624"><ele>658.25</ele><time>2026-04-26T10:37:30.001Z</time></trkpt><trkpt lat="44.2597629076523" lon="11.422842645635107"><ele>660.0</ele><time>2026-04-26T10:37:31.001Z</time></trkpt><trkpt lat="44.259652479742066" lon="11.422845351063453"><ele>661.6</ele><time>2026-04-26T10:37:32.001Z</time></trkpt><trkpt lat="44.25954253895774" lon="11.422835312987614"><ele>663.2</ele><time>2026-04-26T10:37:33.001Z</time></trkpt><trkpt lat="44.25944826224702" lon="11.422851697675164"><ele>664.8</ele><time>2026-04-26T10:37:34.001Z</time></trkpt><trkpt lat="44.2593517293552" lon="11.422849754926146"><ele>666.4</ele><time>2026-04-26T10:37:35.001Z</time></trkpt><trkpt lat="44.25924532232757" lon="11.422840353433344"><ele>668.0</ele><time>2026-04-26T10:37:36.001Z</time></trkpt><trkpt lat="44.259132056561306" lon="11.422835830400944"><ele>668.0</ele><time>2026-04-26T10:37:37.001Z</time></trkpt><trkpt lat="44.25902319167721" lon="11.422842936331465"><ele>668.0</ele><time>2026-04-26T10:37:38.001Z</time></trkpt><trkpt lat="44.25890990251993" lon="11.4228482373733"><ele>668.0</ele><time>2026-04-26T10:37:39.001Z</time></trkpt><trkpt lat="44.258795262579426" lon="11.422843735649234"><ele>668.0</ele><time>2026-04-26T10:37:40.001Z</time></trkpt><trkpt lat="44.25867416863161" lon="11.422851827700407"><ele>669.75</ele><time>2026-04-26T10:37:41.001Z</time></trkpt><trkpt lat="44.25856354732943" lon="11.422855570425883"><ele>671.5</ele><time>2026-04-26T10:37:42.001Z</time></trkpt><trkpt lat="44.2584516797536" lon="11.422850635040053"><ele>673.25</ele><time>2026-04-26T10:37:43.001Z</time></trkpt><trkpt lat="44.2583279656445" lon="11.422840055218806"><ele>675.0</ele><time>2026-04-26T10:37:44.001Z</time></trkpt><trkpt lat="44.25819429000343" lon="11.42283548199372"><ele>676.5</ele><time>2026-04-26T10:37:45.001Z</time></trkpt><trkpt lat="44.25806252493177" lon="11.422849612510507"><ele>678.0</ele><time>2026-04-26T10:37:46.001Z</time></trkpt><trkpt lat="44.257915018964994" lon="11.422867480184529"><ele>679.5</ele><time>2026-04-26T10:37:47.001Z</time></trkpt><trkpt lat="44.25776168412157" lon="11.422876740240655"><ele>681.0</ele><time>2026-04-26T10:37:48.001Z</time></trkpt><trkpt lat="44.25760821897271" lon="11.422848963599856"><ele>681.0</ele><time>2026-04-26T10:37:49.001Z</time></trkpt><trkpt lat="44.25746038856888" lon="11.422825307337323"><ele>681.0</ele><time>2026-04-26T10:37:50.001Z</time></trkpt><trkpt lat="44.257323052503814" lon="11.422788757486526"><ele>681.0</ele><time>2026-04-26T10:37:51.001Z</time></trkpt><trkpt lat="44.25719318144218" lon="11.422749141914743"><ele>681.0</ele><time>2026-04-26T10:37:52.001Z</time></trkpt><trkpt lat="44.257086515182735" lon="11.422711671761267"><ele>681.1999999999999</ele><time>2026-04-26T10:37:53.001Z</time></trkpt><trkpt lat="44.256972045171494" lon="11.422664511206351"><ele>681.4</ele><time>2026-04-26T10:37:54.001Z</time></trkpt><trkpt lat="44.256868499786385" lon="11.422622754885769"><ele>681.6</ele><time>2026-04-26T10:37:55.001Z</time></trkpt><trkpt lat="44.25677458834971" lon="11.422600732958683"><ele>681.8</ele><time>2026-04-26T10:37:56.001Z</time></trkpt><trkpt lat="44.256689802802214" lon="11.422591302264799"><ele>682.0</ele><time>2026-04-26T10:37:57.001Z</time></trkpt><trkpt lat="44.25660807265177" lon="11.422607531935935"><ele>682.0</ele><time>2026-04-26T10:37:58.001Z</time></trkpt><trkpt lat="44.25650840559015" lon="11.422621794657148"><ele>682.0</ele><time>2026-04-26T10:37:59.001Z</time></trkpt><trkpt lat="44.256395676898826" lon="11.422669111712516"><ele>682.0</ele><time>2026-04-26T10:38:00.001Z</time></trkpt><trkpt lat="44.25629590319122" lon="11.422761458540688"><ele>682.0</ele><time>2026-04-26T10:38:01.001Z</time></trkpt><trkpt lat="44.25621968821415" lon="11.42289775416269"><ele>683.0</ele><time>2026-04-26T10:38:02.001Z</time></trkpt><trkpt lat="44.256138841990065" lon="11.423026440712517"><ele>684.0</ele><time>2026-04-26T10:38:03.001Z</time></trkpt><trkpt lat="44.25604685185385" lon="11.42314365583637"><ele>685.0</ele><time>2026-04-26T10:38:04.001Z</time></trkpt><trkpt lat="44.25594397065396" lon="11.423226520699023"><ele>686.0</ele><time>2026-04-26T10:38:05.001Z</time></trkpt><trkpt lat="44.25585802315698" lon="11.423306944071372"><ele>686.0</ele><time>2026-04-26T10:38:06.001Z</time></trkpt><trkpt lat="44.255756449892395" lon="11.423363976683781"><ele>686.0</ele><time>2026-04-26T10:38:07.001Z</time></trkpt><trkpt lat="44.25565976440241" lon="11.42336007813417"><ele>686.0</ele><time>2026-04-26T10:38:08.001Z</time></trkpt><trkpt lat="44.25554410726197" lon="11.423396403936167"><ele>686.0</ele><time>2026-04-26T10:38:09.001Z</time></trkpt><trkpt lat="44.255411486135316" lon="11.423367680094005"><ele>686.75</ele><time>2026-04-26T10:38:10.001Z</time></trkpt><trkpt lat="44.255272091652714" lon="11.423346150821581"><ele>687.5</ele><time>2026-04-26T10:38:11.001Z</time></trkpt><trkpt lat="44.25516708482349" lon="11.42335313647988"><ele>688.25</ele><time>2026-04-26T10:38:12.001Z</time></trkpt><trkpt lat="44.25506558945842" lon="11.423407625814633"><ele>689.0</ele><time>2026-04-26T10:38:13.001Z</time></trkpt><trkpt lat="44.25497503308525" lon="11.423509497819264"><ele>689.0</ele><time>2026-04-26T10:38:14.001Z</time></trkpt><trkpt lat="44.25488108293651" lon="11.423637773093077"><ele>689.0</ele><time>2026-04-26T10:38:15.001Z</time></trkpt><trkpt lat="44.25478697903423" lon="11.423788158380857"><ele>689.0</ele><time>2026-04-26T10:38:16.001Z</time></trkpt><trkpt lat="44.254681286015945" lon="11.423948368989862"><ele>689.0</ele><time>2026-04-26T10:38:17.001Z</time></trkpt><trkpt lat="44.254546806716434" lon="11.424104793009748"><ele>692.3333333333333</ele><time>2026-04-26T10:38:18.001Z</time></trkpt><trkpt lat="44.25440686897531" lon="11.424250726012747"><ele>695.6666666666666</ele><time>2026-04-26T10:38:19.001Z</time></trkpt><trkpt lat="44.25426928815602" lon="11.424410593049357"><ele>699.0</ele><time>2026-04-26T10:38:20.001Z</time></trkpt><trkpt lat="44.254117894200874" lon="11.424599899758395"><ele>702.0</ele><time>2026-04-26T10:38:21.001Z</time></trkpt><trkpt lat="44.253971387136055" lon="11.42477703802217"><ele>705.0</ele><time>2026-04-26T10:38:22.001Z</time></trkpt><trkpt lat="44.253837950589165" lon="11.424942807050723"><ele>708.0</ele><time>2026-04-26T10:38:23.001Z</time></trkpt><trkpt lat="44.253707821860324" lon="11.42505412108432"><ele>708.0</ele><time>2026-04-26T10:38:24.001Z</time></trkpt><trkpt lat="44.2535907201145" lon="11.425153211374111"><ele>708.0</ele><time>2026-04-26T10:38:25.001Z</time></trkpt><trkpt lat="44.25347261415712" lon="11.425226051948158"><ele>708.0</ele><time>2026-04-26T10:38:26.001Z</time></trkpt><trkpt lat="44.253360121778876" lon="11.425326369514705"><ele>708.0</ele><time>2026-04-26T10:38:27.001Z</time></trkpt><trkpt lat="44.25321917149502" lon="11.425394228195538"><ele>709.0</ele><time>2026-04-26T10:38:28.001Z</time></trkpt><trkpt lat="44.253052201177596" lon="11.42545070566232"><ele>710.0</ele><time>2026-04-26T10:38:29.001Z</time></trkpt><trkpt lat="44.252849325818" lon="11.42552714680837"><ele>711.0</ele><time>2026-04-26T10:38:30.001Z</time></trkpt><trkpt lat="44.252653015804405" lon="11.425599698438921"><ele>714.6666666666666</ele><time>2026-04-26T10:38:31.001Z</time></trkpt><trkpt lat="44.252463666445344" lon="11.425669298042942"><ele>718.3333333333333</ele><time>2026-04-26T10:38:32.001Z</time></trkpt><trkpt lat="44.25229377753168" lon="11.425728184142063"><ele>722.0</ele><time>2026-04-26T10:38:33.001Z</time></trkpt><trkpt lat="44.2521385459022" lon="11.425788447685898"><ele>722.0</ele><time>2026-04-26T10:38:34.002Z</time></trkpt><trkpt lat="44.25198697763967" lon="11.425862273754403"><ele>722.0</ele><time>2026-04-26T10:38:35.002Z</time></trkpt><trkpt lat="44.251834975054635" lon="11.425971100958659"><ele>722.0</ele><time>2026-04-26T10:38:36.002Z</time></trkpt><trkpt lat="44.25167996664067" lon="11.426132291688457"><ele>722.0</ele><time>2026-04-26T10:38:37.002Z</time></trkpt><trkpt lat="44.25150613203124" lon="11.426301256305964"><ele>722.0</ele><time>2026-04-26T10:38:38.002Z</time></trkpt><trkpt lat="44.25134204233966" lon="11.426492525583793"><ele>722.0</ele><time>2026-04-26T10:38:39.002Z</time></trkpt><trkpt lat="44.25119892414914" lon="11.42667011272794"><ele>724.6666666666666</ele><time>2026-04-26T10:38:40.002Z</time></trkpt><trkpt lat="44.25107111064124" lon="11.426816906092448"><ele>727.3333333333334</ele><time>2026-04-26T10:38:41Z</time></trkpt><trkpt lat="44.250959773070356" lon="11.42695435830177"><ele>730.0</ele><time>2026-04-26T10:38:42Z</time></trkpt><trkpt lat="44.250861628142445" lon="11.427086826330537"><ele>730.2</ele><time>2026-04-26T10:38:43Z</time></trkpt><trkpt lat="44.25078051270765" lon="11.427220665111026"><ele>730.4</ele><time>2026-04-26T10:38:44Z</time></trkpt><trkpt lat="44.25070768810675" lon="11.427357896191614"><ele>730.5999999999999</ele><time>2026-04-26T10:38:45Z</time></trkpt><trkpt lat="44.25066405441135" lon="11.427479169568272"><ele>730.8</ele><time>2026-04-26T10:38:46Z</time></trkpt><trkpt lat="44.25063962888675" lon="11.427592852066201"><ele>731.0</ele><time>2026-04-26T10:38:47Z</time></trkpt><trkpt lat="44.25062391117134" lon="11.42769675878584"><ele>732.8</ele><time>2026-04-26T10:38:48Z</time></trkpt><trkpt lat="44.25057534670778" lon="11.427829872119183"><ele>734.5999999999999</ele><time>2026-04-26T10:38:50Z</time></trkpt><trkpt lat="44.25051680878393" lon="11.427885742362774"><ele>736.4</ele><time>2026-04-26T10:38:51Z</time></trkpt><trkpt lat="44.25046599843338" lon="11.42805695634599"><ele>738.2</ele><time>2026-04-26T10:38:53Z</time></trkpt><trkpt lat="44.25038412871493" lon="11.428133783505473"><ele>740.0</ele><time>2026-04-26T10:38:55Z</time></trkpt><trkpt lat="44.25025028320427" lon="11.428187081209913"><ele>740.5</ele><time>2026-04-26T10:38:57Z</time></trkpt><trkpt lat="44.25015933189744" lon="11.42818627662479"><ele>741.0</ele><time>2026-04-26T10:38:58Z</time></trkpt><trkpt lat="44.249928022858484" lon="11.428044930296712"><ele>741.5</ele><time>2026-04-26T10:38:59Z</time></trkpt><trkpt lat="44.24985489919439" lon="11.428056885403892"><ele>742.0</ele><time>2026-04-26T10:39:00Z</time></trkpt><trkpt lat="44.24975837875919" lon="11.428051470368796"><ele>741.8</ele><time>2026-04-26T10:39:02Z</time></trkpt><trkpt lat="44.249659185052735" lon="11.428018877292336"><ele>741.6</ele><time>2026-04-26T10:39:04Z</time></trkpt><trkpt lat="44.249531749512066" lon="11.427990793076441"><ele>741.4</ele><time>2026-04-26T10:39:06Z</time></trkpt><trkpt lat="44.249466836040305" lon="11.427979615815165"><ele>741.1999999999999</ele><time>2026-04-26T10:39:07Z</time></trkpt><trkpt lat="44.249358077922" lon="11.427915821820305"><ele>741.0</ele><time>2026-04-26T10:39:09Z</time></trkpt><trkpt lat="44.24926977661134" lon="11.427848510257158"><ele>741.0</ele><time>2026-04-26T10:39:11Z</time></trkpt><trkpt lat="44.249198048583935" lon="11.427782243118255"><ele>741.0</ele><time>2026-04-26T10:39:13Z</time></trkpt><trkpt lat="44.24911362512961" lon="11.427793479134479"><ele>741.0</ele><time>2026-04-26T10:39:15Z</time></trkpt><trkpt lat="44.24904614400084" lon="11.427775205971379"><ele>741.0</ele><time>2026-04-26T10:39:18Z</time></trkpt><trkpt lat="44.249037093758766" lon="11.427875421148256"><ele>741.0</ele><time>2026-04-26T10:39:22Z</time></trkpt><trkpt lat="44.24912625764237" lon="11.427859193921822"><ele>741.0</ele><time>2026-04-26T10:39:24Z</time></trkpt><trkpt lat="44.24922500300753" lon="11.427833811260294"><ele>741.0</ele><time>2026-04-26T10:39:25Z</time></trkpt><trkpt lat="44.24935624731625" lon="11.427813519157628"><ele>741.0</ele><time>2026-04-26T10:39:26Z</time></trkpt><trkpt lat="44.24950441444983" lon="11.427797107947072"><ele>741.0</ele><time>2026-04-26T10:39:27Z</time></trkpt><trkpt lat="44.24964017831332" lon="11.427770775829783"><ele>741.0</ele><time>2026-04-26T10:39:28Z</time></trkpt><trkpt lat="44.24975448655816" lon="11.427746187605832"><ele>740.8</ele><time>2026-04-26T10:39:29Z</time></trkpt><trkpt lat="44.249876357616" lon="11.427721374251435"><ele>740.5999999999999</ele><time>2026-04-26T10:39:30Z</time></trkpt><trkpt lat="44.249983968880905" lon="11.42771209122855"><ele>740.4</ele><time>2026-04-26T10:39:31.001Z</time></trkpt><trkpt lat="44.25008409348318" lon="11.427716613680138"><ele>740.2</ele><time>2026-04-26T10:39:32.001Z</time></trkpt><trkpt lat="44.250192459864536" lon="11.427720732026799"><ele>740.0</ele><time>2026-04-26T10:39:33.001Z</time></trkpt><trkpt lat="44.25027776738307" lon="11.427716912614843"><ele>740.0</ele><time>2026-04-26T10:39:34.001Z</time></trkpt><trkpt lat="44.2503446677301" lon="11.427711375803476"><ele>740.0</ele><time>2026-04-26T10:39:35.001Z</time></trkpt><trkpt lat="44.25044024867903" lon="11.427715530027106"><ele>740.0</ele><time>2026-04-26T10:39:37.001Z</time></trkpt><trkpt lat="44.25050634255783" lon="11.427711652778198"><ele>740.0</ele><time>2026-04-26T10:39:39.001Z</time></trkpt><trkpt lat="44.25055794054364" lon="11.427766135737064"><ele>740.0</ele><time>2026-04-26T10:39:42.001Z</time></trkpt><trkpt lat="44.25050880557684" lon="11.427846991418248"><ele>740.0</ele><time>2026-04-26T10:39:45.001Z</time></trkpt><trkpt lat="44.250413887275386" lon="11.42785729195748"><ele>740.0</ele><time>2026-04-26T10:39:47.001Z</time></trkpt><trkpt lat="44.25031456739728" lon="11.427885848540473"><ele>740.0</ele><time>2026-04-26T10:39:49.001Z</time></trkpt><trkpt lat="44.25022799182784" lon="11.4279506363491"><ele>740.0</ele><time>2026-04-26T10:40:52Z</time></trkpt><trkpt lat="44.25019321478082" lon="11.428038026003417"><ele>740.0</ele><time>2026-04-26T10:40:54Z</time></trkpt><trkpt lat="44.25011293561623" lon="11.428106120440813"><ele>740.0</ele><time>2026-04-26T10:40:58Z</time></trkpt><trkpt lat="44.25001989939729" lon="11.42812652419676"><ele>740.3333333333333</ele><time>2026-04-26T10:41:00Z</time></trkpt><trkpt lat="44.2499442384853" lon="11.428113688887937"><ele>740.6666666666666</ele><time>2026-04-26T10:41:02Z</time></trkpt><trkpt lat="44.249857833842206" lon="11.428099865801162"><ele>741.0</ele><time>2026-04-26T10:41:04Z</time></trkpt><trkpt lat="44.24978943270747" lon="11.428069797503623"><ele>741.3333333333334</ele><time>2026-04-26T10:41:06Z</time></trkpt><trkpt lat="44.24969972399497" lon="11.428038455853757"><ele>741.6666666666667</ele><time>2026-04-26T10:41:09Z</time></trkpt><trkpt lat="44.249634107986346" lon="11.428021125520816"><ele>742.0</ele><time>2026-04-26T10:41:11Z</time></trkpt><trkpt lat="44.249557676131" lon="11.428012576088802"><ele>741.8333333333334</ele><time>2026-04-26T10:41:13Z</time></trkpt><trkpt lat="44.249494714008584" lon="11.42800313118003"><ele>741.6666666666667</ele><time>2026-04-26T10:41:16Z</time></trkpt><trkpt lat="44.249427953557635" lon="11.427955637701388"><ele>741.5</ele><time>2026-04-26T10:41:19Z</time></trkpt><trkpt lat="44.24937097343213" lon="11.42790072178297"><ele>741.3333333333334</ele><time>2026-04-26T10:41:20Z</time></trkpt><trkpt lat="44.24928825534106" lon="11.427847996659493"><ele>741.1666666666666</ele><time>2026-04-26T10:41:23Z</time></trkpt><trkpt lat="44.249198382070254" lon="11.427824252922363"><ele>741.0</ele><time>2026-04-26T10:41:25Z</time></trkpt><trkpt lat="44.249134999826886" lon="11.427826173028384"><ele>741.0</ele><time>2026-04-26T10:41:27Z</time></trkpt><trkpt lat="44.24904861744004" lon="11.427847302689747"><ele>741.0</ele><time>2026-04-26T10:41:30Z</time></trkpt><trkpt lat="44.24897251770855" lon="11.42787246119154"><ele>741.0</ele><time>2026-04-26T10:41:33Z</time></trkpt><trkpt lat="44.24903930130785" lon="11.427836932714033"><ele>741.0</ele><time>2026-04-26T10:42:46.002Z</time></trkpt><trkpt lat="44.24912299211765" lon="11.427835334675237"><ele>741.0</ele><time>2026-04-26T10:42:47.002Z</time></trkpt><trkpt lat="44.24921742692391" lon="11.42783026712158"><ele>741.0</ele><time>2026-04-26T10:42:48.002Z</time></trkpt><trkpt lat="44.24931291598419" lon="11.427814480448076"><ele>741.0</ele><time>2026-04-26T10:42:49.002Z</time></trkpt><trkpt lat="44.249434363732156" lon="11.42780107597705"><ele>741.0</ele><time>2026-04-26T10:42:50.002Z</time></trkpt><trkpt lat="44.24955060226697" lon="11.427792439551048"><ele>741.0</ele><time>2026-04-26T10:42:51.002Z</time></trkpt><trkpt lat="44.24965039337535" lon="11.427773512626823"><ele>741.0</ele><time>2026-04-26T10:42:52.002Z</time></trkpt><trkpt lat="44.24973647900511" lon="11.427775093323714"><ele>741.0</ele><time>2026-04-26T10:42:53Z</time></trkpt><trkpt lat="44.249823851740196" lon="11.427767740119236"><ele>740.8333333333334</ele><time>2026-04-26T10:42:54Z</time></trkpt><trkpt lat="44.24990708616053" lon="11.427763558737574"><ele>740.6666666666666</ele><time>2026-04-26T10:42:55Z</time></trkpt><trkpt lat="44.24998894177482" lon="11.427760444532852"><ele>740.5</ele><time>2026-04-26T10:42:56Z</time></trkpt><trkpt lat="44.25008928881533" lon="11.427735351055988"><ele>740.3333333333333</ele><time>2026-04-26T10:42:57Z</time></trkpt><trkpt lat="44.250182367730446" lon="11.42773099971804"><ele>740.1666666666666</ele><time>2026-04-26T10:42:58Z</time></trkpt><trkpt lat="44.250259424587966" lon="11.427752317724975"><ele>740.0</ele><time>2026-04-26T10:42:59Z</time></trkpt><trkpt lat="44.25033673720534" lon="11.427753696130827"><ele>740.0</ele><time>2026-04-26T10:43:00Z</time></trkpt><trkpt lat="44.25040494615317" lon="11.427703205461874"><ele>740.0</ele><time>2026-04-26T10:43:01Z</time></trkpt><trkpt lat="44.25049496937329" lon="11.427734959422011"><ele>740.0</ele><time>2026-04-26T10:43:03Z</time></trkpt><trkpt lat="44.250572085557664" lon="11.427748537242893"><ele>740.0</ele><time>2026-04-26T10:43:05Z</time></trkpt><trkpt lat="44.25064194204684" lon="11.427781969578463"><ele>740.0</ele><time>2026-04-26T10:43:08Z</time></trkpt><trkpt lat="44.250574540860505" lon="11.427852940762861"><ele>740.0</ele><time>2026-04-26T10:43:11Z</time></trkpt><trkpt lat="44.25051130775525" lon="11.427781003180247"><ele>740.0</ele><time>2026-04-26T10:43:14Z</time></trkpt><trkpt lat="44.250455592754854" lon="11.42770642228974"><ele>740.0</ele><time>2026-04-26T10:43:16Z</time></trkpt><trkpt lat="44.250379613914376" lon="11.427713335440986"><ele>740.0</ele><time>2026-04-26T10:49:40Z</time></trkpt><trkpt lat="44.25030699697239" lon="11.427694251359808"><ele>740.0</ele><time>2026-04-26T10:49:41Z</time></trkpt><trkpt lat="44.25023150712937" lon="11.427691351734863"><ele>740.0</ele><time>2026-04-26T10:49:42Z</time></trkpt><trkpt lat="44.250111692349805" lon="11.42770205511413"><ele>740.0</ele><time>2026-04-26T10:49:43Z</time></trkpt><trkpt lat="44.249983392264866" lon="11.42770856899265"><ele>740.0</ele><time>2026-04-26T10:49:44Z</time></trkpt><trkpt lat="44.2498696321206" lon="11.42772268841821"><ele>740.0</ele><time>2026-04-26T10:49:45Z</time></trkpt><trkpt lat="44.24974436680917" lon="11.427739951196187"><ele>740.0</ele><time>2026-04-26T10:49:46Z</time></trkpt><trkpt lat="44.24962309265341" lon="11.427742224097686"><ele>740.0</ele><time>2026-04-26T10:49:47Z</time></trkpt><trkpt lat="44.24950587472584" lon="11.427756107436537"><ele>740.25</ele><time>2026-04-26T10:49:48Z</time></trkpt><trkpt lat="44.2493815394446" lon="11.427774954953433"><ele>740.5</ele><time>2026-04-26T10:49:49Z</time></trkpt><trkpt lat="44.24925483382982" lon="11.427793999562738"><ele>740.75</ele><time>2026-04-26T10:49:50Z</time></trkpt><trkpt lat="44.249129929723104" lon="11.427807283360666"><ele>741.0</ele><time>2026-04-26T10:49:51Z</time></trkpt><trkpt lat="44.2488904428891" lon="11.427845524522485"><ele>739.4</ele><time>2026-04-26T10:49:53Z</time></trkpt><trkpt lat="44.24878284051368" lon="11.427879461568052"><ele>737.8</ele><time>2026-04-26T10:49:54Z</time></trkpt><trkpt lat="44.2486951958191" lon="11.427938061371856"><ele>736.1999999999999</ele><time>2026-04-26T10:49:55Z</time></trkpt><trkpt lat="44.24859861700587" lon="11.42795990071115"><ele>734.5999999999999</ele><time>2026-04-26T10:49:56Z</time></trkpt><trkpt lat="44.24849851020812" lon="11.427961446847911"><ele>733.0</ele><time>2026-04-26T10:49:57Z</time></trkpt><trkpt lat="44.24840576380853" lon="11.427936462433527"><ele>733.0</ele><time>2026-04-26T10:49:58Z</time></trkpt><trkpt lat="44.24832144292062" lon="11.42790221881421"><ele>733.0</ele><time>2026-04-26T10:49:59Z</time></trkpt><trkpt lat="44.24825768057254" lon="11.427841763483455"><ele>733.0</ele><time>2026-04-26T10:50:00.001Z</time></trkpt><trkpt lat="44.24819908040272" lon="11.427754404990674"><ele>733.0</ele><time>2026-04-26T10:50:01.001Z</time></trkpt><trkpt lat="44.248143944590794" lon="11.427655154853332"><ele>733.0</ele><time>2026-04-26T10:50:02.001Z</time></trkpt><trkpt lat="44.24809755144151" lon="11.427543858819805"><ele>733.0</ele><time>2026-04-26T10:50:03.001Z</time></trkpt><trkpt lat="44.24805782975762" lon="11.427415912072705"><ele>733.5</ele><time>2026-04-26T10:50:04.001Z</time></trkpt><trkpt lat="44.24802246609923" lon="11.427255708625616"><ele>734.0</ele><time>2026-04-26T10:50:05.001Z</time></trkpt><trkpt lat="44.24797542505499" lon="11.427072769937928"><ele>734.5</ele><time>2026-04-26T10:50:06.001Z</time></trkpt><trkpt lat="44.24793380510248" lon="11.426925939335337"><ele>735.0</ele><time>2026-04-26T10:50:07.001Z</time></trkpt><trkpt lat="44.24788435828736" lon="11.426814982489645"><ele>735.0</ele><time>2026-04-26T10:50:08.001Z</time></trkpt><trkpt lat="44.247821976696024" lon="11.426728926466858"><ele>735.0</ele><time>2026-04-26T10:50:09.001Z</time></trkpt><trkpt lat="44.24775033583643" lon="11.42667639002784"><ele>735.0</ele><time>2026-04-26T10:50:10.001Z</time></trkpt><trkpt lat="44.247670358292794" lon="11.426627942917177"><ele>735.0</ele><time>2026-04-26T10:50:11.001Z</time></trkpt><trkpt lat="44.247575940992085" lon="11.426597188018581"><ele>735.0</ele><time>2026-04-26T10:50:12.001Z</time></trkpt><trkpt lat="44.24745567473198" lon="11.426573460298789"><ele>735.0</ele><time>2026-04-26T10:50:13.001Z</time></trkpt><trkpt lat="44.24733189226385" lon="11.426541345362297"><ele>735.0</ele><time>2026-04-26T10:50:14.001Z</time></trkpt><trkpt lat="44.24718074264288" lon="11.426480714031593"><ele>735.0</ele><time>2026-04-26T10:50:15.001Z</time></trkpt><trkpt lat="44.24702225234044" lon="11.426390976815263"><ele>735.3333333333334</ele><time>2026-04-26T10:50:16.001Z</time></trkpt><trkpt lat="44.246883509070386" lon="11.42630826014238"><ele>735.6666666666667</ele><time>2026-04-26T10:50:17.001Z</time></trkpt><trkpt lat="44.24672388275542" lon="11.426235005478892"><ele>736.0</ele><time>2026-04-26T10:50:18.001Z</time></trkpt><trkpt lat="44.24654573416211" lon="11.426158138886793"><ele>737.0</ele><time>2026-04-26T10:50:19.001Z</time></trkpt><trkpt lat="44.24635301506688" lon="11.426098738724956"><ele>738.0</ele><time>2026-04-26T10:50:20.001Z</time></trkpt><trkpt lat="44.24618464996106" lon="11.426071850199788"><ele>739.0</ele><time>2026-04-26T10:50:21.001Z</time></trkpt><trkpt lat="44.24603395346365" lon="11.426071094562008"><ele>739.0</ele><time>2026-04-26T10:50:22.001Z</time></trkpt><trkpt lat="44.24585965679093" lon="11.426064383965816"><ele>739.0</ele><time>2026-04-26T10:50:23.001Z</time></trkpt><trkpt lat="44.24569064494046" lon="11.42604920243069"><ele>739.0</ele><time>2026-04-26T10:50:24.001Z</time></trkpt><trkpt lat="44.2455263770704" lon="11.426048572656825"><ele>739.3333333333334</ele><time>2026-04-26T10:50:25.001Z</time></trkpt><trkpt lat="44.245363136042506" lon="11.426061820303484"><ele>739.6666666666666</ele><time>2026-04-26T10:50:26.001Z</time></trkpt><trkpt lat="44.24521110150557" lon="11.426057641528102"><ele>740.0</ele><time>2026-04-26T10:50:27.001Z</time></trkpt><trkpt lat="44.24506562236975" lon="11.426048604390886"><ele>740.0</ele><time>2026-04-26T10:50:28.001Z</time></trkpt><trkpt lat="44.24490837755203" lon="11.426043282826198"><ele>740.0</ele><time>2026-04-26T10:50:29.001Z</time></trkpt><trkpt lat="44.24474196307126" lon="11.426039371469122"><ele>740.0</ele><time>2026-04-26T10:50:30.001Z</time></trkpt><trkpt lat="44.244572576392024" lon="11.42600066946148"><ele>739.0</ele><time>2026-04-26T10:50:31.001Z</time></trkpt><trkpt lat="44.24440846468886" lon="11.42594721314252"><ele>738.0</ele><time>2026-04-26T10:50:32.001Z</time></trkpt><trkpt lat="44.24424349019234" lon="11.425881195890028"><ele>737.0</ele><time>2026-04-26T10:50:33.001Z</time></trkpt><trkpt lat="44.24407196273372" lon="11.425803081265702"><ele>736.0</ele><time>2026-04-26T10:50:34.001Z</time></trkpt><trkpt lat="44.243873175356455" lon="11.425722577172369"><ele>735.0</ele><time>2026-04-26T10:50:35.001Z</time></trkpt><trkpt lat="44.243697836574796" lon="11.425689552744547"><ele>734.0</ele><time>2026-04-26T10:50:36.001Z</time></trkpt><trkpt lat="44.24352394708487" lon="11.425639061754907"><ele>734.0</ele><time>2026-04-26T10:50:37.001Z</time></trkpt><trkpt lat="44.24335281011479" lon="11.425595717533838"><ele>734.0</ele><time>2026-04-26T10:50:38.001Z</time></trkpt><trkpt lat="44.24319491909765" lon="11.425531897749744"><ele>734.0</ele><time>2026-04-26T10:50:39.001Z</time></trkpt><trkpt lat="44.24304388263864" lon="11.42548243933892"><ele>733.75</ele><time>2026-04-26T10:50:40.001Z</time></trkpt><trkpt lat="44.242902997943034" lon="11.42543708233857"><ele>733.5</ele><time>2026-04-26T10:50:41.001Z</time></trkpt><trkpt lat="44.24276546140661" lon="11.425404999499317"><ele>733.25</ele><time>2026-04-26T10:50:42.001Z</time></trkpt><trkpt lat="44.24265103379993" lon="11.425332022732235"><ele>733.0</ele><time>2026-04-26T10:50:43.001Z</time></trkpt><trkpt lat="44.24255510079349" lon="11.425217477290847"><ele>733.0</ele><time>2026-04-26T10:50:44.001Z</time></trkpt><trkpt lat="44.242460545738865" lon="11.425091841635494"><ele>733.0</ele><time>2026-04-26T10:50:45.001Z</time></trkpt><trkpt lat="44.242374329799645" lon="11.424933028120105"><ele>733.0</ele><time>2026-04-26T10:50:46.001Z</time></trkpt><trkpt lat="44.242270955689065" lon="11.424737749545438"><ele>733.0</ele><time>2026-04-26T10:50:47.001Z</time></trkpt><trkpt lat="44.242149413349665" lon="11.424571989646825"><ele>733.0</ele><time>2026-04-26T10:50:48.001Z</time></trkpt><trkpt lat="44.24203308610123" lon="11.424453878328611"><ele>733.0</ele><time>2026-04-26T10:50:49.001Z</time></trkpt><trkpt lat="44.24190407633977" lon="11.424346695113694"><ele>733.0</ele><time>2026-04-26T10:50:50.001Z</time></trkpt><trkpt lat="44.24175368701505" lon="11.424242002792228"><ele>733.0</ele><time>2026-04-26T10:50:51.001Z</time></trkpt><trkpt lat="44.24159274684491" lon="11.42412933081075"><ele>733.0</ele><time>2026-04-26T10:50:52.001Z</time></trkpt><trkpt lat="44.241433687088154" lon="11.424012146198717"><ele>733.0</ele><time>2026-04-26T10:50:53.001Z</time></trkpt><trkpt lat="44.241280836275656" lon="11.423893367723679"><ele>732.3333333333334</ele><time>2026-04-26T10:50:54.001Z</time></trkpt><trkpt lat="44.24117766639708" lon="11.423807141773317"><ele>731.6666666666666</ele><time>2026-04-26T10:50:55.001Z</time></trkpt><trkpt lat="44.241015777541" lon="11.42368434085897"><ele>731.0</ele><time>2026-04-26T10:50:56.001Z</time></trkpt><trkpt lat="44.240852507129894" lon="11.42359212287124"><ele>731.0</ele><time>2026-04-26T10:50:57.001Z</time></trkpt><trkpt lat="44.24071377124172" lon="11.423443910742812"><ele>731.0</ele><time>2026-04-26T10:50:58.001Z</time></trkpt><trkpt lat="44.24058614555464" lon="11.423309226971218"><ele>731.0</ele><time>2026-04-26T10:50:59.001Z</time></trkpt><trkpt lat="44.24046924326785" lon="11.423165195281397"><ele>731.5</ele><time>2026-04-26T10:51:00.001Z</time></trkpt><trkpt lat="44.240371648257394" lon="11.423021182515205"><ele>732.0</ele><time>2026-04-26T10:51:01.001Z</time></trkpt><trkpt lat="44.24030146375804" lon="11.422878634261561"><ele>732.5</ele><time>2026-04-26T10:51:02.001Z</time></trkpt><trkpt lat="44.240232374651065" lon="11.422721431305048"><ele>733.0</ele><time>2026-04-26T10:51:03.002Z</time></trkpt><trkpt lat="44.24017082332412" lon="11.422557108131343"><ele>733.0</ele><time>2026-04-26T10:51:04.002Z</time></trkpt><trkpt lat="44.2401008148017" lon="11.422389538809309"><ele>733.0</ele><time>2026-04-26T10:51:05.002Z</time></trkpt><trkpt lat="44.24003094657064" lon="11.422236872611615"><ele>733.0</ele><time>2026-04-26T10:51:06.002Z</time></trkpt><trkpt lat="44.239947099406706" lon="11.42207623183099"><ele>733.0</ele><time>2026-04-26T10:51:07.002Z</time></trkpt><trkpt lat="44.23985347363678" lon="11.421917256048674"><ele>732.25</ele><time>2026-04-26T10:51:08.002Z</time></trkpt><trkpt lat="44.23975704979156" lon="11.421759522531596"><ele>731.5</ele><time>2026-04-26T10:51:09.002Z</time></trkpt><trkpt lat="44.23966535245914" lon="11.42164433094787"><ele>730.75</ele><time>2026-04-26T10:51:10.002Z</time></trkpt><trkpt lat="44.239583980629355" lon="11.421556909566167"><ele>730.0</ele><time>2026-04-26T10:51:11.002Z</time></trkpt><trkpt lat="44.2394833261352" lon="11.42149116838816"><ele>730.0</ele><time>2026-04-26T10:51:12.002Z</time></trkpt><trkpt lat="44.23925347765896" lon="11.42137048987932"><ele>730.0</ele><time>2026-04-26T10:51:14.002Z</time></trkpt><trkpt lat="44.239129866164234" lon="11.421333916957368"><ele>730.0</ele><time>2026-04-26T10:51:15.002Z</time></trkpt><trkpt lat="44.239008155154046" lon="11.421310936016747"><ele>729.75</ele><time>2026-04-26T10:51:16.002Z</time></trkpt><trkpt lat="44.238892511599616" lon="11.421306988125062"><ele>729.5</ele><time>2026-04-26T10:51:17Z</time></trkpt><trkpt lat="44.23876996902093" lon="11.421316603788624"><ele>729.25</ele><time>2026-04-26T10:51:18Z</time></trkpt><trkpt lat="44.23865201219312" lon="11.421339438711799"><ele>729.0</ele><time>2026-04-26T10:51:19Z</time></trkpt><trkpt lat="44.238518342763015" lon="11.421360504125875"><ele>729.5</ele><time>2026-04-26T10:51:20Z</time></trkpt><trkpt lat="44.23836698507095" lon="11.421348424039355"><ele>730.0</ele><time>2026-04-26T10:51:21Z</time></trkpt><trkpt lat="44.23823607214863" lon="11.421333180240094"><ele>730.5</ele><time>2026-04-26T10:51:22Z</time></trkpt><trkpt lat="44.238120073495445" lon="11.421351554327671"><ele>731.0</ele><time>2026-04-26T10:51:23Z</time></trkpt><trkpt lat="44.237980121787" lon="11.421251639625137"><ele>732.6666666666666</ele><time>2026-04-26T10:51:24Z</time></trkpt><trkpt lat="44.23790978210853" lon="11.421277600464657"><ele>734.3333333333334</ele><time>2026-04-26T10:51:26Z</time></trkpt><trkpt lat="44.23784399827327" lon="11.421299466400555"><ele>736.0</ele><time>2026-04-26T10:51:27Z</time></trkpt><trkpt lat="44.2373970548892" lon="11.421111430710225"><ele>736.0</ele><time>2026-04-26T10:51:30Z</time></trkpt><trkpt lat="44.23731264248985" lon="11.420998495804753"><ele>736.0</ele><time>2026-04-26T10:51:31Z</time></trkpt><trkpt lat="44.23721978426702" lon="11.420917255724314"><ele>736.0</ele><time>2026-04-26T10:51:32Z</time></trkpt><trkpt lat="44.23711990875203" lon="11.42085411526617"><ele>736.0</ele><time>2026-04-26T10:51:33Z</time></trkpt><trkpt lat="44.237033118596656" lon="11.42079162048807"><ele>736.0</ele><time>2026-04-26T10:51:34Z</time></trkpt><trkpt lat="44.23697568358112" lon="11.42074315218182"><ele>737.8</ele><time>2026-04-26T10:51:35Z</time></trkpt><trkpt lat="44.23687909613635" lon="11.420690593716074"><ele>739.5999999999999</ele><time>2026-04-26T10:51:37Z</time></trkpt><trkpt lat="44.236810915657394" lon="11.420701790127266"><ele>741.4</ele><time>2026-04-26T10:51:39Z</time></trkpt><trkpt lat="44.236683151925874" lon="11.42071155436685"><ele>743.2</ele><time>2026-04-26T10:52:15.001Z</time></trkpt><trkpt lat="44.23661098015946" lon="11.42070971880118"><ele>745.0</ele><time>2026-04-26T10:52:16.001Z</time></trkpt><trkpt lat="44.236523963842636" lon="11.420706557491895"><ele>746.6</ele><time>2026-04-26T10:52:17.001Z</time></trkpt><trkpt lat="44.236430876736506" lon="11.420705141726735"><ele>748.2</ele><time>2026-04-26T10:52:18.001Z</time></trkpt><trkpt lat="44.236326901296614" lon="11.420694563868114"><ele>749.8</ele><time>2026-04-26T10:52:19.001Z</time></trkpt><trkpt lat="44.236217999118765" lon="11.420679677434705"><ele>751.4</ele><time>2026-04-26T10:52:20.001Z</time></trkpt><trkpt lat="44.23611055114603" lon="11.420676154921752"><ele>753.0</ele><time>2026-04-26T10:52:21.001Z</time></trkpt><trkpt lat="44.23600906781561" lon="11.420634355231096"><ele>753.0</ele><time>2026-04-26T10:52:22.001Z</time></trkpt><trkpt lat="44.23591711305066" lon="11.420564821967433"><ele>753.0</ele><time>2026-04-26T10:52:23.001Z</time></trkpt><trkpt lat="44.23583994978237" lon="11.420463801948499"><ele>753.0</ele><time>2026-04-26T10:52:24.001Z</time></trkpt><trkpt lat="44.23573126709352" lon="11.420393961500146"><ele>753.0</ele><time>2026-04-26T10:52:25.001Z</time></trkpt><trkpt lat="44.23561983296778" lon="11.420319021737956"><ele>755.0</ele><time>2026-04-26T10:52:26.001Z</time></trkpt><trkpt lat="44.23548891182489" lon="11.420291192194862"><ele>757.0</ele><time>2026-04-26T10:52:27.001Z</time></trkpt><trkpt lat="44.23537636934487" lon="11.420298924037747"><ele>759.0</ele><time>2026-04-26T10:52:28.001Z</time></trkpt><trkpt lat="44.235285168068536" lon="11.420267434212898"><ele>761.0</ele><time>2026-04-26T10:52:29.001Z</time></trkpt><trkpt lat="44.23520292363945" lon="11.420243260903966"><ele>763.0</ele><time>2026-04-26T10:52:30.001Z</time></trkpt><trkpt lat="44.235122687073904" lon="11.420161273443819"><ele>763.0</ele><time>2026-04-26T10:52:31.001Z</time></trkpt><trkpt lat="44.23506797998783" lon="11.420008494952128"><ele>763.0</ele><time>2026-04-26T10:52:32.001Z</time></trkpt><trkpt lat="44.235001249433985" lon="11.41987877782951"><ele>763.0</ele><time>2026-04-26T10:52:33.001Z</time></trkpt><trkpt lat="44.234970080939696" lon="11.419755386882139"><ele>763.0</ele><time>2026-04-26T10:52:34.001Z</time></trkpt><trkpt lat="44.23497323432125" lon="11.41963802095126"><ele>763.0</ele><time>2026-04-26T10:52:35.001Z</time></trkpt><trkpt lat="44.23497174017281" lon="11.419470282374757"><ele>762.75</ele><time>2026-04-26T10:52:36.001Z</time></trkpt><trkpt lat="44.23495128602929" lon="11.419253065166986"><ele>762.5</ele><time>2026-04-26T10:52:37.001Z</time></trkpt><trkpt lat="44.23491555384547" lon="11.419076729460963"><ele>762.25</ele><time>2026-04-26T10:52:38.001Z</time></trkpt><trkpt lat="44.234857057113395" lon="11.418890065237305"><ele>762.0</ele><time>2026-04-26T10:52:39.001Z</time></trkpt><trkpt lat="44.23481649727026" lon="11.418676703753317"><ele>759.0</ele><time>2026-04-26T10:52:40.001Z</time></trkpt><trkpt lat="44.2347467849492" lon="11.418477079743624"><ele>756.0</ele><time>2026-04-26T10:52:41.001Z</time></trkpt><trkpt lat="44.23467853582883" lon="11.418298933950506"><ele>753.0</ele><time>2026-04-26T10:52:42.001Z</time></trkpt><trkpt lat="44.23459359800452" lon="11.418130856986055"><ele>755.25</ele><time>2026-04-26T10:52:43.001Z</time></trkpt><trkpt lat="44.23450511475202" lon="11.417955512100903"><ele>757.5</ele><time>2026-04-26T10:52:44.001Z</time></trkpt><trkpt lat="44.234438918586" lon="11.417790604372911"><ele>759.75</ele><time>2026-04-26T10:52:45.001Z</time></trkpt><trkpt lat="44.23438273370716" lon="11.417664681212544"><ele>762.0</ele><time>2026-04-26T10:52:46.001Z</time></trkpt><trkpt lat="44.234335219412664" lon="11.41756021506962"><ele>762.0</ele><time>2026-04-26T10:52:47.001Z</time></trkpt><trkpt lat="44.23429575888457" lon="11.417456578471231"><ele>762.0</ele><time>2026-04-26T10:52:48.001Z</time></trkpt><trkpt lat="44.23425463662189" lon="11.417353923091868"><ele>762.0</ele><time>2026-04-26T10:52:49.001Z</time></trkpt><trkpt lat="44.23420494942966" lon="11.417251185139245"><ele>762.0</ele><time>2026-04-26T10:52:50.001Z</time></trkpt><trkpt lat="44.234139175717175" lon="11.417181444292796"><ele>762.0</ele><time>2026-04-26T10:52:51.001Z</time></trkpt><trkpt lat="44.23405866236481" lon="11.417124037252671"><ele>762.0</ele><time>2026-04-26T10:52:52.001Z</time></trkpt><trkpt lat="44.23397732572804" lon="11.417051838801882"><ele>761.5</ele><time>2026-04-26T10:52:53.001Z</time></trkpt><trkpt lat="44.233931119303854" lon="11.416941188999614"><ele>761.0</ele><time>2026-04-26T10:52:54.001Z</time></trkpt><trkpt lat="44.233886408551456" lon="11.416841856915454"><ele>760.5</ele><time>2026-04-26T10:52:55.001Z</time></trkpt><trkpt lat="44.23385371862939" lon="11.416748292699102"><ele>760.0</ele><time>2026-04-26T10:52:56.001Z</time></trkpt><trkpt lat="44.23381906713891" lon="11.41666085656722"><ele>759.5</ele><time>2026-04-26T10:52:57.001Z</time></trkpt><trkpt lat="44.233771444648866" lon="11.41658858050358"><ele>759.0</ele><time>2026-04-26T10:52:58.001Z</time></trkpt><trkpt lat="44.233743394618195" lon="11.416488952750676"><ele>759.0</ele><time>2026-04-26T10:52:59.001Z</time></trkpt><trkpt lat="44.2337099340352" lon="11.416413373104332"><ele>759.0</ele><time>2026-04-26T10:53:00.001Z</time></trkpt><trkpt lat="44.23365367164161" lon="11.41625577753809"><ele>759.0</ele><time>2026-04-26T10:53:02.001Z</time></trkpt><trkpt lat="44.23360239268325" lon="11.41615428904954"><ele>759.0</ele><time>2026-04-26T10:53:03.001Z</time></trkpt><trkpt lat="44.233563875818994" lon="11.416016358572652"><ele>759.0</ele><time>2026-04-26T10:53:04.002Z</time></trkpt><trkpt lat="44.23355961041315" lon="11.415832048276966"><ele>759.0</ele><time>2026-04-26T10:53:05.002Z</time></trkpt><trkpt lat="44.233538897823" lon="11.41564015051466"><ele>759.0</ele><time>2026-04-26T10:53:06.002Z</time></trkpt><trkpt lat="44.23352946615084" lon="11.415427224300174"><ele>759.0</ele><time>2026-04-26T10:53:07.002Z</time></trkpt><trkpt lat="44.233506182320745" lon="11.415220094644823"><ele>759.0</ele><time>2026-04-26T10:53:08.002Z</time></trkpt><trkpt lat="44.23347921022778" lon="11.415000959841235"><ele>760.75</ele><time>2026-04-26T10:53:09.002Z</time></trkpt><trkpt lat="44.23344691077753" lon="11.41480850706603"><ele>762.5</ele><time>2026-04-26T10:53:10.002Z</time></trkpt><trkpt lat="44.23339973141333" lon="11.414646052080409"><ele>764.25</ele><time>2026-04-26T10:53:11.002Z</time></trkpt><trkpt lat="44.23332477786371" lon="11.414516263599955"><ele>766.0</ele><time>2026-04-26T10:53:12.002Z</time></trkpt><trkpt lat="44.233261019740084" lon="11.414418513117818"><ele>766.75</ele><time>2026-04-26T10:53:13.002Z</time></trkpt><trkpt lat="44.23318393423611" lon="11.41434074271553"><ele>767.5</ele><time>2026-04-26T10:53:14.002Z</time></trkpt><trkpt lat="44.23309424045915" lon="11.41427047214258"><ele>768.25</ele><time>2026-04-26T10:53:15.002Z</time></trkpt><trkpt lat="44.233005227497195" lon="11.414133054546298"><ele>769.0</ele><time>2026-04-26T10:53:16.002Z</time></trkpt><trkpt lat="44.232871878598054" lon="11.413986462657174"><ele>769.0</ele><time>2026-04-26T10:53:17.002Z</time></trkpt><trkpt lat="44.23273199572582" lon="11.413828231003267"><ele>769.0</ele><time>2026-04-26T10:53:18.002Z</time></trkpt><trkpt lat="44.23260399715036" lon="11.413674303804429"><ele>769.0</ele><time>2026-04-26T10:53:19.002Z</time></trkpt><trkpt lat="44.23249168028548" lon="11.413579693045994"><ele>770.25</ele><time>2026-04-26T10:53:20.002Z</time></trkpt><trkpt lat="44.232394953935575" lon="11.413519030371978"><ele>771.5</ele><time>2026-04-26T10:53:21.002Z</time></trkpt><trkpt lat="44.23228950211959" lon="11.413467071219172"><ele>772.75</ele><time>2026-04-26T10:53:22.002Z</time></trkpt><trkpt lat="44.23217389643123" lon="11.413438533402077"><ele>774.0</ele><time>2026-04-26T10:53:23Z</time></trkpt><trkpt lat="44.2320445112351" lon="11.413407327419327"><ele>774.0</ele><time>2026-04-26T10:53:24Z</time></trkpt><trkpt lat="44.23190974839887" lon="11.413395294080807"><ele>774.0</ele><time>2026-04-26T10:53:25Z</time></trkpt><trkpt lat="44.23182905108038" lon="11.413396043480988"><ele>774.0</ele><time>2026-04-26T10:53:26Z</time></trkpt><trkpt lat="44.23175618477215" lon="11.413392860002645"><ele>774.0</ele><time>2026-04-26T10:53:27Z</time></trkpt><trkpt lat="44.231668525035964" lon="11.413335852528682"><ele>774.0</ele><time>2026-04-26T10:53:28Z</time></trkpt><trkpt lat="44.2315380588607" lon="11.413226956475654"><ele>771.3333333333334</ele><time>2026-04-26T10:53:29Z</time></trkpt><trkpt lat="44.23139718900233" lon="11.413094542115102"><ele>768.6666666666667</ele><time>2026-04-26T10:53:30Z</time></trkpt><trkpt lat="44.231270805284375" lon="11.412951742070868"><ele>766.0</ele><time>2026-04-26T10:53:31Z</time></trkpt><trkpt lat="44.23114596461278" lon="11.412819411177178"><ele>766.0</ele><time>2026-04-26T10:53:32Z</time></trkpt><trkpt lat="44.23101599982037" lon="11.41272798342031"><ele>766.0</ele><time>2026-04-26T10:53:33Z</time></trkpt><trkpt lat="44.230886027272845" lon="11.41265452620402"><ele>766.0</ele><time>2026-04-26T10:53:34Z</time></trkpt><trkpt lat="44.23074239601379" lon="11.412566648814867"><ele>766.0</ele><time>2026-04-26T10:53:35Z</time></trkpt><trkpt lat="44.23059175972993" lon="11.41245235276818"><ele>766.3333333333334</ele><time>2026-04-26T10:53:36Z</time></trkpt><trkpt lat="44.230450506605116" lon="11.412333939198575"><ele>766.6666666666666</ele><time>2026-04-26T10:53:37Z</time></trkpt><trkpt lat="44.23032319867954" lon="11.412202114830214"><ele>767.0</ele><time>2026-04-26T10:53:38Z</time></trkpt><trkpt lat="44.23020000823434" lon="11.412056363736259"><ele>767.0</ele><time>2026-04-26T10:53:39Z</time></trkpt><trkpt lat="44.23010065946008" lon="11.411931934935081"><ele>767.0</ele><time>2026-04-26T10:53:40Z</time></trkpt><trkpt lat="44.230016827006075" lon="11.41183682436268"><ele>767.0</ele><time>2026-04-26T10:53:41Z</time></trkpt><trkpt lat="44.22991031336375" lon="11.411779332704075"><ele>767.0</ele><time>2026-04-26T10:53:42Z</time></trkpt><trkpt lat="44.229769324446316" lon="11.411749922851536"><ele>768.0</ele><time>2026-04-26T10:53:43Z</time></trkpt><trkpt lat="44.229619688478344" lon="11.411711457596788"><ele>769.0</ele><time>2026-04-26T10:53:44Z</time></trkpt><trkpt lat="44.229490388997355" lon="11.411678340876973"><ele>770.0</ele><time>2026-04-26T10:53:45Z</time></trkpt><trkpt lat="44.22938091803117" lon="11.411631234176623"><ele>771.0</ele><time>2026-04-26T10:53:46Z</time></trkpt><trkpt lat="44.22928544201098" lon="11.411538876180945"><ele>771.0</ele><time>2026-04-26T10:53:47Z</time></trkpt><trkpt lat="44.229166501244045" lon="11.411419764648793"><ele>771.0</ele><time>2026-04-26T10:53:48Z</time></trkpt><trkpt lat="44.22905030147446" lon="11.411315549567622"><ele>771.0</ele><time>2026-04-26T10:53:49Z</time></trkpt><trkpt lat="44.22895625665787" lon="11.411214541844615"><ele>771.0</ele><time>2026-04-26T10:53:50Z</time></trkpt><trkpt lat="44.228867942315304" lon="11.411118793181068"><ele>771.4</ele><time>2026-04-26T10:53:51Z</time></trkpt><trkpt lat="44.22879404146256" lon="11.411032800720292"><ele>771.8</ele><time>2026-04-26T10:53:52Z</time></trkpt><trkpt lat="44.2287342173404" lon="11.410945736239018"><ele>772.1999999999999</ele><time>2026-04-26T10:53:53Z</time></trkpt><trkpt lat="44.22868012695728" lon="11.410825766247164"><ele>772.5999999999999</ele><time>2026-04-26T10:53:54Z</time></trkpt><trkpt lat="44.22864121358003" lon="11.41069619940512"><ele>773.0</ele><time>2026-04-26T10:53:55Z</time></trkpt><trkpt lat="44.22862214062286" lon="11.410569775867796"><ele>774.2</ele><time>2026-04-26T10:53:56Z</time></trkpt><trkpt lat="44.228628368720685" lon="11.410429703319632"><ele>775.4</ele><time>2026-04-26T10:53:57Z</time></trkpt><trkpt lat="44.228663789133634" lon="11.410281540555792"><ele>776.6</ele><time>2026-04-26T10:53:58.001Z</time></trkpt><trkpt lat="44.22868238422527" lon="11.410123002453732"><ele>777.8000000000001</ele><time>2026-04-26T10:53:59.001Z</time></trkpt><trkpt lat="44.22866982470503" lon="11.409978962171234"><ele>779.0</ele><time>2026-04-26T10:54:00.001Z</time></trkpt><trkpt lat="44.22863365099647" lon="11.409845574121343"><ele>779.0000000000001</ele><time>2026-04-26T10:54:01.001Z</time></trkpt><trkpt lat="44.22860103235934" lon="11.409725590212652"><ele>779.0</ele><time>2026-04-26T10:54:02.001Z</time></trkpt><trkpt lat="44.22859005082252" lon="11.409615426094808"><ele>779.0</ele><time>2026-04-26T10:54:03.001Z</time></trkpt><trkpt lat="44.22855626975375" lon="11.409531112530589"><ele>779.0</ele><time>2026-04-26T10:54:04.001Z</time></trkpt><trkpt lat="44.22849105893352" lon="11.409450499827482"><ele>779.0000000000001</ele><time>2026-04-26T10:54:05.001Z</time></trkpt><trkpt lat="44.228414733247455" lon="11.409382329759852"><ele>779.0</ele><time>2026-04-26T10:54:06.001Z</time></trkpt><trkpt lat="44.22833768704042" lon="11.409330946194988"><ele>779.8333333333334</ele><time>2026-04-26T10:54:07.001Z</time></trkpt><trkpt lat="44.228257470785145" lon="11.409272555090766"><ele>780.6666666666667</ele><time>2026-04-26T10:54:08.001Z</time></trkpt><trkpt lat="44.228181021395045" lon="11.409217292724062"><ele>781.5</ele><time>2026-04-26T10:54:09.001Z</time></trkpt><trkpt lat="44.2281212344274" lon="11.409157776756718"><ele>782.3333333333333</ele><time>2026-04-26T10:54:10.001Z</time></trkpt><trkpt lat="44.22807018240527" lon="11.409074627096018"><ele>783.1666666666666</ele><time>2026-04-26T10:54:11.001Z</time></trkpt><trkpt lat="44.2280248272708" lon="11.408964372885253"><ele>784.0</ele><time>2026-04-26T10:54:12.001Z</time></trkpt><trkpt lat="44.22797836058522" lon="11.408837607781933"><ele>782.6</ele><time>2026-04-26T10:54:13.001Z</time></trkpt><trkpt lat="44.22793561781101" lon="11.408698671876657"><ele>781.2</ele><time>2026-04-26T10:54:14.001Z</time></trkpt><trkpt lat="44.227889648217996" lon="11.408571409565733"><ele>779.8000000000001</ele><time>2026-04-26T10:54:15.001Z</time></trkpt><trkpt lat="44.22782487677403" lon="11.408444001268448"><ele>778.4000000000001</ele><time>2026-04-26T10:54:17.001Z</time></trkpt><trkpt lat="44.22781132587765" lon="11.40828269931959"><ele>777.0</ele><time>2026-04-26T10:54:19.001Z</time></trkpt><trkpt lat="44.227730980350564" lon="11.408118656457498"><ele>777.0</ele><time>2026-04-26T10:54:21.001Z</time></trkpt><trkpt lat="44.22768032244948" lon="11.408060325974683"><ele>777.0</ele><time>2026-04-26T10:54:22.001Z</time></trkpt><trkpt lat="44.227596936470775" lon="11.407992309106016"><ele>777.0</ele><time>2026-04-26T10:54:24.001Z</time></trkpt><trkpt lat="44.22753040813202" lon="11.407903090501533"><ele>777.0</ele><time>2026-04-26T10:54:26.001Z</time></trkpt><trkpt lat="44.22744805358002" lon="11.407784799853074"><ele>777.0</ele><time>2026-04-26T10:54:28.001Z</time></trkpt><trkpt lat="44.22735720641904" lon="11.40771378317629"><ele>777.0</ele><time>2026-04-26T10:54:30.001Z</time></trkpt><trkpt lat="44.22727591012368" lon="11.407689475384752"><ele>777.0</ele><time>2026-04-26T10:54:31.001Z</time></trkpt><trkpt lat="44.22720346143389" lon="11.407655101562336"><ele>777.0</ele><time>2026-04-26T10:54:32.001Z</time></trkpt><trkpt lat="44.22714904630362" lon="11.40760596082315"><ele>777.0</ele><time>2026-04-26T10:54:33.001Z</time></trkpt><trkpt lat="44.2270655537173" lon="11.407525120101852"><ele>777.0</ele><time>2026-04-26T10:54:35.001Z</time></trkpt><trkpt lat="44.22696878831545" lon="11.407490707189346"><ele>777.0</ele><time>2026-04-26T10:55:56Z</time></trkpt><trkpt lat="44.22690650319324" lon="11.407441066335444"><ele>777.0</ele><time>2026-04-26T10:55:57Z</time></trkpt><trkpt lat="44.226834790490365" lon="11.407392952060594"><ele>777.0</ele><time>2026-04-26T10:55:58Z</time></trkpt><trkpt lat="44.22676231088288" lon="11.40735124043538"><ele>777.0</ele><time>2026-04-26T10:55:59.001Z</time></trkpt><trkpt lat="44.22669296462076" lon="11.40730645095426"><ele>777.0</ele><time>2026-04-26T10:56:00.001Z</time></trkpt><trkpt lat="44.22660541364871" lon="11.40718570124005"><ele>777.0</ele><time>2026-04-26T10:56:02.001Z</time></trkpt><trkpt lat="44.22662454675242" lon="11.40703788970374"><ele>778.1666666666666</ele><time>2026-04-26T10:56:04.001Z</time></trkpt><trkpt lat="44.22658615532653" lon="11.406874978643257"><ele>779.3333333333333</ele><time>2026-04-26T10:56:06.001Z</time></trkpt><trkpt lat="44.22656084346771" lon="11.406773645681477"><ele>780.5</ele><time>2026-04-26T10:56:07.001Z</time></trkpt><trkpt lat="44.226535660259096" lon="11.406646748054387"><ele>781.6666666666666</ele><time>2026-04-26T10:56:08.001Z</time></trkpt><trkpt lat="44.2265103507871" lon="11.40653596428605"><ele>782.8333333333333</ele><time>2026-04-26T10:56:09.001Z</time></trkpt><trkpt lat="44.226504792121595" lon="11.406436139942805"><ele>784.0</ele><time>2026-04-26T10:56:10.001Z</time></trkpt><trkpt lat="44.22648419764364" lon="11.406344203525526"><ele>784.3333333333333</ele><time>2026-04-26T10:56:11.001Z</time></trkpt><trkpt lat="44.22645411513699" lon="11.406245990925346"><ele>784.6666666666666</ele><time>2026-04-26T10:56:12.001Z</time></trkpt><trkpt lat="44.226426856785565" lon="11.406143396351185"><ele>785.0</ele><time>2026-04-26T10:56:13.001Z</time></trkpt><trkpt lat="44.226403750059426" lon="11.406032048722007"><ele>785.3333333333333</ele><time>2026-04-26T10:56:14.001Z</time></trkpt><trkpt lat="44.22638280119676" lon="11.405909075407276"><ele>785.6666666666666</ele><time>2026-04-26T10:56:15.001Z</time></trkpt><trkpt lat="44.22636659847654" lon="11.405778962873702"><ele>786.0</ele><time>2026-04-26T10:56:16.001Z</time></trkpt><trkpt lat="44.22635563716555" lon="11.405668072129009"><ele>786.0</ele><time>2026-04-26T10:56:17.001Z</time></trkpt><trkpt lat="44.226348983053875" lon="11.405576991499114"><ele>786.0</ele><time>2026-04-26T10:56:19.001Z</time></trkpt><trkpt lat="44.22632471674167" lon="11.405425884558664"><ele>786.0</ele><time>2026-04-26T10:56:21.001Z</time></trkpt><trkpt lat="44.22632375616439" lon="11.405316503016474"><ele>786.0</ele><time>2026-04-26T10:56:22.001Z</time></trkpt><trkpt lat="44.2262940748125" lon="11.405167641290777"><ele>786.0</ele><time>2026-04-26T10:56:24.001Z</time></trkpt><trkpt lat="44.22627753086637" lon="11.40502919961229"><ele>786.8333333333334</ele><time>2026-04-26T10:56:26.001Z</time></trkpt><trkpt lat="44.22627094498634" lon="11.404859802853842"><ele>787.6666666666667</ele><time>2026-04-26T10:56:28.001Z</time></trkpt><trkpt lat="44.22624743858063" lon="11.4047485166745"><ele>788.5</ele><time>2026-04-26T10:56:29.001Z</time></trkpt><trkpt lat="44.226225511414775" lon="11.404654865543659"><ele>789.3333333333334</ele><time>2026-04-26T10:56:30.001Z</time></trkpt><trkpt lat="44.226201966013136" lon="11.40457127157791"><ele>790.1666666666667</ele><time>2026-04-26T10:56:31.001Z</time></trkpt><trkpt lat="44.22617475984071" lon="11.404471992303666"><ele>791.0</ele><time>2026-04-26T10:56:32.001Z</time></trkpt><trkpt lat="44.22615110206291" lon="11.40437279819142"><ele>791.1999999999999</ele><time>2026-04-26T10:56:33.001Z</time></trkpt><trkpt lat="44.226129731882594" lon="11.404237007323077"><ele>791.4</ele><time>2026-04-26T10:56:34.001Z</time></trkpt><trkpt lat="44.22610299001194" lon="11.404062998611879"><ele>791.6</ele><time>2026-04-26T10:56:35.001Z</time></trkpt><trkpt lat="44.22608428858675" lon="11.403901118502063"><ele>791.8</ele><time>2026-04-26T10:56:36.001Z</time></trkpt><trkpt lat="44.226061723374876" lon="11.403772349816315"><ele>792.0</ele><time>2026-04-26T10:56:37.001Z</time></trkpt><trkpt lat="44.22605668720384" lon="11.403658336449967"><ele>792.0</ele><time>2026-04-26T10:56:38.001Z</time></trkpt><trkpt lat="44.22604878940777" lon="11.403546783282602"><ele>792.0</ele><time>2026-04-26T10:56:40.001Z</time></trkpt><trkpt lat="44.22600172808232" lon="11.403444266361976"><ele>792.0</ele><time>2026-04-26T10:57:34.002Z</time></trkpt><trkpt lat="44.22595290742023" lon="11.403359062388"><ele>792.0</ele><time>2026-04-26T10:57:37Z</time></trkpt><trkpt lat="44.22588794994913" lon="11.403299123027454"><ele>792.0</ele><time>2026-04-26T10:57:39Z</time></trkpt><trkpt lat="44.225818916807924" lon="11.403204540313455"><ele>792.0</ele><time>2026-04-26T10:57:43Z</time></trkpt><trkpt lat="44.22577202782956" lon="11.403123394903282"><ele>792.0</ele><time>2026-04-26T10:58:01Z</time></trkpt><trkpt lat="44.22572344897603" lon="11.403005904535092"><ele>792.0</ele><time>2026-04-26T10:58:19.001Z</time></trkpt><trkpt lat="44.225662926104626" lon="11.40294396076789"><ele>792.0</ele><time>2026-04-26T10:58:22.001Z</time></trkpt><trkpt lat="44.2256034258247" lon="11.402898113154015"><ele>792.0</ele><time>2026-04-26T10:58:27.001Z</time></trkpt><trkpt lat="44.22555542896797" lon="11.402806111995977"><ele>792.0</ele><time>2026-04-26T10:58:38.001Z</time></trkpt><trkpt lat="44.22551561398036" lon="11.402712646506766"><ele>792.0</ele><time>2026-04-26T10:58:45.001Z</time></trkpt><trkpt lat="44.22547285329336" lon="11.402602972712614"><ele>794.3333333333334</ele><time>2026-04-26T10:58:56.001Z</time></trkpt><trkpt lat="44.22543577478614" lon="11.402489852065129"><ele>796.6666666666667</ele><time>2026-04-26T10:58:58.001Z</time></trkpt><trkpt lat="44.225384877136456" lon="11.402381003989616"><ele>799.0</ele><time>2026-04-26T10:59:00.001Z</time></trkpt><trkpt lat="44.225347561067785" lon="11.402291810838834"><ele>801.3333333333334</ele><time>2026-04-26T10:59:02.001Z</time></trkpt><trkpt lat="44.22541750158174" lon="11.402293419367181"><ele>803.6666666666667</ele><time>2026-04-26T11:00:01Z</time></trkpt><trkpt lat="44.22539588151541" lon="11.402381219478881"><ele>806.0</ele><time>2026-04-26T11:00:06Z</time></trkpt><trkpt lat="44.225420276878566" lon="11.40247482931515"><ele>806.0000000000001</ele><time>2026-04-26T11:00:13Z</time></trkpt><trkpt lat="44.22545222632215" lon="11.402372777112214"><ele>806.0</ele><time>2026-04-26T11:00:41.001Z</time></trkpt><trkpt lat="44.2253790121913" lon="11.402396100915283"><ele>806.0</ele><time>2026-04-26T11:00:44.001Z</time></trkpt><trkpt lat="44.225426221379614" lon="11.402535021188507"><ele>806.0</ele><time>2026-04-26T11:01:40.002Z</time></trkpt><trkpt lat="44.22540643803823" lon="11.40244734880522"><ele>806.0000000000001</ele><time>2026-04-26T11:01:45.002Z</time></trkpt><trkpt lat="44.22537924862419" lon="11.402364657557008"><ele>806.0</ele><time>2026-04-26T11:01:49.999Z</time></trkpt><trkpt lat="44.22534779406163" lon="11.402285043722776"><ele>806.0</ele><time>2026-04-26T11:01:56Z</time></trkpt><trkpt lat="44.22529533063702" lon="11.402235795150048"><ele>806.0</ele><time>2026-04-26T11:02:52.001Z</time></trkpt><trkpt lat="44.225244565889945" lon="11.402180000667125"><ele>806.0</ele><time>2026-04-26T11:02:56.001Z</time></trkpt><trkpt lat="44.22519210405189" lon="11.402117935877815"><ele>806.0</ele><time>2026-04-26T11:02:58.001Z</time></trkpt><trkpt lat="44.225143698351246" lon="11.402023245761546"><ele>806.0</ele><time>2026-04-26T11:03:02.001Z</time></trkpt><trkpt lat="44.22510284259969" lon="11.401938449815226"><ele>806.0</ele><time>2026-04-26T11:03:05.001Z</time></trkpt><trkpt lat="44.22505083381087" lon="11.401830092287442"><ele>806.0</ele><time>2026-04-26T11:03:08.001Z</time></trkpt><trkpt lat="44.225024815598424" lon="11.401749561143449"><ele>806.0</ele><time>2026-04-26T11:03:10.001Z</time></trkpt><trkpt lat="44.2249999991175" lon="11.401658709670379"><ele>806.0</ele><time>2026-04-26T11:03:13.001Z</time></trkpt><trkpt lat="44.22541750158174" lon="11.402293419367181"><ele>806.0000000000001</ele><time>2026-04-26T11:00:01Z</time></trkpt><trkpt lat="44.22539588151541" lon="11.402381219478881"><ele>806.0</ele><time>2026-04-26T11:00:06Z</time></trkpt><trkpt lat="44.225420276878566" lon="11.40247482931515"><ele>806.0</ele><time>2026-04-26T11:00:13Z</time></trkpt><trkpt lat="44.22545222632215" lon="11.402372777112214"><ele>806.0</ele><time>2026-04-26T11:00:41.001Z</time></trkpt><trkpt lat="44.2253790121913" lon="11.402396100915283"><ele>806.0000000000001</ele><time>2026-04-26T11:00:44.001Z</time></trkpt><trkpt lat="44.225426221379614" lon="11.402535021188507"><ele>806.0</ele><time>2026-04-26T11:01:40.002Z</time></trkpt><trkpt lat="44.22540643803823" lon="11.40244734880522"><ele>806.0</ele><time>2026-04-26T11:01:45.002Z</time></trkpt><trkpt lat="44.22537924862419" lon="11.402364657557008"><ele>806.0</ele><time>2026-04-26T11:01:49.999Z</time></trkpt><trkpt lat="44.22534779406163" lon="11.402285043722776"><ele>806.0</ele><time>2026-04-26T11:01:56Z</time></trkpt><trkpt lat="44.22529533063702" lon="11.402235795150048"><ele>806.0</ele><time>2026-04-26T11:02:52.001Z</time></trkpt><trkpt lat="44.225244565889945" lon="11.402180000667125"><ele>806.0</ele><time>2026-04-26T11:02:56.001Z</time></trkpt><trkpt lat="44.22519210405189" lon="11.402117935877815"><ele>806.0</ele><time>2026-04-26T11:02:58.001Z</time></trkpt><trkpt lat="44.225143698351246" lon="11.402023245761546"><ele>806.0</ele><time>2026-04-26T11:03:02.001Z</time></trkpt><trkpt lat="44.22510284259969" lon="11.401938449815226"><ele>805.0000000000001</ele><time>2026-04-26T11:03:05.001Z</time></trkpt><trkpt lat="44.22505083381087" lon="11.401830092287442"><ele>804.0</ele><time>2026-04-26T11:03:08.001Z</time></trkpt><trkpt lat="44.225024815598424" lon="11.401749561143449"><ele>803.0</ele><time>2026-04-26T11:03:10.001Z</time></trkpt><trkpt lat="44.2249999991175" lon="11.401658709670379"><ele>802.0</ele><time>2026-04-26T11:03:13.001Z</time></trkpt><trkpt lat="44.224967299321555" lon="11.40154379392862"><ele>801.0000000000001</ele><time>2026-04-26T11:04:39.001Z</time></trkpt><trkpt lat="44.224968255014744" lon="11.401446185399402"><ele>800.0</ele><time>2026-04-26T11:04:42.001Z</time></trkpt><trkpt lat="44.224951797140164" lon="11.401333813707783"><ele>800.1666666666667</ele><time>2026-04-26T11:04:44.001Z</time></trkpt><trkpt lat="44.224942837014254" lon="11.401202574160752"><ele>800.3333333333334</ele><time>2026-04-26T11:04:46.001Z</time></trkpt><trkpt lat="44.22490992362468" lon="11.401123448455419"><ele>800.5</ele><time>2026-04-26T11:05:16.001Z</time></trkpt><trkpt lat="44.22487434044052" lon="11.401047895713072"><ele>800.6666666666667</ele><time>2026-04-26T11:05:22.001Z</time></trkpt><trkpt lat="44.22484628347655" lon="11.400953413350416"><ele>800.8333333333334</ele><time>2026-04-26T11:05:26.001Z</time></trkpt><trkpt lat="44.22481976426619" lon="11.400820987328565"><ele>801.0</ele><time>2026-04-26T11:06:43Z</time></trkpt><trkpt lat="44.22484719990861" lon="11.400720877191814"><ele>801.0</ele><time>2026-04-26T11:06:46Z</time></trkpt><trkpt lat="44.224892581287534" lon="11.40065585870393"><ele>801.0</ele><time>2026-04-26T11:06:48Z</time></trkpt><trkpt lat="44.224946598513036" lon="11.400542654701066"><ele>801.0</ele><time>2026-04-26T11:06:51.001Z</time></trkpt><trkpt lat="44.22498650464738" lon="11.400419624600746"><ele>801.0</ele><time>2026-04-26T11:06:53.001Z</time></trkpt><trkpt lat="44.22500174854356" lon="11.400332461731958"><ele>801.0</ele><time>2026-04-26T11:06:56.001Z</time></trkpt><trkpt lat="44.22497720940458" lon="11.4004171158828"><ele>801.0</ele><time>2026-04-26T11:11:03.001Z</time></trkpt><trkpt lat="44.224962892398736" lon="11.400516046343753"><ele>801.0</ele><time>2026-04-26T11:11:10.001Z</time></trkpt><trkpt lat="44.224929988153306" lon="11.400595079107703"><ele>801.0</ele><time>2026-04-26T11:11:16.001Z</time></trkpt><trkpt lat="44.224894986039565" lon="11.400670185073345"><ele>801.0</ele><time>2026-04-26T11:11:21.001Z</time></trkpt><trkpt lat="44.22485328164825" lon="11.400743559505386"><ele>801.0</ele><time>2026-04-26T11:11:28.001Z</time></trkpt><trkpt lat="44.224907335817576" lon="11.400690668561984"><ele>801.0</ele><time>2026-04-26T11:11:39.001Z</time></trkpt><trkpt lat="44.224934408963904" lon="11.400605464385643"><ele>801.0</ele><time>2026-04-26T11:11:48.001Z</time></trkpt><trkpt lat="44.2249651548941" lon="11.400521336493156"><ele>801.0</ele><time>2026-04-26T11:11:55.001Z</time></trkpt><trkpt lat="44.224981391659796" lon="11.400425840923559"><ele>801.6666666666666</ele><time>2026-04-26T11:12:02.002Z</time></trkpt><trkpt lat="44.22498839576009" lon="11.400334497547203"><ele>802.3333333333333</ele><time>2026-04-26T11:12:06.002Z</time></trkpt><trkpt lat="44.22498909377723" lon="11.400240762668838"><ele>803.0</ele><time>2026-04-26T11:13:04.001Z</time></trkpt><trkpt lat="44.22500368671054" lon="11.400119262168245"><ele>803.6666666666666</ele><time>2026-04-26T11:13:07.001Z</time></trkpt><trkpt lat="44.225022971791205" lon="11.400003772592232"><ele>804.3333333333333</ele><time>2026-04-26T11:13:09.001Z</time></trkpt><trkpt lat="44.225086488996055" lon="11.399890698043178"><ele>805.0</ele><time>2026-04-26T11:13:11.001Z</time></trkpt><trkpt lat="44.22516791754717" lon="11.399788041695817"><ele>805.0</ele><time>2026-04-26T11:13:13.001Z</time></trkpt><trkpt lat="44.22527423443852" lon="11.399707771605467"><ele>805.0</ele><time>2026-04-26T11:13:15.001Z</time></trkpt><trkpt lat="44.225336789552195" lon="11.399597304643363"><ele>805.0</ele><time>2026-04-26T11:13:17.001Z</time></trkpt><trkpt lat="44.22535791935818" lon="11.399460628593662"><ele>805.0</ele><time>2026-04-26T11:13:19.001Z</time></trkpt><trkpt lat="44.22530898579741" lon="11.399381815432298"><ele>805.0</ele><time>2026-04-26T11:13:21.001Z</time></trkpt><trkpt lat="44.22526657805537" lon="11.399298077752176"><ele>804.6666666666666</ele><time>2026-04-26T11:13:23.001Z</time></trkpt><trkpt lat="44.22520630995893" lon="11.399120946748324"><ele>804.3333333333333</ele><time>2026-04-26T11:14:30Z</time></trkpt><trkpt lat="44.22519424585923" lon="11.399014558292281"><ele>804.0</ele><time>2026-04-26T11:14:36Z</time></trkpt><trkpt lat="44.2251813548656" lon="11.398924026251963"><ele>803.6666666666667</ele><time>2026-04-26T11:14:40Z</time></trkpt><trkpt lat="44.22518938384784" lon="11.398821120060102"><ele>803.3333333333334</ele><time>2026-04-26T11:14:42Z</time></trkpt><trkpt lat="44.22519216542198" lon="11.39870942834857"><ele>803.0</ele><time>2026-04-26T11:14:44Z</time></trkpt><trkpt lat="44.225165597549854" lon="11.398608190298718"><ele>803.0000000000001</ele><time>2026-04-26T11:17:31.001Z</time></trkpt><trkpt lat="44.225117331565855" lon="11.398550579690154"><ele>803.0</ele><time>2026-04-26T11:17:33.001Z</time></trkpt><trkpt lat="44.22503463538311" lon="11.398540129835203"><ele>803.0</ele><time>2026-04-26T11:17:36.001Z</time></trkpt><trkpt lat="44.2249677684548" lon="11.398559097018822"><ele>803.0</ele><time>2026-04-26T11:17:38.001Z</time></trkpt><trkpt lat="44.22486551099309" lon="11.398574885753428"><ele>803.0000000000001</ele><time>2026-04-26T11:17:40.001Z</time></trkpt><trkpt lat="44.22478046273881" lon="11.398503444629997"><ele>803.0</ele><time>2026-04-26T11:17:42.001Z</time></trkpt><trkpt lat="44.22468305008194" lon="11.398443826027194"><ele>804.0</ele><time>2026-04-26T11:17:44.001Z</time></trkpt><trkpt lat="44.22460588150475" lon="11.39836083259061"><ele>805.0</ele><time>2026-04-26T11:17:46.001Z</time></trkpt><trkpt lat="44.22448522720863" lon="11.398334113941274"><ele>806.0</ele><time>2026-04-26T11:17:48.001Z</time></trkpt><trkpt lat="44.22438489354676" lon="11.398375641748313"><ele>807.0</ele><time>2026-04-26T11:17:50.001Z</time></trkpt><trkpt lat="44.22432227835441" lon="11.39838591300004"><ele>808.0</ele><time>2026-04-26T11:17:51.001Z</time></trkpt><trkpt lat="44.224241475654416" lon="11.398378217816783"><ele>808.0</ele><time>2026-04-26T11:17:53.001Z</time></trkpt><trkpt lat="44.22413159893596" lon="11.398436690636219"><ele>808.0</ele><time>2026-04-26T11:17:55.001Z</time></trkpt><trkpt lat="44.224054904340186" lon="11.398470548362736"><ele>808.0</ele><time>2026-04-26T11:17:56.001Z</time></trkpt><trkpt lat="44.22398617211673" lon="11.398474708178924"><ele>808.0</ele><time>2026-04-26T11:17:57.001Z</time></trkpt><trkpt lat="44.22389854303176" lon="11.398477693184788"><ele>808.0</ele><time>2026-04-26T11:17:59.001Z</time></trkpt><trkpt lat="44.223802387711345" lon="11.398476378107302"><ele>808.25</ele><time>2026-04-26T11:18:01.001Z</time></trkpt><trkpt lat="44.223727832597994" lon="11.398539631660896"><ele>808.5</ele><time>2026-04-26T11:18:03.001Z</time></trkpt><trkpt lat="44.223641679303135" lon="11.398539726665875"><ele>808.75</ele><time>2026-04-26T11:18:05.001Z</time></trkpt><trkpt lat="44.22352455909392" lon="11.398533006051537"><ele>809.0</ele><time>2026-04-26T11:18:08.001Z</time></trkpt><trkpt lat="44.22335267642539" lon="11.398550804335477"><ele>809.0000000000001</ele><time>2026-04-26T11:18:10.001Z</time></trkpt><trkpt lat="44.22327348576033" lon="11.398530659451243"><ele>809.0</ele><time>2026-04-26T11:18:11.001Z</time></trkpt><trkpt lat="44.223201862724274" lon="11.39849533351207"><ele>809.0</ele><time>2026-04-26T11:18:12.001Z</time></trkpt><trkpt lat="44.223132191587084" lon="11.398461577619424"><ele>809.0</ele><time>2026-04-26T11:18:13.001Z</time></trkpt><trkpt lat="44.22306154042712" lon="11.398456906674925"><ele>809.0000000000001</ele><time>2026-04-26T11:18:14.001Z</time></trkpt><trkpt lat="44.22299825963955" lon="11.398610295707982"><ele>809.0</ele><time>2026-04-26T11:18:15.002Z</time></trkpt><trkpt lat="44.22294153363971" lon="11.398656358037236"><ele>809.3333333333334</ele><time>2026-04-26T11:18:16.002Z</time></trkpt><trkpt lat="44.22289163113318" lon="11.398710391408407"><ele>809.6666666666667</ele><time>2026-04-26T11:18:17.002Z</time></trkpt><trkpt lat="44.22282381885874" lon="11.398749246641085"><ele>810.0</ele><time>2026-04-26T11:18:18.002Z</time></trkpt><trkpt lat="44.22275264555385" lon="11.398809604806035"><ele>810.3333333333333</ele><time>2026-04-26T11:18:19.002Z</time></trkpt><trkpt lat="44.222694459217706" lon="11.398872013606278"><ele>810.6666666666666</ele><time>2026-04-26T11:18:20.002Z</time></trkpt><trkpt lat="44.2226066531141" lon="11.398970699534006"><ele>811.0</ele><time>2026-04-26T11:18:22.002Z</time></trkpt><trkpt lat="44.22250099438984" lon="11.399014360618681"><ele>810.9999999999999</ele><time>2026-04-26T11:18:24.002Z</time></trkpt><trkpt lat="44.222393374694725" lon="11.398950388993887"><ele>811.0</ele><time>2026-04-26T11:18:26.002Z</time></trkpt><trkpt lat="44.22231626635992" lon="11.39894428923399"><ele>811.0</ele><time>2026-04-26T11:18:27.002Z</time></trkpt><trkpt lat="44.22225444056628" lon="11.398918284274558"><ele>811.0</ele><time>2026-04-26T11:18:28.002Z</time></trkpt><trkpt lat="44.2221939025924" lon="11.39888476428551"><ele>810.9999999999999</ele><time>2026-04-26T11:18:29.002Z</time></trkpt><trkpt lat="44.22213825849491" lon="11.39883486610373"><ele>811.0</ele><time>2026-04-26T11:18:30.002Z</time></trkpt><trkpt lat="44.22206248927813" lon="11.398723963850953"><ele>811.0</ele><time>2026-04-26T11:18:32.002Z</time></trkpt><trkpt lat="44.221968342219085" lon="11.398651456685881"><ele>811.0</ele><time>2026-04-26T11:18:34.002Z</time></trkpt><trkpt lat="44.22189041461483" lon="11.398540651715509"><ele>811.0</ele><time>2026-04-26T11:18:36Z</time></trkpt><trkpt lat="44.221799299447085" lon="11.398458104388661"><ele>811.0</ele><time>2026-04-26T11:18:38Z</time></trkpt><trkpt lat="44.22168403272499" lon="11.398371527440615"><ele>810.9999999999999</ele><time>2026-04-26T11:18:40Z</time></trkpt><trkpt lat="44.22156770658304" lon="11.398297980907019"><ele>811.0</ele><time>2026-04-26T11:18:42Z</time></trkpt><trkpt lat="44.22150788475575" lon="11.398247637894166"><ele>811.0</ele><time>2026-04-26T11:18:43Z</time></trkpt><trkpt lat="44.22144870144931" lon="11.398191511271587"><ele>811.0</ele><time>2026-04-26T11:18:44Z</time></trkpt><trkpt lat="44.221392062778385" lon="11.398124672874413"><ele>810.9999999999999</ele><time>2026-04-26T11:18:45Z</time></trkpt><trkpt lat="44.221328578907" lon="11.39805177429141"><ele>811.0</ele><time>2026-04-26T11:18:46Z</time></trkpt><trkpt lat="44.221278634818134" lon="11.397986630144958"><ele>810.4</ele><time>2026-04-26T11:18:47Z</time></trkpt><trkpt lat="44.221218627178835" lon="11.397880579550492"><ele>809.8</ele><time>2026-04-26T11:18:49Z</time></trkpt><trkpt lat="44.22114693352137" lon="11.397798594737317"><ele>809.1999999999999</ele><time>2026-04-26T11:18:51Z</time></trkpt><trkpt lat="44.221041745610435" lon="11.397725301872315"><ele>808.5999999999999</ele><time>2026-04-26T11:18:53Z</time></trkpt><trkpt lat="44.22098066848429" lon="11.397663895692716"><ele>808.0</ele><time>2026-04-26T11:18:54Z</time></trkpt><trkpt lat="44.220912193225246" lon="11.397574050661436"><ele>807.9999999999999</ele><time>2026-04-26T11:18:55Z</time></trkpt><trkpt lat="44.22084962785593" lon="11.397495381540496"><ele>808.0</ele><time>2026-04-26T11:18:56Z</time></trkpt><trkpt lat="44.22079414240082" lon="11.397421427151915"><ele>808.0</ele><time>2026-04-26T11:18:57Z</time></trkpt><trkpt lat="44.220774696893756" lon="11.397312376846402"><ele>808.0</ele><time>2026-04-26T11:18:58Z</time></trkpt><trkpt lat="44.22074427274355" lon="11.397214100702925"><ele>807.9999999999999</ele><time>2026-04-26T11:18:59Z</time></trkpt><trkpt lat="44.22071383686524" lon="11.397103219783627"><ele>808.0</ele><time>2026-04-26T11:19:00Z</time></trkpt><trkpt lat="44.22066531112494" lon="11.396989721710561"><ele>807.3333333333333</ele><time>2026-04-26T11:19:01Z</time></trkpt><trkpt lat="44.220614072062126" lon="11.396881399557131"><ele>806.6666666666666</ele><time>2026-04-26T11:19:02Z</time></trkpt><trkpt lat="44.22055056076442" lon="11.396784104591257"><ele>806.0</ele><time>2026-04-26T11:19:03Z</time></trkpt><trkpt lat="44.22049931513991" lon="11.396691942169827"><ele>805.3333333333333</ele><time>2026-04-26T11:19:04Z</time></trkpt><trkpt lat="44.220477067854326" lon="11.396603579288492"><ele>804.6666666666666</ele><time>2026-04-26T11:19:05Z</time></trkpt><trkpt lat="44.220442245214606" lon="11.396524663601157"><ele>804.0</ele><time>2026-04-26T11:19:06Z</time></trkpt><trkpt lat="44.220402033443555" lon="11.396444400412742"><ele>804.0</ele><time>2026-04-26T11:19:07Z</time></trkpt><trkpt lat="44.22034639585757" lon="11.396388277212337"><ele>804.0</ele><time>2026-04-26T11:19:08Z</time></trkpt><trkpt lat="44.22030939029805" lon="11.396316544441532"><ele>804.0</ele><time>2026-04-26T11:19:09Z</time></trkpt><trkpt lat="44.22027256693012" lon="11.396244734686082"><ele>804.0</ele><time>2026-04-26T11:19:10Z</time></trkpt><trkpt lat="44.22022490220927" lon="11.396123426074833"><ele>804.0</ele><time>2026-04-26T11:19:12.001Z</time></trkpt><trkpt lat="44.22018610669335" lon="11.396008140171682"><ele>804.0</ele><time>2026-04-26T11:19:14.001Z</time></trkpt><trkpt lat="44.22017601512674" lon="11.395907939341598"><ele>805.0</ele><time>2026-04-26T11:19:16.001Z</time></trkpt><trkpt lat="44.22013312870883" lon="11.395828780543079"><ele>806.0</ele><time>2026-04-26T11:19:18.001Z</time></trkpt><trkpt lat="44.220094528918786" lon="11.395758753836734"><ele>807.0</ele><time>2026-04-26T11:19:21.001Z</time></trkpt><trkpt lat="44.22016384905396" lon="11.39568013575826"><ele>808.0</ele><time>2026-04-26T11:19:23.001Z</time></trkpt><trkpt lat="44.220199544785" lon="11.395756149793852"><ele>809.0</ele><time>2026-04-26T11:19:25.001Z</time></trkpt><trkpt lat="44.22021981756093" lon="11.395861950546418"><ele>810.0</ele><time>2026-04-26T11:19:28.001Z</time></trkpt><trkpt lat="44.22023381006818" lon="11.395981119611475"><ele>810.0</ele><time>2026-04-26T11:19:31.001Z</time></trkpt><trkpt lat="44.22025218835262" lon="11.39606974242131"><ele>810.0</ele><time>2026-04-26T11:19:33.001Z</time></trkpt><trkpt lat="44.220287626420614" lon="11.396261254483182"><ele>810.0</ele><time>2026-04-26T11:19:35.001Z</time></trkpt><trkpt lat="44.22029975329769" lon="11.39636336607828"><ele>810.0</ele><time>2026-04-26T11:19:36.001Z</time></trkpt><trkpt lat="44.22031918521056" lon="11.396478709385068"><ele>810.0</ele><time>2026-04-26T11:19:37.001Z</time></trkpt><trkpt lat="44.22033532186601" lon="11.396567292066493"><ele>810.0</ele><time>2026-04-26T11:19:38.001Z</time></trkpt><trkpt lat="44.22037010475912" lon="11.396700630007356"><ele>808.8</ele><time>2026-04-26T11:19:40.001Z</time></trkpt><trkpt lat="44.220411533301075" lon="11.396861509233103"><ele>807.6</ele><time>2026-04-26T11:19:42.001Z</time></trkpt><trkpt lat="44.220429055654876" lon="11.396969028246055"><ele>806.4000000000001</ele><time>2026-04-26T11:19:43.001Z</time></trkpt><trkpt lat="44.22044413308374" lon="11.397074353862212"><ele>805.2</ele><time>2026-04-26T11:19:44.001Z</time></trkpt><trkpt lat="44.220448868711465" lon="11.397222575375611"><ele>804.0</ele><time>2026-04-26T11:19:46.001Z</time></trkpt><trkpt lat="44.2204569188298" lon="11.39731459067134"><ele>803.5</ele><time>2026-04-26T11:19:47.001Z</time></trkpt><trkpt lat="44.22046501185286" lon="11.397431272571913"><ele>803.0</ele><time>2026-04-26T11:19:48.001Z</time></trkpt><trkpt lat="44.220481664712445" lon="11.397516115193786"><ele>802.5</ele><time>2026-04-26T11:19:49.001Z</time></trkpt><trkpt lat="44.220500289968136" lon="11.397614923381534"><ele>802.0</ele><time>2026-04-26T11:19:50.001Z</time></trkpt><trkpt lat="44.220527709961196" lon="11.397723065237052"><ele>801.5</ele><time>2026-04-26T11:19:51.001Z</time></trkpt><trkpt lat="44.22056233943008" lon="11.397820699293035"><ele>801.0</ele><time>2026-04-26T11:19:52.001Z</time></trkpt><trkpt lat="44.220596417864634" lon="11.397907476651229"><ele>801.0</ele><time>2026-04-26T11:19:53.001Z</time></trkpt><trkpt lat="44.220619637859535" lon="11.397991345051844"><ele>801.0</ele><time>2026-04-26T11:19:54.001Z</time></trkpt><trkpt lat="44.220635096558915" lon="11.398135005124047"><ele>801.0</ele><time>2026-04-26T11:19:56.001Z</time></trkpt><trkpt lat="44.220606405488994" lon="11.398225945035037"><ele>801.0</ele><time>2026-04-26T11:19:58.001Z</time></trkpt><trkpt lat="44.22059802818982" lon="11.398370260351639"><ele>801.0</ele><time>2026-04-26T11:20:00.001Z</time></trkpt><trkpt lat="44.22056093497984" lon="11.398485737325824"><ele>801.0</ele><time>2026-04-26T11:20:02.001Z</time></trkpt><trkpt lat="44.22057323743229" lon="11.398602595627308"><ele>801.0</ele><time>2026-04-26T11:20:04.001Z</time></trkpt><trkpt lat="44.22054151201119" lon="11.398708757913845"><ele>801.0</ele><time>2026-04-26T11:20:51Z</time></trkpt><trkpt lat="44.22049641505692" lon="11.398788282151203"><ele>801.0</ele><time>2026-04-26T11:20:54Z</time></trkpt><trkpt lat="44.22045781487295" lon="11.398869122987579"><ele>801.0</ele><time>2026-04-26T11:20:56Z</time></trkpt><trkpt lat="44.22037661332367" lon="11.39891727152536"><ele>801.0</ele><time>2026-04-26T11:20:59Z</time></trkpt><trkpt lat="44.22028810657508" lon="11.398934322729728"><ele>801.0</ele><time>2026-04-26T11:21:02Z</time></trkpt><trkpt lat="44.220249521130036" lon="11.39905072814331"><ele>799.0</ele><time>2026-04-26T11:21:05Z</time></trkpt><trkpt lat="44.22020246286194" lon="11.399135384908668"><ele>797.0</ele><time>2026-04-26T11:21:08Z</time></trkpt><trkpt lat="44.22014341741453" lon="11.39917265612033"><ele>795.0</ele><time>2026-04-26T11:21:11Z</time></trkpt><trkpt lat="44.22011098444754" lon="11.39924966016661"><ele>793.0</ele><time>2026-04-26T11:21:16Z</time></trkpt><trkpt lat="44.22010787911964" lon="11.399348395809003"><ele>791.0</ele><time>2026-04-26T11:21:19Z</time></trkpt><trkpt lat="44.22015739816973" lon="11.399470305775889"><ele>789.0</ele><time>2026-04-26T11:21:22Z</time></trkpt><trkpt lat="44.220197589772624" lon="11.399568691176938"><ele>789.0</ele><time>2026-04-26T11:21:24Z</time></trkpt><trkpt lat="44.220256124571854" lon="11.399636181509962"><ele>789.0</ele><time>2026-04-26T11:21:28.001Z</time></trkpt><trkpt lat="44.22030667267155" lon="11.399704569897748"><ele>789.0</ele><time>2026-04-26T11:21:38.001Z</time></trkpt><trkpt lat="44.2203431682222" lon="11.399790923542477"><ele>789.0</ele><time>2026-04-26T11:21:42.001Z</time></trkpt><trkpt lat="44.2203813138971" lon="11.39986751762244"><ele>789.0</ele><time>2026-04-26T11:21:44.001Z</time></trkpt><trkpt lat="44.22048361664208" lon="11.399899434839162"><ele>789.0</ele><time>2026-04-26T11:21:48.001Z</time></trkpt><trkpt lat="44.2205606773921" lon="11.399930556617955"><ele>788.0</ele><time>2026-04-26T11:21:50.001Z</time></trkpt><trkpt lat="44.2206171029637" lon="11.39999013420956"><ele>787.0</ele><time>2026-04-26T11:21:52.001Z</time></trkpt><trkpt lat="44.220666941310164" lon="11.400066135936369"><ele>786.0</ele><time>2026-04-26T11:21:54.001Z</time></trkpt><trkpt lat="44.22067170860086" lon="11.400174046196032"><ele>785.0</ele><time>2026-04-26T11:21:57.001Z</time></trkpt><trkpt lat="44.22066160392766" lon="11.400290855705462"><ele>784.0</ele><time>2026-04-26T11:22:01.001Z</time></trkpt><trkpt lat="44.22062773826732" lon="11.400374112015493"><ele>783.0</ele><time>2026-04-26T11:22:04.001Z</time></trkpt><trkpt lat="44.220583775516076" lon="11.400482294761586"><ele>780.0</ele><time>2026-04-26T11:22:44.002Z</time></trkpt><trkpt lat="44.22055183951646" lon="11.400596242919605"><ele>777.0</ele><time>2026-04-26T11:22:46.002Z</time></trkpt><trkpt lat="44.22053394393671" lon="11.40074307839925"><ele>774.0</ele><time>2026-04-26T11:22:48Z</time></trkpt><trkpt lat="44.220548595654975" lon="11.400881528904263"><ele>771.0</ele><time>2026-04-26T11:22:50Z</time></trkpt><trkpt lat="44.22053790051497" lon="11.401012664538907"><ele>768.0</ele><time>2026-04-26T11:22:52Z</time></trkpt><trkpt lat="44.22051011062805" lon="11.40113939997667"><ele>768.0</ele><time>2026-04-26T11:22:54Z</time></trkpt><trkpt lat="44.22049184440163" lon="11.401271268124711"><ele>768.0</ele><time>2026-04-26T11:22:56Z</time></trkpt><trkpt lat="44.22047910427541" lon="11.401373947298023"><ele>768.0</ele><time>2026-04-26T11:22:58Z</time></trkpt><trkpt lat="44.22047166008055" lon="11.401469345637528"><ele>768.0</ele><time>2026-04-26T11:24:58Z</time></trkpt><trkpt lat="44.220486086638005" lon="11.401578637904457"><ele>768.0</ele><time>2026-04-26T11:25:04Z</time></trkpt><trkpt lat="44.220502277776085" lon="11.401717956297182"><ele>768.0</ele><time>2026-04-26T11:25:06Z</time></trkpt><trkpt lat="44.22049548174793" lon="11.401837918385421"><ele>768.0</ele><time>2026-04-26T11:25:08Z</time></trkpt><trkpt lat="44.22051179082977" lon="11.401932076997715"><ele>768.0</ele><time>2026-04-26T11:25:25Z</time></trkpt><trkpt lat="44.220546685851104" lon="11.402013409190118"><ele>768.0</ele><time>2026-04-26T11:25:27Z</time></trkpt><trkpt lat="44.2205851303781" lon="11.402097230856072"><ele>768.0</ele><time>2026-04-26T11:25:29Z</time></trkpt><trkpt lat="44.220643532593634" lon="11.402177198747653"><ele>768.0</ele><time>2026-04-26T11:25:31Z</time></trkpt><trkpt lat="44.22072901660986" lon="11.40224711700453"><ele>768.0</ele><time>2026-04-26T11:25:33Z</time></trkpt><trkpt lat="44.220801393254916" lon="11.40229934720577"><ele>769.0</ele><time>2026-04-26T11:25:35Z</time></trkpt><trkpt lat="44.22086902628523" lon="11.402353567316469"><ele>770.0</ele><time>2026-04-26T11:25:37Z</time></trkpt><trkpt lat="44.220933080478964" lon="11.402425812736139"><ele>771.0</ele><time>2026-04-26T11:25:39Z</time></trkpt><trkpt lat="44.22096968995285" lon="11.402524044060906"><ele>772.0</ele><time>2026-04-26T11:25:41Z</time></trkpt><trkpt lat="44.22094241830868" lon="11.402608069257946"><ele>773.0</ele><time>2026-04-26T11:25:43Z</time></trkpt><trkpt lat="44.2208940622428" lon="11.402670720465519"><ele>774.0</ele><time>2026-04-26T11:25:45.001Z</time></trkpt><trkpt lat="44.220891361523286" lon="11.402786257078422"><ele>774.0</ele><time>2026-04-26T11:25:47.001Z</time></trkpt><trkpt lat="44.220906894374565" lon="11.402907582956566"><ele>774.0</ele><time>2026-04-26T11:25:50.001Z</time></trkpt><trkpt lat="44.22092902689489" lon="11.403051982415807"><ele>774.0</ele><time>2026-04-26T11:25:52.001Z</time></trkpt><trkpt lat="44.220943556352935" lon="11.403186455466546"><ele>774.0</ele><time>2026-04-26T11:25:55.001Z</time></trkpt><trkpt lat="44.220956584541554" lon="11.40336023763915"><ele>774.0</ele><time>2026-04-26T11:25:57.001Z</time></trkpt><trkpt lat="44.22092652266215" lon="11.403467640139025"><ele>773.2</ele><time>2026-04-26T11:25:59.001Z</time></trkpt><trkpt lat="44.22088483376819" lon="11.403591392990792"><ele>772.4000000000001</ele><time>2026-04-26T11:26:01.001Z</time></trkpt><trkpt lat="44.220846358433526" lon="11.403736952047788"><ele>771.6</ele><time>2026-04-26T11:26:03.001Z</time></trkpt><trkpt lat="44.22079380698199" lon="11.403867130244198"><ele>770.8</ele><time>2026-04-26T11:26:05.001Z</time></trkpt><trkpt lat="44.22074509599269" lon="11.40395745265549"><ele>770.0</ele><time>2026-04-26T11:26:07.001Z</time></trkpt><trkpt lat="44.2207042340147" lon="11.404048255373777"><ele>770.0000000000001</ele><time>2026-04-26T11:26:09.001Z</time></trkpt><trkpt lat="44.2206583599984" lon="11.404156030030599"><ele>770.0</ele><time>2026-04-26T11:26:11.001Z</time></trkpt><trkpt lat="44.22060791620605" lon="11.404295397250594"><ele>770.0</ele><time>2026-04-26T11:26:13.001Z</time></trkpt><trkpt lat="44.22057584782453" lon="11.404375939638797"><ele>770.0</ele><time>2026-04-26T11:26:14.001Z</time></trkpt><trkpt lat="44.22054406480449" lon="11.404473862272"><ele>770.0000000000001</ele><time>2026-04-26T11:26:16.001Z</time></trkpt><trkpt lat="44.22049936087137" lon="11.404579778077174"><ele>770.0</ele><time>2026-04-26T11:26:18.001Z</time></trkpt><trkpt lat="44.220457453411576" lon="11.404675013733627"><ele>766.3333333333334</ele><time>2026-04-26T11:26:20.001Z</time></trkpt><trkpt lat="44.22040489385307" lon="11.40478180230311"><ele>762.6666666666667</ele><time>2026-04-26T11:26:22.001Z</time></trkpt><trkpt lat="44.220360353806825" lon="11.404884148861761"><ele>759.0</ele><time>2026-04-26T11:26:24.001Z</time></trkpt><trkpt lat="44.22032525899169" lon="11.404978080105483"><ele>755.3333333333334</ele><time>2026-04-26T11:26:26.001Z</time></trkpt><trkpt lat="44.22030039369926" lon="11.405073161488472"><ele>751.6666666666667</ele><time>2026-04-26T11:26:28.001Z</time></trkpt><trkpt lat="44.22027883607801" lon="11.405176140748113"><ele>748.0</ele><time>2026-04-26T11:26:30.001Z</time></trkpt><trkpt lat="44.220243680509526" lon="11.405310724847883"><ele>748.0</ele><time>2026-04-26T11:26:32.001Z</time></trkpt><trkpt lat="44.22020623063344" lon="11.405448228749753"><ele>748.0</ele><time>2026-04-26T11:26:34.001Z</time></trkpt><trkpt lat="44.22017207437921" lon="11.405545327251891"><ele>748.0</ele><time>2026-04-26T11:26:35.001Z</time></trkpt><trkpt lat="44.22012940270067" lon="11.405690991946395"><ele>748.0</ele><time>2026-04-26T11:26:37.001Z</time></trkpt><trkpt lat="44.220106924321364" lon="11.405780389353648"><ele>748.0</ele><time>2026-04-26T11:26:38.001Z</time></trkpt><trkpt lat="44.22008361140076" lon="11.40587378685013"><ele>748.0</ele><time>2026-04-26T11:26:39.001Z</time></trkpt><trkpt lat="44.22006211085798" lon="11.405972387407937"><ele>747.1666666666667</ele><time>2026-04-26T11:26:40.001Z</time></trkpt><trkpt lat="44.220040823742934" lon="11.40608020064723"><ele>746.3333333333334</ele><time>2026-04-26T11:26:41.001Z</time></trkpt><trkpt lat="44.220020466554985" lon="11.406189236854736"><ele>745.5</ele><time>2026-04-26T11:26:42.001Z</time></trkpt><trkpt lat="44.21998977029506" lon="11.406306253351673"><ele>744.6666666666666</ele><time>2026-04-26T11:26:43.001Z</time></trkpt><trkpt lat="44.219949068166336" lon="11.40642017821863"><ele>743.8333333333333</ele><time>2026-04-26T11:26:44.001Z</time></trkpt><trkpt lat="44.21991136189229" lon="11.406531563432644"><ele>743.0</ele><time>2026-04-26T11:26:45.001Z</time></trkpt><trkpt lat="44.21987843048848" lon="11.406641347474633"><ele>742.4285714285714</ele><time>2026-04-26T11:26:46.001Z</time></trkpt><trkpt lat="44.21985083893552" lon="11.406748889372727"><ele>741.8571428571428</ele><time>2026-04-26T11:26:47.001Z</time></trkpt><trkpt lat="44.21983431616848" lon="11.406843229285942"><ele>741.2857142857142</ele><time>2026-04-26T11:26:48.001Z</time></trkpt><trkpt lat="44.219817485564576" lon="11.406948679512357"><ele>740.7142857142858</ele><time>2026-04-26T11:26:49.001Z</time></trkpt><trkpt lat="44.21979839675258" lon="11.407049493930698"><ele>740.1428571428571</ele><time>2026-04-26T11:26:50.001Z</time></trkpt><trkpt lat="44.21978006190807" lon="11.407135496700159"><ele>739.5714285714286</ele><time>2026-04-26T11:26:51.001Z</time></trkpt><trkpt lat="44.21975621319064" lon="11.407238613186296"><ele>739.0</ele><time>2026-04-26T11:26:52.001Z</time></trkpt><trkpt lat="44.21973134398546" lon="11.407346900764708"><ele>737.6666666666667</ele><time>2026-04-26T11:26:53.001Z</time></trkpt><trkpt lat="44.21969778460583" lon="11.407448597902016"><ele>736.3333333333334</ele><time>2026-04-26T11:26:54.001Z</time></trkpt><trkpt lat="44.21967056362168" lon="11.40756245863513"><ele>735.0</ele><time>2026-04-26T11:26:55.001Z</time></trkpt><trkpt lat="44.219656078253415" lon="11.407665014016846"><ele>733.6666666666666</ele><time>2026-04-26T11:26:56.001Z</time></trkpt><trkpt lat="44.219619534822826" lon="11.407781720777265"><ele>732.3333333333333</ele><time>2026-04-26T11:26:58.001Z</time></trkpt><trkpt lat="44.2195704266131" lon="11.407861454352835"><ele>731.0</ele><time>2026-04-26T11:27:42Z</time></trkpt><trkpt lat="44.219519617517776" lon="11.407919139428808"><ele>730.8</ele><time>2026-04-26T11:27:43Z</time></trkpt><trkpt lat="44.219444115713074" lon="11.408001104479144"><ele>730.5999999999999</ele><time>2026-04-26T11:27:44Z</time></trkpt><trkpt lat="44.21937188161629" lon="11.408101310439028"><ele>730.4</ele><time>2026-04-26T11:27:45Z</time></trkpt><trkpt lat="44.21930623882482" lon="11.408211703815885"><ele>730.2</ele><time>2026-04-26T11:27:46Z</time></trkpt><trkpt lat="44.21922381131281" lon="11.408303774331335"><ele>730.0</ele><time>2026-04-26T11:27:47Z</time></trkpt><trkpt lat="44.21915078753195" lon="11.408414167087791"><ele>730.0</ele><time>2026-04-26T11:27:48Z</time></trkpt><trkpt lat="44.21908391365663" lon="11.408517144044492"><ele>730.0</ele><time>2026-04-26T11:27:49Z</time></trkpt><trkpt lat="44.21901965031555" lon="11.408644605097516"><ele>730.0</ele><time>2026-04-26T11:27:50Z</time></trkpt><trkpt lat="44.21894483934849" lon="11.408755655443848"><ele>730.0</ele><time>2026-04-26T11:27:51.001Z</time></trkpt><trkpt lat="44.21886923899237" lon="11.40887346835111"><ele>730.0</ele><time>2026-04-26T11:27:52.001Z</time></trkpt><trkpt lat="44.21878496709879" lon="11.40896988038749"><ele>727.2</ele><time>2026-04-26T11:27:53.001Z</time></trkpt><trkpt lat="44.21871294584419" lon="11.409072027136906"><ele>724.4</ele><time>2026-04-26T11:27:54.001Z</time></trkpt><trkpt lat="44.2186286534049" lon="11.409193120748146"><ele>721.5999999999999</ele><time>2026-04-26T11:27:55.001Z</time></trkpt><trkpt lat="44.21856658713218" lon="11.409284282365515"><ele>718.8</ele><time>2026-04-26T11:27:56.001Z</time></trkpt><trkpt lat="44.21850679796274" lon="11.409413617767454"><ele>716.0</ele><time>2026-04-26T11:27:57.001Z</time></trkpt><trkpt lat="44.21843901207876" lon="11.409510142113955"><ele>716.0</ele><time>2026-04-26T11:27:58.001Z</time></trkpt><trkpt lat="44.21837660322322" lon="11.409602845755295"><ele>716.0</ele><time>2026-04-26T11:27:59.001Z</time></trkpt><trkpt lat="44.21830501069792" lon="11.409698232498267"><ele>716.0</ele><time>2026-04-26T11:28:00.001Z</time></trkpt><trkpt lat="44.21824260345217" lon="11.40978831094122"><ele>716.0</ele><time>2026-04-26T11:28:01.001Z</time></trkpt><trkpt lat="44.21818587456005" lon="11.4098827096517"><ele>716.0</ele><time>2026-04-26T11:28:02.001Z</time></trkpt><trkpt lat="44.21813465177153" lon="11.409978085577928"><ele>713.75</ele><time>2026-04-26T11:28:03.001Z</time></trkpt><trkpt lat="44.2180878254255" lon="11.410102043655238"><ele>711.5</ele><time>2026-04-26T11:28:04.001Z</time></trkpt><trkpt lat="44.2180361477233" lon="11.410253164349383"><ele>709.25</ele><time>2026-04-26T11:28:05.001Z</time></trkpt><trkpt lat="44.217981476221674" lon="11.410415189023501"><ele>707.0</ele><time>2026-04-26T11:28:06.001Z</time></trkpt><trkpt lat="44.217923675209306" lon="11.410544862322686"><ele>707.0</ele><time>2026-04-26T11:28:07.001Z</time></trkpt><trkpt lat="44.21786526377813" lon="11.410663248101365"><ele>707.0</ele><time>2026-04-26T11:28:08.001Z</time></trkpt><trkpt lat="44.2178087168687" lon="11.410806672361003"><ele>707.0</ele><time>2026-04-26T11:28:09.001Z</time></trkpt><trkpt lat="44.217758070426186" lon="11.410952759569218"><ele>707.0</ele><time>2026-04-26T11:28:10.001Z</time></trkpt><trkpt lat="44.2177096283271" lon="11.411093044973532"><ele>707.0</ele><time>2026-04-26T11:28:11.001Z</time></trkpt><trkpt lat="44.217663788819436" lon="11.411228122412373"><ele>706.2</ele><time>2026-04-26T11:28:12.001Z</time></trkpt><trkpt lat="44.217614316979905" lon="11.411348384341577"><ele>705.4000000000001</ele><time>2026-04-26T11:28:13.001Z</time></trkpt><trkpt lat="44.21756792616093" lon="11.41146478861563"><ele>704.5999999999999</ele><time>2026-04-26T11:28:14.001Z</time></trkpt><trkpt lat="44.217528635622195" lon="11.411570731715972"><ele>703.8</ele><time>2026-04-26T11:28:15.001Z</time></trkpt><trkpt lat="44.2174792399548" lon="11.411684668748103"><ele>703.0</ele><time>2026-04-26T11:28:16.001Z</time></trkpt><trkpt lat="44.217434650461364" lon="11.41180495105071"><ele>703.0</ele><time>2026-04-26T11:28:17.001Z</time></trkpt><trkpt lat="44.21739962736644" lon="11.41191968273874"><ele>703.0</ele><time>2026-04-26T11:28:18.001Z</time></trkpt><trkpt lat="44.21735763755714" lon="11.412017235319409"><ele>703.0</ele><time>2026-04-26T11:28:19.001Z</time></trkpt><trkpt lat="44.21730166257864" lon="11.41211181299063"><ele>703.0</ele><time>2026-04-26T11:28:20.001Z</time></trkpt><trkpt lat="44.217227461752195" lon="11.412200223266696"><ele>703.0</ele><time>2026-04-26T11:28:21.001Z</time></trkpt><trkpt lat="44.217144589783956" lon="11.412258379007673"><ele>703.0</ele><time>2026-04-26T11:28:22.001Z</time></trkpt><trkpt lat="44.217059966967625" lon="11.412305804827131"><ele>701.0</ele><time>2026-04-26T11:28:23.001Z</time></trkpt><trkpt lat="44.21696204101977" lon="11.412358029521666"><ele>699.0</ele><time>2026-04-26T11:28:24.001Z</time></trkpt><trkpt lat="44.21686814065507" lon="11.412399282943493"><ele>697.0</ele><time>2026-04-26T11:28:25.001Z</time></trkpt><trkpt lat="44.21676589531785" lon="11.412448876770714"><ele>695.0</ele><time>2026-04-26T11:28:26.001Z</time></trkpt><trkpt lat="44.216667644881966" lon="11.412496640229618"><ele>693.0</ele><time>2026-04-26T11:28:27.001Z</time></trkpt><trkpt lat="44.216563380315165" lon="11.412538232056535"><ele>691.8</ele><time>2026-04-26T11:28:28.001Z</time></trkpt><trkpt lat="44.216471490943576" lon="11.412590132542753"><ele>690.5999999999999</ele><time>2026-04-26T11:28:29.001Z</time></trkpt><trkpt lat="44.2163807430829" lon="11.412661998664854"><ele>689.4000000000001</ele><time>2026-04-26T11:28:30.001Z</time></trkpt><trkpt lat="44.216297607969025" lon="11.412751490861849"><ele>688.2</ele><time>2026-04-26T11:28:31.001Z</time></trkpt><trkpt lat="44.2162235562579" lon="11.412833922864465"><ele>687.0</ele><time>2026-04-26T11:28:32.001Z</time></trkpt><trkpt lat="44.216152934865235" lon="11.412909031344963"><ele>687.0</ele><time>2026-04-26T11:28:33.001Z</time></trkpt><trkpt lat="44.21609045922647" lon="11.412970125270688"><ele>687.0</ele><time>2026-04-26T11:28:34.001Z</time></trkpt><trkpt lat="44.216027866565774" lon="11.413033389507511"><ele>687.0</ele><time>2026-04-26T11:28:35.001Z</time></trkpt><trkpt lat="44.21596844342754" lon="11.41310871783094"><ele>687.0</ele><time>2026-04-26T11:28:36.001Z</time></trkpt><trkpt lat="44.215906160401985" lon="11.4131943456011"><ele>687.0</ele><time>2026-04-26T11:28:37.001Z</time></trkpt><trkpt lat="44.215851754396446" lon="11.413284679690138"><ele>687.0</ele><time>2026-04-26T11:28:38.001Z</time></trkpt><trkpt lat="44.21579885601798" lon="11.413378911365097"><ele>687.2857142857143</ele><time>2026-04-26T11:28:39.001Z</time></trkpt><trkpt lat="44.215758498724746" lon="11.413476586482425"><ele>687.5714285714286</ele><time>2026-04-26T11:28:40.001Z</time></trkpt><trkpt lat="44.21573435515554" lon="11.41357668601547"><ele>687.8571428571429</ele><time>2026-04-26T11:28:41.001Z</time></trkpt><trkpt lat="44.215720327823064" lon="11.413680765830449"><ele>688.1428571428571</ele><time>2026-04-26T11:28:42.001Z</time></trkpt><trkpt lat="44.215706943874345" lon="11.413774626897517"><ele>688.4285714285714</ele><time>2026-04-26T11:28:43.001Z</time></trkpt><trkpt lat="44.2156916284185" lon="11.41386141302496"><ele>688.7142857142857</ele><time>2026-04-26T11:28:44.001Z</time></trkpt><trkpt lat="44.215670066942664" lon="11.413951216057367"><ele>689.0</ele><time>2026-04-26T11:28:45.001Z</time></trkpt><trkpt lat="44.21561697265926" lon="11.414125582844541"><ele>687.0</ele><time>2026-04-26T11:28:47.001Z</time></trkpt><trkpt lat="44.215564331797516" lon="11.41423165529322"><ele>685.0</ele><time>2026-04-26T11:28:48.001Z</time></trkpt><trkpt lat="44.21549653042853" lon="11.414329607089048"><ele>683.0</ele><time>2026-04-26T11:28:49.001Z</time></trkpt><trkpt lat="44.21541770701338" lon="11.414431833560547"><ele>681.0</ele><time>2026-04-26T11:28:50.001Z</time></trkpt><trkpt lat="44.21533029186893" lon="11.41452985673494"><ele>679.0</ele><time>2026-04-26T11:28:51.001Z</time></trkpt><trkpt lat="44.215253332804735" lon="11.414635670687286"><ele>679.4000000000001</ele><time>2026-04-26T11:28:52.001Z</time></trkpt><trkpt lat="44.215167723603805" lon="11.41475177840097"><ele>679.8</ele><time>2026-04-26T11:28:53.001Z</time></trkpt><trkpt lat="44.21509031424321" lon="11.41483579265252"><ele>680.2</ele><time>2026-04-26T11:28:54.001Z</time></trkpt><trkpt lat="44.21501673151561" lon="11.414929101906585"><ele>680.5999999999999</ele><time>2026-04-26T11:28:55.001Z</time></trkpt><trkpt lat="44.21494222474744" lon="11.415005836197043"><ele>681.0</ele><time>2026-04-26T11:28:56.001Z</time></trkpt><trkpt lat="44.21487132223211" lon="11.415094953531302"><ele>678.5</ele><time>2026-04-26T11:28:57.001Z</time></trkpt><trkpt lat="44.21480440184616" lon="11.41517926639194"><ele>676.0</ele><time>2026-04-26T11:28:58.001Z</time></trkpt><trkpt lat="44.21474424339586" lon="11.415254906141389"><ele>673.5</ele><time>2026-04-26T11:28:59.001Z</time></trkpt><trkpt lat="44.21469433631539" lon="11.415317564786367"><ele>671.0</ele><time>2026-04-26T11:29:00.001Z</time></trkpt><trkpt lat="44.21463701195611" lon="11.415379249847634"><ele>668.5</ele><time>2026-04-26T11:29:01.001Z</time></trkpt><trkpt lat="44.21453528706687" lon="11.415477801925938"><ele>666.0</ele><time>2026-04-26T11:29:03.001Z</time></trkpt><trkpt lat="44.21446555495565" lon="11.41555468745595"><ele>666.0</ele><time>2026-04-26T11:29:04.999Z</time></trkpt><trkpt lat="44.21441692373182" lon="11.415628518567392"><ele>666.0</ele><time>2026-04-26T11:29:06.999Z</time></trkpt><trkpt lat="44.214446284717106" lon="11.415745076651557"><ele>666.0</ele><time>2026-04-26T11:29:09.999Z</time></trkpt><trkpt lat="44.21451600523306" lon="11.415757895042848"><ele>666.0</ele><time>2026-04-26T11:29:11.999Z</time></trkpt><trkpt lat="44.21462155983016" lon="11.415812072270374"><ele>666.0</ele><time>2026-04-26T11:29:12.999Z</time></trkpt><trkpt lat="44.214744617257914" lon="11.415805583202166"><ele>667.25</ele><time>2026-04-26T11:29:13.999Z</time></trkpt><trkpt lat="44.214921711424054" lon="11.415753591013544"><ele>668.5</ele><time>2026-04-26T11:29:14.999Z</time></trkpt><trkpt lat="44.21502426651461" lon="11.415772011545915"><ele>669.75</ele><time>2026-04-26T11:29:15.999Z</time></trkpt><trkpt lat="44.21512564767852" lon="11.415797176250313"><ele>671.0</ele><time>2026-04-26T11:29:16.999Z</time></trkpt><trkpt lat="44.215214253753444" lon="11.415796746680886"><ele>671.0</ele><time>2026-04-26T11:29:17.999Z</time></trkpt><trkpt lat="44.21535230972061" lon="11.415760052533702"><ele>671.0</ele><time>2026-04-26T11:29:19.999Z</time></trkpt><trkpt lat="44.215429362204304" lon="11.415709588199258"><ele>671.0</ele><time>2026-04-26T11:29:20.999Z</time></trkpt><trkpt lat="44.215512101532575" lon="11.41565467614424"><ele>671.0</ele><time>2026-04-26T11:29:21.999Z</time></trkpt><trkpt lat="44.215572304327836" lon="11.415604346280917"><ele>671.0</ele><time>2026-04-26T11:29:23Z</time></trkpt><trkpt lat="44.215626549593935" lon="11.41554276002098"><ele>671.0</ele><time>2026-04-26T11:29:24Z</time></trkpt><trkpt lat="44.21571344132962" lon="11.41556934939707"><ele>671.0</ele><time>2026-04-26T11:29:26Z</time></trkpt><trkpt lat="44.21573322820085" lon="11.415656308608117"><ele>671.0</ele><time>2026-04-26T11:29:27Z</time></trkpt><trkpt lat="44.2157208415583" lon="11.415754725566504"><ele>671.0</ele><time>2026-04-26T11:29:28Z</time></trkpt><trkpt lat="44.21561856177892" lon="11.415874644196112"><ele>671.0</ele><time>2026-04-26T11:29:30Z</time></trkpt><trkpt lat="44.2154978592307" lon="11.415987771999518"><ele>671.0</ele><time>2026-04-26T11:29:31Z</time></trkpt><trkpt lat="44.21543342431597" lon="11.416085371738527"><ele>671.0</ele><time>2026-04-26T11:29:32Z</time></trkpt><trkpt lat="44.21536752480005" lon="11.416194430668773"><ele>671.0</ele><time>2026-04-26T11:29:33Z</time></trkpt><trkpt lat="44.21530028102958" lon="11.416299623751199"><ele>671.0</ele><time>2026-04-26T11:29:34Z</time></trkpt><trkpt lat="44.21526253435831" lon="11.416398671588215"><ele>671.0</ele><time>2026-04-26T11:29:35Z</time></trkpt><trkpt lat="44.215236228883896" lon="11.416485092136524"><ele>671.0</ele><time>2026-04-26T11:29:36Z</time></trkpt><trkpt lat="44.21522043197117" lon="11.416578313467905"><ele>667.5999999999999</ele><time>2026-04-26T11:29:37Z</time></trkpt><trkpt lat="44.21517273304907" lon="11.416729367276911"><ele>664.2</ele><time>2026-04-26T11:29:39Z</time></trkpt><trkpt lat="44.21511470324755" lon="11.416793911427956"><ele>660.8</ele><time>2026-04-26T11:29:40Z</time></trkpt><trkpt lat="44.215031045806214" lon="11.416866558269884"><ele>657.4000000000001</ele><time>2026-04-26T11:29:41Z</time></trkpt><trkpt lat="44.21489384674211" lon="11.416930911918868"><ele>654.0</ele><time>2026-04-26T11:29:42Z</time></trkpt><trkpt lat="44.21477991988458" lon="11.416996369756182"><ele>653.75</ele><time>2026-04-26T11:29:43Z</time></trkpt><trkpt lat="44.21468268380793" lon="11.417084057248802"><ele>653.5</ele><time>2026-04-26T11:29:44Z</time></trkpt><trkpt lat="44.21459181485299" lon="11.417202939516962"><ele>653.25</ele><time>2026-04-26T11:29:45Z</time></trkpt><trkpt lat="44.214516894090664" lon="11.417337394944887"><ele>653.0</ele><time>2026-04-26T11:29:46Z</time></trkpt><trkpt lat="44.214448341126996" lon="11.417459431269291"><ele>649.5</ele><time>2026-04-26T11:29:47Z</time></trkpt><trkpt lat="44.21436776972564" lon="11.417574061963188"><ele>646.0</ele><time>2026-04-26T11:29:48Z</time></trkpt><trkpt lat="44.214274791793194" lon="11.417692178895871"><ele>642.5</ele><time>2026-04-26T11:29:49Z</time></trkpt><trkpt lat="44.2141658332716" lon="11.417816934406472"><ele>639.0</ele><time>2026-04-26T11:29:50Z</time></trkpt><trkpt lat="44.214055834390656" lon="11.417933286912309"><ele>634.75</ele><time>2026-04-26T11:29:51Z</time></trkpt><trkpt lat="44.21393680564282" lon="11.418033281829153"><ele>630.5</ele><time>2026-04-26T11:29:52Z</time></trkpt><trkpt lat="44.213820549549986" lon="11.418138566302854"><ele>626.25</ele><time>2026-04-26T11:29:53Z</time></trkpt><trkpt lat="44.2137215982613" lon="11.418226359391655"><ele>622.0</ele><time>2026-04-26T11:29:54Z</time></trkpt><trkpt lat="44.21362751795674" lon="11.418307697892114"><ele>622.0</ele><time>2026-04-26T11:29:55Z</time></trkpt><trkpt lat="44.21355222072294" lon="11.418389540702766"><ele>622.0</ele><time>2026-04-26T11:29:56Z</time></trkpt><trkpt lat="44.21347920259231" lon="11.418492075945483"><ele>622.0</ele><time>2026-04-26T11:29:57Z</time></trkpt><trkpt lat="44.213414619339495" lon="11.418625044915014"><ele>622.0</ele><time>2026-04-26T11:29:58Z</time></trkpt><trkpt lat="44.2133663309394" lon="11.418789108922725"><ele>622.0</ele><time>2026-04-26T11:29:59Z</time></trkpt><trkpt lat="44.21333843047762" lon="11.418934722810851"><ele>620.5</ele><time>2026-04-26T11:30:00Z</time></trkpt><trkpt lat="44.2132956390623" lon="11.419073078118185"><ele>619.0</ele><time>2026-04-26T11:30:01Z</time></trkpt><trkpt lat="44.21324007170301" lon="11.41919385107347"><ele>617.5</ele><time>2026-04-26T11:30:02Z</time></trkpt><trkpt lat="44.213160587322236" lon="11.419312574164623"><ele>616.0</ele><time>2026-04-26T11:30:03Z</time></trkpt><trkpt lat="44.21306375074391" lon="11.41944776688141"><ele>615.5</ele><time>2026-04-26T11:30:04Z</time></trkpt><trkpt lat="44.21296650379942" lon="11.419575124834722"><ele>615.0</ele><time>2026-04-26T11:30:05Z</time></trkpt><trkpt lat="44.21286023072683" lon="11.419701674233059"><ele>614.5</ele><time>2026-04-26T11:30:06Z</time></trkpt><trkpt lat="44.21277140657142" lon="11.41981672488978"><ele>614.0</ele><time>2026-04-26T11:30:07Z</time></trkpt><trkpt lat="44.21268905686077" lon="11.419918899582845"><ele>613.0</ele><time>2026-04-26T11:30:08Z</time></trkpt><trkpt lat="44.21261753933608" lon="11.420016963906404"><ele>612.0</ele><time>2026-04-26T11:30:09Z</time></trkpt><trkpt lat="44.21254071997663" lon="11.420111637643027"><ele>611.0</ele><time>2026-04-26T11:30:10Z</time></trkpt><trkpt lat="44.21244511579233" lon="11.420193451378433"><ele>610.0</ele><time>2026-04-26T11:30:11Z</time></trkpt><trkpt lat="44.21234279750517" lon="11.420261393086843"><ele>609.0</ele><time>2026-04-26T11:30:12Z</time></trkpt><trkpt lat="44.212245959732" lon="11.420324504757057"><ele>607.4</ele><time>2026-04-26T11:30:13Z</time></trkpt><trkpt lat="44.21215399421815" lon="11.420376337342127"><ele>605.8</ele><time>2026-04-26T11:30:14Z</time></trkpt><trkpt lat="44.21207080548517" lon="11.4204176596097"><ele>604.2</ele><time>2026-04-26T11:30:15.001Z</time></trkpt><trkpt lat="44.21199105331605" lon="11.420420623581572"><ele>602.6</ele><time>2026-04-26T11:30:16.001Z</time></trkpt><trkpt lat="44.211904923927605" lon="11.420397284524897"><ele>601.0</ele><time>2026-04-26T11:30:17.001Z</time></trkpt><trkpt lat="44.21179539313333" lon="11.420363779520256"><ele>601.0</ele><time>2026-04-26T11:30:18.001Z</time></trkpt><trkpt lat="44.21169567618917" lon="11.42031961539362"><ele>601.0</ele><time>2026-04-26T11:30:19.001Z</time></trkpt><trkpt lat="44.21159595494953" lon="11.420288536306458"><ele>601.0</ele><time>2026-04-26T11:30:20.001Z</time></trkpt><trkpt lat="44.21150325850335" lon="11.42027949562104"><ele>601.0</ele><time>2026-04-26T11:30:21.001Z</time></trkpt><trkpt lat="44.21142272516536" lon="11.420311529810792"><ele>601.0</ele><time>2026-04-26T11:30:22.001Z</time></trkpt><trkpt lat="44.21132831292012" lon="11.420384942172877"><ele>595.25</ele><time>2026-04-26T11:30:23.001Z</time></trkpt><trkpt lat="44.211209333953086" lon="11.420492813286671"><ele>589.5</ele><time>2026-04-26T11:30:24.001Z</time></trkpt><trkpt lat="44.211100375007916" lon="11.420587342626558"><ele>583.75</ele><time>2026-04-26T11:30:25.001Z</time></trkpt><trkpt lat="44.21100301006216" lon="11.420669255106079"><ele>578.0</ele><time>2026-04-26T11:30:26.001Z</time></trkpt><trkpt lat="44.21091781680878" lon="11.420766663111758"><ele>578.0</ele><time>2026-04-26T11:30:27.001Z</time></trkpt><trkpt lat="44.21084803915157" lon="11.420898043059013"><ele>578.0</ele><time>2026-04-26T11:30:28.001Z</time></trkpt><trkpt lat="44.21079090751977" lon="11.42104471308908"><ele>578.0</ele><time>2026-04-26T11:30:29.001Z</time></trkpt><trkpt lat="44.21074858613616" lon="11.421142412348948"><ele>578.0</ele><time>2026-04-26T11:30:30.001Z</time></trkpt><trkpt lat="44.21069275661162" lon="11.421213960974598"><ele>578.0</ele><time>2026-04-26T11:30:31.001Z</time></trkpt><trkpt lat="44.21061356064594" lon="11.42126850506301"><ele>575.1999999999999</ele><time>2026-04-26T11:30:32.001Z</time></trkpt><trkpt lat="44.210527667189496" lon="11.42131672002102"><ele>572.4</ele><time>2026-04-26T11:30:33.001Z</time></trkpt><trkpt lat="44.21044474064582" lon="11.421329774133824"><ele>569.5999999999999</ele><time>2026-04-26T11:30:34.001Z</time></trkpt><trkpt lat="44.21036111029836" lon="11.421315824873982"><ele>566.8</ele><time>2026-04-26T11:30:35.001Z</time></trkpt><trkpt lat="44.210261827391044" lon="11.421264523268567"><ele>564.0</ele><time>2026-04-26T11:30:36.001Z</time></trkpt><trkpt lat="44.21017546475469" lon="11.421216751059834"><ele>564.0</ele><time>2026-04-26T11:30:37.001Z</time></trkpt><trkpt lat="44.21010021967996" lon="11.421169990018743"><ele>564.0</ele><time>2026-04-26T11:30:38.001Z</time></trkpt><trkpt lat="44.210039328331895" lon="11.421120083965468"><ele>564.0</ele><time>2026-04-26T11:30:39.001Z</time></trkpt><trkpt lat="44.20996596953648" lon="11.42102664202929"><ele>564.0</ele><time>2026-04-26T11:30:40.001Z</time></trkpt><trkpt lat="44.209894500686616" lon="11.420907815891564"><ele>564.0</ele><time>2026-04-26T11:30:41.001Z</time></trkpt><trkpt lat="44.20981805436398" lon="11.420806290107985"><ele>560.4</ele><time>2026-04-26T11:30:42.001Z</time></trkpt><trkpt lat="44.2097384096122" lon="11.42072693954421"><ele>556.8</ele><time>2026-04-26T11:30:43.001Z</time></trkpt><trkpt lat="44.20965042723061" lon="11.420667569784433"><ele>553.2</ele><time>2026-04-26T11:30:44.001Z</time></trkpt><trkpt lat="44.20953877440342" lon="11.420629237544693"><ele>549.6</ele><time>2026-04-26T11:30:45.001Z</time></trkpt><trkpt lat="44.20942773287236" lon="11.420620173197273"><ele>546.0</ele><time>2026-04-26T11:30:46.001Z</time></trkpt><trkpt lat="44.20932506583974" lon="11.420625216347059"><ele>546.0</ele><time>2026-04-26T11:30:47.001Z</time></trkpt><trkpt lat="44.20923845393258" lon="11.42062558768221"><ele>546.0</ele><time>2026-04-26T11:30:48.001Z</time></trkpt><trkpt lat="44.20916712486898" lon="11.420605213185203"><ele>546.0</ele><time>2026-04-26T11:30:49.001Z</time></trkpt><trkpt lat="44.209098445527886" lon="11.42056128816194"><ele>546.0</ele><time>2026-04-26T11:30:50.001Z</time></trkpt><trkpt lat="44.20902216446611" lon="11.420487273014773"><ele>546.0</ele><time>2026-04-26T11:30:51.001Z</time></trkpt><trkpt lat="44.208958980095396" lon="11.420411091452381"><ele>546.0</ele><time>2026-04-26T11:30:52.001Z</time></trkpt><trkpt lat="44.208907583098274" lon="11.420320675510691"><ele>546.1666666666666</ele><time>2026-04-26T11:30:53.001Z</time></trkpt><trkpt lat="44.20887565300577" lon="11.42022957380079"><ele>546.3333333333334</ele><time>2026-04-26T11:30:54.001Z</time></trkpt><trkpt lat="44.20886163372494" lon="11.420114871343122"><ele>546.5</ele><time>2026-04-26T11:30:55.001Z</time></trkpt><trkpt lat="44.20888545810313" lon="11.420002337192036"><ele>546.6666666666667</ele><time>2026-04-26T11:30:56.001Z</time></trkpt><trkpt lat="44.208925338579675" lon="11.419886448514976"><ele>546.8333333333334</ele><time>2026-04-26T11:30:57.001Z</time></trkpt><trkpt lat="44.20897903323831" lon="11.419785793465177"><ele>547.0</ele><time>2026-04-26T11:30:58.001Z</time></trkpt><trkpt lat="44.209015329868464" lon="11.419710014350805"><ele>546.5</ele><time>2026-04-26T11:30:59.001Z</time></trkpt><trkpt lat="44.20902043001565" lon="11.419622057889768"><ele>546.0</ele><time>2026-04-26T11:31:00.001Z</time></trkpt><trkpt lat="44.208992403760305" lon="11.41953371774397"><ele>545.5</ele><time>2026-04-26T11:31:01.001Z</time></trkpt><trkpt lat="44.20892955778517" lon="11.419463595970797"><ele>545.0</ele><time>2026-04-26T11:31:02.001Z</time></trkpt><trkpt lat="44.208853211528975" lon="11.419439264047892"><ele>544.5</ele><time>2026-04-26T11:31:03.001Z</time></trkpt><trkpt lat="44.20877443207966" lon="11.419433455142583"><ele>544.0</ele><time>2026-04-26T11:31:04.001Z</time></trkpt><trkpt lat="44.20869231917861" lon="11.419448819995836"><ele>545.0</ele><time>2026-04-26T11:31:05.001Z</time></trkpt><trkpt lat="44.208628049220486" lon="11.419496893893164"><ele>546.0</ele><time>2026-04-26T11:31:06.001Z</time></trkpt><trkpt lat="44.20857488509123" lon="11.419560061685486"><ele>547.0</ele><time>2026-04-26T11:31:07.001Z</time></trkpt><trkpt lat="44.20851899531904" lon="11.419641376228148"><ele>548.0</ele><time>2026-04-26T11:31:08.001Z</time></trkpt><trkpt lat="44.208458940441886" lon="11.419695324163117"><ele>549.0</ele><time>2026-04-26T11:31:09.001Z</time></trkpt><trkpt lat="44.20837102106756" lon="11.419751090009237"><ele>550.0</ele><time>2026-04-26T11:31:10.999Z</time></trkpt><trkpt lat="44.208313214567255" lon="11.419922885321135"><ele>550.0</ele><time>2026-04-26T11:31:12.999Z</time></trkpt><trkpt lat="44.20832759874875" lon="11.420051487373335"><ele>550.0</ele><time>2026-04-26T11:31:13.999Z</time></trkpt><trkpt lat="44.20835825780573" lon="11.420155709793368"><ele>550.0</ele><time>2026-04-26T11:31:14.999Z</time></trkpt><trkpt lat="44.20839449694431" lon="11.420273056645417"><ele>550.0</ele><time>2026-04-26T11:31:15.999Z</time></trkpt><trkpt lat="44.20841746076071" lon="11.420399087753877"><ele>550.0</ele><time>2026-04-26T11:31:16.999Z</time></trkpt><trkpt lat="44.20842503450924" lon="11.420543493636606"><ele>550.6666666666667</ele><time>2026-04-26T11:31:17.999Z</time></trkpt><trkpt lat="44.20841999736135" lon="11.420689321519305"><ele>551.3333333333334</ele><time>2026-04-26T11:31:18.999Z</time></trkpt><trkpt lat="44.20842316821026" lon="11.420810500068946"><ele>552.0</ele><time>2026-04-26T11:31:19.999Z</time></trkpt><trkpt lat="44.20842355518941" lon="11.42091856706799"><ele>552.6666666666666</ele><time>2026-04-26T11:31:20.999Z</time></trkpt><trkpt lat="44.20841648733068" lon="11.421009357121148"><ele>553.3333333333333</ele><time>2026-04-26T11:31:21.999Z</time></trkpt><trkpt lat="44.20839145322566" lon="11.421152931153445"><ele>554.0</ele><time>2026-04-26T11:31:22.999Z</time></trkpt><trkpt lat="44.2083845770272" lon="11.421274970848271"><ele>554.75</ele><time>2026-04-26T11:31:23.999Z</time></trkpt><trkpt lat="44.208380784077086" lon="11.421427657857688"><ele>555.5</ele><time>2026-04-26T11:31:25Z</time></trkpt><trkpt lat="44.20839161016941" lon="11.421585888010032"><ele>556.25</ele><time>2026-04-26T11:31:26Z</time></trkpt><trkpt lat="44.20841253205686" lon="11.421747395987598"><ele>557.0</ele><time>2026-04-26T11:31:27Z</time></trkpt><trkpt lat="44.208430631376594" lon="11.421914147299512"><ele>557.0</ele><time>2026-04-26T11:31:28Z</time></trkpt><trkpt lat="44.208443007615934" lon="11.422078040103056"><ele>557.0</ele><time>2026-04-26T11:31:29Z</time></trkpt><trkpt lat="44.20847738761499" lon="11.422245075574638"><ele>557.0</ele><time>2026-04-26T11:31:30Z</time></trkpt><trkpt lat="44.208504592051625" lon="11.422396640333762"><ele>557.0</ele><time>2026-04-26T11:31:31Z</time></trkpt><trkpt lat="44.20852703679083" lon="11.42248533167674"><ele>557.0</ele><time>2026-04-26T11:31:32Z</time></trkpt><trkpt lat="44.20853568020054" lon="11.422667815989087"><ele>559.6</ele><time>2026-04-26T11:31:33Z</time></trkpt><trkpt lat="44.20854746315422" lon="11.422808566730248"><ele>562.2</ele><time>2026-04-26T11:31:34Z</time></trkpt><trkpt lat="44.2085548741142" lon="11.422937861082058"><ele>564.8</ele><time>2026-04-26T11:31:35Z</time></trkpt><trkpt lat="44.20856624415963" lon="11.423062175485537"><ele>567.4</ele><time>2026-04-26T11:31:36Z</time></trkpt><trkpt lat="44.208578445975355" lon="11.42318359621024"><ele>570.0</ele><time>2026-04-26T11:31:37Z</time></trkpt><trkpt lat="44.208588930417136" lon="11.423307296092538"><ele>571.0</ele><time>2026-04-26T11:31:38Z</time></trkpt><trkpt lat="44.208606935599164" lon="11.423431633814657"><ele>572.0</ele><time>2026-04-26T11:31:39Z</time></trkpt><trkpt lat="44.208616227147836" lon="11.423530254153297"><ele>573.0</ele><time>2026-04-26T11:31:40Z</time></trkpt><trkpt lat="44.208620672136625" lon="11.42368317911679"><ele>574.0</ele><time>2026-04-26T11:31:42Z</time></trkpt><trkpt lat="44.208584891258006" lon="11.423782705923799"><ele>575.0</ele><time>2026-04-26T11:31:44Z</time></trkpt><trkpt lat="44.208533446764086" lon="11.423847599206175"><ele>576.0</ele><time>2026-04-26T11:31:51Z</time></trkpt><trkpt lat="44.208479001901736" lon="11.423977928935711"><ele>576.0</ele><time>2026-04-26T11:31:53Z</time></trkpt><trkpt lat="44.2084416450988" lon="11.424119852403148"><ele>576.0</ele><time>2026-04-26T11:31:55Z</time></trkpt><trkpt lat="44.208429481157346" lon="11.42420758293193"><ele>576.0</ele><time>2026-04-26T11:33:35Z</time></trkpt><trkpt lat="44.20847016631122" lon="11.424280513022513"><ele>576.0</ele><time>2026-04-26T11:33:38Z</time></trkpt><trkpt lat="44.208572315390356" lon="11.42430981442572"><ele>576.0</ele><time>2026-04-26T11:33:40Z</time></trkpt><trkpt lat="44.20864900451995" lon="11.424303836154355"><ele>576.0</ele><time>2026-04-26T11:33:41Z</time></trkpt><trkpt lat="44.20871703499257" lon="11.42431427651986"><ele>576.0</ele><time>2026-04-26T11:33:43Z</time></trkpt><trkpt lat="44.20880627448913" lon="11.424355996473459"><ele>576.0</ele><time>2026-04-26T11:33:46Z</time></trkpt><trkpt lat="44.208909676560125" lon="11.424441837139563"><ele>576.0</ele><time>2026-04-26T11:33:48Z</time></trkpt><trkpt lat="44.208957130338604" lon="11.424531225631556"><ele>576.0</ele><time>2026-04-26T11:33:49Z</time></trkpt><trkpt lat="44.208997812021614" lon="11.424636099386309"><ele>576.0</ele><time>2026-04-26T11:33:50Z</time></trkpt><trkpt lat="44.209044741702655" lon="11.424726522780075"><ele>573.2</ele><time>2026-04-26T11:33:51Z</time></trkpt><trkpt lat="44.20909436750737" lon="11.424821076104639"><ele>570.4000000000001</ele><time>2026-04-26T11:33:52Z</time></trkpt><trkpt lat="44.20913790892012" lon="11.424921169282348"><ele>567.6</ele><time>2026-04-26T11:33:53Z</time></trkpt><trkpt lat="44.20922542585158" lon="11.425038580230915"><ele>564.8000000000001</ele><time>2026-04-26T11:33:54Z</time></trkpt><trkpt lat="44.20931472722455" lon="11.425146838829553"><ele>562.0</ele><time>2026-04-26T11:33:55.001Z</time></trkpt><trkpt lat="44.209424321468134" lon="11.425236209063574"><ele>562.0</ele><time>2026-04-26T11:33:56.001Z</time></trkpt><trkpt lat="44.209524310329165" lon="11.425332838223765"><ele>562.0</ele><time>2026-04-26T11:33:57.001Z</time></trkpt><trkpt lat="44.209601028259925" lon="11.425430684277819"><ele>562.0</ele><time>2026-04-26T11:33:58.001Z</time></trkpt><trkpt lat="44.20966631668958" lon="11.425524156793209"><ele>562.0</ele><time>2026-04-26T11:33:59.001Z</time></trkpt><trkpt lat="44.20972844407314" lon="11.425605090360065"><ele>562.0</ele><time>2026-04-26T11:34:00.001Z</time></trkpt><trkpt lat="44.20979186507419" lon="11.425668789161417"><ele>563.4</ele><time>2026-04-26T11:34:01.001Z</time></trkpt><trkpt lat="44.20988013794228" lon="11.425691832451111"><ele>564.8000000000001</ele><time>2026-04-26T11:34:02.001Z</time></trkpt><trkpt lat="44.20995758360801" lon="11.425716906074873"><ele>566.2</ele><time>2026-04-26T11:34:03.001Z</time></trkpt><trkpt lat="44.21003307813823" lon="11.425733707540374"><ele>567.6</ele><time>2026-04-26T11:34:04.001Z</time></trkpt><trkpt lat="44.21011844404607" lon="11.425789397356322"><ele>569.0</ele><time>2026-04-26T11:34:05.001Z</time></trkpt><trkpt lat="44.210223888925725" lon="11.425866466125171"><ele>569.0</ele><time>2026-04-26T11:34:06.001Z</time></trkpt><trkpt lat="44.210307354535885" lon="11.425987793698413"><ele>569.0</ele><time>2026-04-26T11:34:07.001Z</time></trkpt><trkpt lat="44.21038214914179" lon="11.426119268980708"><ele>569.0</ele><time>2026-04-26T11:34:08.001Z</time></trkpt><trkpt lat="44.210466922929726" lon="11.426269942834033"><ele>569.0</ele><time>2026-04-26T11:34:09.001Z</time></trkpt><trkpt lat="44.2105385821459" lon="11.42641993914003"><ele>566.25</ele><time>2026-04-26T11:34:10.001Z</time></trkpt><trkpt lat="44.21061331411329" lon="11.426567163327583"><ele>563.5</ele><time>2026-04-26T11:34:11.001Z</time></trkpt><trkpt lat="44.21069900350668" lon="11.426706778222377"><ele>560.75</ele><time>2026-04-26T11:34:12.001Z</time></trkpt><trkpt lat="44.21077669463576" lon="11.426843989942848"><ele>558.0</ele><time>2026-04-26T11:34:13.001Z</time></trkpt><trkpt lat="44.210855211421865" lon="11.426985708411872"><ele>558.0</ele><time>2026-04-26T11:34:14.001Z</time></trkpt><trkpt lat="44.21093629722476" lon="11.427138609161998"><ele>558.0</ele><time>2026-04-26T11:34:15.001Z</time></trkpt><trkpt lat="44.211013428956676" lon="11.427294947575364"><ele>558.0</ele><time>2026-04-26T11:34:16.001Z</time></trkpt><trkpt lat="44.21107562587919" lon="11.427450624924072"><ele>558.0</ele><time>2026-04-26T11:34:17.001Z</time></trkpt><trkpt lat="44.21114317171203" lon="11.427609711028891"><ele>559.75</ele><time>2026-04-26T11:34:18.001Z</time></trkpt><trkpt lat="44.21122193710006" lon="11.427758764337572"><ele>561.5</ele><time>2026-04-26T11:34:19.001Z</time></trkpt><trkpt lat="44.211320816402875" lon="11.427901092603637"><ele>563.25</ele><time>2026-04-26T11:34:20.001Z</time></trkpt><trkpt lat="44.21142049344354" lon="11.428050834699052"><ele>565.0</ele><time>2026-04-26T11:34:21.001Z</time></trkpt><trkpt lat="44.211505991334874" lon="11.42819793073857"><ele>565.0</ele><time>2026-04-26T11:34:22.001Z</time></trkpt><trkpt lat="44.211595238105076" lon="11.428343597733022"><ele>565.0</ele><time>2026-04-26T11:34:23.001Z</time></trkpt><trkpt lat="44.211688483272205" lon="11.428490521838988"><ele>565.0</ele><time>2026-04-26T11:34:24.001Z</time></trkpt><trkpt lat="44.21177515008058" lon="11.428634464346773"><ele>565.0</ele><time>2026-04-26T11:34:25.001Z</time></trkpt><trkpt lat="44.211855478664305" lon="11.428774101997389"><ele>569.5</ele><time>2026-04-26T11:34:26.001Z</time></trkpt><trkpt lat="44.21195401981489" lon="11.428885713105954"><ele>574.0</ele><time>2026-04-26T11:34:27.001Z</time></trkpt><trkpt lat="44.2120605394508" lon="11.428992485974804"><ele>578.5</ele><time>2026-04-26T11:34:28.001Z</time></trkpt><trkpt lat="44.212172906751896" lon="11.429106035386443"><ele>583.0</ele><time>2026-04-26T11:34:29.001Z</time></trkpt><trkpt lat="44.21227605482241" lon="11.429228206213656"><ele>579.0</ele><time>2026-04-26T11:34:30.001Z</time></trkpt><trkpt lat="44.21236713276727" lon="11.429392801655682"><ele>575.0</ele><time>2026-04-26T11:34:31.001Z</time></trkpt><trkpt lat="44.212466815895446" lon="11.429534354822925"><ele>571.0</ele><time>2026-04-26T11:34:32.001Z</time></trkpt><trkpt lat="44.2125787287757" lon="11.429659073035639"><ele>567.0</ele><time>2026-04-26T11:34:33.001Z</time></trkpt><trkpt lat="44.21268994827426" lon="11.429768933000346"><ele>567.0</ele><time>2026-04-26T11:34:34.001Z</time></trkpt><trkpt lat="44.21280398882354" lon="11.429876600983276"><ele>567.0</ele><time>2026-04-26T11:34:35.001Z</time></trkpt><trkpt lat="44.21291391355565" lon="11.429983621317078"><ele>567.0</ele><time>2026-04-26T11:34:36.001Z</time></trkpt><trkpt lat="44.213019719800656" lon="11.430087301033737"><ele>567.0</ele><time>2026-04-26T11:34:37.001Z</time></trkpt><trkpt lat="44.21311590890499" lon="11.430203532111703"><ele>562.6</ele><time>2026-04-26T11:34:38.001Z</time></trkpt><trkpt lat="44.21319489345978" lon="11.430313083104409"><ele>558.2</ele><time>2026-04-26T11:34:39.001Z</time></trkpt><trkpt lat="44.21325652260015" lon="11.430409331806928"><ele>553.8</ele><time>2026-04-26T11:34:40.001Z</time></trkpt><trkpt lat="44.21331541902238" lon="11.430510496042189"><ele>549.4</ele><time>2026-04-26T11:34:41.001Z</time></trkpt><trkpt lat="44.21339057963428" lon="11.430606631495971"><ele>545.0</ele><time>2026-04-26T11:34:42.001Z</time></trkpt><trkpt lat="44.21349342843867" lon="11.430683648930309"><ele>545.0</ele><time>2026-04-26T11:34:43.001Z</time></trkpt><trkpt lat="44.2135782944641" lon="11.430739809153605"><ele>545.0</ele><time>2026-04-26T11:34:44.001Z</time></trkpt><trkpt lat="44.21363411262439" lon="11.430837777544836"><ele>545.0</ele><time>2026-04-26T11:34:45.001Z</time></trkpt><trkpt lat="44.21367760954759" lon="11.431010154061404"><ele>545.0</ele><time>2026-04-26T11:34:47.001Z</time></trkpt><trkpt lat="44.21370855611513" lon="11.431133082832897"><ele>545.0</ele><time>2026-04-26T11:34:48.001Z</time></trkpt><trkpt lat="44.21371777047283" lon="11.431264641065736"><ele>545.8</ele><time>2026-04-26T11:34:49.001Z</time></trkpt><trkpt lat="44.21373473189633" lon="11.431381991275412"><ele>546.6</ele><time>2026-04-26T11:34:50.001Z</time></trkpt><trkpt lat="44.21377438116472" lon="11.43149430229975"><ele>547.4</ele><time>2026-04-26T11:34:51.001Z</time></trkpt><trkpt lat="44.21383991353805" lon="11.431584524734413"><ele>548.2</ele><time>2026-04-26T11:34:52.001Z</time></trkpt><trkpt lat="44.21390514047618" lon="11.431718592169542"><ele>549.0</ele><time>2026-04-26T11:34:53.001Z</time></trkpt><trkpt lat="44.21393831855975" lon="11.431873315995928"><ele>549.0</ele><time>2026-04-26T11:34:54.002Z</time></trkpt><trkpt lat="44.213950998158744" lon="11.432026557025825"><ele>549.0</ele><time>2026-04-26T11:34:55.002Z</time></trkpt><trkpt lat="44.213973749117315" lon="11.432170560358482"><ele>549.0</ele><time>2026-04-26T11:34:56.002Z</time></trkpt><trkpt lat="44.213987136185494" lon="11.432292351455919"><ele>549.0</ele><time>2026-04-26T11:34:57.002Z</time></trkpt><trkpt lat="44.213984930483576" lon="11.432393021888915"><ele>549.0</ele><time>2026-04-26T11:34:58.002Z</time></trkpt><trkpt lat="44.21395368850486" lon="11.43249816407943"><ele>547.0</ele><time>2026-04-26T11:34:59.002Z</time></trkpt><trkpt lat="44.213894256785096" lon="11.432603796968367"><ele>545.0</ele><time>2026-04-26T11:35:00.002Z</time></trkpt><trkpt lat="44.21381174926936" lon="11.432645643671785"><ele>543.0</ele><time>2026-04-26T11:35:01.002Z</time></trkpt><trkpt lat="44.213694236183734" lon="11.432623941152084"><ele>541.0</ele><time>2026-04-26T11:35:02.002Z</time></trkpt><trkpt lat="44.21360133221287" lon="11.432579112004847"><ele>539.0</ele><time>2026-04-26T11:35:03.002Z</time></trkpt><trkpt lat="44.21352759148137" lon="11.432522178302278"><ele>539.0</ele><time>2026-04-26T11:35:04.002Z</time></trkpt><trkpt lat="44.21344584416477" lon="11.432489989247676"><ele>539.0</ele><time>2026-04-26T11:35:05.002Z</time></trkpt><trkpt lat="44.21337565523355" lon="11.432511410145816"><ele>539.0</ele><time>2026-04-26T11:35:06.002Z</time></trkpt><trkpt lat="44.21329058464468" lon="11.43266278974293"><ele>539.0</ele><time>2026-04-26T11:35:08.002Z</time></trkpt><trkpt lat="44.21336023639019" lon="11.432812077292313"><ele>539.0</ele><time>2026-04-26T11:35:09.002Z</time></trkpt><trkpt lat="44.21342872182021" lon="11.432878708529309"><ele>539.0</ele><time>2026-04-26T11:35:10.002Z</time></trkpt><trkpt lat="44.21352192012691" lon="11.432899474180124"><ele>539.0</ele><time>2026-04-26T11:35:11.002Z</time></trkpt><trkpt lat="44.213612451926544" lon="11.43292328246069"><ele>539.0</ele><time>2026-04-26T11:35:12.002Z</time></trkpt><trkpt lat="44.21369429268047" lon="11.432969238149761"><ele>539.0</ele><time>2026-04-26T11:35:13.002Z</time></trkpt><trkpt lat="44.213777676413045" lon="11.433003002212388"><ele>539.0</ele><time>2026-04-26T11:35:14.002Z</time></trkpt><trkpt lat="44.21387525192188" lon="11.433074358792979"><ele>538.8</ele><time>2026-04-26T11:35:15.002Z</time></trkpt><trkpt lat="44.213965816935115" lon="11.433146901577109"><ele>538.5999999999999</ele><time>2026-04-26T11:35:16.002Z</time></trkpt><trkpt lat="44.214037750874326" lon="11.433233314442157"><ele>538.4</ele><time>2026-04-26T11:35:17.002Z</time></trkpt><trkpt lat="44.214143212631754" lon="11.43330944446081"><ele>538.1999999999999</ele><time>2026-04-26T11:35:18.002Z</time></trkpt><trkpt lat="44.21423379642053" lon="11.433436417001536"><ele>538.0</ele><time>2026-04-26T11:35:19.002Z</time></trkpt><trkpt lat="44.21432422081094" lon="11.433573827134833"><ele>533.0</ele><time>2026-04-26T11:35:20.002Z</time></trkpt><trkpt lat="44.21440557111461" lon="11.433695431472026"><ele>528.0</ele><time>2026-04-26T11:35:21.002Z</time></trkpt><trkpt lat="44.21448240006832" lon="11.433814317048279"><ele>523.0</ele><time>2026-04-26T11:35:22.002Z</time></trkpt><trkpt lat="44.2145307870675" lon="11.43391098449752"><ele>518.0</ele><time>2026-04-26T11:35:23.001Z</time></trkpt><trkpt lat="44.21455721080044" lon="11.434009510832897"><ele>513.0</ele><time>2026-04-26T11:35:24.001Z</time></trkpt><trkpt lat="44.21454938610175" lon="11.434143820707424"><ele>513.0</ele><time>2026-04-26T11:35:25.001Z</time></trkpt><trkpt lat="44.214551125482224" lon="11.434307321328314"><ele>513.0</ele><time>2026-04-26T11:35:26.001Z</time></trkpt><trkpt lat="44.21456129113337" lon="11.434458857541582"><ele>513.0</ele><time>2026-04-26T11:35:27.001Z</time></trkpt><trkpt lat="44.21457775127082" lon="11.434603621192588"><ele>513.0</ele><time>2026-04-26T11:35:28.001Z</time></trkpt><trkpt lat="44.21457606865099" lon="11.434730102047645"><ele>513.0</ele><time>2026-04-26T11:35:29Z</time></trkpt><trkpt lat="44.21454242963101" lon="11.434844773829605"><ele>513.0</ele><time>2026-04-26T11:35:30Z</time></trkpt><trkpt lat="44.21448897982362" lon="11.434941366257922"><ele>513.0</ele><time>2026-04-26T11:35:31Z</time></trkpt><trkpt lat="44.21440877242365" lon="11.43503062177958"><ele>513.0</ele><time>2026-04-26T11:35:32Z</time></trkpt><trkpt lat="44.214337576803736" lon="11.4351449966879"><ele>513.0</ele><time>2026-04-26T11:35:33Z</time></trkpt><trkpt lat="44.21431346281748" lon="11.435277582239705"><ele>513.0</ele><time>2026-04-26T11:35:34Z</time></trkpt><trkpt lat="44.21433986053832" lon="11.435421320857776"><ele>512.0</ele><time>2026-04-26T11:35:35Z</time></trkpt><trkpt lat="44.214390718796516" lon="11.435560752516727"><ele>511.0</ele><time>2026-04-26T11:35:36Z</time></trkpt><trkpt lat="44.21443987018102" lon="11.435708792554895"><ele>510.0</ele><time>2026-04-26T11:35:37Z</time></trkpt><trkpt lat="44.21446534351012" lon="11.435879662250462"><ele>509.0</ele><time>2026-04-26T11:35:38Z</time></trkpt><trkpt lat="44.21446370421977" lon="11.436080765156477"><ele>509.0</ele><time>2026-04-26T11:35:39Z</time></trkpt><trkpt lat="44.21445525558955" lon="11.436292690921427"><ele>509.0</ele><time>2026-04-26T11:35:40Z</time></trkpt><trkpt lat="44.21444976328035" lon="11.43650632131063"><ele>509.0</ele><time>2026-04-26T11:35:41Z</time></trkpt><trkpt lat="44.21444875098434" lon="11.43671389401564"><ele>509.75</ele><time>2026-04-26T11:35:42Z</time></trkpt><trkpt lat="44.21445334052575" lon="11.436904250659973"><ele>510.5</ele><time>2026-04-26T11:35:43Z</time></trkpt><trkpt lat="44.21446416695924" lon="11.437080164881904"><ele>511.25</ele><time>2026-04-26T11:35:44Z</time></trkpt><trkpt lat="44.21446592478455" lon="11.437272384338343"><ele>512.0</ele><time>2026-04-26T11:35:45Z</time></trkpt><trkpt lat="44.214465499568085" lon="11.437447283739921"><ele>515.0</ele><time>2026-04-26T11:35:46Z</time></trkpt><trkpt lat="44.214651409245" lon="11.437619693417856"><ele>518.0</ele><time>2026-04-26T11:35:47Z</time></trkpt><trkpt lat="44.21472555995395" lon="11.437781065328858"><ele>521.0</ele><time>2026-04-26T11:35:48Z</time></trkpt><trkpt lat="44.21476725704256" lon="11.43794483150781"><ele>522.3333333333333</ele><time>2026-04-26T11:35:49Z</time></trkpt><trkpt lat="44.2147685621252" lon="11.43814414615764"><ele>523.6666666666666</ele><time>2026-04-26T11:35:50Z</time></trkpt><trkpt lat="44.214746673944845" lon="11.43836889988268"><ele>525.0</ele><time>2026-04-26T11:35:51.001Z</time></trkpt><trkpt lat="44.21472241699158" lon="11.438589327318637"><ele>526.0</ele><time>2026-04-26T11:35:52.001Z</time></trkpt><trkpt lat="44.21473705933385" lon="11.43880862354782"><ele>527.0</ele><time>2026-04-26T11:35:53.001Z</time></trkpt><trkpt lat="44.21480148690007" lon="11.439018360858432"><ele>528.0</ele><time>2026-04-26T11:35:54.001Z</time></trkpt><trkpt lat="44.21488741640451" lon="11.439215655665524"><ele>517.6666666666666</ele><time>2026-04-26T11:35:55.001Z</time></trkpt><trkpt lat="44.214956692516004" lon="11.4394022146263"><ele>507.3333333333333</ele><time>2026-04-26T11:35:56.001Z</time></trkpt><trkpt lat="44.21495899708382" lon="11.43960764547652"><ele>497.0</ele><time>2026-04-26T11:35:57.001Z</time></trkpt><trkpt lat="44.21493864624268" lon="11.439834187874483"><ele>497.0</ele><time>2026-04-26T11:35:58.001Z</time></trkpt><trkpt lat="44.21492945787023" lon="11.440039870862526"><ele>497.0</ele><time>2026-04-26T11:35:59.001Z</time></trkpt><trkpt lat="44.214932681045404" lon="11.440235667004192"><ele>497.0</ele><time>2026-04-26T11:36:00.001Z</time></trkpt><trkpt lat="44.21492728805231" lon="11.440420818727182"><ele>497.0</ele><time>2026-04-26T11:36:01.001Z</time></trkpt><trkpt lat="44.21490775215255" lon="11.440595324753808"><ele>496.25</ele><time>2026-04-26T11:36:02.001Z</time></trkpt><trkpt lat="44.214852736161305" lon="11.440767359040027"><ele>495.5</ele><time>2026-04-26T11:36:03.001Z</time></trkpt><trkpt lat="44.214770020197705" lon="11.44093001083437"><ele>494.75</ele><time>2026-04-26T11:36:04.001Z</time></trkpt><trkpt lat="44.214693289607794" lon="11.44110160647812"><ele>494.0</ele><time>2026-04-26T11:36:05.001Z</time></trkpt><trkpt lat="44.21464573392433" lon="11.441275789774966"><ele>500.0</ele><time>2026-04-26T11:36:06.001Z</time></trkpt><trkpt lat="44.21463900444559" lon="11.441458403919388"><ele>506.0</ele><time>2026-04-26T11:36:07.001Z</time></trkpt><trkpt lat="44.214662886277914" lon="11.441650043574988"><ele>512.0</ele><time>2026-04-26T11:36:08.001Z</time></trkpt><trkpt lat="44.214712608296644" lon="11.441827373211375"><ele>518.0</ele><time>2026-04-26T11:36:09.001Z</time></trkpt><trkpt lat="44.21477112077705" lon="11.442029069293403"><ele>521.3333333333333</ele><time>2026-04-26T11:36:10.001Z</time></trkpt><trkpt lat="44.21481802682575" lon="11.44223091224847"><ele>524.6666666666666</ele><time>2026-04-26T11:36:11.001Z</time></trkpt><trkpt lat="44.214862876068416" lon="11.442438456554555"><ele>528.0</ele><time>2026-04-26T11:36:12.001Z</time></trkpt><trkpt lat="44.21489546232007" lon="11.44264392665941"><ele>523.0</ele><time>2026-04-26T11:36:13.001Z</time></trkpt><trkpt lat="44.2149413343068" lon="11.442854738857747"><ele>518.0</ele><time>2026-04-26T11:36:14.001Z</time></trkpt><trkpt lat="44.214977985991965" lon="11.443047515291775"><ele>513.0</ele><time>2026-04-26T11:36:15.001Z</time></trkpt><trkpt lat="44.21505153939284" lon="11.443211731222329"><ele>508.0</ele><time>2026-04-26T11:36:16.001Z</time></trkpt><trkpt lat="44.21515400818054" lon="11.443363777105253"><ele>508.0</ele><time>2026-04-26T11:36:17.001Z</time></trkpt><trkpt lat="44.21526640978593" lon="11.44350306576373"><ele>508.0</ele><time>2026-04-26T11:36:18.001Z</time></trkpt><trkpt lat="44.215367839638226" lon="11.443651023599253"><ele>508.0</ele><time>2026-04-26T11:36:19.001Z</time></trkpt><trkpt lat="44.21547455880622" lon="11.44380668902322"><ele>510.5</ele><time>2026-04-26T11:36:20.001Z</time></trkpt><trkpt lat="44.21557085361983" lon="11.443949953433917"><ele>513.0</ele><time>2026-04-26T11:36:21.001Z</time></trkpt><trkpt lat="44.215637844649" lon="11.444098674477019"><ele>515.5</ele><time>2026-04-26T11:36:22.001Z</time></trkpt><trkpt lat="44.21566672735277" lon="11.444260474455783"><ele>518.0</ele><time>2026-04-26T11:36:23.001Z</time></trkpt><trkpt lat="44.21566775686413" lon="11.444423611711608"><ele>518.0</ele><time>2026-04-26T11:36:24.001Z</time></trkpt><trkpt lat="44.215626780201895" lon="11.44458172964697"><ele>518.0</ele><time>2026-04-26T11:36:25.001Z</time></trkpt><trkpt lat="44.21554151548609" lon="11.444709811392059"><ele>518.0</ele><time>2026-04-26T11:36:26.001Z</time></trkpt><trkpt lat="44.21546396187482" lon="11.444854127359536"><ele>518.0</ele><time>2026-04-26T11:36:27.001Z</time></trkpt><trkpt lat="44.21539107991087" lon="11.444999203794353"><ele>518.25</ele><time>2026-04-26T11:36:28.001Z</time></trkpt><trkpt lat="44.215371631973696" lon="11.445173001195117"><ele>518.5</ele><time>2026-04-26T11:36:29.001Z</time></trkpt><trkpt lat="44.21539895610133" lon="11.445360364160543"><ele>518.75</ele><time>2026-04-26T11:36:30.001Z</time></trkpt><trkpt lat="44.21544791605247" lon="11.445556788336564"><ele>519.0</ele><time>2026-04-26T11:36:31.001Z</time></trkpt><trkpt lat="44.215496763151314" lon="11.445769224650528"><ele>519.3333333333334</ele><time>2026-04-26T11:36:32.001Z</time></trkpt><trkpt lat="44.215550220555464" lon="11.445974760498569"><ele>519.6666666666667</ele><time>2026-04-26T11:36:33.001Z</time></trkpt><trkpt lat="44.21558428433876" lon="11.446190784799704"><ele>520.0</ele><time>2026-04-26T11:36:34.001Z</time></trkpt><trkpt lat="44.21562435172691" lon="11.446400649708375"><ele>515.6666666666667</ele><time>2026-04-26T11:36:35.001Z</time></trkpt><trkpt lat="44.21568136704333" lon="11.446596803967216"><ele>511.33333333333337</ele><time>2026-04-26T11:36:36.001Z</time></trkpt><trkpt lat="44.21573691487096" lon="11.446786217972363"><ele>507.0</ele><time>2026-04-26T11:36:37.001Z</time></trkpt><trkpt lat="44.21583003016161" lon="11.446955701550797"><ele>507.0</ele><time>2026-04-26T11:36:38.001Z</time></trkpt><trkpt lat="44.21594848109554" lon="11.447098505884485"><ele>507.0</ele><time>2026-04-26T11:36:39.001Z</time></trkpt><trkpt lat="44.21606720685866" lon="11.447235990512242"><ele>507.0</ele><time>2026-04-26T11:36:40.001Z</time></trkpt><trkpt lat="44.21618976814778" lon="11.447378530404873"><ele>505.75</ele><time>2026-04-26T11:36:41.001Z</time></trkpt><trkpt lat="44.21630215035551" lon="11.447533764447341"><ele>504.5</ele><time>2026-04-26T11:36:42.001Z</time></trkpt><trkpt lat="44.21641443327571" lon="11.447668334445257"><ele>503.25</ele><time>2026-04-26T11:36:43.001Z</time></trkpt><trkpt lat="44.216525941841795" lon="11.447777877381185"><ele>502.0</ele><time>2026-04-26T11:36:44.001Z</time></trkpt><trkpt lat="44.216664081377814" lon="11.447861014528995"><ele>502.0</ele><time>2026-04-26T11:36:45.001Z</time></trkpt><trkpt lat="44.21682036679368" lon="11.447906445668202"><ele>502.0</ele><time>2026-04-26T11:36:46.001Z</time></trkpt><trkpt lat="44.21698100058237" lon="11.44793287683315"><ele>502.0</ele><time>2026-04-26T11:36:47.001Z</time></trkpt><trkpt lat="44.217151817875326" lon="11.44795685177749"><ele>504.0</ele><time>2026-04-26T11:36:48.001Z</time></trkpt><trkpt lat="44.21732007696723" lon="11.447991817641286"><ele>506.0</ele><time>2026-04-26T11:36:49.001Z</time></trkpt><trkpt lat="44.21748474674436" lon="11.44804278847833"><ele>508.0</ele><time>2026-04-26T11:36:50.001Z</time></trkpt><trkpt lat="44.21764258529157" lon="11.448110734957195"><ele>508.0</ele><time>2026-04-26T11:36:51.001Z</time></trkpt><trkpt lat="44.217800949462784" lon="11.448197468787452"><ele>508.0</ele><time>2026-04-26T11:36:52.001Z</time></trkpt><trkpt lat="44.21796133983372" lon="11.448285533581247"><ele>508.0</ele><time>2026-04-26T11:36:53.001Z</time></trkpt><trkpt lat="44.2181249096522" lon="11.448370461070386"><ele>504.0</ele><time>2026-04-26T11:36:54.001Z</time></trkpt><trkpt lat="44.218286964741495" lon="11.448442812348265"><ele>500.0</ele><time>2026-04-26T11:36:55.002Z</time></trkpt><trkpt lat="44.21844275547167" lon="11.448511625808274"><ele>496.0</ele><time>2026-04-26T11:36:56.002Z</time></trkpt><trkpt lat="44.218596330335494" lon="11.44858686972196"><ele>496.0</ele><time>2026-04-26T11:36:57.002Z</time></trkpt><trkpt lat="44.21873349801125" lon="11.448670330457778"><ele>496.0</ele><time>2026-04-26T11:36:58.002Z</time></trkpt><trkpt lat="44.21886186358269" lon="11.448753290505199"><ele>496.0</ele><time>2026-04-26T11:36:59.002Z</time></trkpt><trkpt lat="44.21898331996928" lon="11.44885902870117"><ele>496.0</ele><time>2026-04-26T11:37:00.002Z</time></trkpt><trkpt lat="44.21908347912967" lon="11.44900002967642"><ele>496.0</ele><time>2026-04-26T11:37:01.002Z</time></trkpt><trkpt lat="44.21917965393841" lon="11.449147529954194"><ele>496.0</ele><time>2026-04-26T11:37:02.002Z</time></trkpt><trkpt lat="44.21927307803073" lon="11.449297282295628"><ele>496.0</ele><time>2026-04-26T11:37:03.002Z</time></trkpt><trkpt lat="44.219362231374724" lon="11.449446750165379"><ele>496.0</ele><time>2026-04-26T11:37:04.002Z</time></trkpt><trkpt lat="44.21944475009978" lon="11.449596818123075"><ele>498.75</ele><time>2026-04-26T11:37:05.002Z</time></trkpt><trkpt lat="44.21951095239742" lon="11.449754574629225"><ele>501.5</ele><time>2026-04-26T11:37:06.002Z</time></trkpt><trkpt lat="44.21956102882744" lon="11.449926081978953"><ele>504.25</ele><time>2026-04-26T11:37:07.002Z</time></trkpt><trkpt lat="44.21960206675095" lon="11.450103919886773"><ele>507.0</ele><time>2026-04-26T11:37:08.002Z</time></trkpt><trkpt lat="44.21962736989893" lon="11.450272153614067"><ele>507.0</ele><time>2026-04-26T11:37:09.002Z</time></trkpt><trkpt lat="44.21964341981624" lon="11.450440325179445"><ele>507.00000000000006</ele><time>2026-04-26T11:37:10.002Z</time></trkpt><trkpt lat="44.219682693157864" lon="11.450606785124464"><ele>507.00000000000006</ele><time>2026-04-26T11:37:11.002Z</time></trkpt><trkpt lat="44.2197269631161" lon="11.450734436516578"><ele>507.0</ele><time>2026-04-26T11:37:12.002Z</time></trkpt><trkpt lat="44.219796797204665" lon="11.450831542730093"><ele>507.0</ele><time>2026-04-26T11:37:13.002Z</time></trkpt><trkpt lat="44.21987808748154" lon="11.450897666407014"><ele>506.3333333333333</ele><time>2026-04-26T11:37:14.002Z</time></trkpt><trkpt lat="44.21996044744685" lon="11.45094063277166"><ele>505.66666666666663</ele><time>2026-04-26T11:37:15.002Z</time></trkpt><trkpt lat="44.22004544482467" lon="11.450960632471226"><ele>505.0</ele><time>2026-04-26T11:37:16.002Z</time></trkpt><trkpt lat="44.22013431938636" lon="11.45093164417401"><ele>504.3333333333333</ele><time>2026-04-26T11:37:17.002Z</time></trkpt><trkpt lat="44.22020721203003" lon="11.450950676751567"><ele>503.66666666666663</ele><time>2026-04-26T11:37:18.002Z</time></trkpt><trkpt lat="44.2202834626044" lon="11.451009773500441"><ele>503.0</ele><time>2026-04-26T11:37:19.002Z</time></trkpt><trkpt lat="44.22036910559814" lon="11.451088251062886"><ele>503.0</ele><time>2026-04-26T11:37:20.002Z</time></trkpt><trkpt lat="44.22043816210882" lon="11.45118929678841"><ele>502.99999999999994</ele><time>2026-04-26T11:37:21.002Z</time></trkpt><trkpt lat="44.2205144193076" lon="11.451292213701114"><ele>502.99999999999994</ele><time>2026-04-26T11:37:22.002Z</time></trkpt><trkpt lat="44.22056982749526" lon="11.451414784217768"><ele>503.0</ele><time>2026-04-26T11:37:23.002Z</time></trkpt><trkpt lat="44.220634655997294" lon="11.451524572821532"><ele>503.0</ele><time>2026-04-26T11:37:24.002Z</time></trkpt><trkpt lat="44.22072268643206" lon="11.451613258775438"><ele>503.0</ele><time>2026-04-26T11:37:25.002Z</time></trkpt><trkpt lat="44.220834423438234" lon="11.451663888509245"><ele>503.0</ele><time>2026-04-26T11:37:26.002Z</time></trkpt><trkpt lat="44.22095682502363" lon="11.451702866055115"><ele>503.0</ele><time>2026-04-26T11:37:27.002Z</time></trkpt><trkpt lat="44.22106126665686" lon="11.451770123850872"><ele>503.0</ele><time>2026-04-26T11:37:28.002Z</time></trkpt><trkpt lat="44.22116941295814" lon="11.451850161966329"><ele>503.0</ele><time>2026-04-26T11:37:29Z</time></trkpt><trkpt lat="44.2212655754949" lon="11.451935188775"><ele>503.0</ele><time>2026-04-26T11:37:30Z</time></trkpt><trkpt lat="44.2213663305939" lon="11.452034343981513"><ele>503.0</ele><time>2026-04-26T11:37:31Z</time></trkpt><trkpt lat="44.22146613138995" lon="11.452141204503706"><ele>503.0</ele><time>2026-04-26T11:37:32Z</time></trkpt><trkpt lat="44.22156039302395" lon="11.45224994775992"><ele>502.25</ele><time>2026-04-26T11:37:33Z</time></trkpt><trkpt lat="44.221653697181914" lon="11.452361489694288"><ele>501.5</ele><time>2026-04-26T11:37:34Z</time></trkpt><trkpt lat="44.22174346600485" lon="11.45247629379229"><ele>500.75</ele><time>2026-04-26T11:37:35Z</time></trkpt><trkpt lat="44.22184454682771" lon="11.452582192333345"><ele>500.0</ele><time>2026-04-26T11:37:36Z</time></trkpt><trkpt lat="44.221922378586626" lon="11.452720226558672"><ele>500.0</ele><time>2026-04-26T11:37:37Z</time></trkpt><trkpt lat="44.22200161285107" lon="11.452866438346371"><ele>500.0</ele><time>2026-04-26T11:37:38Z</time></trkpt><trkpt lat="44.2220843381947" lon="11.453007621205009"><ele>500.0</ele><time>2026-04-26T11:37:39Z</time></trkpt><trkpt lat="44.2221706252255" lon="11.453148535960901"><ele>500.0</ele><time>2026-04-26T11:37:40Z</time></trkpt><trkpt lat="44.22226148883132" lon="11.453279699541488"><ele>499.0</ele><time>2026-04-26T11:37:41Z</time></trkpt><trkpt lat="44.22235108337115" lon="11.453383056244121"><ele>498.0</ele><time>2026-04-26T11:37:42Z</time></trkpt><trkpt lat="44.222443583597055" lon="11.453468658383413"><ele>497.0</ele><time>2026-04-26T11:37:43Z</time></trkpt><trkpt lat="44.22254771430398" lon="11.453544434768872"><ele>496.0</ele><time>2026-04-26T11:37:44Z</time></trkpt><trkpt lat="44.222667848509516" lon="11.45361972770726"><ele>496.0</ele><time>2026-04-26T11:37:45Z</time></trkpt><trkpt lat="44.222792402020325" lon="11.453704223415146"><ele>496.0</ele><time>2026-04-26T11:37:46Z</time></trkpt><trkpt lat="44.222916081696795" lon="11.453816757128946"><ele>496.0</ele><time>2026-04-26T11:37:47Z</time></trkpt><trkpt lat="44.223025576114566" lon="11.453893350430242"><ele>496.0</ele><time>2026-04-26T11:37:48Z</time></trkpt><trkpt lat="44.2230999370563" lon="11.454017424073202"><ele>496.1666666666667</ele><time>2026-04-26T11:37:49Z</time></trkpt><trkpt lat="44.223146871795784" lon="11.454157488886006"><ele>496.33333333333337</ele><time>2026-04-26T11:37:50Z</time></trkpt><trkpt lat="44.223182527319544" lon="11.45429121861313"><ele>496.5</ele><time>2026-04-26T11:37:51Z</time></trkpt><trkpt lat="44.22320676353443" lon="11.454404997969892"><ele>496.66666666666663</ele><time>2026-04-26T11:37:52Z</time></trkpt><trkpt lat="44.22321647667004" lon="11.454505141151412"><ele>496.8333333333333</ele><time>2026-04-26T11:37:53Z</time></trkpt><trkpt lat="44.22318752784441" lon="11.454605273173062"><ele>497.0</ele><time>2026-04-26T11:37:54Z</time></trkpt><trkpt lat="44.22317793697151" lon="11.454701320127654"><ele>497.0</ele><time>2026-04-26T11:37:55Z</time></trkpt><trkpt lat="44.22318916357667" lon="11.454812106229662"><ele>497.0</ele><time>2026-04-26T11:37:56Z</time></trkpt><trkpt lat="44.223226297295184" lon="11.454884171962997"><ele>497.0</ele><time>2026-04-26T11:37:57Z</time></trkpt><trkpt lat="44.223031808536696" lon="11.455041497407082"><ele>497.0</ele><time>2026-04-26T11:37:58Z</time></trkpt><trkpt lat="44.22294842876795" lon="11.455147333788796"><ele>500.0</ele><time>2026-04-26T11:38:00.001Z</time></trkpt><trkpt lat="44.222900183151204" lon="11.455230641823034"><ele>503.00000000000006</ele><time>2026-04-26T11:38:01.001Z</time></trkpt><trkpt lat="44.22293795455838" lon="11.45541988904434"><ele>506.00000000000006</ele><time>2026-04-26T11:38:03.001Z</time></trkpt><trkpt lat="44.222968451835136" lon="11.455536255301276"><ele>509.0</ele><time>2026-04-26T11:38:04.001Z</time></trkpt><trkpt lat="44.22299484444208" lon="11.455665625694984"><ele>512.0</ele><time>2026-04-26T11:38:05.001Z</time></trkpt><trkpt lat="44.22302161966607" lon="11.45579582101407"><ele>513.1666666666666</ele><time>2026-04-26T11:38:06.001Z</time></trkpt><trkpt lat="44.22304690518192" lon="11.455916491475401"><ele>514.3333333333333</ele><time>2026-04-26T11:38:07.001Z</time></trkpt><trkpt lat="44.223066457307624" lon="11.456026665669734"><ele>515.5</ele><time>2026-04-26T11:38:08.001Z</time></trkpt><trkpt lat="44.22308093059549" lon="11.45612768136883"><ele>516.6666666666666</ele><time>2026-04-26T11:38:09.001Z</time></trkpt><trkpt lat="44.22309842546377" lon="11.456225870786376"><ele>517.8333333333334</ele><time>2026-04-26T11:38:10.001Z</time></trkpt><trkpt lat="44.22311796715086" lon="11.456319549690347"><ele>519.0</ele><time>2026-04-26T11:38:11.001Z</time></trkpt><trkpt lat="44.22316457790119" lon="11.456467400392008"><ele>519.0</ele><time>2026-04-26T11:38:13.001Z</time></trkpt><trkpt lat="44.22321597007948" lon="11.456550920634669"><ele>519.0</ele><time>2026-04-26T11:38:15.001Z</time></trkpt><trkpt lat="44.22338484539201" lon="11.456546305744213"><ele>519.0</ele><time>2026-04-26T11:39:09.001Z</time></trkpt><trkpt lat="44.22344949741725" lon="11.456554098552708"><ele>519.0</ele><time>2026-04-26T11:39:10.002Z</time></trkpt><trkpt lat="44.22352587214264" lon="11.456543909475629"><ele>519.0</ele><time>2026-04-26T11:39:11.002Z</time></trkpt><trkpt lat="44.22359977174419" lon="11.4565158928304"><ele>519.0</ele><time>2026-04-26T11:39:12.002Z</time></trkpt><trkpt lat="44.223689638119644" lon="11.456506383192046"><ele>519.0</ele><time>2026-04-26T11:39:13.002Z</time></trkpt><trkpt lat="44.223777283116995" lon="11.456475296936437"><ele>519.0</ele><time>2026-04-26T11:39:14.002Z</time></trkpt><trkpt lat="44.223868694478945" lon="11.456449931661188"><ele>519.0</ele><time>2026-04-26T11:39:15.002Z</time></trkpt><trkpt lat="44.223954117359554" lon="11.456451051089863"><ele>519.0</ele><time>2026-04-26T11:39:16.002Z</time></trkpt><trkpt lat="44.22403723651633" lon="11.456470914211641"><ele>519.0</ele><time>2026-04-26T11:39:17.002Z</time></trkpt><trkpt lat="44.22412533820204" lon="11.456524809371727"><ele>516.25</ele><time>2026-04-26T11:39:18.002Z</time></trkpt><trkpt lat="44.22422961537958" lon="11.45659233152862"><ele>513.5</ele><time>2026-04-26T11:39:19.002Z</time></trkpt><trkpt lat="44.224347690678" lon="11.45664434894703"><ele>510.75</ele><time>2026-04-26T11:39:20.002Z</time></trkpt><trkpt lat="44.22446160684908" lon="11.456722053058453"><ele>508.0</ele><time>2026-04-26T11:39:21.002Z</time></trkpt><trkpt lat="44.22457723904067" lon="11.456794978892805"><ele>508.0</ele><time>2026-04-26T11:39:22.002Z</time></trkpt><trkpt lat="44.22468505024965" lon="11.456888459412122"><ele>508.0</ele><time>2026-04-26T11:39:23.002Z</time></trkpt><trkpt lat="44.22480332561674" lon="11.456940625592804"><ele>508.0</ele><time>2026-04-26T11:39:24.002Z</time></trkpt><trkpt lat="44.224914232275985" lon="11.457009449287483"><ele>508.0</ele><time>2026-04-26T11:39:25.002Z</time></trkpt><trkpt lat="44.225020226091516" lon="11.457068884845715"><ele>506.79999999999995</ele><time>2026-04-26T11:39:26.002Z</time></trkpt><trkpt lat="44.22511497286246" lon="11.457129188999629"><ele>505.59999999999997</ele><time>2026-04-26T11:39:27.002Z</time></trkpt><trkpt lat="44.225184078856735" lon="11.457218794339157"><ele>504.40000000000003</ele><time>2026-04-26T11:39:28.002Z</time></trkpt><trkpt lat="44.22523765460151" lon="11.457326089584527"><ele>503.20000000000005</ele><time>2026-04-26T11:39:29.002Z</time></trkpt><trkpt lat="44.225276998716254" lon="11.457439628397825"><ele>502.0</ele><time>2026-04-26T11:39:30.002Z</time></trkpt><trkpt lat="44.2253216654399" lon="11.457526341566421"><ele>502.0</ele><time>2026-04-26T11:39:31.002Z</time></trkpt><trkpt lat="44.22539075980266" lon="11.457574029687688"><ele>502.00000000000006</ele><time>2026-04-26T11:39:32.002Z</time></trkpt><trkpt lat="44.22547825349094" lon="11.457579343034139"><ele>502.00000000000006</ele><time>2026-04-26T11:39:33.002Z</time></trkpt><trkpt lat="44.225547133727545" lon="11.457562002296132"><ele>502.0</ele><time>2026-04-26T11:39:34.002Z</time></trkpt><trkpt lat="44.22558788269297" lon="11.457706757696245"><ele>502.0</ele><time>2026-04-26T11:39:35Z</time></trkpt><trkpt lat="44.22565879948656" lon="11.457812126631728"><ele>500.0</ele><time>2026-04-26T11:39:36Z</time></trkpt><trkpt lat="44.22571148351271" lon="11.457946582994875"><ele>498.00000000000006</ele><time>2026-04-26T11:39:37Z</time></trkpt><trkpt lat="44.225776833376315" lon="11.458090102214861"><ele>496.00000000000006</ele><time>2026-04-26T11:39:38Z</time></trkpt><trkpt lat="44.22582519213967" lon="11.458232877127804"><ele>494.0</ele><time>2026-04-26T11:39:39Z</time></trkpt><trkpt lat="44.22582748696202" lon="11.45836675719134"><ele>492.0</ele><time>2026-04-26T11:39:40Z</time></trkpt><trkpt lat="44.22578821639682" lon="11.458485338002324"><ele>492.0</ele><time>2026-04-26T11:39:41Z</time></trkpt><trkpt lat="44.22572258034408" lon="11.458580678283168"><ele>492.00000000000006</ele><time>2026-04-26T11:39:42Z</time></trkpt><trkpt lat="44.22564266337128" lon="11.458641322143308"><ele>492.00000000000006</ele><time>2026-04-26T11:39:43Z</time></trkpt><trkpt lat="44.22555087777763" lon="11.458703002238247"><ele>492.0</ele><time>2026-04-26T11:39:44Z</time></trkpt><trkpt lat="44.22545878963528" lon="11.458731634506568"><ele>492.0</ele><time>2026-04-26T11:39:45Z</time></trkpt><trkpt lat="44.22538145697322" lon="11.458746540337613"><ele>490.75</ele><time>2026-04-26T11:39:46Z</time></trkpt><trkpt lat="44.2252806892735" lon="11.458733718072446"><ele>489.5</ele><time>2026-04-26T11:39:48Z</time></trkpt><trkpt lat="44.22521055745489" lon="11.45875067490862"><ele>488.25</ele><time>2026-04-26T11:39:50Z</time></trkpt><trkpt lat="44.225039158295154" lon="11.458879780774776"><ele>487.0</ele><time>2026-04-26T11:41:47Z</time></trkpt><trkpt lat="44.22494052341552" lon="11.458888519361016"><ele>487.0</ele><time>2026-04-26T11:41:48Z</time></trkpt><trkpt lat="44.224824750693706" lon="11.45885606680873"><ele>487.0</ele><time>2026-04-26T11:41:49Z</time></trkpt><trkpt lat="44.22471068198591" lon="11.45889128791456"><ele>487.0</ele><time>2026-04-26T11:41:50Z</time></trkpt><trkpt lat="44.224588311925125" lon="11.45894029388861"><ele>487.0</ele><time>2026-04-26T11:41:51Z</time></trkpt><trkpt lat="44.22447899297764" lon="11.459002849252075"><ele>492.75</ele><time>2026-04-26T11:41:52Z</time></trkpt><trkpt lat="44.22437074926267" lon="11.4590731113613"><ele>498.5</ele><time>2026-04-26T11:41:53Z</time></trkpt><trkpt lat="44.22425775095715" lon="11.45914983802257"><ele>504.25</ele><time>2026-04-26T11:41:54Z</time></trkpt><trkpt lat="44.22414630685624" lon="11.459227288590775"><ele>510.0</ele><time>2026-04-26T11:41:55Z</time></trkpt><trkpt lat="44.224052186253545" lon="11.45936275551321"><ele>509.0</ele><time>2026-04-26T11:41:56Z</time></trkpt><trkpt lat="44.223927166903316" lon="11.459439495465034"><ele>508.0</ele><time>2026-04-26T11:41:57Z</time></trkpt><trkpt lat="44.223804471873926" lon="11.459533200574613"><ele>507.0</ele><time>2026-04-26T11:41:58Z</time></trkpt><trkpt lat="44.223674799799284" lon="11.459577547326775"><ele>506.0</ele><time>2026-04-26T11:41:59Z</time></trkpt><trkpt lat="44.22354847347217" lon="11.459652779584557"><ele>506.0</ele><time>2026-04-26T11:42:00Z</time></trkpt><trkpt lat="44.22342729929108" lon="11.459741403742683"><ele>506.0</ele><time>2026-04-26T11:42:01Z</time></trkpt><trkpt lat="44.223327115906194" lon="11.459821160408834"><ele>506.0</ele><time>2026-04-26T11:42:02Z</time></trkpt><trkpt lat="44.22323547516932" lon="11.45989725735568"><ele>506.0</ele><time>2026-04-26T11:42:03Z</time></trkpt><trkpt lat="44.22313862389029" lon="11.460020159477176"><ele>513.5</ele><time>2026-04-26T11:42:04Z</time></trkpt><trkpt lat="44.223063082344" lon="11.460162712327655"><ele>521.0</ele><time>2026-04-26T11:42:05Z</time></trkpt><trkpt lat="44.22300619020255" lon="11.460299069693377"><ele>528.5</ele><time>2026-04-26T11:42:06Z</time></trkpt><trkpt lat="44.22298103220219" lon="11.460477795175798"><ele>536.0</ele><time>2026-04-26T11:42:07Z</time></trkpt><trkpt lat="44.22297533325297" lon="11.460660193081212"><ele>536.0</ele><time>2026-04-26T11:42:08Z</time></trkpt><trkpt lat="44.22299857827469" lon="11.460852736303455"><ele>536.0</ele><time>2026-04-26T11:42:09Z</time></trkpt><trkpt lat="44.22301110191284" lon="11.461047857492517"><ele>536.0</ele><time>2026-04-26T11:42:10Z</time></trkpt><trkpt lat="44.2230104499732" lon="11.461236550461075"><ele>536.0</ele><time>2026-04-26T11:42:11Z</time></trkpt><trkpt lat="44.22301638760293" lon="11.461433901774601"><ele>536.25</ele><time>2026-04-26T11:42:12Z</time></trkpt><trkpt lat="44.2230365481194" lon="11.461621511635002"><ele>536.5</ele><time>2026-04-26T11:42:13Z</time></trkpt><trkpt lat="44.22306061383237" lon="11.461788431197887"><ele>536.75</ele><time>2026-04-26T11:42:14Z</time></trkpt><trkpt lat="44.22306383493903" lon="11.461945525253121"><ele>537.0</ele><time>2026-04-26T11:42:15Z</time></trkpt><trkpt lat="44.2230348863924" lon="11.462105919451941"><ele>532.25</ele><time>2026-04-26T11:42:16Z</time></trkpt><trkpt lat="44.22297430976798" lon="11.462264148351354"><ele>527.5</ele><time>2026-04-26T11:42:17Z</time></trkpt><trkpt lat="44.222897251963715" lon="11.46239054615062"><ele>522.75</ele><time>2026-04-26T11:42:18Z</time></trkpt><trkpt lat="44.22280630937598" lon="11.46250868689462"><ele>518.0</ele><time>2026-04-26T11:42:19Z</time></trkpt><trkpt lat="44.22269806525898" lon="11.462600706575921"><ele>518.0</ele><time>2026-04-26T11:42:20Z</time></trkpt><trkpt lat="44.222558602491276" lon="11.46264489276677"><ele>518.0</ele><time>2026-04-26T11:42:21Z</time></trkpt><trkpt lat="44.222432493653294" lon="11.462735445875206"><ele>518.0</ele><time>2026-04-26T11:42:22.001Z</time></trkpt><trkpt lat="44.22231783671193" lon="11.462826838039444"><ele>518.0</ele><time>2026-04-26T11:42:23.001Z</time></trkpt><trkpt lat="44.22222486712647" lon="11.462897283360716"><ele>520.0</ele><time>2026-04-26T11:42:24.001Z</time></trkpt><trkpt lat="44.222140987601584" lon="11.462971433590713"><ele>522.0</ele><time>2026-04-26T11:42:25.001Z</time></trkpt><trkpt lat="44.222083695386" lon="11.463108438316937"><ele>524.0</ele><time>2026-04-26T11:42:26.001Z</time></trkpt><trkpt lat="44.22205952198561" lon="11.463280545474595"><ele>526.0</ele><time>2026-04-26T11:42:27.001Z</time></trkpt><trkpt lat="44.2220682574899" lon="11.463472562845222"><ele>526.0</ele><time>2026-04-26T11:42:28.001Z</time></trkpt><trkpt lat="44.22210570140368" lon="11.463683291104743"><ele>526.0</ele><time>2026-04-26T11:42:29.001Z</time></trkpt><trkpt lat="44.2221813212531" lon="11.46390820590507"><ele>526.0</ele><time>2026-04-26T11:42:30.001Z</time></trkpt><trkpt lat="44.22228315373327" lon="11.464118410529757"><ele>520.6666666666667</ele><time>2026-04-26T11:42:31.001Z</time></trkpt><trkpt lat="44.222382897799925" lon="11.464287661775666"><ele>515.3333333333334</ele><time>2026-04-26T11:42:32.001Z</time></trkpt><trkpt lat="44.22248736522607" lon="11.464456180540983"><ele>510.0</ele><time>2026-04-26T11:42:33.001Z</time></trkpt><trkpt lat="44.22259987312091" lon="11.464615854449336"><ele>510.0</ele><time>2026-04-26T11:42:34.001Z</time></trkpt><trkpt lat="44.22271270946102" lon="11.46475601706103"><ele>510.0</ele><time>2026-04-26T11:42:35.001Z</time></trkpt><trkpt lat="44.22282868214617" lon="11.46488146758864"><ele>510.0</ele><time>2026-04-26T11:42:36.001Z</time></trkpt><trkpt lat="44.222943254656954" lon="11.465007598073841"><ele>510.0</ele><time>2026-04-26T11:42:37.001Z</time></trkpt><trkpt lat="44.22305663682865" lon="11.465126324890653"><ele>508.75</ele><time>2026-04-26T11:42:38.001Z</time></trkpt><trkpt lat="44.223171045335214" lon="11.465225604244544"><ele>507.5</ele><time>2026-04-26T11:42:39.001Z</time></trkpt><trkpt lat="44.223284953646086" lon="11.465307698650888"><ele>506.25</ele><time>2026-04-26T11:42:40.001Z</time></trkpt><trkpt lat="44.223391398445216" lon="11.46538499032019"><ele>505.0</ele><time>2026-04-26T11:42:41.001Z</time></trkpt><trkpt lat="44.2234889721823" lon="11.4654610442961"><ele>505.0</ele><time>2026-04-26T11:42:42.001Z</time></trkpt><trkpt lat="44.22357867747398" lon="11.465531173982676"><ele>505.0</ele><time>2026-04-26T11:42:43.001Z</time></trkpt><trkpt lat="44.22366482163437" lon="11.46560111297393"><ele>505.0</ele><time>2026-04-26T11:42:44.001Z</time></trkpt><trkpt lat="44.22374191736142" lon="11.46566727646126"><ele>505.0</ele><time>2026-04-26T11:42:45.001Z</time></trkpt><trkpt lat="44.2238011069244" lon="11.465718613314017"><ele>505.0</ele><time>2026-04-26T11:42:46.001Z</time></trkpt><trkpt lat="44.22383561692472" lon="11.465857598761886"><ele>505.0</ele><time>2026-04-26T11:42:48.001Z</time></trkpt><trkpt lat="44.22377287125026" lon="11.465915900303981"><ele>505.0</ele><time>2026-04-26T11:42:49.001Z</time></trkpt><trkpt lat="44.2237225027536" lon="11.466022324094382"><ele>505.0</ele><time>2026-04-26T11:42:51.001Z</time></trkpt><trkpt lat="44.22364458854058" lon="11.4661029787094"><ele>505.0</ele><time>2026-04-26T11:42:53.001Z</time></trkpt><trkpt lat="44.223525588697775" lon="11.466083095645834"><ele>505.0</ele><time>2026-04-26T11:42:55.001Z</time></trkpt><trkpt lat="44.2234518115456" lon="11.46607591214372"><ele>505.00000000000006</ele><time>2026-04-26T11:42:56.001Z</time></trkpt><trkpt lat="44.22337574629739" lon="11.466072106780532"><ele>505.0</ele><time>2026-04-26T11:42:57.001Z</time></trkpt><trkpt lat="44.223305555141614" lon="11.466072079724107"><ele>505.0</ele><time>2026-04-26T11:42:58.001Z</time></trkpt><trkpt lat="44.22323809241027" lon="11.466067268301359"><ele>505.0</ele><time>2026-04-26T11:42:59.001Z</time></trkpt><trkpt lat="44.22317121260251" lon="11.466059727529082"><ele>505.00000000000006</ele><time>2026-04-26T11:43:00.001Z</time></trkpt><trkpt lat="44.22305023575756" lon="11.46604447429601"><ele>505.0</ele><time>2026-04-26T11:43:02.001Z</time></trkpt><trkpt lat="44.22293082762014" lon="11.466031577794517"><ele>505.85714285714283</ele><time>2026-04-26T11:43:04.001Z</time></trkpt><trkpt lat="44.22286634918428" lon="11.466031190140155"><ele>506.71428571428567</ele><time>2026-04-26T11:43:05.001Z</time></trkpt><trkpt lat="44.22280198671886" lon="11.466030231782083"><ele>507.57142857142856</ele><time>2026-04-26T11:43:06.001Z</time></trkpt><trkpt lat="44.22273338706739" lon="11.466026599164705"><ele>508.42857142857144</ele><time>2026-04-26T11:43:07.001Z</time></trkpt><trkpt lat="44.222663745440194" lon="11.46602635854039"><ele>509.2857142857143</ele><time>2026-04-26T11:43:08.001Z</time></trkpt><trkpt lat="44.22259718531588" lon="11.466022122690996"><ele>510.1428571428571</ele><time>2026-04-26T11:43:09.001Z</time></trkpt><trkpt lat="44.22252587843607" lon="11.466061576975061"><ele>511.0</ele><time>2026-04-26T11:43:10.001Z</time></trkpt><trkpt lat="44.222446208565955" lon="11.466086451106973"><ele>511.0</ele><time>2026-04-26T11:43:11.001Z</time></trkpt><trkpt lat="44.22237487245698" lon="11.466115949128433"><ele>511.0</ele><time>2026-04-26T11:43:12.001Z</time></trkpt><trkpt lat="44.222304924549704" lon="11.466148351131684"><ele>511.0</ele><time>2026-04-26T11:43:13.001Z</time></trkpt><trkpt lat="44.222239228412185" lon="11.46617726304635"><ele>511.0</ele><time>2026-04-26T11:43:14.001Z</time></trkpt><trkpt lat="44.22217466861057" lon="11.466202229668829"><ele>511.0</ele><time>2026-04-26T11:43:15.001Z</time></trkpt><trkpt lat="44.222104510967746" lon="11.466226556818068"><ele>511.0</ele><time>2026-04-26T11:43:16.001Z</time></trkpt><trkpt lat="44.222037229949194" lon="11.466256716961926"><ele>511.0</ele><time>2026-04-26T11:43:17.001Z</time></trkpt><trkpt lat="44.22196932624125" lon="11.466283235289854"><ele>512.1666666666667</ele><time>2026-04-26T11:43:18.001Z</time></trkpt><trkpt lat="44.22190148740822" lon="11.466303995268783"><ele>513.3333333333334</ele><time>2026-04-26T11:43:19.001Z</time></trkpt><trkpt lat="44.22180396792265" lon="11.466343689492314"><ele>514.5</ele><time>2026-04-26T11:43:21.001Z</time></trkpt><trkpt lat="44.221756341346236" lon="11.466405503066039"><ele>515.6666666666666</ele><time>2026-04-26T11:43:24.001Z</time></trkpt><trkpt lat="44.221710142498694" lon="11.466483480181482"><ele>516.8333333333333</ele><time>2026-04-26T11:43:29.001Z</time></trkpt><trkpt lat="44.22173129606928" lon="11.466594476620891"><ele>518.0</ele><time>2026-04-26T11:43:30.001Z</time></trkpt><trkpt lat="44.22169765649998" lon="11.466752134537948"><ele>518.0</ele><time>2026-04-26T11:43:32.002Z</time></trkpt><trkpt lat="44.22167179110488" lon="11.46690528000134"><ele>518.0</ele><time>2026-04-26T11:43:34.002Z</time></trkpt><trkpt lat="44.221664044808556" lon="11.467058476447054"><ele>518.0</ele><time>2026-04-26T11:43:36.002Z</time></trkpt><trkpt lat="44.221601375125346" lon="11.46715175975859"><ele>518.0</ele><time>2026-04-26T11:43:39.002Z</time></trkpt><trkpt lat="44.22150352613714" lon="11.467100993914206"><ele>518.0</ele><time>2026-04-26T11:43:41.002Z</time></trkpt><trkpt lat="44.221398183800694" lon="11.467005710676677"><ele>516.6</ele><time>2026-04-26T11:43:43.002Z</time></trkpt><trkpt lat="44.22135006683386" lon="11.466928328979463"><ele>515.1999999999999</ele><time>2026-04-26T11:43:44.002Z</time></trkpt><trkpt lat="44.22125880692182" lon="11.466886168306834"><ele>513.8</ele><time>2026-04-26T11:43:46.002Z</time></trkpt><trkpt lat="44.22117732754996" lon="11.46681856579384"><ele>512.4</ele><time>2026-04-26T11:43:48Z</time></trkpt><trkpt lat="44.22106617234947" lon="11.466780620577667"><ele>511.0</ele><time>2026-04-26T11:43:50Z</time></trkpt><trkpt lat="44.220988857256025" lon="11.466766759654883"><ele>511.0</ele><time>2026-04-26T11:43:52Z</time></trkpt><trkpt lat="44.22085656924841" lon="11.466775929801198"><ele>511.0</ele><time>2026-04-26T11:43:54Z</time></trkpt><trkpt lat="44.22078071303789" lon="11.466784346657208"><ele>511.0</ele><time>2026-04-26T11:43:55Z</time></trkpt><trkpt lat="44.22065479888466" lon="11.466797567225736"><ele>511.0</ele><time>2026-04-26T11:43:57Z</time></trkpt><trkpt lat="44.22058674870633" lon="11.466797917313727"><ele>511.0</ele><time>2026-04-26T11:43:58Z</time></trkpt><trkpt lat="44.220518103077204" lon="11.46678506638782"><ele>514.3333333333334</ele><time>2026-04-26T11:43:59Z</time></trkpt><trkpt lat="44.22045134886291" lon="11.466749867883573"><ele>517.6666666666667</ele><time>2026-04-26T11:44:00Z</time></trkpt><trkpt lat="44.220379325023806" lon="11.46672152218738"><ele>521.0</ele><time>2026-04-26T11:44:01Z</time></trkpt><trkpt lat="44.22030248331046" lon="11.466689850080849"><ele>524.3333333333334</ele><time>2026-04-26T11:44:02Z</time></trkpt><trkpt lat="44.22023396791628" lon="11.466682977091992"><ele>527.6666666666666</ele><time>2026-04-26T11:44:03Z</time></trkpt><trkpt lat="44.22012092641962" lon="11.466759004172488"><ele>531.0</ele><time>2026-04-26T11:44:05Z</time></trkpt><trkpt lat="44.22008011046163" lon="11.466832477956606"><ele>531.0</ele><time>2026-04-26T11:44:06Z</time></trkpt><trkpt lat="44.22000451852526" lon="11.46694148891438"><ele>531.0</ele><time>2026-04-26T11:44:07Z</time></trkpt><trkpt lat="44.21994220298113" lon="11.467066259029272"><ele>531.0</ele><time>2026-04-26T11:44:08Z</time></trkpt><trkpt lat="44.21985140632001" lon="11.467205666786548"><ele>531.0</ele><time>2026-04-26T11:44:09Z</time></trkpt><trkpt lat="44.219758037077376" lon="11.467311632714615"><ele>524.2</ele><time>2026-04-26T11:44:10Z</time></trkpt><trkpt lat="44.21970142454074" lon="11.467429022363838"><ele>517.4000000000001</ele><time>2026-04-26T11:44:11Z</time></trkpt><trkpt lat="44.2196481691479" lon="11.467511461935846"><ele>510.6</ele><time>2026-04-26T11:44:12Z</time></trkpt><trkpt lat="44.21959822351251" lon="11.467580607246665"><ele>503.8</ele><time>2026-04-26T11:44:13Z</time></trkpt><trkpt lat="44.219472897830826" lon="11.467557845318199"><ele>497.0</ele><time>2026-04-26T11:44:15Z</time></trkpt><trkpt lat="44.21942461868208" lon="11.467435799533115"><ele>497.0</ele><time>2026-04-26T11:44:16Z</time></trkpt><trkpt lat="44.219405446504204" lon="11.46730342421138"><ele>497.00000000000006</ele><time>2026-04-26T11:44:17Z</time></trkpt><trkpt lat="44.219367830638745" lon="11.467148126909029"><ele>497.00000000000006</ele><time>2026-04-26T11:44:18Z</time></trkpt><trkpt lat="44.21931882744328" lon="11.46698497701099"><ele>497.0</ele><time>2026-04-26T11:44:19Z</time></trkpt><trkpt lat="44.219236818941695" lon="11.466889509156166"><ele>497.0</ele><time>2026-04-26T11:44:20Z</time></trkpt><trkpt lat="44.219163858640904" lon="11.466804352779858"><ele>497.16666666666663</ele><time>2026-04-26T11:44:21Z</time></trkpt><trkpt lat="44.21909772525749" lon="11.466727742368171"><ele>497.3333333333333</ele><time>2026-04-26T11:44:22Z</time></trkpt><trkpt lat="44.219053008737866" lon="11.46662894827155"><ele>497.5</ele><time>2026-04-26T11:44:23Z</time></trkpt><trkpt lat="44.21901002391944" lon="11.466504030238962"><ele>497.66666666666663</ele><time>2026-04-26T11:44:24Z</time></trkpt><trkpt lat="44.21895940793703" lon="11.466431658491555"><ele>497.8333333333333</ele><time>2026-04-26T11:44:25Z</time></trkpt><trkpt lat="44.21887643400586" lon="11.466374885848424"><ele>498.0</ele><time>2026-04-26T11:44:26Z</time></trkpt><trkpt lat="44.21881979635983" lon="11.466319518985397"><ele>504.4</ele><time>2026-04-26T11:44:27Z</time></trkpt><trkpt lat="44.21879399275354" lon="11.466150560540969"><ele>510.79999999999995</ele><time>2026-04-26T11:44:29Z</time></trkpt><trkpt lat="44.21877867417037" lon="11.466032992350433"><ele>517.2</ele><time>2026-04-26T11:44:30Z</time></trkpt><trkpt lat="44.21873944714586" lon="11.46594994871358"><ele>523.6</ele><time>2026-04-26T11:44:31Z</time></trkpt><trkpt lat="44.21866595153371" lon="11.46588271851202"><ele>530.0</ele><time>2026-04-26T11:44:32.001Z</time></trkpt><trkpt lat="44.21859504008268" lon="11.465806306066488"><ele>530.0</ele><time>2026-04-26T11:44:33.001Z</time></trkpt><trkpt lat="44.218518218174914" lon="11.465751822640465"><ele>530.0</ele><time>2026-04-26T11:44:34.001Z</time></trkpt><trkpt lat="44.218431822735724" lon="11.465746414024139"><ele>530.0</ele><time>2026-04-26T11:44:35.001Z</time></trkpt><trkpt lat="44.218365528990546" lon="11.465766298039998"><ele>530.0</ele><time>2026-04-26T11:44:36.001Z</time></trkpt><trkpt lat="44.21829425315695" lon="11.465694724017174"><ele>530.0</ele><time>2026-04-26T11:44:37.001Z</time></trkpt><trkpt lat="44.21820828783209" lon="11.465693997635997"><ele>530.0</ele><time>2026-04-26T11:44:38.001Z</time></trkpt><trkpt lat="44.218111999484485" lon="11.46571181624183"><ele>535.5</ele><time>2026-04-26T11:44:39.001Z</time></trkpt><trkpt lat="44.21802330414551" lon="11.465810340127382"><ele>541.0</ele><time>2026-04-26T11:44:40.001Z</time></trkpt><trkpt lat="44.21798040118936" lon="11.465887935881742"><ele>546.5</ele><time>2026-04-26T11:44:41.001Z</time></trkpt><trkpt lat="44.217923359191566" lon="11.46598925459888"><ele>552.0</ele><time>2026-04-26T11:44:42.001Z</time></trkpt><trkpt lat="44.21785301727861" lon="11.466075534755438"><ele>557.5</ele><time>2026-04-26T11:44:43.001Z</time></trkpt><trkpt lat="44.21777616266538" lon="11.46609842353921"><ele>563.0</ele><time>2026-04-26T11:44:44.001Z</time></trkpt><trkpt lat="44.217697103034475" lon="11.466134842585952"><ele>563.0</ele><time>2026-04-26T11:44:45.001Z</time></trkpt><trkpt lat="44.21761790511389" lon="11.466257428636855"><ele>563.0</ele><time>2026-04-26T11:44:46.001Z</time></trkpt><trkpt lat="44.21752297425035" lon="11.466310827435922"><ele>563.0</ele><time>2026-04-26T11:44:47.001Z</time></trkpt><trkpt lat="44.217459432836634" lon="11.466364820906838"><ele>563.0</ele><time>2026-04-26T11:44:48.001Z</time></trkpt><trkpt lat="44.217398691786315" lon="11.466476877645873"><ele>563.0</ele><time>2026-04-26T11:44:50.001Z</time></trkpt><trkpt lat="44.21740602683627" lon="11.466576687276051"><ele>565.0</ele><time>2026-04-26T11:44:51.001Z</time></trkpt><trkpt lat="44.21741444330856" lon="11.46671135766245"><ele>567.0</ele><time>2026-04-26T11:44:52.001Z</time></trkpt><trkpt lat="44.217414681688744" lon="11.466828067649448"><ele>569.0</ele><time>2026-04-26T11:44:53.001Z</time></trkpt><trkpt lat="44.21735358365949" lon="11.466940402438444"><ele>571.0</ele><time>2026-04-26T11:44:55.001Z</time></trkpt><trkpt lat="44.2172443516427" lon="11.466891457350103"><ele>573.0</ele><time>2026-04-26T11:44:57.001Z</time></trkpt><trkpt lat="44.21718098818153" lon="11.466860756364518"><ele>573.0</ele><time>2026-04-26T11:44:58.001Z</time></trkpt><trkpt lat="44.21706615438309" lon="11.466887582576584"><ele>573.0</ele><time>2026-04-26T11:45:00.001Z</time></trkpt><trkpt lat="44.217019971476084" lon="11.466982018662968"><ele>573.0</ele><time>2026-04-26T11:45:01.001Z</time></trkpt><trkpt lat="44.21699471287603" lon="11.467125720958634"><ele>573.0</ele><time>2026-04-26T11:45:02.001Z</time></trkpt><trkpt lat="44.216971837360255" lon="11.46726680759227"><ele>573.0</ele><time>2026-04-26T11:45:03.001Z</time></trkpt><trkpt lat="44.21693551574776" lon="11.467361315750164"><ele>567.6</ele><time>2026-04-26T11:45:04.001Z</time></trkpt><trkpt lat="44.21685325578045" lon="11.467462773409405"><ele>562.1999999999999</ele><time>2026-04-26T11:45:06.001Z</time></trkpt><trkpt lat="44.21679357528443" lon="11.46750396346755"><ele>556.8</ele><time>2026-04-26T11:45:07.001Z</time></trkpt><trkpt lat="44.21671764134718" lon="11.467556355590755"><ele>551.4</ele><time>2026-04-26T11:45:08.001Z</time></trkpt><trkpt lat="44.21661546062132" lon="11.467616232712784"><ele>546.0</ele><time>2026-04-26T11:45:09.001Z</time></trkpt><trkpt lat="44.21649323261057" lon="11.467656966612354"><ele>543.5</ele><time>2026-04-26T11:45:10.001Z</time></trkpt><trkpt lat="44.21641955151479" lon="11.46770700299607"><ele>541.0</ele><time>2026-04-26T11:45:11.001Z</time></trkpt><trkpt lat="44.216350853083185" lon="11.467728661035098"><ele>538.5</ele><time>2026-04-26T11:45:12.001Z</time></trkpt><trkpt lat="44.21626089067514" lon="11.467645133294686"><ele>536.0</ele><time>2026-04-26T11:45:14.001Z</time></trkpt><trkpt lat="44.21624204280018" lon="11.467556787241675"><ele>533.5</ele><time>2026-04-26T11:45:15.001Z</time></trkpt><trkpt lat="44.21625019849547" lon="11.467462237653486"><ele>531.0</ele><time>2026-04-26T11:45:16.001Z</time></trkpt><trkpt lat="44.21625408956583" lon="11.467359971179945"><ele>531.0</ele><time>2026-04-26T11:45:17.001Z</time></trkpt><trkpt lat="44.21625472099487" lon="11.467249677258653"><ele>531.0</ele><time>2026-04-26T11:45:18.001Z</time></trkpt><trkpt lat="44.21625699964363" lon="11.467144269738375"><ele>531.0</ele><time>2026-04-26T11:45:19.001Z</time></trkpt><trkpt lat="44.21625327490973" lon="11.467031366380334"><ele>531.0</ele><time>2026-04-26T11:45:20.001Z</time></trkpt><trkpt lat="44.21624544595981" lon="11.466900493624465"><ele>531.0</ele><time>2026-04-26T11:45:21.001Z</time></trkpt><trkpt lat="44.21622857562456" lon="11.466790945280579"><ele>531.0</ele><time>2026-04-26T11:45:22.001Z</time></trkpt><trkpt lat="44.2161924580472" lon="11.466703301262045"><ele>534.8333333333334</ele><time>2026-04-26T11:45:23.001Z</time></trkpt><trkpt lat="44.21612995073371" lon="11.46663906159812"><ele>538.6666666666666</ele><time>2026-04-26T11:45:24.001Z</time></trkpt><trkpt lat="44.21606270253159" lon="11.466564368637671"><ele>542.5</ele><time>2026-04-26T11:45:25.001Z</time></trkpt><trkpt lat="44.21603621856919" lon="11.466484096013911"><ele>546.3333333333333</ele><time>2026-04-26T11:45:26.001Z</time></trkpt><trkpt lat="44.216080236595964" lon="11.466329206500244"><ele>550.1666666666666</ele><time>2026-04-26T11:45:28.001Z</time></trkpt><trkpt lat="44.216156183845044" lon="11.466291872284952"><ele>554.0</ele><time>2026-04-26T11:45:29.001Z</time></trkpt><trkpt lat="44.216187082074896" lon="11.466154932011879"><ele>557.8333333333333</ele><time>2026-04-26T11:45:31.001Z</time></trkpt><trkpt lat="44.216185465237125" lon="11.466005559330208"><ele>561.6666666666666</ele><time>2026-04-26T11:45:56Z</time></trkpt><trkpt lat="44.21616996565549" lon="11.4658575968265"><ele>565.5</ele><time>2026-04-26T11:45:58Z</time></trkpt><trkpt lat="44.21612937591639" lon="11.465779245630559"><ele>569.3333333333334</ele><time>2026-04-26T11:45:59Z</time></trkpt><trkpt lat="44.21607982145439" lon="11.46570942001683"><ele>573.1666666666667</ele><time>2026-04-26T11:46:00Z</time></trkpt><trkpt lat="44.21603399759335" lon="11.465642414294143"><ele>577.0</ele><time>2026-04-26T11:46:01Z</time></trkpt><trkpt lat="44.21597012436141" lon="11.465585633308942"><ele>577.0</ele><time>2026-04-26T11:46:02Z</time></trkpt><trkpt lat="44.21589813024497" lon="11.465518367488595"><ele>577.0</ele><time>2026-04-26T11:46:03Z</time></trkpt><trkpt lat="44.215836167359456" lon="11.465459391657326"><ele>577.0</ele><time>2026-04-26T11:46:04Z</time></trkpt><trkpt lat="44.21575021275711" lon="11.465385955768948"><ele>577.0</ele><time>2026-04-26T11:46:05Z</time></trkpt><trkpt lat="44.215636430767375" lon="11.465303329273171"><ele>577.0</ele><time>2026-04-26T11:46:06Z</time></trkpt><trkpt lat="44.21554347853498" lon="11.465271317851823"><ele>573.4</ele><time>2026-04-26T11:46:07Z</time></trkpt><trkpt lat="44.21548129199163" lon="11.46523685332008"><ele>569.8000000000001</ele><time>2026-04-26T11:46:08Z</time></trkpt><trkpt lat="44.21540217592622" lon="11.46515730299721"><ele>566.2</ele><time>2026-04-26T11:46:10Z</time></trkpt><trkpt lat="44.21538632313411" lon="11.465010650042583"><ele>562.6</ele><time>2026-04-26T11:46:12Z</time></trkpt><trkpt lat="44.21543165356251" lon="11.464902945105475"><ele>559.0</ele><time>2026-04-26T11:46:14Z</time></trkpt><trkpt lat="44.21548301934348" lon="11.464778660756888"><ele>559.0</ele><time>2026-04-26T11:46:23Z</time></trkpt><trkpt lat="44.21547709381103" lon="11.464616410512729"><ele>559.0</ele><time>2026-04-26T11:46:25Z</time></trkpt><trkpt lat="44.2154681468372" lon="11.464515185175433"><ele>559.0</ele><time>2026-04-26T11:46:26Z</time></trkpt><trkpt lat="44.21544494921603" lon="11.464426125888068"><ele>559.0</ele><time>2026-04-26T11:46:27Z</time></trkpt><trkpt lat="44.215394030692224" lon="11.464365900257924"><ele>559.0</ele><time>2026-04-26T11:46:28Z</time></trkpt><trkpt lat="44.21533642349865" lon="11.464283753031685"><ele>559.0</ele><time>2026-04-26T11:46:29Z</time></trkpt><trkpt lat="44.215272560690714" lon="11.464206367840507"><ele>562.0</ele><time>2026-04-26T11:46:30Z</time></trkpt><trkpt lat="44.21520854421403" lon="11.464167086074694"><ele>565.0</ele><time>2026-04-26T11:46:31Z</time></trkpt><trkpt lat="44.21508830921503" lon="11.464093426064982"><ele>568.0</ele><time>2026-04-26T11:46:33Z</time></trkpt><trkpt lat="44.21500960099342" lon="11.46404933538859"><ele>571.0</ele><time>2026-04-26T11:46:34Z</time></trkpt><trkpt lat="44.21492142608171" lon="11.4639892118612"><ele>574.0</ele><time>2026-04-26T11:46:35Z</time></trkpt><trkpt lat="44.21482006098241" lon="11.463982547339265"><ele>574.0</ele><time>2026-04-26T11:46:36Z</time></trkpt><trkpt lat="44.21473709988508" lon="11.463946718536764"><ele>574.0</ele><time>2026-04-26T11:46:37Z</time></trkpt><trkpt lat="44.21466441109956" lon="11.46391593877904"><ele>574.0</ele><time>2026-04-26T11:46:38Z</time></trkpt><trkpt lat="44.21459472967337" lon="11.463917248563307"><ele>574.0</ele><time>2026-04-26T11:46:39Z</time></trkpt><trkpt lat="44.21452614143166" lon="11.463980427380278"><ele>574.0</ele><time>2026-04-26T11:46:40Z</time></trkpt><trkpt lat="44.21446793207744" lon="11.46406923585147"><ele>574.0</ele><time>2026-04-26T11:46:41Z</time></trkpt><trkpt lat="44.21441277166126" lon="11.464124020252147"><ele>574.0</ele><time>2026-04-26T11:46:42Z</time></trkpt><trkpt lat="44.214307638161436" lon="11.464087423937029"><ele>574.0</ele><time>2026-04-26T11:46:44.001Z</time></trkpt><trkpt lat="44.2142629220883" lon="11.464010265270792"><ele>574.0</ele><time>2026-04-26T11:46:45.001Z</time></trkpt><trkpt lat="44.21422986051949" lon="11.463907990629083"><ele>574.0</ele><time>2026-04-26T11:46:46.001Z</time></trkpt><trkpt lat="44.21419887453663" lon="11.463768600595056"><ele>574.0</ele><time>2026-04-26T11:46:47.001Z</time></trkpt><trkpt lat="44.21417374300687" lon="11.463633313498073"><ele>573.8</ele><time>2026-04-26T11:46:48.001Z</time></trkpt><trkpt lat="44.21412878527053" lon="11.46352270838811"><ele>573.5999999999999</ele><time>2026-04-26T11:46:49.001Z</time></trkpt><trkpt lat="44.21407382878364" lon="11.463425536478736"><ele>573.4</ele><time>2026-04-26T11:46:50.001Z</time></trkpt><trkpt lat="44.21397711165221" lon="11.463336431850799"><ele>573.1999999999999</ele><time>2026-04-26T11:46:51.001Z</time></trkpt><trkpt lat="44.21388474107883" lon="11.463264072663446"><ele>573.0</ele><time>2026-04-26T11:46:52.001Z</time></trkpt><trkpt lat="44.21384591195103" lon="11.463187388592297"><ele>573.0</ele><time>2026-04-26T11:46:53.001Z</time></trkpt><trkpt lat="44.21380533595993" lon="11.463073605021748"><ele>573.0</ele><time>2026-04-26T11:46:54.001Z</time></trkpt><trkpt lat="44.21376656350108" lon="11.462938221416326"><ele>573.0</ele><time>2026-04-26T11:46:55.001Z</time></trkpt><trkpt lat="44.21370795718033" lon="11.462842144079358"><ele>573.0</ele><time>2026-04-26T11:46:56.001Z</time></trkpt><trkpt lat="44.213625865195404" lon="11.462773805425028"><ele>573.0</ele><time>2026-04-26T11:46:57.001Z</time></trkpt><trkpt lat="44.21353024116763" lon="11.462719146758436"><ele>577.0</ele><time>2026-04-26T11:46:58.001Z</time></trkpt><trkpt lat="44.213402146885144" lon="11.462675728738176"><ele>581.0</ele><time>2026-04-26T11:46:59.001Z</time></trkpt><trkpt lat="44.213286890418615" lon="11.462586196789529"><ele>585.0</ele><time>2026-04-26T11:47:00.001Z</time></trkpt><trkpt lat="44.213191713877634" lon="11.462521358338472"><ele>589.0</ele><time>2026-04-26T11:47:01.001Z</time></trkpt><trkpt lat="44.213126819580815" lon="11.462468214826224"><ele>593.0</ele><time>2026-04-26T11:47:02.001Z</time></trkpt><trkpt lat="44.21305915501053" lon="11.462453496312804"><ele>593.0</ele><time>2026-04-26T11:47:03.001Z</time></trkpt><trkpt lat="44.2129190752052" lon="11.462440192253881"><ele>593.0</ele><time>2026-04-26T11:47:05.001Z</time></trkpt><trkpt lat="44.212847652003305" lon="11.46244315323618"><ele>593.0</ele><time>2026-04-26T11:47:06.001Z</time></trkpt><trkpt lat="44.212777120417854" lon="11.462418609305944"><ele>593.0</ele><time>2026-04-26T11:47:07.001Z</time></trkpt><trkpt lat="44.21272002502903" lon="11.462359227116874"><ele>593.0</ele><time>2026-04-26T11:47:08.001Z</time></trkpt><trkpt lat="44.21264649977153" lon="11.462306428462199"><ele>593.0</ele><time>2026-04-26T11:47:09.001Z</time></trkpt><trkpt lat="44.21255327012488" lon="11.462235522590733"><ele>593.0</ele><time>2026-04-26T11:47:10.001Z</time></trkpt><trkpt lat="44.212461429706664" lon="11.462174218913185"><ele>593.0</ele><time>2026-04-26T11:47:11.001Z</time></trkpt><trkpt lat="44.21237492067203" lon="11.462137947916226"><ele>593.0</ele><time>2026-04-26T11:47:12.001Z</time></trkpt><trkpt lat="44.212271286457614" lon="11.462249192509244"><ele>593.0</ele><time>2026-04-26T11:47:13.001Z</time></trkpt><trkpt lat="44.21219873055296" lon="11.462298646296944"><ele>593.0</ele><time>2026-04-26T11:47:14.001Z</time></trkpt><trkpt lat="44.212079042306726" lon="11.462263302385022"><ele>592.4</ele><time>2026-04-26T11:47:16.001Z</time></trkpt><trkpt lat="44.21200695599704" lon="11.462179415455495"><ele>591.8</ele><time>2026-04-26T11:47:17.001Z</time></trkpt><trkpt lat="44.211927077754616" lon="11.462118341769337"><ele>591.2</ele><time>2026-04-26T11:47:18.001Z</time></trkpt><trkpt lat="44.21184094021503" lon="11.462055231505815"><ele>590.6</ele><time>2026-04-26T11:47:19.001Z</time></trkpt><trkpt lat="44.21176155018477" lon="11.462008504140536"><ele>590.0</ele><time>2026-04-26T11:47:20.001Z</time></trkpt><trkpt lat="44.211673484183734" lon="11.46198679630042"><ele>595.5</ele><time>2026-04-26T11:47:21.001Z</time></trkpt><trkpt lat="44.21159215916449" lon="11.461991955924915"><ele>601.0</ele><time>2026-04-26T11:47:23.001Z</time></trkpt><trkpt lat="44.2115369166335" lon="11.462087096086378"><ele>606.5</ele><time>2026-04-26T11:47:25.001Z</time></trkpt><trkpt lat="44.21148764874714" lon="11.462170514150367"><ele>612.0</ele><time>2026-04-26T11:47:27.001Z</time></trkpt><trkpt lat="44.21145248282059" lon="11.462260625985838"><ele>617.5</ele><time>2026-04-26T11:47:28.001Z</time></trkpt><trkpt lat="44.211408624676956" lon="11.462375198140174"><ele>623.0</ele><time>2026-04-26T11:47:29.001Z</time></trkpt><trkpt lat="44.211362090447274" lon="11.462453117870336"><ele>626.5</ele><time>2026-04-26T11:47:30.001Z</time></trkpt><trkpt lat="44.21130418324606" lon="11.462558426832882"><ele>630.0</ele><time>2026-04-26T11:47:31.001Z</time></trkpt><trkpt lat="44.2112488259273" lon="11.462637782639353"><ele>633.5</ele><time>2026-04-26T11:47:32.001Z</time></trkpt><trkpt lat="44.21118385119406" lon="11.46269780748839"><ele>637.0</ele><time>2026-04-26T11:47:33.001Z</time></trkpt><trkpt lat="44.2111099029192" lon="11.462771409373074"><ele>640.5</ele><time>2026-04-26T11:47:34.001Z</time></trkpt><trkpt lat="44.21103635255656" lon="11.462847317827812"><ele>644.0</ele><time>2026-04-26T11:47:35.001Z</time></trkpt><trkpt lat="44.21096729667574" lon="11.462932024263667"><ele>638.6666666666666</ele><time>2026-04-26T11:47:36.001Z</time></trkpt><trkpt lat="44.21091196054224" lon="11.463006988000508"><ele>633.3333333333333</ele><time>2026-04-26T11:47:37.001Z</time></trkpt><trkpt lat="44.21087325524543" lon="11.46310609324467"><ele>628.0</ele><time>2026-04-26T11:47:38.001Z</time></trkpt><trkpt lat="44.210897190529515" lon="11.4632328361657"><ele>622.6666666666666</ele><time>2026-04-26T11:47:39.001Z</time></trkpt><trkpt lat="44.210901595766835" lon="11.463358337128494"><ele>617.3333333333334</ele><time>2026-04-26T11:47:40.001Z</time></trkpt><trkpt lat="44.21083440723985" lon="11.463432768677679"><ele>612.0</ele><time>2026-04-26T11:47:42.001Z</time></trkpt><trkpt lat="44.2107328680917" lon="11.463347552711575"><ele>612.0</ele><time>2026-04-26T11:47:44.001Z</time></trkpt><trkpt lat="44.21067626176986" lon="11.463283953220278"><ele>612.0</ele><time>2026-04-26T11:47:45.001Z</time></trkpt><trkpt lat="44.210613975420166" lon="11.463242027015308"><ele>612.0</ele><time>2026-04-26T11:47:46.001Z</time></trkpt><trkpt lat="44.21053700321937" lon="11.46321003070118"><ele>612.0</ele><time>2026-04-26T11:47:47.001Z</time></trkpt><trkpt lat="44.21046302651408" lon="11.463201515441396"><ele>612.0</ele><time>2026-04-26T11:47:48.001Z</time></trkpt><trkpt lat="44.210367551713155" lon="11.463294689326053"><ele>612.0</ele><time>2026-04-26T11:47:50.001Z</time></trkpt><trkpt lat="44.21030102405638" lon="11.463361472083443"><ele>610.8333333333334</ele><time>2026-04-26T11:47:51.001Z</time></trkpt><trkpt lat="44.21019757953475" lon="11.4633073817394"><ele>609.6666666666666</ele><time>2026-04-26T11:47:53.001Z</time></trkpt><trkpt lat="44.21014753686919" lon="11.46324123633645"><ele>608.5</ele><time>2026-04-26T11:47:54.001Z</time></trkpt><trkpt lat="44.21009898798212" lon="11.463159260916783"><ele>607.3333333333333</ele><time>2026-04-26T11:47:55.002Z</time></trkpt><trkpt lat="44.21006606426635" lon="11.463073027910012"><ele>606.1666666666666</ele><time>2026-04-26T11:47:56.002Z</time></trkpt><trkpt lat="44.21004566650991" lon="11.462962697055039"><ele>605.0</ele><time>2026-04-26T11:47:57.002Z</time></trkpt><trkpt lat="44.210046587063545" lon="11.462851007012329"><ele>612.8</ele><time>2026-04-26T11:47:58.002Z</time></trkpt><trkpt lat="44.20997982174187" lon="11.462714806120859"><ele>620.6</ele><time>2026-04-26T11:48:00Z</time></trkpt><trkpt lat="44.20991942881637" lon="11.46268912157439"><ele>628.4000000000001</ele><time>2026-04-26T11:48:01Z</time></trkpt><trkpt lat="44.209773285422635" lon="11.462691261985574"><ele>636.2</ele><time>2026-04-26T11:48:03Z</time></trkpt><trkpt lat="44.20966495593963" lon="11.462737632364469"><ele>644.0</ele><time>2026-04-26T11:48:04Z</time></trkpt><trkpt lat="44.209560346192134" lon="11.462761832062302"><ele>644.0</ele><time>2026-04-26T11:48:05Z</time></trkpt><trkpt lat="44.20945435044743" lon="11.46276431078885"><ele>644.0</ele><time>2026-04-26T11:48:06Z</time></trkpt><trkpt lat="44.20937247079007" lon="11.462741047636852"><ele>644.0</ele><time>2026-04-26T11:48:07Z</time></trkpt><trkpt lat="44.209305768046995" lon="11.462692831255152"><ele>644.0</ele><time>2026-04-26T11:48:08Z</time></trkpt><trkpt lat="44.20924379960073" lon="11.462665898126602"><ele>644.0</ele><time>2026-04-26T11:48:09Z</time></trkpt><trkpt lat="44.20918156164172" lon="11.462615221173134"><ele>644.0</ele><time>2026-04-26T11:48:10Z</time></trkpt><trkpt lat="44.209122249096644" lon="11.462544342913393"><ele>644.0</ele><time>2026-04-26T11:48:11Z</time></trkpt><trkpt lat="44.20907029898172" lon="11.462456660263564"><ele>644.0</ele><time>2026-04-26T11:48:12Z</time></trkpt><trkpt lat="44.209039456375585" lon="11.462363385800577"><ele>644.0</ele><time>2026-04-26T11:48:13Z</time></trkpt><trkpt lat="44.20903135575776" lon="11.462256032804607"><ele>644.0</ele><time>2026-04-26T11:48:14Z</time></trkpt><trkpt lat="44.20902825338899" lon="11.46212919772762"><ele>644.0</ele><time>2026-04-26T11:48:15Z</time></trkpt><trkpt lat="44.20902964561246" lon="11.462032940812035"><ele>644.0</ele><time>2026-04-26T11:48:16Z</time></trkpt><trkpt lat="44.20904676968644" lon="11.461908653557941"><ele>648.8000000000001</ele><time>2026-04-26T11:48:17Z</time></trkpt><trkpt lat="44.20903106504339" lon="11.461767657287671"><ele>653.6</ele><time>2026-04-26T11:48:19Z</time></trkpt><trkpt lat="44.208901042310394" lon="11.461750060725665"><ele>658.4</ele><time>2026-04-26T11:48:21Z</time></trkpt><trkpt lat="44.208796208017596" lon="11.461761886800181"><ele>663.2</ele><time>2026-04-26T11:48:22Z</time></trkpt><trkpt lat="44.20869364417934" lon="11.461722603079853"><ele>668.0</ele><time>2026-04-26T11:48:23Z</time></trkpt><trkpt lat="44.20860464176324" lon="11.461806073064036"><ele>670.8</ele><time>2026-04-26T11:48:24Z</time></trkpt><trkpt lat="44.20851483104884" lon="11.461822014968506"><ele>673.5999999999999</ele><time>2026-04-26T11:48:25Z</time></trkpt><trkpt lat="44.208402815458996" lon="11.461843577794427"><ele>676.4000000000001</ele><time>2026-04-26T11:48:26Z</time></trkpt><trkpt lat="44.20831588758676" lon="11.461867457440334"><ele>679.2</ele><time>2026-04-26T11:48:27Z</time></trkpt><trkpt lat="44.20825550056246" lon="11.461909276625999"><ele>682.0</ele><time>2026-04-26T11:48:28Z</time></trkpt><trkpt lat="44.20810824653919" lon="11.461960573599075"><ele>682.25</ele><time>2026-04-26T11:48:30Z</time></trkpt><trkpt lat="44.208050687081325" lon="11.462058515792842"><ele>682.5</ele><time>2026-04-26T11:48:31Z</time></trkpt><trkpt lat="44.207980676733975" lon="11.462231378656814"><ele>682.75</ele><time>2026-04-26T11:48:32Z</time></trkpt><trkpt lat="44.20791652312379" lon="11.462407429381072"><ele>683.0</ele><time>2026-04-26T11:48:33Z</time></trkpt><trkpt lat="44.207874917926" lon="11.462561846063826"><ele>680.25</ele><time>2026-04-26T11:48:34Z</time></trkpt><trkpt lat="44.20779495861991" lon="11.462712770290045"><ele>677.5</ele><time>2026-04-26T11:48:35Z</time></trkpt><trkpt lat="44.20775511720012" lon="11.462875879256986"><ele>674.75</ele><time>2026-04-26T11:48:36Z</time></trkpt><trkpt lat="44.20770382745501" lon="11.463063681913379"><ele>672.0</ele><time>2026-04-26T11:48:37Z</time></trkpt><trkpt lat="44.20768067341194" lon="11.46321334643521"><ele>671.5</ele><time>2026-04-26T11:48:39Z</time></trkpt><trkpt lat="44.207682581615835" lon="11.463303861139677"><ele>671.0</ele><time>2026-04-26T11:48:40Z</time></trkpt><trkpt lat="44.207614049615" lon="11.463394044664605"><ele>670.5</ele><time>2026-04-26T11:48:42Z</time></trkpt><trkpt lat="44.20754882084039" lon="11.463413422640624"><ele>670.0</ele><time>2026-04-26T11:48:43Z</time></trkpt><trkpt lat="44.207479611724864" lon="11.46338107171982"><ele>669.5</ele><time>2026-04-26T11:48:44Z</time></trkpt><trkpt lat="44.207428557397634" lon="11.463282508558502"><ele>669.0</ele><time>2026-04-26T11:48:45Z</time></trkpt><trkpt lat="44.20745456652128" lon="11.463157500775958"><ele>669.0</ele><time>2026-04-26T11:48:46Z</time></trkpt><trkpt lat="44.20743630181241" lon="11.46305017017446"><ele>669.0</ele><time>2026-04-26T11:48:47.001Z</time></trkpt><trkpt lat="44.207412349822974" lon="11.462933297719168"><ele>669.0</ele><time>2026-04-26T11:48:48.001Z</time></trkpt><trkpt lat="44.20737761460759" lon="11.462835093846163"><ele>669.0</ele><time>2026-04-26T11:48:49.001Z</time></trkpt><trkpt lat="44.20733892313253" lon="11.46272629783912"><ele>669.0</ele><time>2026-04-26T11:48:50.001Z</time></trkpt><trkpt lat="44.20730481201933" lon="11.462590682988019"><ele>669.0</ele><time>2026-04-26T11:48:51.001Z</time></trkpt><trkpt lat="44.207268620370655" lon="11.46246178559187"><ele>664.0</ele><time>2026-04-26T11:48:52.001Z</time></trkpt><trkpt lat="44.20720993114032" lon="11.46234224252453"><ele>659.0</ele><time>2026-04-26T11:48:53.001Z</time></trkpt><trkpt lat="44.20714400366019" lon="11.462286432890869"><ele>654.0</ele><time>2026-04-26T11:48:54.001Z</time></trkpt><trkpt lat="44.207090350505375" lon="11.462219254662168"><ele>649.0</ele><time>2026-04-26T11:48:55.001Z</time></trkpt><trkpt lat="44.2070313658593" lon="11.462093900969455"><ele>644.0</ele><time>2026-04-26T11:48:57.001Z</time></trkpt><trkpt lat="44.2070536514623" lon="11.461996042922692"><ele>639.0</ele><time>2026-04-26T11:48:58.001Z</time></trkpt><trkpt lat="44.207071958530236" lon="11.461895036790755"><ele>639.0</ele><time>2026-04-26T11:48:59.001Z</time></trkpt><trkpt lat="44.207078554409605" lon="11.461788250871507"><ele>639.0</ele><time>2026-04-26T11:49:00.001Z</time></trkpt><trkpt lat="44.20706889720017" lon="11.461675352491527"><ele>639.0</ele><time>2026-04-26T11:49:01.001Z</time></trkpt><trkpt lat="44.207062430708966" lon="11.461557268205361"><ele>639.0</ele><time>2026-04-26T11:49:02.001Z</time></trkpt><trkpt lat="44.20704525731797" lon="11.461446428915037"><ele>639.0</ele><time>2026-04-26T11:49:03.001Z</time></trkpt><trkpt lat="44.20701293226518" lon="11.461338435012486"><ele>639.0</ele><time>2026-04-26T11:49:04.001Z</time></trkpt><trkpt lat="44.2069906906695" lon="11.461247381684675"><ele>642.5</ele><time>2026-04-26T11:49:05.001Z</time></trkpt><trkpt lat="44.2070123431963" lon="11.46111116395207"><ele>646.0</ele><time>2026-04-26T11:49:07.001Z</time></trkpt><trkpt lat="44.20702841996889" lon="11.460972613234189"><ele>649.5</ele><time>2026-04-26T11:49:08.001Z</time></trkpt><trkpt lat="44.20705067205434" lon="11.460841093180031"><ele>653.0</ele><time>2026-04-26T11:49:09.001Z</time></trkpt><trkpt lat="44.20704909840438" lon="11.460741787146565"><ele>656.5</ele><time>2026-04-26T11:49:10.001Z</time></trkpt><trkpt lat="44.207008206749606" lon="11.460646785309322"><ele>660.0</ele><time>2026-04-26T11:49:11.001Z</time></trkpt><trkpt lat="44.20693243100554" lon="11.460532138955092"><ele>665.2</ele><time>2026-04-26T11:49:12.001Z</time></trkpt><trkpt lat="44.2068568794532" lon="11.460426767446968"><ele>670.4</ele><time>2026-04-26T11:49:13.001Z</time></trkpt><trkpt lat="44.20679510635472" lon="11.46034091528371"><ele>675.5999999999999</ele><time>2026-04-26T11:49:14.001Z</time></trkpt><trkpt lat="44.20672537315172" lon="11.460283957348738"><ele>680.8</ele><time>2026-04-26T11:49:15.001Z</time></trkpt><trkpt lat="44.206653652626734" lon="11.46026580089855"><ele>686.0</ele><time>2026-04-26T11:49:16.001Z</time></trkpt><trkpt lat="44.206515253552155" lon="11.46033740974293"><ele>680.5999999999999</ele><time>2026-04-26T11:49:18.001Z</time></trkpt><trkpt lat="44.206424067907236" lon="11.460457435557382"><ele>675.2</ele><time>2026-04-26T11:49:19.001Z</time></trkpt><trkpt lat="44.20633957286912" lon="11.460585414229703"><ele>669.8</ele><time>2026-04-26T11:49:20.001Z</time></trkpt><trkpt lat="44.20628343447993" lon="11.460689631331627"><ele>664.4000000000001</ele><time>2026-04-26T11:49:21.001Z</time></trkpt><trkpt lat="44.20621709571053" lon="11.460788562565181"><ele>659.0</ele><time>2026-04-26T11:49:22.001Z</time></trkpt><trkpt lat="44.206153461222506" lon="11.460828546571372"><ele>659.0</ele><time>2026-04-26T11:49:23.001Z</time></trkpt><trkpt lat="44.206086534382294" lon="11.46084141956705"><ele>659.0</ele><time>2026-04-26T11:49:24.001Z</time></trkpt><trkpt lat="44.20599434930879" lon="11.460807897262555"><ele>659.0</ele><time>2026-04-26T11:49:25.001Z</time></trkpt><trkpt lat="44.20589637755411" lon="11.46079350673459"><ele>659.0</ele><time>2026-04-26T11:49:26.001Z</time></trkpt><trkpt lat="44.205828176422784" lon="11.460749254831436"><ele>659.0</ele><time>2026-04-26T11:49:27.001Z</time></trkpt><trkpt lat="44.20575935257456" lon="11.460575501987668"><ele>657.4000000000001</ele><time>2026-04-26T11:49:29.001Z</time></trkpt><trkpt lat="44.2057164369684" lon="11.460426259088992"><ele>655.8</ele><time>2026-04-26T11:49:30.001Z</time></trkpt><trkpt lat="44.20566597223112" lon="11.460287138798117"><ele>654.2</ele><time>2026-04-26T11:49:31.001Z</time></trkpt><trkpt lat="44.20561004760258" lon="11.460195115199161"><ele>652.5999999999999</ele><time>2026-04-26T11:49:32.001Z</time></trkpt><trkpt lat="44.20553193674268" lon="11.4601273482697"><ele>651.0</ele><time>2026-04-26T11:49:33.001Z</time></trkpt><trkpt lat="44.2054343261268" lon="11.460076918237636"><ele>651.0</ele><time>2026-04-26T11:49:34.001Z</time></trkpt><trkpt lat="44.20533416060313" lon="11.460026047646519"><ele>651.0</ele><time>2026-04-26T11:49:35.001Z</time></trkpt><trkpt lat="44.20524178292236" lon="11.459968084771676"><ele>651.0</ele><time>2026-04-26T11:49:36.001Z</time></trkpt><trkpt lat="44.20518090986764" lon="11.459926335684965"><ele>651.0</ele><time>2026-04-26T11:49:37.001Z</time></trkpt><trkpt lat="44.205116817123034" lon="11.459826592675215"><ele>651.0</ele><time>2026-04-26T11:49:39.001Z</time></trkpt><trkpt lat="44.20511958994926" lon="11.459676379968078"><ele>652.8333333333334</ele><time>2026-04-26T11:49:41.001Z</time></trkpt><trkpt lat="44.20514288781558" lon="11.459592985219121"><ele>654.6666666666666</ele><time>2026-04-26T11:49:42.001Z</time></trkpt><trkpt lat="44.20520143459995" lon="11.459477872978832"><ele>656.5</ele><time>2026-04-26T11:49:44.001Z</time></trkpt><trkpt lat="44.20524721509618" lon="11.459409377103562"><ele>658.3333333333333</ele><time>2026-04-26T11:49:46.001Z</time></trkpt><trkpt lat="44.2052854617114" lon="11.45928970258135"><ele>660.1666666666666</ele><time>2026-04-26T11:49:49.001Z</time></trkpt><trkpt lat="44.2052494443424" lon="11.45917847240776"><ele>662.0</ele><time>2026-04-26T11:49:51.001Z</time></trkpt><trkpt lat="44.20519686917724" lon="11.45912600266422"><ele>662.0</ele><time>2026-04-26T11:50:33Z</time></trkpt><trkpt lat="44.20513474068378" lon="11.459101853828265"><ele>662.0</ele><time>2026-04-26T11:51:17.001Z</time></trkpt><trkpt lat="44.20507427385096" lon="11.458981540013875"><ele>662.0</ele><time>2026-04-26T11:51:20.001Z</time></trkpt><trkpt lat="44.205037285420175" lon="11.458830164499373"><ele>662.0</ele><time>2026-04-26T11:51:22.001Z</time></trkpt><trkpt lat="44.204976958622936" lon="11.458707121111821"><ele>662.0</ele><time>2026-04-26T11:51:24.001Z</time></trkpt><trkpt lat="44.20494245445158" lon="11.45862571970645"><ele>661.6666666666666</ele><time>2026-04-26T11:51:25.001Z</time></trkpt><trkpt lat="44.20488173406923" lon="11.458588139689367"><ele>661.3333333333333</ele><time>2026-04-26T11:51:26.001Z</time></trkpt><trkpt lat="44.204765961884384" lon="11.458575484606419"><ele>661.0</ele><time>2026-04-26T11:51:28.001Z</time></trkpt><trkpt lat="44.20471113349332" lon="11.458618670675872"><ele>660.6666666666666</ele><time>2026-04-26T11:51:29.001Z</time></trkpt><trkpt lat="44.20466629979449" lon="11.458705873355063"><ele>660.3333333333334</ele><time>2026-04-26T11:51:30.001Z</time></trkpt><trkpt lat="44.20459228337169" lon="11.45882242561924"><ele>660.0</ele><time>2026-04-26T11:51:32.001Z</time></trkpt><trkpt lat="44.20449937713898" lon="11.45887667768933"><ele>660.0</ele><time>2026-04-26T11:51:34.001Z</time></trkpt><trkpt lat="44.20438370261348" lon="11.458849933829162"><ele>660.0</ele><time>2026-04-26T11:51:36.001Z</time></trkpt><trkpt lat="44.204299161128645" lon="11.458854868494825"><ele>660.0</ele><time>2026-04-26T11:51:37.001Z</time></trkpt><trkpt lat="44.20422205672154" lon="11.458848618689265"><ele>660.0</ele><time>2026-04-26T11:51:38.001Z</time></trkpt><trkpt lat="44.20415436494893" lon="11.458820348256625"><ele>660.0</ele><time>2026-04-26T11:51:39.001Z</time></trkpt><trkpt lat="44.20408379598967" lon="11.458801822122807"><ele>660.0</ele><time>2026-04-26T11:51:40.001Z</time></trkpt><trkpt lat="44.20403828076249" lon="11.458729141192165"><ele>664.8333333333334</ele><time>2026-04-26T11:51:41.001Z</time></trkpt><trkpt lat="44.20400135124702" lon="11.458621077595089"><ele>669.6666666666666</ele><time>2026-04-26T11:51:42.001Z</time></trkpt><trkpt lat="44.20396075849246" lon="11.458543136531867"><ele>674.5</ele><time>2026-04-26T11:51:43.001Z</time></trkpt><trkpt lat="44.20384060312264" lon="11.458546798864992"><ele>679.3333333333333</ele><time>2026-04-26T11:51:45.001Z</time></trkpt><trkpt lat="44.20377994681661" lon="11.458609558962616"><ele>684.1666666666666</ele><time>2026-04-26T11:51:46.001Z</time></trkpt><trkpt lat="44.203753712336336" lon="11.458693290942726"><ele>689.0</ele><time>2026-04-26T11:51:47.001Z</time></trkpt><trkpt lat="44.20373126233947" lon="11.458817850538473"><ele>690.75</ele><time>2026-04-26T11:51:48.001Z</time></trkpt><trkpt lat="44.20369090918673" lon="11.458961355273589"><ele>692.5</ele><time>2026-04-26T11:51:49.001Z</time></trkpt><trkpt lat="44.203645525465326" lon="11.459127557591327"><ele>694.25</ele><time>2026-04-26T11:51:50.001Z</time></trkpt><trkpt lat="44.203603941369174" lon="11.459261769627643"><ele>696.0</ele><time>2026-04-26T11:51:51.001Z</time></trkpt><trkpt lat="44.20362853917295" lon="11.459493455956679"><ele>694.25</ele><time>2026-04-26T11:51:52.001Z</time></trkpt><trkpt lat="44.20362547357534" lon="11.459679772336074"><ele>692.5</ele><time>2026-04-26T11:51:53.001Z</time></trkpt><trkpt lat="44.20361119230896" lon="11.459863841825213"><ele>690.75</ele><time>2026-04-26T11:51:54.001Z</time></trkpt><trkpt lat="44.20358220636464" lon="11.460033953879059"><ele>689.0</ele><time>2026-04-26T11:51:55.001Z</time></trkpt><trkpt lat="44.203577632887516" lon="11.460175392231847"><ele>689.0</ele><time>2026-04-26T11:51:56.001Z</time></trkpt><trkpt lat="44.20357073831693" lon="11.460266432633317"><ele>689.0</ele><time>2026-04-26T11:51:57.001Z</time></trkpt><trkpt lat="44.20351723442132" lon="11.460355106308535"><ele>689.0</ele><time>2026-04-26T11:51:59.002Z</time></trkpt><trkpt lat="44.203441611209435" lon="11.460409606613156"><ele>689.0</ele><time>2026-04-26T11:52:00.002Z</time></trkpt><trkpt lat="44.20333641298057" lon="11.460474886347862"><ele>689.0</ele><time>2026-04-26T11:52:01.002Z</time></trkpt><trkpt lat="44.20320108254131" lon="11.460551019917764"><ele>691.25</ele><time>2026-04-26T11:52:02.002Z</time></trkpt><trkpt lat="44.2030705598556" lon="11.460650484993307"><ele>693.5</ele><time>2026-04-26T11:52:03.002Z</time></trkpt><trkpt lat="44.20295652720505" lon="11.460737383747595"><ele>695.75</ele><time>2026-04-26T11:52:04.002Z</time></trkpt><trkpt lat="44.20284879322661" lon="11.460820582883363"><ele>698.0</ele><time>2026-04-26T11:52:05.002Z</time></trkpt><trkpt lat="44.202756233589014" lon="11.460892485551849"><ele>698.0</ele><time>2026-04-26T11:52:06.002Z</time></trkpt><trkpt lat="44.20266445808765" lon="11.460968914305438"><ele>698.0</ele><time>2026-04-26T11:52:07.002Z</time></trkpt><trkpt lat="44.2026049738944" lon="11.461022474740613"><ele>698.0</ele><time>2026-04-26T11:52:08.002Z</time></trkpt><trkpt lat="44.202574543070426" lon="11.461198709091903"><ele>698.0</ele><time>2026-04-26T11:52:10.002Z</time></trkpt><trkpt lat="44.2025755482169" lon="11.461294993773505"><ele>698.0</ele><time>2026-04-26T11:52:10.999Z</time></trkpt><trkpt lat="44.20259928723365" lon="11.461386430016066"><ele>698.0</ele><time>2026-04-26T11:52:11.999Z</time></trkpt><trkpt lat="44.20258945655521" lon="11.461484903417064"><ele>700.25</ele><time>2026-04-26T11:52:12.999Z</time></trkpt><trkpt lat="44.20253136323852" lon="11.461552845548828"><ele>702.5</ele><time>2026-04-26T11:52:13.999Z</time></trkpt><trkpt lat="44.202423234120644" lon="11.46162328841207"><ele>704.75</ele><time>2026-04-26T11:52:14.999Z</time></trkpt><trkpt lat="44.20231060889364" lon="11.4617278954848"><ele>707.0</ele><time>2026-04-26T11:52:15.999Z</time></trkpt><trkpt lat="44.202215814331076" lon="11.461867290312515"><ele>707.0</ele><time>2026-04-26T11:52:16.999Z</time></trkpt><trkpt lat="44.20210365634742" lon="11.461992056156525"><ele>707.0</ele><time>2026-04-26T11:52:17.999Z</time></trkpt><trkpt lat="44.20201097253609" lon="11.462077291166231"><ele>707.0</ele><time>2026-04-26T11:52:18.999Z</time></trkpt><trkpt lat="44.20194463266686" lon="11.462166068528287"><ele>707.0</ele><time>2026-04-26T11:52:19.999Z</time></trkpt><trkpt lat="44.20190324646242" lon="11.462268418526772"><ele>707.0</ele><time>2026-04-26T11:52:20.999Z</time></trkpt><trkpt lat="44.2018440864154" lon="11.462360769405263"><ele>702.6</ele><time>2026-04-26T11:52:21.999Z</time></trkpt><trkpt lat="44.20177629115687" lon="11.462451263800245"><ele>698.2</ele><time>2026-04-26T11:52:22.999Z</time></trkpt><trkpt lat="44.20171896028046" lon="11.462574011955246"><ele>693.8</ele><time>2026-04-26T11:52:23.999Z</time></trkpt><trkpt lat="44.20166755154459" lon="11.4626891006078"><ele>689.4</ele><time>2026-04-26T11:52:24.999Z</time></trkpt><trkpt lat="44.2016326304989" lon="11.462813393917813"><ele>685.0</ele><time>2026-04-26T11:52:25.999Z</time></trkpt><trkpt lat="44.20159858075246" lon="11.462942492821313"><ele>685.4285714285714</ele><time>2026-04-26T11:52:26.999Z</time></trkpt><trkpt lat="44.20157999635048" lon="11.463034250543066"><ele>685.8571428571429</ele><time>2026-04-26T11:52:27.999Z</time></trkpt><trkpt lat="44.20155532149772" lon="11.463120108315008"><ele>686.2857142857143</ele><time>2026-04-26T11:52:28.999Z</time></trkpt><trkpt lat="44.201527964083304" lon="11.463217726629413"><ele>686.7142857142858</ele><time>2026-04-26T11:52:29.999Z</time></trkpt><trkpt lat="44.20148690983469" lon="11.463330424237654"><ele>687.1428571428571</ele><time>2026-04-26T11:52:30.999Z</time></trkpt><trkpt lat="44.20145763904929" lon="11.463431714461606"><ele>687.5714285714287</ele><time>2026-04-26T11:52:31.999Z</time></trkpt><trkpt lat="44.20142778460358" lon="11.463521020663464"><ele>688.0</ele><time>2026-04-26T11:52:32.999Z</time></trkpt><trkpt lat="44.201376787796264" lon="11.463606529543508"><ele>688.0</ele><time>2026-04-26T11:52:34Z</time></trkpt><trkpt lat="44.20132261899193" lon="11.463672520466854"><ele>688.0</ele><time>2026-04-26T11:52:35Z</time></trkpt><trkpt lat="44.20122296731844" lon="11.463761904666155"><ele>688.0</ele><time>2026-04-26T11:52:37Z</time></trkpt><trkpt lat="44.2011218126566" lon="11.463845658924384"><ele>688.0</ele><time>2026-04-26T11:52:39Z</time></trkpt><trkpt lat="44.20105439549341" lon="11.463938584618298"><ele>688.0</ele><time>2026-04-26T11:52:41Z</time></trkpt><trkpt lat="44.201007279487804" lon="11.464044513918529"><ele>681.8</ele><time>2026-04-26T11:52:43Z</time></trkpt><trkpt lat="44.200833317418585" lon="11.464056689640808"><ele>675.5999999999999</ele><time>2026-04-26T11:52:46Z</time></trkpt><trkpt lat="44.20076828853031" lon="11.46401260069441"><ele>669.4000000000001</ele><time>2026-04-26T11:52:47Z</time></trkpt><trkpt lat="44.20064519583974" lon="11.46398196151664"><ele>663.2</ele><time>2026-04-26T11:52:49Z</time></trkpt><trkpt lat="44.20056955164892" lon="11.463981634560827"><ele>657.0</ele><time>2026-04-26T11:52:50Z</time></trkpt><trkpt lat="44.20050228510583" lon="11.463990515434237"><ele>657.0</ele><time>2026-04-26T11:52:51Z</time></trkpt><trkpt lat="44.200443514918646" lon="11.464023804007455"><ele>657.0</ele><time>2026-04-26T11:52:52Z</time></trkpt><trkpt lat="44.20034088696456" lon="11.464006938417356"><ele>657.0</ele><time>2026-04-26T11:52:54Z</time></trkpt><trkpt lat="44.20023830666901" lon="11.46407892281169"><ele>657.0</ele><time>2026-04-26T11:52:56Z</time></trkpt><trkpt lat="44.20017535355569" lon="11.464086541453824"><ele>657.0</ele><time>2026-04-26T11:52:58Z</time></trkpt><trkpt lat="44.20007295996715" lon="11.464110956943584"><ele>657.0</ele><time>2026-04-26T11:53:00Z</time></trkpt><trkpt lat="44.19992005009471" lon="11.46419057147118"><ele>660.0</ele><time>2026-04-26T11:53:01Z</time></trkpt><trkpt lat="44.19981334046563" lon="11.464237272644628"><ele>663.0</ele><time>2026-04-26T11:53:02Z</time></trkpt><trkpt lat="44.19973319629382" lon="11.464309400757381"><ele>666.0</ele><time>2026-04-26T11:53:03Z</time></trkpt><trkpt lat="44.199674190453486" lon="11.46434364046463"><ele>669.0</ele><time>2026-04-26T11:53:04Z</time></trkpt><trkpt lat="44.19960533380701" lon="11.464371929786612"><ele>672.0</ele><time>2026-04-26T11:53:06Z</time></trkpt><trkpt lat="44.19953987453067" lon="11.464444802527053"><ele>675.0</ele><time>2026-04-26T11:53:08Z</time></trkpt><trkpt lat="44.19952068493497" lon="11.464548775657851"><ele>674.0</ele><time>2026-04-26T11:53:10Z</time></trkpt><trkpt lat="44.19954397702391" lon="11.464634553360696"><ele>673.0</ele><time>2026-04-26T11:53:11Z</time></trkpt><trkpt lat="44.19958008766889" lon="11.464709133583794"><ele>672.0</ele><time>2026-04-26T11:53:12Z</time></trkpt><trkpt lat="44.19962677126477" lon="11.464818872165127"><ele>671.0</ele><time>2026-04-26T11:53:13Z</time></trkpt><trkpt lat="44.19966677146448" lon="11.464926215029925"><ele>670.0</ele><time>2026-04-26T11:53:14Z</time></trkpt><trkpt lat="44.19970833395182" lon="11.465058862088881"><ele>669.0</ele><time>2026-04-26T11:53:15Z</time></trkpt><trkpt lat="44.19973022840719" lon="11.465190081638866"><ele>669.0</ele><time>2026-04-26T11:53:16Z</time></trkpt><trkpt lat="44.199717839511386" lon="11.46532937745501"><ele>669.0</ele><time>2026-04-26T11:53:17Z</time></trkpt><trkpt lat="44.19971304421442" lon="11.465472743018651"><ele>669.0</ele><time>2026-04-26T11:53:18Z</time></trkpt><trkpt lat="44.199694365834965" lon="11.465582440386674"><ele>669.0</ele><time>2026-04-26T11:53:19Z</time></trkpt><trkpt lat="44.19967098414545" lon="11.465684333984074"><ele>669.0</ele><time>2026-04-26T11:53:20Z</time></trkpt><trkpt lat="44.19963729518089" lon="11.465792656268336"><ele>669.0</ele><time>2026-04-26T11:53:21.001Z</time></trkpt><trkpt lat="44.19959486280215" lon="11.465923780495762"><ele>670.4000000000001</ele><time>2026-04-26T11:53:22.001Z</time></trkpt><trkpt lat="44.19956073125126" lon="11.46604523003817"><ele>671.8</ele><time>2026-04-26T11:53:23.001Z</time></trkpt><trkpt lat="44.19950236505208" lon="11.46620211683212"><ele>673.2</ele><time>2026-04-26T11:53:24.001Z</time></trkpt><trkpt lat="44.199444499230154" lon="11.466327719695206"><ele>674.5999999999999</ele><time>2026-04-26T11:53:25.001Z</time></trkpt><trkpt lat="44.19946193059892" lon="11.466417828739521"><ele>676.0</ele><time>2026-04-26T11:53:26.001Z</time></trkpt><trkpt lat="44.1994561708554" lon="11.466581099913258"><ele>675.8333333333334</ele><time>2026-04-26T11:53:28.001Z</time></trkpt><trkpt lat="44.19945970763752" lon="11.466703837342175"><ele>675.6666666666667</ele><time>2026-04-26T11:53:29.001Z</time></trkpt><trkpt lat="44.1994649943943" lon="11.466841360747601"><ele>675.5</ele><time>2026-04-26T11:53:30.001Z</time></trkpt><trkpt lat="44.19946822777255" lon="11.466938971905082"><ele>675.3333333333334</ele><time>2026-04-26T11:53:31.001Z</time></trkpt><trkpt lat="44.19941792387275" lon="11.467004906714745"><ele>675.1666666666666</ele><time>2026-04-26T11:53:32.001Z</time></trkpt><trkpt lat="44.19936252486968" lon="11.467051082099742"><ele>675.0</ele><time>2026-04-26T11:53:33.001Z</time></trkpt><trkpt lat="44.199258318609786" lon="11.467158615038848"><ele>675.0</ele><time>2026-04-26T11:53:35.001Z</time></trkpt><trkpt lat="44.1991736990067" lon="11.467226895670423"><ele>675.0</ele><time>2026-04-26T11:53:36.001Z</time></trkpt><trkpt lat="44.19909647737892" lon="11.467312971425669"><ele>675.0</ele><time>2026-04-26T11:53:37.001Z</time></trkpt><trkpt lat="44.199000601107976" lon="11.46741103135636"><ele>675.0</ele><time>2026-04-26T11:53:38.001Z</time></trkpt><trkpt lat="44.19894127285327" lon="11.467463920123512"><ele>675.0</ele><time>2026-04-26T11:53:39.001Z</time></trkpt><trkpt lat="44.1988868453942" lon="11.467518964852516"><ele>677.0</ele><time>2026-04-26T11:53:40.001Z</time></trkpt><trkpt lat="44.19884055700515" lon="11.467578980246373"><ele>679.0</ele><time>2026-04-26T11:53:42.001Z</time></trkpt><trkpt lat="44.19879208564461" lon="11.467661624227528"><ele>681.0</ele><time>2026-04-26T11:53:43.001Z</time></trkpt><trkpt lat="44.198743191040265" lon="11.467726240612976"><ele>683.0</ele><time>2026-04-26T11:53:44.001Z</time></trkpt><trkpt lat="44.19868139861297" lon="11.467811924870304"><ele>685.0</ele><time>2026-04-26T11:53:45.001Z</time></trkpt><trkpt lat="44.19861568630779" lon="11.4678791092743"><ele>687.0</ele><time>2026-04-26T11:53:46.001Z</time></trkpt><trkpt lat="44.19855168023714" lon="11.467920232505085"><ele>689.0</ele><time>2026-04-26T11:53:47.001Z</time></trkpt><trkpt lat="44.198471120047316" lon="11.467982565278225"><ele>689.0</ele><time>2026-04-26T11:53:48.001Z</time></trkpt><trkpt lat="44.198409988020856" lon="11.468051944058715"><ele>689.0</ele><time>2026-04-26T11:53:49.001Z</time></trkpt><trkpt lat="44.19838322871825" lon="11.468144720064643"><ele>689.0</ele><time>2026-04-26T11:53:50.001Z</time></trkpt><trkpt lat="44.198340879156405" lon="11.468273188817577"><ele>689.0</ele><time>2026-04-26T11:53:51.001Z</time></trkpt><trkpt lat="44.19826540984658" lon="11.468333123029552"><ele>689.0</ele><time>2026-04-26T11:53:52.001Z</time></trkpt><trkpt lat="44.19821345537108" lon="11.46843057101176"><ele>689.0</ele><time>2026-04-26T11:53:53.001Z</time></trkpt><trkpt lat="44.19817029000291" lon="11.468511448176256"><ele>689.0</ele><time>2026-04-26T11:53:54.001Z</time></trkpt><trkpt lat="44.19812964731155" lon="11.468621413657898"><ele>689.0</ele><time>2026-04-26T11:53:56.001Z</time></trkpt><trkpt lat="44.19818882072667" lon="11.468744753411054"><ele>689.0</ele><time>2026-04-26T11:53:58.001Z</time></trkpt><trkpt lat="44.198219703551054" lon="11.468868036554273"><ele>689.0</ele><time>2026-04-26T11:53:59.001Z</time></trkpt><trkpt lat="44.198274664214644" lon="11.468976819531623"><ele>689.0</ele><time>2026-04-26T11:54:00.001Z</time></trkpt><trkpt lat="44.19831092925335" lon="11.469086467390676"><ele>688.8333333333333</ele><time>2026-04-26T11:54:01.001Z</time></trkpt><trkpt lat="44.19835790146833" lon="11.469187032445554"><ele>688.6666666666666</ele><time>2026-04-26T11:54:02.001Z</time></trkpt><trkpt lat="44.198398301303534" lon="11.469262817053933"><ele>688.5</ele><time>2026-04-26T11:54:03.001Z</time></trkpt><trkpt lat="44.198458719886574" lon="11.469321526235891"><ele>688.3333333333334</ele><time>2026-04-26T11:54:04.001Z</time></trkpt><trkpt lat="44.19850278222078" lon="11.46942914898139"><ele>688.1666666666667</ele><time>2026-04-26T11:54:05.001Z</time></trkpt><trkpt lat="44.19858316720364" lon="11.469485768609724"><ele>688.0</ele><time>2026-04-26T11:54:06.001Z</time></trkpt><trkpt lat="44.19864614945217" lon="11.469544523265311"><ele>688.0</ele><time>2026-04-26T11:54:07.001Z</time></trkpt><trkpt lat="44.19869879508794" lon="11.469647335216328"><ele>688.0</ele><time>2026-04-26T11:54:09.001Z</time></trkpt><trkpt lat="44.19873836880029" lon="11.469739240739843"><ele>688.0</ele><time>2026-04-26T11:54:10.001Z</time></trkpt><trkpt lat="44.198781266535214" lon="11.469814746526527"><ele>688.0</ele><time>2026-04-26T11:54:11.001Z</time></trkpt><trkpt lat="44.19886631791659" lon="11.469873879674543"><ele>688.0</ele><time>2026-04-26T11:54:12.001Z</time></trkpt><trkpt lat="44.19893901107173" lon="11.4699764294305"><ele>688.0</ele><time>2026-04-26T11:54:13.001Z</time></trkpt><trkpt lat="44.19901062108889" lon="11.470069678528745"><ele>688.0</ele><time>2026-04-26T11:54:14.001Z</time></trkpt><trkpt lat="44.199062566930024" lon="11.470152183953966"><ele>688.0</ele><time>2026-04-26T11:54:15.001Z</time></trkpt><trkpt lat="44.199117910389425" lon="11.470262515716191"><ele>688.0</ele><time>2026-04-26T11:54:16.001Z</time></trkpt><trkpt lat="44.199181231362985" lon="11.470396898309387"><ele>688.0</ele><time>2026-04-26T11:54:17Z</time></trkpt><trkpt lat="44.19924151515738" lon="11.470536031071836"><ele>688.0</ele><time>2026-04-26T11:54:18Z</time></trkpt><trkpt lat="44.199302853154656" lon="11.470671903444654"><ele>690.5</ele><time>2026-04-26T11:54:19Z</time></trkpt><trkpt lat="44.1993676182404" lon="11.470812442700371"><ele>693.0</ele><time>2026-04-26T11:54:20Z</time></trkpt><trkpt lat="44.1994418272929" lon="11.470959238196222"><ele>695.5</ele><time>2026-04-26T11:54:21Z</time></trkpt><trkpt lat="44.19952638377538" lon="11.471085302301262"><ele>698.0</ele><time>2026-04-26T11:54:22Z</time></trkpt><trkpt lat="44.19960847725269" lon="11.471203819052146"><ele>697.75</ele><time>2026-04-26T11:54:23Z</time></trkpt><trkpt lat="44.19968027425195" lon="11.471311682242762"><ele>697.5</ele><time>2026-04-26T11:54:24Z</time></trkpt><trkpt lat="44.199756946823186" lon="11.471434116732809"><ele>697.25</ele><time>2026-04-26T11:54:25Z</time></trkpt><trkpt lat="44.199867318886405" lon="11.471564532080215"><ele>697.0</ele><time>2026-04-26T11:54:26Z</time></trkpt><trkpt lat="44.19996531663874" lon="11.471710046245922"><ele>697.0</ele><time>2026-04-26T11:54:27Z</time></trkpt><trkpt lat="44.200025347493224" lon="11.471845123126052"><ele>697.0</ele><time>2026-04-26T11:54:28Z</time></trkpt><trkpt lat="44.20007927634078" lon="11.4719545357626"><ele>697.0</ele><time>2026-04-26T11:54:29Z</time></trkpt><trkpt lat="44.20012989986593" lon="11.47203761050285"><ele>697.0</ele><time>2026-04-26T11:54:30Z</time></trkpt><trkpt lat="44.20017600240141" lon="11.472156680921687"><ele>697.0</ele><time>2026-04-26T11:54:31Z</time></trkpt><trkpt lat="44.200225037325744" lon="11.472285169267282"><ele>699.0</ele><time>2026-04-26T11:54:32Z</time></trkpt><trkpt lat="44.20028525934193" lon="11.472418616129826"><ele>701.0</ele><time>2026-04-26T11:54:33Z</time></trkpt><trkpt lat="44.20035111859771" lon="11.472539831764271"><ele>703.0</ele><time>2026-04-26T11:54:34Z</time></trkpt><trkpt lat="44.20040335142096" lon="11.472635460595958"><ele>705.0</ele><time>2026-04-26T11:54:35Z</time></trkpt><trkpt lat="44.2004427555021" lon="11.472707742737242"><ele>707.0</ele><time>2026-04-26T11:54:36Z</time></trkpt><trkpt lat="44.200505144575466" lon="11.47277691764349"><ele>707.0</ele><time>2026-04-26T11:54:38Z</time></trkpt><trkpt lat="44.20058133743908" lon="11.472793535429972"><ele>707.0</ele><time>2026-04-26T11:55:50.001Z</time></trkpt><trkpt lat="44.200656255592705" lon="11.472824628879428"><ele>707.0</ele><time>2026-04-26T11:55:52.001Z</time></trkpt><trkpt lat="44.200722392909626" lon="11.472867801784128"><ele>707.0</ele><time>2026-04-26T11:55:53.001Z</time></trkpt><trkpt lat="44.20080747112766" lon="11.472918725734619"><ele>707.0</ele><time>2026-04-26T11:55:54.001Z</time></trkpt><trkpt lat="44.200906590678954" lon="11.47297261502076"><ele>707.0</ele><time>2026-04-26T11:55:55.001Z</time></trkpt><trkpt lat="44.201012852843796" lon="11.473024101958776"><ele>707.25</ele><time>2026-04-26T11:55:56.001Z</time></trkpt><trkpt lat="44.20113331117736" lon="11.473059077926326"><ele>707.5</ele><time>2026-04-26T11:55:57.001Z</time></trkpt><trkpt lat="44.201265966921945" lon="11.47309241272983"><ele>707.75</ele><time>2026-04-26T11:55:58.001Z</time></trkpt><trkpt lat="44.201406118873855" lon="11.4731365791568"><ele>708.0</ele><time>2026-04-26T11:55:59.001Z</time></trkpt><trkpt lat="44.20156090364727" lon="11.473191335472112"><ele>703.0</ele><time>2026-04-26T11:56:00.001Z</time></trkpt><trkpt lat="44.20170570828037" lon="11.473269054524389"><ele>698.0</ele><time>2026-04-26T11:56:01.002Z</time></trkpt><trkpt lat="44.20185412972722" lon="11.47333075119703"><ele>693.0</ele><time>2026-04-26T11:56:02.002Z</time></trkpt><trkpt lat="44.20199979652217" lon="11.473396216018482"><ele>693.0</ele><time>2026-04-26T11:56:03.002Z</time></trkpt><trkpt lat="44.202147456763754" lon="11.473468715677221"><ele>693.0</ele><time>2026-04-26T11:56:04.002Z</time></trkpt><trkpt lat="44.2022877009303" lon="11.47354914228812"><ele>693.0</ele><time>2026-04-26T11:56:05.002Z</time></trkpt><trkpt lat="44.202413602560114" lon="11.473645224294254"><ele>691.75</ele><time>2026-04-26T11:56:06.002Z</time></trkpt><trkpt lat="44.20254000589267" lon="11.473754118476968"><ele>690.5</ele><time>2026-04-26T11:56:07.002Z</time></trkpt><trkpt lat="44.202670160762416" lon="11.473843905588936"><ele>689.25</ele><time>2026-04-26T11:56:08.002Z</time></trkpt><trkpt lat="44.20279267311857" lon="11.473932026268391"><ele>688.0</ele><time>2026-04-26T11:56:09.002Z</time></trkpt><trkpt lat="44.202920278529696" lon="11.474053168829364"><ele>688.0</ele><time>2026-04-26T11:56:10.002Z</time></trkpt><trkpt lat="44.203042267202484" lon="11.474150264782866"><ele>688.0</ele><time>2026-04-26T11:56:11.002Z</time></trkpt><trkpt lat="44.20316550163108" lon="11.474237505388858"><ele>688.0</ele><time>2026-04-26T11:56:12.002Z</time></trkpt><trkpt lat="44.20327539406836" lon="11.474341451763799"><ele>688.0</ele><time>2026-04-26T11:56:13.002Z</time></trkpt><trkpt lat="44.20338529173178" lon="11.474452183881258"><ele>687.5</ele><time>2026-04-26T11:56:14.002Z</time></trkpt><trkpt lat="44.20352532769062" lon="11.474499432863366"><ele>687.0</ele><time>2026-04-26T11:56:15.002Z</time></trkpt><trkpt lat="44.20365841372449" lon="11.474556766105202"><ele>686.5</ele><time>2026-04-26T11:56:16.002Z</time></trkpt><trkpt lat="44.2037835912939" lon="11.474663093886575"><ele>686.0</ele><time>2026-04-26T11:56:17.002Z</time></trkpt><trkpt lat="44.20391802456679" lon="11.474760903769988"><ele>680.3333333333333</ele><time>2026-04-26T11:56:18.002Z</time></trkpt><trkpt lat="44.2040617650613" lon="11.474845511272362"><ele>674.6666666666666</ele><time>2026-04-26T11:56:19.002Z</time></trkpt><trkpt lat="44.204212565830964" lon="11.47492037746007"><ele>669.0</ele><time>2026-04-26T11:56:20.002Z</time></trkpt><trkpt lat="44.20435155326239" lon="11.474965461171044"><ele>669.0</ele><time>2026-04-26T11:56:21.002Z</time></trkpt><trkpt lat="44.20448788984088" lon="11.475031398209602"><ele>669.0</ele><time>2026-04-26T11:56:22.002Z</time></trkpt><trkpt lat="44.20461037174888" lon="11.47507539070407"><ele>669.0</ele><time>2026-04-26T11:56:23Z</time></trkpt><trkpt lat="44.20473427220441" lon="11.475135686805212"><ele>669.0</ele><time>2026-04-26T11:56:24Z</time></trkpt><trkpt lat="44.2048638661059" lon="11.47517948587011"><ele>666.25</ele><time>2026-04-26T11:56:25Z</time></trkpt><trkpt lat="44.20499298007677" lon="11.475208841066879"><ele>663.5</ele><time>2026-04-26T11:56:26Z</time></trkpt><trkpt lat="44.20511650605658" lon="11.475229459493555"><ele>660.75</ele><time>2026-04-26T11:56:27Z</time></trkpt><trkpt lat="44.20524974990354" lon="11.475249842842286"><ele>658.0</ele><time>2026-04-26T11:56:28Z</time></trkpt><trkpt lat="44.205373103163716" lon="11.475265093840601"><ele>658.0</ele><time>2026-04-26T11:56:29Z</time></trkpt><trkpt lat="44.20548309725801" lon="11.475273165761513"><ele>658.0</ele><time>2026-04-26T11:56:30Z</time></trkpt><trkpt lat="44.205595940355565" lon="11.47528888842142"><ele>658.0</ele><time>2026-04-26T11:56:31Z</time></trkpt><trkpt lat="44.205712456118846" lon="11.475302603114235"><ele>658.0</ele><time>2026-04-26T11:56:32Z</time></trkpt><trkpt lat="44.20583071835353" lon="11.475348811146425"><ele>656.25</ele><time>2026-04-26T11:56:33Z</time></trkpt><trkpt lat="44.20595234683396" lon="11.475429385012342"><ele>654.5</ele><time>2026-04-26T11:56:34Z</time></trkpt><trkpt lat="44.2060755661866" lon="11.47553029330277"><ele>652.75</ele><time>2026-04-26T11:56:35Z</time></trkpt><trkpt lat="44.20619795569825" lon="11.475606121928417"><ele>651.0</ele><time>2026-04-26T11:56:36Z</time></trkpt><trkpt lat="44.20632359606678" lon="11.475695570694079"><ele>651.0</ele><time>2026-04-26T11:56:37Z</time></trkpt><trkpt lat="44.206432950790834" lon="11.475835544320029"><ele>651.0</ele><time>2026-04-26T11:56:38Z</time></trkpt><trkpt lat="44.20651467417148" lon="11.475932987473746"><ele>651.0</ele><time>2026-04-26T11:56:39Z</time></trkpt><trkpt lat="44.206587948687606" lon="11.475986421707823"><ele>651.0</ele><time>2026-04-26T11:56:40Z</time></trkpt><trkpt lat="44.20666505316458" lon="11.47610079005827"><ele>651.0</ele><time>2026-04-26T11:56:42Z</time></trkpt><trkpt lat="44.206751782822025" lon="11.476200747425564"><ele>651.0</ele><time>2026-04-26T11:56:44Z</time></trkpt><trkpt lat="44.206800942109325" lon="11.476268678451918"><ele>651.0</ele><time>2026-04-26T11:56:45Z</time></trkpt><trkpt lat="44.206850586246205" lon="11.476332609803377"><ele>651.0</ele><time>2026-04-26T11:56:46Z</time></trkpt><trkpt lat="44.20692208282479" lon="11.476413897594766"><ele>651.0</ele><time>2026-04-26T11:56:47Z</time></trkpt><trkpt lat="44.206986920081704" lon="11.47649489865054"><ele>651.0</ele><time>2026-04-26T11:56:48Z</time></trkpt><trkpt lat="44.20706309483684" lon="11.476590664526947"><ele>651.1999999999999</ele><time>2026-04-26T11:56:49Z</time></trkpt><trkpt lat="44.207126654833466" lon="11.476714565810916"><ele>651.4</ele><time>2026-04-26T11:56:50Z</time></trkpt><trkpt lat="44.20718147239969" lon="11.47685301719781"><ele>651.6</ele><time>2026-04-26T11:56:51Z</time></trkpt><trkpt lat="44.207224405429486" lon="11.476996483446532"><ele>651.8</ele><time>2026-04-26T11:56:52Z</time></trkpt><trkpt lat="44.20728877257774" lon="11.47712395540711"><ele>652.0</ele><time>2026-04-26T11:56:53Z</time></trkpt><trkpt lat="44.207372285718904" lon="11.477258756638754"><ele>652.0</ele><time>2026-04-26T11:56:54Z</time></trkpt><trkpt lat="44.20746402925699" lon="11.477375949033995"><ele>652.0</ele><time>2026-04-26T11:56:55Z</time></trkpt><trkpt lat="44.207565501023595" lon="11.477477057925654"><ele>652.0</ele><time>2026-04-26T11:56:56Z</time></trkpt><trkpt lat="44.20766646145956" lon="11.477565403907612"><ele>652.0</ele><time>2026-04-26T11:56:57Z</time></trkpt><trkpt lat="44.20776941618912" lon="11.4776344603231"><ele>652.0</ele><time>2026-04-26T11:56:58Z</time></trkpt><trkpt lat="44.207871913237575" lon="11.47770127864089"><ele>652.0</ele><time>2026-04-26T11:56:59.001Z</time></trkpt><trkpt lat="44.20797650230961" lon="11.477757277534996"><ele>652.0</ele><time>2026-04-26T11:57:00.001Z</time></trkpt><trkpt lat="44.208081848182346" lon="11.47781325060236"><ele>652.0</ele><time>2026-04-26T11:57:01.001Z</time></trkpt><trkpt lat="44.2081873212949" lon="11.477874996996402"><ele>650.2</ele><time>2026-04-26T11:57:02.001Z</time></trkpt><trkpt lat="44.208300009930795" lon="11.477944539880932"><ele>648.4000000000001</ele><time>2026-04-26T11:57:03.001Z</time></trkpt><trkpt lat="44.20840536036372" lon="11.478013096426885"><ele>646.5999999999999</ele><time>2026-04-26T11:57:04.001Z</time></trkpt><trkpt lat="44.208500996677266" lon="11.478082165629493"><ele>644.8</ele><time>2026-04-26T11:57:05.001Z</time></trkpt><trkpt lat="44.2085842969839" lon="11.478146529580245"><ele>643.0</ele><time>2026-04-26T11:57:06.001Z</time></trkpt><trkpt lat="44.20866541461414" lon="11.4782024102238"><ele>643.0</ele><time>2026-04-26T11:57:07.001Z</time></trkpt><trkpt lat="44.20873103199094" lon="11.478245132447428"><ele>643.0</ele><time>2026-04-26T11:57:08.001Z</time></trkpt><trkpt lat="44.208789452006684" lon="11.478286007424455"><ele>643.0</ele><time>2026-04-26T11:57:09.001Z</time></trkpt><trkpt lat="44.20886160450262" lon="11.478343916413234"><ele>643.0</ele><time>2026-04-26T11:57:10.001Z</time></trkpt><trkpt lat="44.20894324690528" lon="11.47844216399768"><ele>643.0</ele><time>2026-04-26T11:57:11.001Z</time></trkpt><trkpt lat="44.20902849281926" lon="11.478557430559375"><ele>643.0</ele><time>2026-04-26T11:57:12.001Z</time></trkpt><trkpt lat="44.20911376247962" lon="11.478652959348812"><ele>640.5</ele><time>2026-04-26T11:57:13.001Z</time></trkpt><trkpt lat="44.209184562601365" lon="11.478731022740266"><ele>638.0</ele><time>2026-04-26T11:57:14.001Z</time></trkpt><trkpt lat="44.209299833420296" lon="11.47876176075313"><ele>635.5</ele><time>2026-04-26T11:57:16.001Z</time></trkpt><trkpt lat="44.209358458745776" lon="11.47871162259118"><ele>633.0</ele><time>2026-04-26T11:57:17.001Z</time></trkpt><trkpt lat="44.20938420628405" lon="11.478605439283823"><ele>630.5</ele><time>2026-04-26T11:57:18.001Z</time></trkpt><trkpt lat="44.20937592978281" lon="11.478481680557875"><ele>628.0</ele><time>2026-04-26T11:57:19.001Z</time></trkpt><trkpt lat="44.20934248534319" lon="11.478358740161191"><ele>628.0</ele><time>2026-04-26T11:57:20.001Z</time></trkpt><trkpt lat="44.209306836207354" lon="11.478239589939031"><ele>628.0</ele><time>2026-04-26T11:57:21.001Z</time></trkpt><trkpt lat="44.20927301441214" lon="11.478106615784665"><ele>628.0</ele><time>2026-04-26T11:57:22.001Z</time></trkpt><trkpt lat="44.209247303224984" lon="11.477976605154158"><ele>628.0</ele><time>2026-04-26T11:57:23.001Z</time></trkpt><trkpt lat="44.20921880496515" lon="11.477840900501034"><ele>628.0</ele><time>2026-04-26T11:57:24.001Z</time></trkpt><trkpt lat="44.20918859238981" lon="11.477717560364075"><ele>627.5</ele><time>2026-04-26T11:57:25.001Z</time></trkpt><trkpt lat="44.209152444948984" lon="11.477599117106982"><ele>627.0</ele><time>2026-04-26T11:57:26.001Z</time></trkpt><trkpt lat="44.20912158089465" lon="11.477489211950429"><ele>626.5</ele><time>2026-04-26T11:57:27.001Z</time></trkpt><trkpt lat="44.20908803283944" lon="11.477381030156067"><ele>626.0</ele><time>2026-04-26T11:57:28.001Z</time></trkpt><trkpt lat="44.20905496149394" lon="11.477285952828906"><ele>625.5</ele><time>2026-04-26T11:57:29.001Z</time></trkpt><trkpt lat="44.2090211836657" lon="11.477187852529937"><ele>625.0</ele><time>2026-04-26T11:57:30.001Z</time></trkpt><trkpt lat="44.20898786392795" lon="11.477091732002064"><ele>625.0</ele><time>2026-04-26T11:57:31.001Z</time></trkpt><trkpt lat="44.208954732432005" lon="11.476994034412433"><ele>625.0</ele><time>2026-04-26T11:57:32.001Z</time></trkpt><trkpt lat="44.2089266630378" lon="11.476898448700242"><ele>625.0</ele><time>2026-04-26T11:57:33.001Z</time></trkpt><trkpt lat="44.208898237345785" lon="11.476814766548754"><ele>625.0</ele><time>2026-04-26T11:57:34.001Z</time></trkpt><trkpt lat="44.2088669466492" lon="11.476696148396977"><ele>625.0</ele><time>2026-04-26T11:57:36.001Z</time></trkpt><trkpt lat="44.20893594577786" lon="11.476585314956418"><ele>625.0</ele><time>2026-04-26T11:57:39.001Z</time></trkpt><trkpt lat="44.20902141088509" lon="11.476558277081175"><ele>621.4</ele><time>2026-04-26T11:57:41.001Z</time></trkpt><trkpt lat="44.20912653984387" lon="11.476652934682907"><ele>617.8</ele><time>2026-04-26T11:57:43.001Z</time></trkpt><trkpt lat="44.20920669207294" lon="11.476716023780885"><ele>614.2</ele><time>2026-04-26T11:57:44.001Z</time></trkpt><trkpt lat="44.209280031226655" lon="11.47677033009297"><ele>610.6</ele><time>2026-04-26T11:57:45.001Z</time></trkpt><trkpt lat="44.209363907356256" lon="11.476808098962803"><ele>607.0</ele><time>2026-04-26T11:57:46.001Z</time></trkpt><trkpt lat="44.20945342480605" lon="11.47681437617159"><ele>607.0</ele><time>2026-04-26T11:57:47.001Z</time></trkpt><trkpt lat="44.2095225321784" lon="11.476808320541982"><ele>607.0</ele><time>2026-04-26T11:57:48.001Z</time></trkpt><trkpt lat="44.20959651639908" lon="11.476811745190888"><ele>607.0</ele><time>2026-04-26T11:57:49.001Z</time></trkpt><trkpt lat="44.20967680541775" lon="11.476839281954627"><ele>607.0</ele><time>2026-04-26T11:57:50.001Z</time></trkpt><trkpt lat="44.20976663481991" lon="11.476888187362485"><ele>607.0</ele><time>2026-04-26T11:57:51.001Z</time></trkpt><trkpt lat="44.20986430712101" lon="11.47696076957877"><ele>607.0</ele><time>2026-04-26T11:57:52.001Z</time></trkpt><trkpt lat="44.20996544557554" lon="11.477047653149038"><ele>604.25</ele><time>2026-04-26T11:57:53.001Z</time></trkpt><trkpt lat="44.21007083456227" lon="11.477161088540614"><ele>601.5</ele><time>2026-04-26T11:57:54.001Z</time></trkpt><trkpt lat="44.21015342749646" lon="11.477270632641266"><ele>598.75</ele><time>2026-04-26T11:57:55.001Z</time></trkpt><trkpt lat="44.21022908133511" lon="11.477393444811758"><ele>596.0</ele><time>2026-04-26T11:57:56.002Z</time></trkpt><trkpt lat="44.21030338014601" lon="11.477501956425487"><ele>596.0</ele><time>2026-04-26T11:57:57.002Z</time></trkpt><trkpt lat="44.210344496271745" lon="11.477600818957402"><ele>596.0</ele><time>2026-04-26T11:57:58.002Z</time></trkpt><trkpt lat="44.21040918297053" lon="11.477660743057859"><ele>596.0</ele><time>2026-04-26T11:57:59.002Z</time></trkpt><trkpt lat="44.210546391212304" lon="11.477621106545488"><ele>596.0</ele><time>2026-04-26T11:58:01.002Z</time></trkpt><trkpt lat="44.2105393812363" lon="11.477434894995916"><ele>596.0</ele><time>2026-04-26T11:58:02.002Z</time></trkpt><trkpt lat="44.21050813335196" lon="11.47733178312888"><ele>596.0</ele><time>2026-04-26T11:58:03.002Z</time></trkpt><trkpt lat="44.21043933450401" lon="11.477233310783673"><ele>596.0</ele><time>2026-04-26T11:58:04.002Z</time></trkpt><trkpt lat="44.21038333667294" lon="11.477146590646036"><ele>596.0</ele><time>2026-04-26T11:58:05.002Z</time></trkpt><trkpt lat="44.21043603821499" lon="11.477016459800112"><ele>596.0</ele><time>2026-04-26T11:58:07.002Z</time></trkpt><trkpt lat="44.21051627391531" lon="11.477017728829816"><ele>596.0</ele><time>2026-04-26T11:58:08.002Z</time></trkpt><trkpt lat="44.210593815983415" lon="11.47705045340154"><ele>590.75</ele><time>2026-04-26T11:58:09.002Z</time></trkpt><trkpt lat="44.21067143551165" lon="11.477164347174618"><ele>585.5</ele><time>2026-04-26T11:58:10.002Z</time></trkpt><trkpt lat="44.21074843834993" lon="11.477290857166508"><ele>580.25</ele><time>2026-04-26T11:58:11.002Z</time></trkpt><trkpt lat="44.21086183194574" lon="11.477410423053685"><ele>575.0</ele><time>2026-04-26T11:58:12.002Z</time></trkpt><trkpt lat="44.21097872905952" lon="11.477511542367573"><ele>575.0</ele><time>2026-04-26T11:58:13.002Z</time></trkpt><trkpt lat="44.21107704493978" lon="11.477628258022635"><ele>575.0</ele><time>2026-04-26T11:58:14.002Z</time></trkpt><trkpt lat="44.211164502279374" lon="11.477765797505423"><ele>575.0</ele><time>2026-04-26T11:58:15.002Z</time></trkpt><trkpt lat="44.21123437428177" lon="11.477901719019634"><ele>575.0</ele><time>2026-04-26T11:58:16.002Z</time></trkpt><trkpt lat="44.21131146872855" lon="11.47802812785218"><ele>577.4</ele><time>2026-04-26T11:58:17.002Z</time></trkpt><trkpt lat="44.21139658730466" lon="11.47813627065281"><ele>579.8</ele><time>2026-04-26T11:58:18.002Z</time></trkpt><trkpt lat="44.21149926682847" lon="11.478190452446247"><ele>582.2</ele><time>2026-04-26T11:58:19.002Z</time></trkpt><trkpt lat="44.21158141367308" lon="11.47824737445455"><ele>584.6</ele><time>2026-04-26T11:58:20.002Z</time></trkpt><trkpt lat="44.211598449606086" lon="11.478351573223987"><ele>587.0</ele><time>2026-04-26T11:58:21.002Z</time></trkpt><trkpt lat="44.21166877207277" lon="11.478476692745446"><ele>580.5</ele><time>2026-04-26T11:58:22.002Z</time></trkpt><trkpt lat="44.21173675911244" lon="11.478574640641602"><ele>574.0</ele><time>2026-04-26T11:58:23.002Z</time></trkpt><trkpt lat="44.21184528570384" lon="11.478613324757239"><ele>567.5</ele><time>2026-04-26T11:58:24.002Z</time></trkpt><trkpt lat="44.21197683459416" lon="11.478619918924842"><ele>561.0</ele><time>2026-04-26T11:58:25.002Z</time></trkpt><trkpt lat="44.21208396144683" lon="11.47865493279304"><ele>561.0</ele><time>2026-04-26T11:58:26.002Z</time></trkpt><trkpt lat="44.21215268611849" lon="11.478748595087124"><ele>561.0</ele><time>2026-04-26T11:58:27.002Z</time></trkpt><trkpt lat="44.21222696597473" lon="11.47886979315923"><ele>561.0</ele><time>2026-04-26T11:58:28.002Z</time></trkpt><trkpt lat="44.21230347357017" lon="11.479005398561625"><ele>561.0</ele><time>2026-04-26T11:58:29Z</time></trkpt><trkpt lat="44.21236460161758" lon="11.47912583472554"><ele>561.0</ele><time>2026-04-26T11:58:30Z</time></trkpt><trkpt lat="44.2124542381552" lon="11.47923304811848"><ele>560.25</ele><time>2026-04-26T11:58:31Z</time></trkpt><trkpt lat="44.212543287520695" lon="11.479329330868637"><ele>559.5</ele><time>2026-04-26T11:58:32Z</time></trkpt><trkpt lat="44.21263752756999" lon="11.479428568438355"><ele>558.75</ele><time>2026-04-26T11:58:33Z</time></trkpt><trkpt lat="44.212720305516186" lon="11.479534325275571"><ele>558.0</ele><time>2026-04-26T11:58:34Z</time></trkpt><trkpt lat="44.21283820209272" lon="11.479633915542326"><ele>558.0</ele><time>2026-04-26T11:58:35Z</time></trkpt><trkpt lat="44.21291797290366" lon="11.479723183498194"><ele>558.0</ele><time>2026-04-26T11:58:36Z</time></trkpt><trkpt lat="44.21301263467894" lon="11.479813605401588"><ele>558.0</ele><time>2026-04-26T11:58:37Z</time></trkpt><trkpt lat="44.21309998804" lon="11.479894950242446"><ele>558.0</ele><time>2026-04-26T11:58:38Z</time></trkpt><trkpt lat="44.21317713495512" lon="11.480009027757173"><ele>558.0</ele><time>2026-04-26T11:58:39Z</time></trkpt><trkpt lat="44.21325910749929" lon="11.480107218862665"><ele>556.0</ele><time>2026-04-26T11:58:40Z</time></trkpt><trkpt lat="44.2133399427971" lon="11.480196671914921"><ele>554.0</ele><time>2026-04-26T11:58:41Z</time></trkpt><trkpt lat="44.21344738799695" lon="11.480292130818414"><ele>552.0</ele><time>2026-04-26T11:58:42Z</time></trkpt><trkpt lat="44.213544750898514" lon="11.480380556177632"><ele>550.0</ele><time>2026-04-26T11:58:43Z</time></trkpt><trkpt lat="44.213645168061674" lon="11.480473306066935"><ele>550.0</ele><time>2026-04-26T11:58:44Z</time></trkpt><trkpt lat="44.21375249506854" lon="11.480559803385754"><ele>550.0</ele><time>2026-04-26T11:58:45Z</time></trkpt><trkpt lat="44.21385276522178" lon="11.480602339175473"><ele>550.0</ele><time>2026-04-26T11:58:46Z</time></trkpt><trkpt lat="44.213938706593346" lon="11.480656785059665"><ele>550.0</ele><time>2026-04-26T11:58:47Z</time></trkpt><trkpt lat="44.21399904675257" lon="11.480722305532261"><ele>550.0</ele><time>2026-04-26T11:58:48Z</time></trkpt><trkpt lat="44.214038383063105" lon="11.480832860098111"><ele>544.0</ele><time>2026-04-26T11:58:49Z</time></trkpt><trkpt lat="44.21406225962384" lon="11.48098480021894"><ele>538.0</ele><time>2026-04-26T11:58:50Z</time></trkpt><trkpt lat="44.21408363294626" lon="11.481141245586242"><ele>532.0</ele><time>2026-04-26T11:58:51Z</time></trkpt><trkpt lat="44.21414735606313" lon="11.481261794535888"><ele>526.0</ele><time>2026-04-26T11:58:52Z</time></trkpt><trkpt lat="44.214260427306805" lon="11.481329890180689"><ele>526.0</ele><time>2026-04-26T11:58:53Z</time></trkpt><trkpt lat="44.21437104529211" lon="11.481371376310356"><ele>526.0</ele><time>2026-04-26T11:58:54Z</time></trkpt><trkpt lat="44.21448376388387" lon="11.481411430993166"><ele>526.0</ele><time>2026-04-26T11:58:55Z</time></trkpt><trkpt lat="44.21457511208054" lon="11.48150185197521"><ele>526.0</ele><time>2026-04-26T11:58:56.001Z</time></trkpt><trkpt lat="44.2146424714701" lon="11.481642064346477"><ele>526.0</ele><time>2026-04-26T11:58:57.001Z</time></trkpt><trkpt lat="44.214695432898296" lon="11.48182566603644"><ele>526.0</ele><time>2026-04-26T11:58:58.001Z</time></trkpt><trkpt lat="44.214736341855385" lon="11.482039177732068"><ele>526.0</ele><time>2026-04-26T11:58:59.001Z</time></trkpt><trkpt lat="44.21477541073851" lon="11.482254625637303"><ele>516.3333333333334</ele><time>2026-04-26T11:59:00.001Z</time></trkpt><trkpt lat="44.21484418656779" lon="11.48246844825015"><ele>506.66666666666663</ele><time>2026-04-26T11:59:01.001Z</time></trkpt><trkpt lat="44.21493067172408" lon="11.482692526891679"><ele>497.0</ele><time>2026-04-26T11:59:02.001Z</time></trkpt><trkpt lat="44.215022068966846" lon="11.48289542896616"><ele>497.0</ele><time>2026-04-26T11:59:03.001Z</time></trkpt><trkpt lat="44.21510645256738" lon="11.483069288566645"><ele>497.0</ele><time>2026-04-26T11:59:04.001Z</time></trkpt><trkpt lat="44.215151721652404" lon="11.483231090419242"><ele>497.0</ele><time>2026-04-26T11:59:05.001Z</time></trkpt><trkpt lat="44.21518199533892" lon="11.483407560160147"><ele>497.0</ele><time>2026-04-26T11:59:06.001Z</time></trkpt><trkpt lat="44.21520311595006" lon="11.48360033000704"><ele>497.0</ele><time>2026-04-26T11:59:07.001Z</time></trkpt><trkpt lat="44.21523151642284" lon="11.483776100141966"><ele>497.0</ele><time>2026-04-26T11:59:08.001Z</time></trkpt><trkpt lat="44.21526470687915" lon="11.483950776965147"><ele>497.0</ele><time>2026-04-26T11:59:09.001Z</time></trkpt><trkpt lat="44.21531671677641" lon="11.484106167844734"><ele>497.0</ele><time>2026-04-26T11:59:10.001Z</time></trkpt><trkpt lat="44.21538334608238" lon="11.48424576724691"><ele>497.0</ele><time>2026-04-26T11:59:11.001Z</time></trkpt><trkpt lat="44.21546057884233" lon="11.484374778978308"><ele>497.0</ele><time>2026-04-26T11:59:12.001Z</time></trkpt><trkpt lat="44.215529865316704" lon="11.484502952494227"><ele>497.0</ele><time>2026-04-26T11:59:13.001Z</time></trkpt><trkpt lat="44.21561908677619" lon="11.484588559059828"><ele>497.0</ele><time>2026-04-26T11:59:14.001Z</time></trkpt><trkpt lat="44.2157238640556" lon="11.48465528635293"><ele>498.40000000000003</ele><time>2026-04-26T11:59:15.001Z</time></trkpt><trkpt lat="44.21583247847919" lon="11.484701904739996"><ele>499.80000000000007</ele><time>2026-04-26T11:59:16.001Z</time></trkpt><trkpt lat="44.215933758218576" lon="11.48474162928343"><ele>501.2</ele><time>2026-04-26T11:59:17.001Z</time></trkpt><trkpt lat="44.21603741747537" lon="11.484780996941286"><ele>502.6</ele><time>2026-04-26T11:59:18.001Z</time></trkpt><trkpt lat="44.21614825138397" lon="11.484823681922137"><ele>504.0</ele><time>2026-04-26T11:59:19.001Z</time></trkpt><trkpt lat="44.21627443173818" lon="11.484882117037566"><ele>504.0</ele><time>2026-04-26T11:59:20.001Z</time></trkpt><trkpt lat="44.21640030441284" lon="11.484962864504691"><ele>504.0</ele><time>2026-04-26T11:59:21.001Z</time></trkpt><trkpt lat="44.21652178433534" lon="11.485068534380583"><ele>504.0</ele><time>2026-04-26T11:59:22.001Z</time></trkpt><trkpt lat="44.21666142130323" lon="11.485207852402866"><ele>504.33333333333337</ele><time>2026-04-26T11:59:23.001Z</time></trkpt><trkpt lat="44.21680399508196" lon="11.485344879007751"><ele>504.6666666666667</ele><time>2026-04-26T11:59:24.001Z</time></trkpt><trkpt lat="44.216977006396135" lon="11.48547731010686"><ele>505.0</ele><time>2026-04-26T11:59:25.001Z</time></trkpt><trkpt lat="44.21715146171576" lon="11.485510391842405"><ele>505.0</ele><time>2026-04-26T11:59:26.001Z</time></trkpt><trkpt lat="44.217290938250635" lon="11.485557144468954"><ele>505.0</ele><time>2026-04-26T11:59:27.001Z</time></trkpt><trkpt lat="44.217399750808156" lon="11.485620667460498"><ele>505.0</ele><time>2026-04-26T11:59:28.001Z</time></trkpt><trkpt lat="44.21749650922236" lon="11.485697976596052"><ele>505.0</ele><time>2026-04-26T11:59:29.001Z</time></trkpt><trkpt lat="44.21757715030325" lon="11.48576903325511"><ele>504.1666666666667</ele><time>2026-04-26T11:59:30.001Z</time></trkpt><trkpt lat="44.21765210209941" lon="11.485862192298985"><ele>503.33333333333337</ele><time>2026-04-26T11:59:31.001Z</time></trkpt><trkpt lat="44.21771420689104" lon="11.485954894904948"><ele>502.5</ele><time>2026-04-26T11:59:32.001Z</time></trkpt><trkpt lat="44.217751350617256" lon="11.486066807804788"><ele>501.66666666666663</ele><time>2026-04-26T11:59:33.001Z</time></trkpt><trkpt lat="44.21778401550955" lon="11.486187723674206"><ele>500.8333333333333</ele><time>2026-04-26T11:59:34.001Z</time></trkpt><trkpt lat="44.21780477942598" lon="11.486290725373808"><ele>500.0</ele><time>2026-04-26T11:59:35.001Z</time></trkpt><trkpt lat="44.21785184988925" lon="11.486386552551291"><ele>499.99999999999994</ele><time>2026-04-26T11:59:36.001Z</time></trkpt><trkpt lat="44.2178960613351" lon="11.486456520412167"><ele>500.0</ele><time>2026-04-26T11:59:37.001Z</time></trkpt><trkpt lat="44.217872987785945" lon="11.486572052283478"><ele>500.0</ele><time>2026-04-26T12:01:08.001Z</time></trkpt><trkpt lat="44.21785404072797" lon="11.486689511640016"><ele>500.0</ele><time>2026-04-26T12:01:10.001Z</time></trkpt><trkpt lat="44.21783650493253" lon="11.486833851114865"><ele>499.99999999999994</ele><time>2026-04-26T12:01:12.001Z</time></trkpt><trkpt lat="44.21783187864868" lon="11.48692216298029"><ele>500.0</ele><time>2026-04-26T12:01:13.001Z</time></trkpt><trkpt lat="44.2178781650924" lon="11.48706204041979"><ele>499.6</ele><time>2026-04-26T12:01:15.001Z</time></trkpt><trkpt lat="44.217923645239395" lon="11.48714374979321"><ele>499.2</ele><time>2026-04-26T12:01:16.001Z</time></trkpt><trkpt lat="44.217961781957406" lon="11.487303400493348"><ele>498.79999999999995</ele><time>2026-04-26T12:01:18.001Z</time></trkpt><trkpt lat="44.21797110842498" lon="11.487395813178791"><ele>498.4</ele><time>2026-04-26T12:01:19.001Z</time></trkpt><trkpt lat="44.21799219283318" lon="11.487533612288253"><ele>498.0</ele><time>2026-04-26T12:01:21.001Z</time></trkpt><trkpt lat="44.21807337590352" lon="11.487610956211306"><ele>498.0</ele><time>2026-04-26T12:01:23.001Z</time></trkpt><trkpt lat="44.21811051598556" lon="11.487686062411077"><ele>498.0</ele><time>2026-04-26T12:01:24.001Z</time></trkpt><trkpt lat="44.21814970163868" lon="11.487843499227193"><ele>498.0</ele><time>2026-04-26T12:01:26.001Z</time></trkpt><trkpt lat="44.21813031741968" lon="11.487977411823769"><ele>498.0</ele><time>2026-04-26T12:01:28.001Z</time></trkpt><trkpt lat="44.21811908161433" lon="11.4880717664935"><ele>498.0</ele><time>2026-04-26T12:01:29.001Z</time></trkpt><trkpt lat="44.21806112158804" lon="11.488175288564339"><ele>498.0</ele><time>2026-04-26T12:01:31.001Z</time></trkpt><trkpt lat="44.2179966955808" lon="11.488260404404551"><ele>496.5</ele><time>2026-04-26T12:01:33.001Z</time></trkpt><trkpt lat="44.21790954169686" lon="11.48824589960723"><ele>495.0</ele><time>2026-04-26T12:01:35.001Z</time></trkpt><trkpt lat="44.21781577522538" lon="11.488226890003334"><ele>493.5</ele><time>2026-04-26T12:01:37.001Z</time></trkpt><trkpt lat="44.217747786188575" lon="11.488217977341208"><ele>492.0</ele><time>2026-04-26T12:01:39.001Z</time></trkpt><trkpt lat="44.21765592020379" lon="11.488248828984574"><ele>490.5</ele><time>2026-04-26T12:01:41.001Z</time></trkpt><trkpt lat="44.21759214981705" lon="11.488254118793208"><ele>489.0</ele><time>2026-04-26T12:01:42.001Z</time></trkpt><trkpt lat="44.21750167331121" lon="11.488307083537427"><ele>489.0</ele><time>2026-04-26T12:01:44.001Z</time></trkpt><trkpt lat="44.2174315140737" lon="11.488338346001262"><ele>489.0</ele><time>2026-04-26T12:01:45.001Z</time></trkpt><trkpt lat="44.21736296540453" lon="11.488430346401593"><ele>489.0</ele><time>2026-04-26T12:01:46.001Z</time></trkpt><trkpt lat="44.21732344943588" lon="11.488565489353375"><ele>489.0</ele><time>2026-04-26T12:01:47.001Z</time></trkpt><trkpt lat="44.217321905290774" lon="11.48872490624611"><ele>489.0</ele><time>2026-04-26T12:01:48.001Z</time></trkpt><trkpt lat="44.21726642394234" lon="11.488797888738091"><ele>484.4</ele><time>2026-04-26T12:01:49.001Z</time></trkpt><trkpt lat="44.217231666099835" lon="11.48888155996834"><ele>479.79999999999995</ele><time>2026-04-26T12:01:50.001Z</time></trkpt><trkpt lat="44.21716234404172" lon="11.489056059317626"><ele>475.20000000000005</ele><time>2026-04-26T12:01:52.001Z</time></trkpt><trkpt lat="44.217093872399786" lon="11.489159012042673"><ele>470.6</ele><time>2026-04-26T12:01:53.001Z</time></trkpt><trkpt lat="44.2170348292573" lon="11.489264898749573"><ele>466.0</ele><time>2026-04-26T12:01:54.001Z</time></trkpt><trkpt lat="44.216975212932084" lon="11.489365636116666"><ele>466.00000000000006</ele><time>2026-04-26T12:01:55.001Z</time></trkpt><trkpt lat="44.21693811192898" lon="11.489462305820798"><ele>466.0</ele><time>2026-04-26T12:01:56.001Z</time></trkpt><trkpt lat="44.21692565867294" lon="11.489572254739226"><ele>466.0</ele><time>2026-04-26T12:01:57.001Z</time></trkpt><trkpt lat="44.21689393882205" lon="11.489690212485929"><ele>466.0</ele><time>2026-04-26T12:01:59.001Z</time></trkpt><trkpt lat="44.216834382824864" lon="11.48979338101077"><ele>466.00000000000006</ele><time>2026-04-26T12:02:01.001Z</time></trkpt><trkpt lat="44.21677719772693" lon="11.489875937143184"><ele>466.0</ele><time>2026-04-26T12:02:03.001Z</time></trkpt><trkpt lat="44.21677119417151" lon="11.48997689605501"><ele>464.28571428571433</ele><time>2026-04-26T12:02:38.002Z</time></trkpt><trkpt lat="44.21673223888584" lon="11.490056467372513"><ele>462.57142857142856</ele><time>2026-04-26T12:02:40.002Z</time></trkpt><trkpt lat="44.216680152609385" lon="11.490123207197605"><ele>460.8571428571429</ele><time>2026-04-26T12:02:42Z</time></trkpt><trkpt lat="44.2166423600669" lon="11.490202854526075"><ele>459.14285714285717</ele><time>2026-04-26T12:02:44Z</time></trkpt><trkpt lat="44.21660006373879" lon="11.49027114419907"><ele>457.42857142857144</ele><time>2026-04-26T12:02:46Z</time></trkpt><trkpt lat="44.216533879442984" lon="11.490338059865687"><ele>455.7142857142857</ele><time>2026-04-26T12:02:49Z</time></trkpt><trkpt lat="44.21647650233655" lon="11.490384960609186"><ele>454.0</ele><time>2026-04-26T12:02:52Z</time></trkpt><trkpt lat="44.216402090639704" lon="11.490403237051542"><ele>450.83333333333337</ele><time>2026-04-26T12:02:54Z</time></trkpt><trkpt lat="44.21633130111931" lon="11.490431269798897"><ele>447.6666666666667</ele><time>2026-04-26T12:02:56Z</time></trkpt><trkpt lat="44.21624550675658" lon="11.490450961016254"><ele>444.5</ele><time>2026-04-26T12:03:00Z</time></trkpt><trkpt lat="44.21615932259986" lon="11.490511035436679"><ele>441.33333333333337</ele><time>2026-04-26T12:03:04Z</time></trkpt><trkpt lat="44.21611733115247" lon="11.49059075314001"><ele>438.1666666666667</ele><time>2026-04-26T12:03:07Z</time></trkpt><trkpt lat="44.21606718260637" lon="11.49066348901343"><ele>435.0</ele><time>2026-04-26T12:03:09Z</time></trkpt><trkpt lat="44.21602240335096" lon="11.49076385682979"><ele>435.0</ele><time>2026-04-26T12:03:13Z</time></trkpt><trkpt lat="44.21593181239651" lon="11.490861131752096"><ele>435.0</ele><time>2026-04-26T12:03:16.001Z</time></trkpt><trkpt lat="44.215884018682296" lon="11.49093153557151"><ele>435.0</ele><time>2026-04-26T12:03:18.001Z</time></trkpt><trkpt lat="44.215775098704846" lon="11.490972660725717"><ele>435.0</ele><time>2026-04-26T12:03:21.001Z</time></trkpt><trkpt lat="44.21570704203954" lon="11.491005284816971"><ele>435.0</ele><time>2026-04-26T12:03:23.001Z</time></trkpt><trkpt lat="44.21563036725968" lon="11.491026183581507"><ele>435.0</ele><time>2026-04-26T12:03:26.001Z</time></trkpt><trkpt lat="44.215533423658925" lon="11.491089429349259"><ele>430.6</ele><time>2026-04-26T12:04:47Z</time></trkpt><trkpt lat="44.21545911303411" lon="11.491085687507926"><ele>426.2</ele><time>2026-04-26T12:04:50Z</time></trkpt><trkpt lat="44.215378976584056" lon="11.491166148628023"><ele>421.79999999999995</ele><time>2026-04-26T12:04:53Z</time></trkpt><trkpt lat="44.21534646625404" lon="11.491275517340249"><ele>417.4</ele><time>2026-04-26T12:04:55Z</time></trkpt><trkpt lat="44.21531030101674" lon="11.491395839945309"><ele>413.0</ele><time>2026-04-26T12:04:57Z</time></trkpt><trkpt lat="44.215294628434755" lon="11.491540055885586"><ele>413.0</ele><time>2026-04-26T12:04:59Z</time></trkpt><trkpt lat="44.21529369163046" lon="11.491630913832436"><ele>413.0</ele><time>2026-04-26T12:05:01Z</time></trkpt><trkpt lat="44.21527639806284" lon="11.491757050976494"><ele>413.0</ele><time>2026-04-26T12:05:04Z</time></trkpt><trkpt lat="44.2152822864723" lon="11.491866475911685"><ele>413.0</ele><time>2026-04-26T12:05:06Z</time></trkpt><trkpt lat="44.21525228914167" lon="11.492251439655345"><ele>413.3333333333333</ele><time>2026-04-26T12:05:09Z</time></trkpt><trkpt lat="44.21524814803956" lon="11.492343228476582"><ele>413.66666666666663</ele><time>2026-04-26T12:05:10Z</time></trkpt><trkpt lat="44.215198632864585" lon="11.492480131720894"><ele>414.0</ele><time>2026-04-26T12:05:12Z</time></trkpt><trkpt lat="44.21512145525328" lon="11.492608048999427"><ele>414.33333333333337</ele><time>2026-04-26T12:05:14Z</time></trkpt><trkpt lat="44.215072690179575" lon="11.492691236061786"><ele>414.6666666666667</ele><time>2026-04-26T12:05:15Z</time></trkpt><trkpt lat="44.21502972861461" lon="11.492764041768835"><ele>415.0</ele><time>2026-04-26T12:05:16Z</time></trkpt><trkpt lat="44.21498656307076" lon="11.492837088080824"><ele>415.0</ele><time>2026-04-26T12:05:17Z</time></trkpt><trkpt lat="44.214954948270034" lon="11.492920233739602"><ele>415.0</ele><time>2026-04-26T12:05:18Z</time></trkpt><trkpt lat="44.214962767454914" lon="11.493088372907957"><ele>415.0</ele><time>2026-04-26T12:05:20Z</time></trkpt><trkpt lat="44.2150157669853" lon="11.49322171305531"><ele>415.0</ele><time>2026-04-26T12:05:22Z</time></trkpt><trkpt lat="44.21505119525505" lon="11.49331951150923"><ele>415.0</ele><time>2026-04-26T12:05:24.001Z</time></trkpt><trkpt lat="44.21510253165022" lon="11.493433366656033"><ele>414.00000000000006</ele><time>2026-04-26T12:05:26.001Z</time></trkpt><trkpt lat="44.21515866634817" lon="11.493565859802386"><ele>413.0</ele><time>2026-04-26T12:05:27.001Z</time></trkpt><trkpt lat="44.21521701733215" lon="11.493617504999492"><ele>412.0</ele><time>2026-04-26T12:05:28.001Z</time></trkpt><trkpt lat="44.21526379477708" lon="11.49372583719402"><ele>411.0</ele><time>2026-04-26T12:05:29.001Z</time></trkpt><trkpt lat="44.215281302011356" lon="11.493838562499798"><ele>410.00000000000006</ele><time>2026-04-26T12:05:30.001Z</time></trkpt><trkpt lat="44.215271565438485" lon="11.493945970613584"><ele>409.0</ele><time>2026-04-26T12:05:32.001Z</time></trkpt><trkpt lat="44.21520830234423" lon="11.49410193766769"><ele>407.50000000000006</ele><time>2026-04-26T12:05:34.001Z</time></trkpt><trkpt lat="44.21515516420552" lon="11.49417001873586"><ele>406.0</ele><time>2026-04-26T12:05:35.001Z</time></trkpt><trkpt lat="44.215092952055876" lon="11.494240732301508"><ele>404.5</ele><time>2026-04-26T12:05:36.001Z</time></trkpt><trkpt lat="44.21502726319778" lon="11.494298150951078"><ele>403.0</ele><time>2026-04-26T12:05:37.001Z</time></trkpt><trkpt lat="44.214966817254016" lon="11.494350143274247"><ele>401.50000000000006</ele><time>2026-04-26T12:05:38.001Z</time></trkpt><trkpt lat="44.21490799022821" lon="11.49441266712092"><ele>400.0</ele><time>2026-04-26T12:05:39.001Z</time></trkpt><trkpt lat="44.214867526810345" lon="11.494501921016365"><ele>400.00000000000006</ele><time>2026-04-26T12:05:40.001Z</time></trkpt><trkpt lat="44.2148297773033" lon="11.49458043968849"><ele>400.0</ele><time>2026-04-26T12:05:41.001Z</time></trkpt><trkpt lat="44.21478401494447" lon="11.49465630528062"><ele>400.0</ele><time>2026-04-26T12:05:42.001Z</time></trkpt><trkpt lat="44.21470413166569" lon="11.494798476805608"><ele>400.0</ele><time>2026-04-26T12:05:44.001Z</time></trkpt><trkpt lat="44.214662226949784" lon="11.494896580202127"><ele>400.00000000000006</ele><time>2026-04-26T12:05:45.001Z</time></trkpt><trkpt lat="44.21461351477761" lon="11.494974433623955"><ele>400.0</ele><time>2026-04-26T12:05:46.001Z</time></trkpt><trkpt lat="44.21457691028751" lon="11.495058005954155"><ele>396.6666666666667</ele><time>2026-04-26T12:05:47.001Z</time></trkpt><trkpt lat="44.21454415009926" lon="11.49514206334305"><ele>393.33333333333337</ele><time>2026-04-26T12:05:48.001Z</time></trkpt><trkpt lat="44.21445531023883" lon="11.495178314706694"><ele>390.0</ele><time>2026-04-26T12:05:50.001Z</time></trkpt><trkpt lat="44.21433935804106" lon="11.495135639727811"><ele>386.6666666666667</ele><time>2026-04-26T12:05:52.001Z</time></trkpt><trkpt lat="44.21427272158168" lon="11.495149590583376"><ele>383.33333333333337</ele><time>2026-04-26T12:05:53.001Z</time></trkpt><trkpt lat="44.21418787885306" lon="11.495162833014861"><ele>380.0</ele><time>2026-04-26T12:05:55.001Z</time></trkpt><trkpt lat="44.21406616266065" lon="11.49522640419597"><ele>380.0</ele><time>2026-04-26T12:05:57.001Z</time></trkpt><trkpt lat="44.214018298773716" lon="11.495316516203538"><ele>380.0</ele><time>2026-04-26T12:05:58.001Z</time></trkpt><trkpt lat="44.21395492597186" lon="11.495351905436511"><ele>380.0</ele><time>2026-04-26T12:05:59.001Z</time></trkpt><trkpt lat="44.213873274943595" lon="11.495455392499425"><ele>380.0</ele><time>2026-04-26T12:06:01.001Z</time></trkpt><trkpt lat="44.213787666148505" lon="11.495465941690243"><ele>380.0</ele><time>2026-04-26T12:06:03.001Z</time></trkpt><trkpt lat="44.213725100799856" lon="11.495599660134005"><ele>376.8</ele><time>2026-04-26T12:06:05.001Z</time></trkpt><trkpt lat="44.2136671090596" lon="11.495684993647432"><ele>373.6</ele><time>2026-04-26T12:06:06.001Z</time></trkpt><trkpt lat="44.21360258428666" lon="11.495802259037676"><ele>370.4</ele><time>2026-04-26T12:06:08.001Z</time></trkpt><trkpt lat="44.21354015513741" lon="11.495830673180603"><ele>367.2</ele><time>2026-04-26T12:06:11.001Z</time></trkpt><trkpt lat="44.21351036525929" lon="11.4959197593111"><ele>364.0</ele><time>2026-04-26T12:06:13.001Z</time></trkpt><trkpt lat="44.213288474276915" lon="11.49623531751912"><ele>363.6</ele><time>2026-04-26T12:06:15.001Z</time></trkpt><trkpt lat="44.21321472583148" lon="11.496362366543027"><ele>363.2</ele><time>2026-04-26T12:06:16.001Z</time></trkpt><trkpt lat="44.213166783465226" lon="11.496460785879497"><ele>362.8</ele><time>2026-04-26T12:06:17.001Z</time></trkpt><trkpt lat="44.213101752310585" lon="11.49656435611691"><ele>362.40000000000003</ele><time>2026-04-26T12:06:18.001Z</time></trkpt><trkpt lat="44.21303515693392" lon="11.49662895743799"><ele>362.0</ele><time>2026-04-26T12:06:19.001Z</time></trkpt><trkpt lat="44.212980324016875" lon="11.49668715745957"><ele>358.40000000000003</ele><time>2026-04-26T12:06:20.001Z</time></trkpt><trkpt lat="44.21291177034984" lon="11.496765376184719"><ele>354.8</ele><time>2026-04-26T12:06:21.001Z</time></trkpt><trkpt lat="44.21284927508436" lon="11.49685475814139"><ele>351.2</ele><time>2026-04-26T12:06:22.001Z</time></trkpt><trkpt lat="44.21277985844987" lon="11.496941852184513"><ele>347.6</ele><time>2026-04-26T12:06:23.001Z</time></trkpt><trkpt lat="44.212706547523005" lon="11.497007133025718"><ele>344.0</ele><time>2026-04-26T12:06:24.001Z</time></trkpt><trkpt lat="44.212619222785065" lon="11.49706488257115"><ele>342.1666666666667</ele><time>2026-04-26T12:06:25.001Z</time></trkpt><trkpt lat="44.21253207900475" lon="11.497124252767282"><ele>340.33333333333337</ele><time>2026-04-26T12:06:26.001Z</time></trkpt><trkpt lat="44.21244874720767" lon="11.497188650204802"><ele>338.5</ele><time>2026-04-26T12:06:27.001Z</time></trkpt><trkpt lat="44.21237589990247" lon="11.497264637961166"><ele>336.6666666666667</ele><time>2026-04-26T12:06:28.001Z</time></trkpt><trkpt lat="44.212306661289325" lon="11.497336801960621"><ele>334.8333333333333</ele><time>2026-04-26T12:06:29.001Z</time></trkpt><trkpt lat="44.212254219097865" lon="11.497401398858056"><ele>333.0</ele><time>2026-04-26T12:06:30.001Z</time></trkpt><trkpt lat="44.21222029070136" lon="11.497483319227134"><ele>333.0</ele><time>2026-04-26T12:06:31.001Z</time></trkpt><trkpt lat="44.21220196929042" lon="11.497662772119044"><ele>333.0</ele><time>2026-04-26T12:06:33.001Z</time></trkpt><trkpt lat="44.21216825144718" lon="11.497739348483721"><ele>333.0</ele><time>2026-04-26T12:07:38.001Z</time></trkpt><trkpt lat="44.21220487062167" lon="11.49784401615368"><ele>333.0</ele><time>2026-04-26T12:07:57.001Z</time></trkpt><trkpt lat="44.21220377954732" lon="11.497975619246695"><ele>333.0</ele><time>2026-04-26T12:07:59.001Z</time></trkpt><trkpt lat="44.21219562798002" lon="11.498064512376022"><ele>333.0</ele><time>2026-04-26T12:08:00.001Z</time></trkpt><trkpt lat="44.212184063997604" lon="11.498185327077582"><ele>334.0</ele><time>2026-04-26T12:08:01.001Z</time></trkpt><trkpt lat="44.212128381719694" lon="11.498226779925773"><ele>335.0</ele><time>2026-04-26T12:08:02.001Z</time></trkpt><trkpt lat="44.2120918262821" lon="11.498301186478857"><ele>336.0</ele><time>2026-04-26T12:08:03.001Z</time></trkpt><trkpt lat="44.21204678420713" lon="11.498372069817625"><ele>337.0</ele><time>2026-04-26T12:08:04.001Z</time></trkpt><trkpt lat="44.21199186849187" lon="11.498466308371338"><ele>338.0</ele><time>2026-04-26T12:08:05.001Z</time></trkpt><trkpt lat="44.211852971625255" lon="11.498569023198057"><ele>339.0</ele><time>2026-04-26T12:08:07.001Z</time></trkpt><trkpt lat="44.211767492606555" lon="11.498615742416504"><ele>339.0</ele><time>2026-04-26T12:08:08.001Z</time></trkpt><trkpt lat="44.21168536039331" lon="11.498657258009064"><ele>339.0</ele><time>2026-04-26T12:08:09.001Z</time></trkpt><trkpt lat="44.21160152624298" lon="11.498696517023824"><ele>339.0</ele><time>2026-04-26T12:08:10.001Z</time></trkpt><trkpt lat="44.21150639941438" lon="11.498739064125932"><ele>339.0</ele><time>2026-04-26T12:08:11.001Z</time></trkpt><trkpt lat="44.21142584808278" lon="11.49880444782406"><ele>339.0</ele><time>2026-04-26T12:08:12.001Z</time></trkpt><trkpt lat="44.21136282708233" lon="11.498888931215605"><ele>331.59999999999997</ele><time>2026-04-26T12:08:13.001Z</time></trkpt><trkpt lat="44.21131154733934" lon="11.499032682132919"><ele>324.2</ele><time>2026-04-26T12:08:14.001Z</time></trkpt><trkpt lat="44.21126984442884" lon="11.499172498967832"><ele>316.79999999999995</ele><time>2026-04-26T12:08:15.001Z</time></trkpt><trkpt lat="44.21124230463447" lon="11.499321873394877"><ele>309.4</ele><time>2026-04-26T12:08:16.001Z</time></trkpt><trkpt lat="44.21122273217957" lon="11.499451519035167"><ele>302.0</ele><time>2026-04-26T12:08:17.001Z</time></trkpt><trkpt lat="44.21120914125662" lon="11.499564535633702"><ele>302.5</ele><time>2026-04-26T12:08:18.001Z</time></trkpt><trkpt lat="44.21120150332596" lon="11.499663084436774"><ele>303.0</ele><time>2026-04-26T12:08:19.001Z</time></trkpt><trkpt lat="44.21121805107462" lon="11.499751019346444"><ele>303.5</ele><time>2026-04-26T12:08:20.001Z</time></trkpt><trkpt lat="44.21127632623159" lon="11.499833209570342"><ele>304.0</ele><time>2026-04-26T12:08:21.001Z</time></trkpt><trkpt lat="44.21136044732039" lon="11.499875430563554"><ele>304.5</ele><time>2026-04-26T12:08:22.001Z</time></trkpt><trkpt lat="44.21147009969198" lon="11.499773877103754"><ele>305.0</ele><time>2026-04-26T12:08:23.001Z</time></trkpt><trkpt lat="44.21154503241797" lon="11.499723799876417"><ele>308.0</ele><time>2026-04-26T12:08:24.001Z</time></trkpt><trkpt lat="44.21161339273247" lon="11.499727433476762"><ele>311.0</ele><time>2026-04-26T12:08:25.001Z</time></trkpt><trkpt lat="44.21168445271018" lon="11.499768412932145"><ele>314.0</ele><time>2026-04-26T12:08:26.001Z</time></trkpt><trkpt lat="44.211758239383315" lon="11.499851469344945"><ele>317.0</ele><time>2026-04-26T12:08:27.001Z</time></trkpt><trkpt lat="44.21177652507541" lon="11.499993473803555"><ele>320.0</ele><time>2026-04-26T12:08:28.001Z</time></trkpt><trkpt lat="44.21183243807213" lon="11.500120058351847"><ele>320.0</ele><time>2026-04-26T12:08:29.001Z</time></trkpt><trkpt lat="44.2118865026046" lon="11.500219078943308"><ele>320.0</ele><time>2026-04-26T12:08:30.001Z</time></trkpt><trkpt lat="44.21195951978099" lon="11.500267695333951"><ele>320.0</ele><time>2026-04-26T12:08:31.001Z</time></trkpt><trkpt lat="44.21202612510134" lon="11.50032699016884"><ele>320.0</ele><time>2026-04-26T12:08:33.001Z</time></trkpt><trkpt lat="44.211974166213615" lon="11.500434262209636"><ele>320.0</ele><time>2026-04-26T12:08:36.001Z</time></trkpt><trkpt lat="44.21187014010182" lon="11.500392574641316"><ele>320.0</ele><time>2026-04-26T12:08:38.001Z</time></trkpt><trkpt lat="44.21176233702475" lon="11.50029317567232"><ele>320.0</ele><time>2026-04-26T12:08:40.001Z</time></trkpt><trkpt lat="44.21166987640003" lon="11.500246680266752"><ele>320.0</ele><time>2026-04-26T12:08:42.001Z</time></trkpt><trkpt lat="44.2115776773711" lon="11.50026715731562"><ele>320.0</ele><time>2026-04-26T12:08:43.001Z</time></trkpt><trkpt lat="44.211502095646374" lon="11.50041964437429"><ele>314.8</ele><time>2026-04-26T12:08:44.001Z</time></trkpt><trkpt lat="44.21150319532715" lon="11.500611307860721"><ele>309.6</ele><time>2026-04-26T12:08:45.001Z</time></trkpt><trkpt lat="44.21145717118262" lon="11.50073050503298"><ele>304.4</ele><time>2026-04-26T12:08:46.001Z</time></trkpt><trkpt lat="44.21140177603293" lon="11.500832916658036"><ele>299.2</ele><time>2026-04-26T12:08:47.001Z</time></trkpt><trkpt lat="44.2113309631829" lon="11.500940512321051"><ele>294.0</ele><time>2026-04-26T12:08:48.001Z</time></trkpt><trkpt lat="44.21123875675678" lon="11.50101111365486"><ele>293.59999999999997</ele><time>2026-04-26T12:08:49.001Z</time></trkpt><trkpt lat="44.21114550625002" lon="11.50106731184949"><ele>293.2</ele><time>2026-04-26T12:08:50.001Z</time></trkpt><trkpt lat="44.21104980948231" lon="11.501135609130394"><ele>292.79999999999995</ele><time>2026-04-26T12:08:51.001Z</time></trkpt><trkpt lat="44.21095352995649" lon="11.501228096811914"><ele>292.4</ele><time>2026-04-26T12:08:52.001Z</time></trkpt><trkpt lat="44.21084822133157" lon="11.50128289504"><ele>292.0</ele><time>2026-04-26T12:08:53.001Z</time></trkpt><trkpt lat="44.21075047124228" lon="11.501367767473283"><ele>285.25</ele><time>2026-04-26T12:08:54.002Z</time></trkpt><trkpt lat="44.210645076868055" lon="11.501458489893158"><ele>278.5</ele><time>2026-04-26T12:08:55.002Z</time></trkpt><trkpt lat="44.2105300859725" lon="11.501556675397655"><ele>271.75</ele><time>2026-04-26T12:08:56.002Z</time></trkpt><trkpt lat="44.21041711725598" lon="11.50165313432037"><ele>265.0</ele><time>2026-04-26T12:08:57.002Z</time></trkpt><trkpt lat="44.21030467027744" lon="11.501750552853036"><ele>265.0</ele><time>2026-04-26T12:08:58.002Z</time></trkpt><trkpt lat="44.21019388938652" lon="11.50184771940363"><ele>265.0</ele><time>2026-04-26T12:08:59Z</time></trkpt><trkpt lat="44.210098786052875" lon="11.501931794853734"><ele>265.0</ele><time>2026-04-26T12:09:00Z</time></trkpt><trkpt lat="44.21000217386655" lon="11.50201752376897"><ele>265.0</ele><time>2026-04-26T12:09:01Z</time></trkpt><trkpt lat="44.20989816558908" lon="11.502109815586397"><ele>259.0</ele><time>2026-04-26T12:09:02Z</time></trkpt><trkpt lat="44.209813426857565" lon="11.5021850087336"><ele>253.0</ele><time>2026-04-26T12:09:03Z</time></trkpt><trkpt lat="44.209727376825995" lon="11.502261365415222"><ele>247.0</ele><time>2026-04-26T12:09:04Z</time></trkpt><trkpt lat="44.209654081342045" lon="11.502327884261353"><ele>241.0</ele><time>2026-04-26T12:09:05Z</time></trkpt><trkpt lat="44.20959840790862" lon="11.50237839834709"><ele>235.0</ele><time>2026-04-26T12:09:06Z</time></trkpt><trkpt lat="44.20947677994984" lon="11.50233510658409"><ele>235.0</ele><time>2026-04-26T12:09:08Z</time></trkpt><trkpt lat="44.20935051620875" lon="11.502393732177358"><ele>235.0</ele><time>2026-04-26T12:09:10Z</time></trkpt><trkpt lat="44.20930159780363" lon="11.50256820655948"><ele>235.0</ele><time>2026-04-26T12:09:11Z</time></trkpt><trkpt lat="44.20927473397851" lon="11.502696446196932"><ele>235.0</ele><time>2026-04-26T12:09:12Z</time></trkpt><trkpt lat="44.20925860782646" lon="11.502816298358951"><ele>233.83333333333331</ele><time>2026-04-26T12:09:13Z</time></trkpt><trkpt lat="44.20920844409833" lon="11.502928346932766"><ele>232.66666666666666</ele><time>2026-04-26T12:09:14Z</time></trkpt><trkpt lat="44.2092339753504" lon="11.503025260587519"><ele>231.5</ele><time>2026-04-26T12:09:15Z</time></trkpt><trkpt lat="44.209261962892136" lon="11.5031286878818"><ele>230.33333333333331</ele><time>2026-04-26T12:09:16Z</time></trkpt><trkpt lat="44.209264979995694" lon="11.50325032713926"><ele>229.16666666666666</ele><time>2026-04-26T12:09:17Z</time></trkpt><trkpt lat="44.209268521219656" lon="11.503362131437093"><ele>228.0</ele><time>2026-04-26T12:09:18Z</time></trkpt><trkpt lat="44.20926199401358" lon="11.5035203287369"><ele>228.0</ele><time>2026-04-26T12:09:20Z</time></trkpt><trkpt lat="44.20928453436668" lon="11.50363500092714"><ele>228.0</ele><time>2026-04-26T12:09:22Z</time></trkpt><trkpt lat="44.209223838206526" lon="11.503722809153528"><ele>228.0</ele><time>2026-04-26T12:09:26Z</time></trkpt><trkpt lat="44.209099794192944" lon="11.503632497274815"><ele>228.0</ele><time>2026-04-26T12:09:28Z</time></trkpt><trkpt lat="44.20902578780591" lon="11.503585542798888"><ele>228.0</ele><time>2026-04-26T12:09:29Z</time></trkpt><trkpt lat="44.20896544033267" lon="11.503558589572707"><ele>229.66666666666666</ele><time>2026-04-26T12:09:30Z</time></trkpt><trkpt lat="44.20889712496102" lon="11.503527162262404"><ele>231.33333333333331</ele><time>2026-04-26T12:09:31Z</time></trkpt><trkpt lat="44.20880972145284" lon="11.503494694786315"><ele>233.0</ele><time>2026-04-26T12:09:32Z</time></trkpt><trkpt lat="44.208728694985034" lon="11.503450807487424"><ele>234.66666666666666</ele><time>2026-04-26T12:09:33Z</time></trkpt><trkpt lat="44.20864681480274" lon="11.5034256655068"><ele>236.33333333333331</ele><time>2026-04-26T12:09:34Z</time></trkpt><trkpt lat="44.20857010763202" lon="11.503386844895656"><ele>238.0</ele><time>2026-04-26T12:09:35Z</time></trkpt><trkpt lat="44.20850050745599" lon="11.503385504571211"><ele>237.99999999999997</ele><time>2026-04-26T12:09:36Z</time></trkpt><trkpt lat="44.20843466939772" lon="11.503446838812023"><ele>238.0</ele><time>2026-04-26T12:09:37Z</time></trkpt><trkpt lat="44.20838064241291" lon="11.503521472674967"><ele>238.0</ele><time>2026-04-26T12:09:38Z</time></trkpt><trkpt lat="44.20833083829924" lon="11.503597706897516"><ele>238.0</ele><time>2026-04-26T12:09:39Z</time></trkpt><trkpt lat="44.2082505773889" lon="11.5036845727539"><ele>237.99999999999997</ele><time>2026-04-26T12:09:40Z</time></trkpt><trkpt lat="44.2081460305405" lon="11.503718264157047"><ele>238.0</ele><time>2026-04-26T12:09:41Z</time></trkpt><trkpt lat="44.20804627113401" lon="11.503704723108559"><ele>239.33333333333331</ele><time>2026-04-26T12:09:42Z</time></trkpt><trkpt lat="44.207912441211235" lon="11.503662509936404"><ele>240.66666666666669</ele><time>2026-04-26T12:09:43Z</time></trkpt><trkpt lat="44.20775159439467" lon="11.503580977520627"><ele>242.0</ele><time>2026-04-26T12:09:44Z</time></trkpt><trkpt lat="44.207607544175474" lon="11.503538326598932"><ele>242.0</ele><time>2026-04-26T12:09:45Z</time></trkpt><trkpt lat="44.20744414726932" lon="11.5035231678709"><ele>242.0</ele><time>2026-04-26T12:09:46Z</time></trkpt><trkpt lat="44.20729518225302" lon="11.503517799386891"><ele>242.0</ele><time>2026-04-26T12:09:47Z</time></trkpt><trkpt lat="44.20715739353107" lon="11.503498727607653"><ele>242.25</ele><time>2026-04-26T12:09:48.001Z</time></trkpt><trkpt lat="44.20701518772653" lon="11.503482947723803"><ele>242.5</ele><time>2026-04-26T12:09:49.001Z</time></trkpt><trkpt lat="44.206865671989675" lon="11.503468731485892"><ele>242.75</ele><time>2026-04-26T12:09:50.001Z</time></trkpt><trkpt lat="44.20671301595349" lon="11.503451322895673"><ele>243.0</ele><time>2026-04-26T12:09:51.001Z</time></trkpt><trkpt lat="44.20656482328042" lon="11.503429628201317"><ele>242.5</ele><time>2026-04-26T12:09:52.001Z</time></trkpt><trkpt lat="44.206422250169624" lon="11.503407619027868"><ele>242.0</ele><time>2026-04-26T12:09:53.001Z</time></trkpt><trkpt lat="44.20627475681303" lon="11.503391112300692"><ele>241.5</ele><time>2026-04-26T12:09:54.001Z</time></trkpt><trkpt lat="44.20612479779642" lon="11.50337710022113"><ele>241.0</ele><time>2026-04-26T12:09:55.001Z</time></trkpt><trkpt lat="44.20597205332659" lon="11.503358034405663"><ele>241.0</ele><time>2026-04-26T12:09:56.001Z</time></trkpt><trkpt lat="44.205819313084085" lon="11.503335391538519"><ele>241.0</ele><time>2026-04-26T12:09:57.001Z</time></trkpt><trkpt lat="44.20566153426219" lon="11.503318435921017"><ele>241.0</ele><time>2026-04-26T12:09:58.001Z</time></trkpt><trkpt lat="44.20550312258988" lon="11.503304913394546"><ele>241.66666666666666</ele><time>2026-04-26T12:09:59.001Z</time></trkpt><trkpt lat="44.2053486317504" lon="11.503288132768954"><ele>242.33333333333331</ele><time>2026-04-26T12:10:00.001Z</time></trkpt><trkpt lat="44.20519376136106" lon="11.503265015675359"><ele>243.0</ele><time>2026-04-26T12:10:01.001Z</time></trkpt><trkpt lat="44.20503440383155" lon="11.503244353465979"><ele>243.0</ele><time>2026-04-26T12:10:02.001Z</time></trkpt><trkpt lat="44.20487517209285" lon="11.503220367913285"><ele>243.0</ele><time>2026-04-26T12:10:03.001Z</time></trkpt><trkpt lat="44.2047172241217" lon="11.503180320261002"><ele>243.0</ele><time>2026-04-26T12:10:04.001Z</time></trkpt><trkpt lat="44.20456329560866" lon="11.5031347133861"><ele>243.66666666666669</ele><time>2026-04-26T12:10:05.001Z</time></trkpt><trkpt lat="44.2044062628557" lon="11.503104884091972"><ele>244.33333333333334</ele><time>2026-04-26T12:10:06.001Z</time></trkpt><trkpt lat="44.204250285959816" lon="11.50308646165682"><ele>245.0</ele><time>2026-04-26T12:10:07.001Z</time></trkpt><trkpt lat="44.204093395035436" lon="11.503079554560008"><ele>244.33333333333334</ele><time>2026-04-26T12:10:08.001Z</time></trkpt><trkpt lat="44.20393863653983" lon="11.503091104073283"><ele>243.66666666666669</ele><time>2026-04-26T12:10:09.001Z</time></trkpt><trkpt lat="44.203787929303154" lon="11.503102316585267"><ele>243.0</ele><time>2026-04-26T12:10:10.001Z</time></trkpt><trkpt lat="44.2036416427779" lon="11.503115620541069"><ele>243.0</ele><time>2026-04-26T12:10:11.001Z</time></trkpt><trkpt lat="44.2034984270399" lon="11.503148775844952"><ele>243.0</ele><time>2026-04-26T12:10:12.001Z</time></trkpt><trkpt lat="44.203354403180846" lon="11.503146705754284"><ele>243.0</ele><time>2026-04-26T12:10:13.001Z</time></trkpt><trkpt lat="44.20320774082121" lon="11.503119237233616"><ele>243.0</ele><time>2026-04-26T12:10:14.001Z</time></trkpt><trkpt lat="44.20307586096388" lon="11.503055629987749"><ele>245.0</ele><time>2026-04-26T12:10:15.001Z</time></trkpt><trkpt lat="44.202953550639535" lon="11.502981371837066"><ele>247.0</ele><time>2026-04-26T12:10:16.001Z</time></trkpt><trkpt lat="44.202838657762115" lon="11.502971412383028"><ele>249.0</ele><time>2026-04-26T12:10:17.001Z</time></trkpt><trkpt lat="44.20272614443378" lon="11.503040050974606"><ele>251.0</ele><time>2026-04-26T12:10:18.001Z</time></trkpt><trkpt lat="44.20261417282568" lon="11.503174616533899"><ele>251.0</ele><time>2026-04-26T12:10:19.001Z</time></trkpt><trkpt lat="44.20247463469473" lon="11.503272829235852"><ele>251.0</ele><time>2026-04-26T12:10:20.001Z</time></trkpt><trkpt lat="44.20232409309271" lon="11.503291889306654"><ele>251.0</ele><time>2026-04-26T12:10:21.001Z</time></trkpt><trkpt lat="44.20212862019206" lon="11.503277633779058"><ele>251.66666666666669</ele><time>2026-04-26T12:10:22.001Z</time></trkpt><trkpt lat="44.201960440810396" lon="11.503234050799119"><ele>252.33333333333331</ele><time>2026-04-26T12:10:23.001Z</time></trkpt><trkpt lat="44.20178818792434" lon="11.503185627781669"><ele>253.0</ele><time>2026-04-26T12:10:24.001Z</time></trkpt><trkpt lat="44.20161796105538" lon="11.503169584881462"><ele>253.33333333333331</ele><time>2026-04-26T12:10:25.001Z</time></trkpt><trkpt lat="44.201468637554875" lon="11.503157200087536"><ele>253.66666666666669</ele><time>2026-04-26T12:10:26.001Z</time></trkpt><trkpt lat="44.20131721543604" lon="11.503142901599716"><ele>254.0</ele><time>2026-04-26T12:10:27.001Z</time></trkpt><trkpt lat="44.20116414600692" lon="11.50312516589936"><ele>254.0</ele><time>2026-04-26T12:10:28.001Z</time></trkpt><trkpt lat="44.201011434171434" lon="11.503112731165569"><ele>254.0</ele><time>2026-04-26T12:10:29.001Z</time></trkpt><trkpt lat="44.20085947205378" lon="11.50308061113294"><ele>254.0</ele><time>2026-04-26T12:10:30.001Z</time></trkpt><trkpt lat="44.20071128748551" lon="11.503064078260817"><ele>252.75</ele><time>2026-04-26T12:10:31.001Z</time></trkpt><trkpt lat="44.200571506451226" lon="11.50304840520087"><ele>251.5</ele><time>2026-04-26T12:10:32.001Z</time></trkpt><trkpt lat="44.20043617695629" lon="11.503033231257445"><ele>250.25</ele><time>2026-04-26T12:10:33.001Z</time></trkpt><trkpt lat="44.200307493990394" lon="11.503039148861328"><ele>249.0</ele><time>2026-04-26T12:10:34.001Z</time></trkpt><trkpt lat="44.20019733598896" lon="11.503008021039827"><ele>249.0</ele><time>2026-04-26T12:10:35.001Z</time></trkpt><trkpt lat="44.20009910881522" lon="11.502942612269287"><ele>249.0</ele><time>2026-04-26T12:10:36.001Z</time></trkpt><trkpt lat="44.20001075828403" lon="11.502845102139498"><ele>249.0</ele><time>2026-04-26T12:10:37.001Z</time></trkpt><trkpt lat="44.19993276072279" lon="11.502700094889255"><ele>249.0</ele><time>2026-04-26T12:10:38.001Z</time></trkpt><trkpt lat="44.199856765672386" lon="11.502539311495866"><ele>254.66666666666669</ele><time>2026-04-26T12:10:39.001Z</time></trkpt><trkpt lat="44.199721622933225" lon="11.502442851420312"><ele>260.33333333333337</ele><time>2026-04-26T12:10:40.001Z</time></trkpt><trkpt lat="44.1995665934711" lon="11.502429246997135"><ele>266.0</ele><time>2026-04-26T12:10:41.001Z</time></trkpt><trkpt lat="44.19942152138374" lon="11.502427027381193"><ele>266.0</ele><time>2026-04-26T12:10:42.001Z</time></trkpt><trkpt lat="44.19929966611874" lon="11.502539207463387"><ele>266.0</ele><time>2026-04-26T12:10:43.001Z</time></trkpt><trkpt lat="44.199173582711964" lon="11.502637303015637"><ele>266.0</ele><time>2026-04-26T12:10:44.001Z</time></trkpt><trkpt lat="44.199034811335736" lon="11.50269651365794"><ele>266.0</ele><time>2026-04-26T12:10:45.001Z</time></trkpt><trkpt lat="44.19885993331812" lon="11.502654271938153"><ele>261.0</ele><time>2026-04-26T12:10:46.001Z</time></trkpt><trkpt lat="44.19867528129858" lon="11.502607422032215"><ele>256.0</ele><time>2026-04-26T12:10:47.001Z</time></trkpt><trkpt lat="44.19852026623339" lon="11.502561944271145"><ele>251.0</ele><time>2026-04-26T12:10:48.001Z</time></trkpt><trkpt lat="44.19836188172663" lon="11.502499569308549"><ele>251.0</ele><time>2026-04-26T12:10:49.001Z</time></trkpt><trkpt lat="44.19821614107657" lon="11.502352534334044"><ele>251.0</ele><time>2026-04-26T12:10:50.001Z</time></trkpt><trkpt lat="44.198071366402004" lon="11.502211118869338"><ele>251.0</ele><time>2026-04-26T12:10:51.001Z</time></trkpt><trkpt lat="44.197933373875685" lon="11.50209346858619"><ele>256.25</ele><time>2026-04-26T12:10:52.001Z</time></trkpt><trkpt lat="44.19780923173668" lon="11.502001390295296"><ele>261.5</ele><time>2026-04-26T12:10:53.001Z</time></trkpt><trkpt lat="44.19770444583831" lon="11.50194142624836"><ele>266.75</ele><time>2026-04-26T12:10:54.001Z</time></trkpt><trkpt lat="44.19760144363368" lon="11.50186878598986"><ele>272.0</ele><time>2026-04-26T12:10:55.001Z</time></trkpt><trkpt lat="44.197480539068025" lon="11.501875084354559"><ele>272.0</ele><time>2026-04-26T12:10:56.001Z</time></trkpt><trkpt lat="44.19736036467796" lon="11.502005197793752"><ele>272.0</ele><time>2026-04-26T12:10:57.001Z</time></trkpt><trkpt lat="44.1972328374203" lon="11.50216514518597"><ele>272.0</ele><time>2026-04-26T12:10:58.001Z</time></trkpt><trkpt lat="44.19711379544422" lon="11.502290725421782"><ele>265.0</ele><time>2026-04-26T12:10:59.001Z</time></trkpt><trkpt lat="44.196996369267914" lon="11.502376764208806"><ele>258.0</ele><time>2026-04-26T12:11:00.001Z</time></trkpt><trkpt lat="44.19686441101018" lon="11.50242245526093"><ele>251.0</ele><time>2026-04-26T12:11:01.001Z</time></trkpt><trkpt lat="44.19671238360485" lon="11.502438021308864"><ele>244.0</ele><time>2026-04-26T12:11:02.001Z</time></trkpt><trkpt lat="44.1965542390051" lon="11.502410651017888"><ele>235.66666666666666</ele><time>2026-04-26T12:11:03.001Z</time></trkpt><trkpt lat="44.196398560785305" lon="11.502326212920206"><ele>227.33333333333331</ele><time>2026-04-26T12:11:04.001Z</time></trkpt><trkpt lat="44.19625891088122" lon="11.502216135240284"><ele>219.0</ele><time>2026-04-26T12:11:05Z</time></trkpt><trkpt lat="44.19612598589508" lon="11.502122295990425"><ele>224.75</ele><time>2026-04-26T12:11:06Z</time></trkpt><trkpt lat="44.19601379322919" lon="11.502035646025305"><ele>230.5</ele><time>2026-04-26T12:11:07Z</time></trkpt><trkpt lat="44.195910138956" lon="11.501940470967467"><ele>236.25</ele><time>2026-04-26T12:11:08Z</time></trkpt><trkpt lat="44.19581737123252" lon="11.501828827431083"><ele>242.0</ele><time>2026-04-26T12:11:09Z</time></trkpt><trkpt lat="44.195756875576514" lon="11.501683773771948"><ele>242.0</ele><time>2026-04-26T12:11:10Z</time></trkpt><trkpt lat="44.195729727906134" lon="11.501505370646228"><ele>242.0</ele><time>2026-04-26T12:11:11Z</time></trkpt><trkpt lat="44.19572994598306" lon="11.501276432802094"><ele>242.0</ele><time>2026-04-26T12:11:12Z</time></trkpt><trkpt lat="44.19573544260705" lon="11.501050773877397"><ele>243.75</ele><time>2026-04-26T12:11:13Z</time></trkpt><trkpt lat="44.1957354362531" lon="11.500850087544707"><ele>245.5</ele><time>2026-04-26T12:11:14Z</time></trkpt><trkpt lat="44.1957244766873" lon="11.50066577296214"><ele>247.25</ele><time>2026-04-26T12:11:15Z</time></trkpt><trkpt lat="44.195688332301884" lon="11.500496072976468"><ele>249.0</ele><time>2026-04-26T12:11:16Z</time></trkpt><trkpt lat="44.19563064497145" lon="11.500377666162649"><ele>249.0</ele><time>2026-04-26T12:11:17Z</time></trkpt><trkpt lat="44.195557295862635" lon="11.500311669792668"><ele>248.99999999999997</ele><time>2026-04-26T12:11:18Z</time></trkpt><trkpt lat="44.19546457182425" lon="11.500306009111362"><ele>248.99999999999997</ele><time>2026-04-26T12:11:19Z</time></trkpt><trkpt lat="44.19536707186983" lon="11.500371390287032"><ele>249.0</ele><time>2026-04-26T12:11:20Z</time></trkpt><trkpt lat="44.19526312893473" lon="11.50047107962214"><ele>249.0</ele><time>2026-04-26T12:11:21Z</time></trkpt><trkpt lat="44.195147035378696" lon="11.500514713575244"><ele>249.0</ele><time>2026-04-26T12:11:22Z</time></trkpt><trkpt lat="44.195053829236336" lon="11.500516744873366"><ele>248.99999999999997</ele><time>2026-04-26T12:11:23Z</time></trkpt><trkpt lat="44.19497633892903" lon="11.500460445629981"><ele>248.99999999999997</ele><time>2026-04-26T12:11:24Z</time></trkpt><trkpt lat="44.194894084087935" lon="11.500347564661007"><ele>249.0</ele><time>2026-04-26T12:11:25Z</time></trkpt><trkpt lat="44.19480259782466" lon="11.500218637700137"><ele>249.0</ele><time>2026-04-26T12:11:26Z</time></trkpt><trkpt lat="44.194704318106965" lon="11.500108279918647"><ele>251.0</ele><time>2026-04-26T12:11:27Z</time></trkpt><trkpt lat="44.19457843167994" lon="11.50008756487737"><ele>253.0</ele><time>2026-04-26T12:11:28Z</time></trkpt><trkpt lat="44.19443773092109" lon="11.500126816939932"><ele>255.0</ele><time>2026-04-26T12:11:29Z</time></trkpt><trkpt lat="44.19430054838362" lon="11.500166245128435"><ele>257.0</ele><time>2026-04-26T12:11:30Z</time></trkpt><trkpt lat="44.19417117812661" lon="11.500217932652339"><ele>257.0</ele><time>2026-04-26T12:11:31Z</time></trkpt><trkpt lat="44.19403090265092" lon="11.500272101293854"><ele>257.0</ele><time>2026-04-26T12:11:32Z</time></trkpt><trkpt lat="44.193890885251214" lon="11.500338064883902"><ele>257.0</ele><time>2026-04-26T12:11:33Z</time></trkpt><trkpt lat="44.193753229768724" lon="11.500380654428264"><ele>257.0</ele><time>2026-04-26T12:11:34Z</time></trkpt><trkpt lat="44.19360334029498" lon="11.500391020457904"><ele>258.0</ele><time>2026-04-26T12:11:35Z</time></trkpt><trkpt lat="44.19343585374336" lon="11.500350691173452"><ele>259.0</ele><time>2026-04-26T12:11:36Z</time></trkpt><trkpt lat="44.19325084890635" lon="11.500345198343613"><ele>260.0</ele><time>2026-04-26T12:11:37Z</time></trkpt><trkpt lat="44.1930871686204" lon="11.500352922534985"><ele>256.0</ele><time>2026-04-26T12:11:38Z</time></trkpt><trkpt lat="44.19293121590666" lon="11.500341245739978"><ele>252.0</ele><time>2026-04-26T12:11:39Z</time></trkpt><trkpt lat="44.19277178814452" lon="11.50032738846129"><ele>248.0</ele><time>2026-04-26T12:11:40Z</time></trkpt><trkpt lat="44.19262151554476" lon="11.500257583228377"><ele>248.0</ele><time>2026-04-26T12:11:41Z</time></trkpt><trkpt lat="44.19248459831172" lon="11.500159099528883"><ele>248.0</ele><time>2026-04-26T12:11:42Z</time></trkpt><trkpt lat="44.192365285479845" lon="11.500097099406842"><ele>248.0</ele><time>2026-04-26T12:11:43Z</time></trkpt><trkpt lat="44.192254272649784" lon="11.50005310613143"><ele>248.0</ele><time>2026-04-26T12:11:44Z</time></trkpt><trkpt lat="44.19214083797562" lon="11.500106298352865"><ele>249.0</ele><time>2026-04-26T12:11:45Z</time></trkpt><trkpt lat="44.19205393325794" lon="11.500223206382593"><ele>250.0</ele><time>2026-04-26T12:11:46Z</time></trkpt><trkpt lat="44.191954597316986" lon="11.50035434852456"><ele>251.0</ele><time>2026-04-26T12:11:47Z</time></trkpt><trkpt lat="44.19185371706764" lon="11.500492421939063"><ele>252.0</ele><time>2026-04-26T12:11:48Z</time></trkpt><trkpt lat="44.19170572137176" lon="11.500545505994706"><ele>241.66666666666669</ele><time>2026-04-26T12:11:49Z</time></trkpt><trkpt lat="44.19154556226087" lon="11.500544131564537"><ele>231.33333333333334</ele><time>2026-04-26T12:11:50Z</time></trkpt><trkpt lat="44.191399915685906" lon="11.500506434161137"><ele>221.0</ele><time>2026-04-26T12:11:51Z</time></trkpt><trkpt lat="44.19125478309164" lon="11.500421562111077"><ele>222.0</ele><time>2026-04-26T12:11:52Z</time></trkpt><trkpt lat="44.19111801710235" lon="11.50031804777763"><ele>223.0</ele><time>2026-04-26T12:11:53.001Z</time></trkpt><trkpt lat="44.1909802481018" lon="11.500184337151705"><ele>224.0</ele><time>2026-04-26T12:11:54.001Z</time></trkpt><trkpt lat="44.19084941077174" lon="11.50004896707544"><ele>224.0</ele><time>2026-04-26T12:11:55.001Z</time></trkpt><trkpt lat="44.19071443552607" lon="11.499931537095575"><ele>224.0</ele><time>2026-04-26T12:11:56.001Z</time></trkpt><trkpt lat="44.190584454233225" lon="11.499830238951754"><ele>224.0</ele><time>2026-04-26T12:11:57.001Z</time></trkpt><trkpt lat="44.19045363026105" lon="11.499746742987497"><ele>221.25</ele><time>2026-04-26T12:11:58.001Z</time></trkpt><trkpt lat="44.19032172146565" lon="11.4996597377261"><ele>218.5</ele><time>2026-04-26T12:11:59.001Z</time></trkpt><trkpt lat="44.1901860402582" lon="11.499587587167788"><ele>215.75</ele><time>2026-04-26T12:12:00.001Z</time></trkpt><trkpt lat="44.19004593261782" lon="11.499520730240887"><ele>213.0</ele><time>2026-04-26T12:12:01.001Z</time></trkpt><trkpt lat="44.189911145713694" lon="11.499466524218173"><ele>216.75</ele><time>2026-04-26T12:12:02.001Z</time></trkpt><trkpt lat="44.18977010467714" lon="11.49945054853841"><ele>220.5</ele><time>2026-04-26T12:12:03.001Z</time></trkpt><trkpt lat="44.18962395295078" lon="11.499498231142805"><ele>224.25</ele><time>2026-04-26T12:12:04.001Z</time></trkpt><trkpt lat="44.1894824969633" lon="11.49958964242098"><ele>228.0</ele><time>2026-04-26T12:12:05.001Z</time></trkpt><trkpt lat="44.18934240358954" lon="11.499708665938087"><ele>228.0</ele><time>2026-04-26T12:12:06.001Z</time></trkpt><trkpt lat="44.18919086088807" lon="11.49979561315551"><ele>228.0</ele><time>2026-04-26T12:12:07.001Z</time></trkpt><trkpt lat="44.18907734694677" lon="11.499944825156065"><ele>228.0</ele><time>2026-04-26T12:12:08.001Z</time></trkpt><trkpt lat="44.188966679261014" lon="11.500106375498083"><ele>225.0</ele><time>2026-04-26T12:12:09.001Z</time></trkpt><trkpt lat="44.18887624187696" lon="11.5002860134661"><ele>222.0</ele><time>2026-04-26T12:12:10.001Z</time></trkpt><trkpt lat="44.1887843629348" lon="11.500458797538085"><ele>219.0</ele><time>2026-04-26T12:12:11.001Z</time></trkpt><trkpt lat="44.18870699419609" lon="11.50063290712256"><ele>219.0</ele><time>2026-04-26T12:12:12.001Z</time></trkpt><trkpt lat="44.18861974550906" lon="11.500790260358373"><ele>219.0</ele><time>2026-04-26T12:12:13.001Z</time></trkpt><trkpt lat="44.188557522781025" lon="11.500958415580916"><ele>219.0</ele><time>2026-04-26T12:12:14.001Z</time></trkpt><trkpt lat="44.18850308343301" lon="11.50111209724622"><ele>219.0</ele><time>2026-04-26T12:12:15.001Z</time></trkpt><trkpt lat="44.18845053578071" lon="11.50126520587657"><ele>216.6</ele><time>2026-04-26T12:12:16.001Z</time></trkpt><trkpt lat="44.18839523871465" lon="11.501401680478198"><ele>214.2</ele><time>2026-04-26T12:12:17.001Z</time></trkpt><trkpt lat="44.188339008230464" lon="11.501516934245018"><ele>211.79999999999998</ele><time>2026-04-26T12:12:18.001Z</time></trkpt><trkpt lat="44.18824311195133" lon="11.501551169324532"><ele>209.39999999999998</ele><time>2026-04-26T12:12:19.001Z</time></trkpt><trkpt lat="44.18813759842488" lon="11.501548514826215"><ele>207.0</ele><time>2026-04-26T12:12:20.001Z</time></trkpt><trkpt lat="44.18801005758085" lon="11.501542987418048"><ele>206.0</ele><time>2026-04-26T12:12:21.001Z</time></trkpt><trkpt lat="44.1878615230305" lon="11.501564742100967"><ele>205.0</ele><time>2026-04-26T12:12:22.001Z</time></trkpt><trkpt lat="44.18772263081499" lon="11.501543870902985"><ele>204.0</ele><time>2026-04-26T12:12:23.001Z</time></trkpt><trkpt lat="44.18757269783718" lon="11.501541922312738"><ele>203.0</ele><time>2026-04-26T12:12:24.001Z</time></trkpt><trkpt lat="44.18744326953961" lon="11.501540240211586"><ele>210.75</ele><time>2026-04-26T12:12:25.001Z</time></trkpt><trkpt lat="44.187320626120304" lon="11.50154066450897"><ele>218.5</ele><time>2026-04-26T12:12:26.001Z</time></trkpt><trkpt lat="44.1872044512778" lon="11.501541887724668"><ele>226.25</ele><time>2026-04-26T12:12:27.001Z</time></trkpt><trkpt lat="44.1870919867085" lon="11.501543071871852"><ele>234.0</ele><time>2026-04-26T12:12:28.001Z</time></trkpt><trkpt lat="44.18699183384353" lon="11.501542417284352"><ele>234.0</ele><time>2026-04-26T12:12:29.001Z</time></trkpt><trkpt lat="44.186916121952535" lon="11.501539499683338"><ele>233.99999999999997</ele><time>2026-04-26T12:12:30.001Z</time></trkpt><trkpt lat="44.186789705297834" lon="11.501510600179845"><ele>233.99999999999997</ele><time>2026-04-26T12:12:32.001Z</time></trkpt><trkpt lat="44.186715233655804" lon="11.501505053609815"><ele>234.0</ele><time>2026-04-26T12:12:34.001Z</time></trkpt><trkpt lat="44.18667444470829" lon="11.501696708404006"><ele>234.0</ele><time>2026-04-26T12:12:35.001Z</time></trkpt><trkpt lat="44.186658441706975" lon="11.501790923809844"><ele>234.0</ele><time>2026-04-26T12:12:36.001Z</time></trkpt><trkpt lat="44.18665313799178" lon="11.501887925397149"><ele>234.0</ele><time>2026-04-26T12:12:37.001Z</time></trkpt><trkpt lat="44.186674946294865" lon="11.501985504537537"><ele>234.0</ele><time>2026-04-26T12:12:38.001Z</time></trkpt><trkpt lat="44.186676981450255" lon="11.502076256865317"><ele>234.0</ele><time>2026-04-26T12:12:39.001Z</time></trkpt><trkpt lat="44.18672349895504" lon="11.50223509369576"><ele>234.0</ele><time>2026-04-26T12:12:41.001Z</time></trkpt><trkpt lat="44.18676998918941" lon="11.502320674802553"><ele>234.0</ele><time>2026-04-26T12:12:42.001Z</time></trkpt><trkpt lat="44.186833948235154" lon="11.502407988702672"><ele>234.2</ele><time>2026-04-26T12:12:43.001Z</time></trkpt><trkpt lat="44.18693160000613" lon="11.502554927805376"><ele>234.39999999999998</ele><time>2026-04-26T12:12:45.001Z</time></trkpt><trkpt lat="44.187000087431976" lon="11.502639011411075"><ele>234.6</ele><time>2026-04-26T12:12:46.001Z</time></trkpt><trkpt lat="44.187066102761975" lon="11.502719832009639"><ele>234.8</ele><time>2026-04-26T12:12:47.001Z</time></trkpt><trkpt lat="44.187121804240064" lon="11.502765908692604"><ele>235.0</ele><time>2026-04-26T12:12:48.001Z</time></trkpt><trkpt lat="44.18716941169187" lon="11.502830830395862"><ele>234.99999999999997</ele><time>2026-04-26T12:12:49.001Z</time></trkpt><trkpt lat="44.18721909708326" lon="11.50290101104692"><ele>235.0</ele><time>2026-04-26T12:12:50.001Z</time></trkpt><trkpt lat="44.18729290155566" lon="11.502980970838493"><ele>235.0</ele><time>2026-04-26T12:12:52.001Z</time></trkpt><trkpt lat="44.18738325294833" lon="11.503049388933343"><ele>235.0</ele><time>2026-04-26T12:12:54.001Z</time></trkpt><trkpt lat="44.18742976109112" lon="11.503110837895704"><ele>234.99999999999997</ele><time>2026-04-26T12:12:56.001Z</time></trkpt><trkpt lat="44.18751109948615" lon="11.503020857680683"><ele>235.0</ele><time>2026-04-26T12:12:58.001Z</time></trkpt><trkpt lat="44.187464729051655" lon="11.502907231559615"><ele>234.99999999999997</ele><time>2026-04-26T12:12:59.001Z</time></trkpt><trkpt lat="44.18743507397148" lon="11.502804983033977"><ele>235.0</ele><time>2026-04-26T12:13:01.001Z</time></trkpt><trkpt lat="44.1873795715966" lon="11.502747478469093"><ele>235.0</ele><time>2026-04-26T12:13:03.001Z</time></trkpt><trkpt lat="44.18742459448877" lon="11.50264873533482"><ele>235.0</ele><time>2026-04-26T12:13:04.001Z</time></trkpt><trkpt lat="44.18736445941578" lon="11.502560510989072"><ele>234.99999999999997</ele><time>2026-04-26T12:13:06.001Z</time></trkpt><trkpt lat="44.18728093209289" lon="11.502523080419307"><ele>235.0</ele><time>2026-04-26T12:13:09.001Z</time></trkpt><trkpt lat="44.187192645082355" lon="11.50252482972027"><ele>235.0</ele><time>2026-04-26T12:13:27Z</time></trkpt><trkpt lat="44.187197809605564" lon="11.502292319765605"><ele>235.0</ele><time>2026-04-26T12:15:48Z</time></trkpt></trkseg></trk></gpx>